<?xml version='1.0' encoding='UTF-8'?><gpx version="1.1" creator="JPX - https://github.com/jenetics/jpx" xmlns="http://www.topografix.com/GPX/1/1"><trk><trkseg><trkpt lat="45.5545528801579" lon="8.641095285209234"><ele>188.0</ele><time>2026-04-04T08:19:58Z</time></trkpt><trkpt lat="45.5546398170672" lon="8.64112651021172"><ele>188.0</ele><time>2026-04-04T08:20:02Z</time></trkpt><trkpt lat="45.554699875610005" lon="8.641192332268284"><ele>188.0</ele><time>2026-04-04T08:20:03Z</time></trkpt><trkpt lat="45.5548164086823" lon="8.641277117973482"><ele>188.0</ele><time>2026-04-04T08:20:04Z</time></trkpt><trkpt lat="45.55475992221783" lon="8.641168171747138"><ele>188.0</ele><time>2026-04-04T08:20:05Z</time></trkpt><trkpt lat="45.55481209556528" lon="8.64110398391869"><ele>188.0</ele><time>2026-04-04T08:20:08Z</time></trkpt><trkpt lat="45.55483317668078" lon="8.641005534099396"><ele>188.0</ele><time>2026-04-04T08:20:09Z</time></trkpt><trkpt lat="45.55483974665618" lon="8.64087543280746"><ele>188.0</ele><time>2026-04-04T08:20:10Z</time></trkpt><trkpt lat="45.55484066247095" lon="8.640735935677881"><ele>188.0</ele><time>2026-04-04T08:20:11Z</time></trkpt><trkpt lat="45.55485962468825" lon="8.640621199633024"><ele>188.0</ele><time>2026-04-04T08:20:12Z</time></trkpt><trkpt lat="45.55488321105879" lon="8.64052622899055"><ele>188.0</ele><time>2026-04-04T08:20:13Z</time></trkpt><trkpt lat="45.55487906810124" lon="8.640419502275428"><ele>188.0</ele><time>2026-04-04T08:20:14.999Z</time></trkpt><trkpt lat="45.55479085616782" lon="8.640325159936507"><ele>188.0</ele><time>2026-04-04T08:20:16.999Z</time></trkpt><trkpt lat="45.5546859839932" lon="8.640294879321427"><ele>188.0</ele><time>2026-04-04T08:20:17.999Z</time></trkpt><trkpt lat="45.55455608957605" lon="8.640278419180403"><ele>188.0</ele><time>2026-04-04T08:20:18.999Z</time></trkpt><trkpt lat="45.55439118127795" lon="8.640235083881246"><ele>188.33333333333331</ele><time>2026-04-04T08:20:19.999Z</time></trkpt><trkpt lat="45.554213035336296" lon="8.640210376556986"><ele>188.66666666666666</ele><time>2026-04-04T08:20:20.999Z</time></trkpt><trkpt lat="45.55402440162561" lon="8.640169880621984"><ele>189.0</ele><time>2026-04-04T08:20:21.999Z</time></trkpt><trkpt lat="45.5538215362536" lon="8.640148672628898"><ele>188.33333333333334</ele><time>2026-04-04T08:20:22.999Z</time></trkpt><trkpt lat="45.55361935839818" lon="8.640121727374197"><ele>187.66666666666669</ele><time>2026-04-04T08:20:23.999Z</time></trkpt><trkpt lat="45.55342189764836" lon="8.64009755515702"><ele>187.0</ele><time>2026-04-04T08:20:24.999Z</time></trkpt><trkpt lat="45.55325577665093" lon="8.640073091480764"><ele>187.0</ele><time>2026-04-04T08:20:25.999Z</time></trkpt><trkpt lat="45.55310369273626" lon="8.640047504059272"><ele>187.0</ele><time>2026-04-04T08:20:26.999Z</time></trkpt><trkpt lat="45.552965555654204" lon="8.640026137930263"><ele>187.0</ele><time>2026-04-04T08:20:27.999Z</time></trkpt><trkpt lat="45.552841220320595" lon="8.640009666167652"><ele>187.0</ele><time>2026-04-04T08:20:28.999Z</time></trkpt><trkpt lat="45.552726791199134" lon="8.639997671456614"><ele>186.25</ele><time>2026-04-04T08:20:29.999Z</time></trkpt><trkpt lat="45.552620193103635" lon="8.639981434310013"><ele>185.5</ele><time>2026-04-04T08:20:30.999Z</time></trkpt><trkpt lat="45.55250271510839" lon="8.639962322181805"><ele>184.75</ele><time>2026-04-04T08:20:31.999Z</time></trkpt><trkpt lat="45.552368219342526" lon="8.639940121069314"><ele>184.0</ele><time>2026-04-04T08:20:32.999Z</time></trkpt><trkpt lat="45.55222339997876" lon="8.639917063760095"><ele>184.0</ele><time>2026-04-04T08:20:33.999Z</time></trkpt><trkpt lat="45.55208089966249" lon="8.639890825971428"><ele>184.0</ele><time>2026-04-04T08:20:34.999Z</time></trkpt><trkpt lat="45.55197097046516" lon="8.639848864941946"><ele>184.0</ele><time>2026-04-04T08:20:35.999Z</time></trkpt><trkpt lat="45.55190605426308" lon="8.63978013970062"><ele>184.0</ele><time>2026-04-04T08:20:36.999Z</time></trkpt><trkpt lat="45.55186954072989" lon="8.639652126020653"><ele>184.0</ele><time>2026-04-04T08:20:38.999Z</time></trkpt><trkpt lat="45.551837667609455" lon="8.639517907633472"><ele>183.79999999999998</ele><time>2026-04-04T08:20:41.999Z</time></trkpt><trkpt lat="45.55185947284285" lon="8.639330106561282"><ele>183.6</ele><time>2026-04-04T08:20:43.999Z</time></trkpt><trkpt lat="45.551919933788284" lon="8.63922737662713"><ele>183.4</ele><time>2026-04-04T08:20:44.999Z</time></trkpt><trkpt lat="45.55198801514805" lon="8.639143306126059"><ele>183.2</ele><time>2026-04-04T08:20:45.999Z</time></trkpt><trkpt lat="45.55205035569206" lon="8.639031870664471"><ele>183.0</ele><time>2026-04-04T08:20:46.999Z</time></trkpt><trkpt lat="45.55218876191277" lon="8.639002324126052"><ele>183.0</ele><time>2026-04-04T08:20:47.999Z</time></trkpt><trkpt lat="45.55233113584962" lon="8.638923574208684"><ele>183.0</ele><time>2026-04-04T08:20:48.999Z</time></trkpt><trkpt lat="45.55250634442448" lon="8.63882669803472"><ele>183.0</ele><time>2026-04-04T08:20:49.999Z</time></trkpt><trkpt lat="45.552702086825214" lon="8.638735448233009"><ele>183.5</ele><time>2026-04-04T08:20:50.999Z</time></trkpt><trkpt lat="45.55291365612507" lon="8.638638948882019"><ele>184.0</ele><time>2026-04-04T08:20:51.999Z</time></trkpt><trkpt lat="45.55312771647672" lon="8.638519296640442"><ele>183.0</ele><time>2026-04-04T08:20:52.999Z</time></trkpt><trkpt lat="45.553354938395856" lon="8.638389556458106"><ele>182.0</ele><time>2026-04-04T08:20:53.999Z</time></trkpt><trkpt lat="45.553595724387385" lon="8.638261472250415"><ele>182.5</ele><time>2026-04-04T08:20:54.999Z</time></trkpt><trkpt lat="45.553846708247775" lon="8.638127484395715"><ele>183.0</ele><time>2026-04-04T08:20:55.999Z</time></trkpt><trkpt lat="45.55410241231472" lon="8.637990536266193"><ele>183.0</ele><time>2026-04-04T08:20:56.999Z</time></trkpt><trkpt lat="45.55436028664631" lon="8.63785220548806"><ele>183.0</ele><time>2026-04-04T08:20:57.999Z</time></trkpt><trkpt lat="45.554622508838236" lon="8.637710421007519"><ele>182.5</ele><time>2026-04-04T08:20:58.999Z</time></trkpt><trkpt lat="45.55488506104721" lon="8.637568014405982"><ele>182.0</ele><time>2026-04-04T08:20:59.999Z</time></trkpt><trkpt lat="45.55515338762982" lon="8.637418911272134"><ele>183.5</ele><time>2026-04-04T08:21:00.999Z</time></trkpt><trkpt lat="45.555419686288566" lon="8.637269769899405"><ele>185.0</ele><time>2026-04-04T08:21:01.999Z</time></trkpt><trkpt lat="45.55568687128451" lon="8.637122764994189"><ele>185.0</ele><time>2026-04-04T08:21:02.999Z</time></trkpt><trkpt lat="45.55595646858319" lon="8.636975038727053"><ele>185.0</ele><time>2026-04-04T08:21:03.999Z</time></trkpt><trkpt lat="45.55622670987624" lon="8.636824737826725"><ele>186.0</ele><time>2026-04-04T08:21:04.999Z</time></trkpt><trkpt lat="45.55648892592398" lon="8.636673776226665"><ele>187.0</ele><time>2026-04-04T08:21:05.999Z</time></trkpt><trkpt lat="45.55674757312535" lon="8.636526444589387"><ele>187.0</ele><time>2026-04-04T08:21:06.999Z</time></trkpt><trkpt lat="45.557013316247655" lon="8.6363775969394"><ele>187.0</ele><time>2026-04-04T08:21:07.999Z</time></trkpt><trkpt lat="45.55727052462649" lon="8.636247134759094"><ele>190.0</ele><time>2026-04-04T08:21:08.999Z</time></trkpt><trkpt lat="45.55752527516808" lon="8.636123661893816"><ele>193.0</ele><time>2026-04-04T08:21:09.999Z</time></trkpt><trkpt lat="45.557785185306884" lon="8.63599316441662"><ele>193.5</ele><time>2026-04-04T08:21:10.999Z</time></trkpt><trkpt lat="45.55804055536257" lon="8.635866510632077"><ele>194.0</ele><time>2026-04-04T08:21:11.999Z</time></trkpt><trkpt lat="45.55830683695637" lon="8.635743233653358"><ele>194.0</ele><time>2026-04-04T08:21:12.999Z</time></trkpt><trkpt lat="45.558573060244086" lon="8.635632817107243"><ele>194.0</ele><time>2026-04-04T08:21:13.999Z</time></trkpt><trkpt lat="45.55883896960324" lon="8.635534706726116"><ele>192.5</ele><time>2026-04-04T08:21:14.999Z</time></trkpt><trkpt lat="45.55910657828406" lon="8.635451217576787"><ele>191.0</ele><time>2026-04-04T08:21:15.999Z</time></trkpt><trkpt lat="45.55937435078585" lon="8.635376838610815"><ele>193.0</ele><time>2026-04-04T08:21:16.999Z</time></trkpt><trkpt lat="45.55964139192265" lon="8.635313883997531"><ele>195.0</ele><time>2026-04-04T08:21:17.999Z</time></trkpt><trkpt lat="45.55990912022132" lon="8.635258223084916"><ele>201.5</ele><time>2026-04-04T08:21:18.999Z</time></trkpt><trkpt lat="45.56017246676817" lon="8.635214962089771"><ele>208.0</ele><time>2026-04-04T08:21:19.999Z</time></trkpt><trkpt lat="45.560455223059364" lon="8.635175105332697"><ele>209.5</ele><time>2026-04-04T08:21:20.999Z</time></trkpt><trkpt lat="45.56075607949242" lon="8.63515052880093"><ele>211.0</ele><time>2026-04-04T08:21:21.999Z</time></trkpt><trkpt lat="45.56105715424236" lon="8.635126346359955"><ele>212.5</ele><time>2026-04-04T08:21:22.999Z</time></trkpt><trkpt lat="45.5613512489294" lon="8.635097140740125"><ele>214.0</ele><time>2026-04-04T08:21:23.999Z</time></trkpt><trkpt lat="45.56164300706985" lon="8.635064276434976"><ele>214.0</ele><time>2026-04-04T08:21:24.999Z</time></trkpt><trkpt lat="45.561938009771005" lon="8.63503215076557"><ele>214.0</ele><time>2026-04-04T08:21:25.999Z</time></trkpt><trkpt lat="45.56223115987408" lon="8.634998133803203"><ele>213.5</ele><time>2026-04-04T08:21:26.999Z</time></trkpt><trkpt lat="45.56252532706854" lon="8.634971323750303"><ele>213.0</ele><time>2026-04-04T08:21:27.999Z</time></trkpt><trkpt lat="45.56281383230355" lon="8.634942224686567"><ele>212.0</ele><time>2026-04-04T08:21:28.999Z</time></trkpt><trkpt lat="45.563109750535496" lon="8.634912525925435"><ele>211.0</ele><time>2026-04-04T08:21:29.999Z</time></trkpt><trkpt lat="45.56339832018595" lon="8.634882220359158"><ele>211.0</ele><time>2026-04-04T08:21:30.999Z</time></trkpt><trkpt lat="45.56369419830153" lon="8.634851645062954"><ele>211.0</ele><time>2026-04-04T08:21:31.999Z</time></trkpt><trkpt lat="45.56398800614748" lon="8.634822333182592"><ele>212.5</ele><time>2026-04-04T08:21:32.999Z</time></trkpt><trkpt lat="45.56427316329951" lon="8.634789852388426"><ele>214.0</ele><time>2026-04-04T08:21:33.999Z</time></trkpt><trkpt lat="45.56453190428121" lon="8.634763966499623"><ele>214.33333333333331</ele><time>2026-04-04T08:21:34.999Z</time></trkpt><trkpt lat="45.56475660079045" lon="8.634750313042902"><ele>214.66666666666669</ele><time>2026-04-04T08:21:35.999Z</time></trkpt><trkpt lat="45.56494983675442" lon="8.634750895787983"><ele>215.0</ele><time>2026-04-04T08:21:36.999Z</time></trkpt><trkpt lat="45.56511610619916" lon="8.634749004812242"><ele>215.0</ele><time>2026-04-04T08:21:37.999Z</time></trkpt><trkpt lat="45.565260793793875" lon="8.634739258785894"><ele>215.0</ele><time>2026-04-04T08:21:38.999Z</time></trkpt><trkpt lat="45.56537628545312" lon="8.63474164238061"><ele>215.0</ele><time>2026-04-04T08:21:39.999Z</time></trkpt><trkpt lat="45.56546012065671" lon="8.634775205993389"><ele>215.0</ele><time>2026-04-04T08:21:40.999Z</time></trkpt><trkpt lat="45.56552999629821" lon="8.634831163690745"><ele>215.0</ele><time>2026-04-04T08:21:41.999Z</time></trkpt><trkpt lat="45.565588664013625" lon="8.634870553688307"><ele>215.16666666666669</ele><time>2026-04-04T08:21:42.999Z</time></trkpt><trkpt lat="45.56567764596269" lon="8.634807078418493"><ele>215.33333333333334</ele><time>2026-04-04T08:21:44.999Z</time></trkpt><trkpt lat="45.56570934138911" lon="8.634884973326345"><ele>215.5</ele><time>2026-04-04T08:21:45.999Z</time></trkpt><trkpt lat="45.5658063676122" lon="8.634879266851515"><ele>215.66666666666669</ele><time>2026-04-04T08:25:00Z</time></trkpt><trkpt lat="45.56586440009893" lon="8.634824480406444"><ele>215.83333333333334</ele><time>2026-04-04T08:25:11.999Z</time></trkpt><trkpt lat="45.56595527011355" lon="8.634728179986892"><ele>216.0</ele><time>2026-04-04T08:25:13.999Z</time></trkpt><trkpt lat="45.56601087260685" lon="8.63466063724953"><ele>216.0</ele><time>2026-04-04T08:25:15.999Z</time></trkpt><trkpt lat="45.56604950819675" lon="8.634570459979859"><ele>216.0</ele><time>2026-04-04T08:25:17.999Z</time></trkpt><trkpt lat="45.56621913559199" lon="8.634610300971604"><ele>216.0</ele><time>2026-04-04T08:25:18.999Z</time></trkpt><trkpt lat="45.56639068618511" lon="8.634588585053784"><ele>216.0</ele><time>2026-04-04T08:25:19.999Z</time></trkpt><trkpt lat="45.56660923212779" lon="8.634568338635216"><ele>216.0</ele><time>2026-04-04T08:25:20.999Z</time></trkpt><trkpt lat="45.566839293228554" lon="8.634548932354926"><ele>216.0</ele><time>2026-04-04T08:25:21.999Z</time></trkpt><trkpt lat="45.56710048675623" lon="8.634520290285208"><ele>216.0</ele><time>2026-04-04T08:25:22.999Z</time></trkpt><trkpt lat="45.56734418890923" lon="8.634495900890029"><ele>216.0</ele><time>2026-04-04T08:25:23.999Z</time></trkpt><trkpt lat="45.56757748428182" lon="8.634471714287532"><ele>215.33333333333331</ele><time>2026-04-04T08:25:24.999Z</time></trkpt><trkpt lat="45.5677871536154" lon="8.634451474947245"><ele>214.66666666666666</ele><time>2026-04-04T08:25:25.999Z</time></trkpt><trkpt lat="45.567982357069376" lon="8.634430177454876"><ele>214.0</ele><time>2026-04-04T08:25:26.999Z</time></trkpt><trkpt lat="45.5681793859601" lon="8.634409615960847"><ele>214.0</ele><time>2026-04-04T08:25:27.999Z</time></trkpt><trkpt lat="45.568384334192054" lon="8.634386716003183"><ele>214.0</ele><time>2026-04-04T08:25:28.999Z</time></trkpt><trkpt lat="45.568584632160665" lon="8.634368801079487"><ele>214.0</ele><time>2026-04-04T08:25:29.999Z</time></trkpt><trkpt lat="45.56878813227307" lon="8.634344760455383"><ele>214.33333333333331</ele><time>2026-04-04T08:25:30.999Z</time></trkpt><trkpt lat="45.568976660525266" lon="8.634322370642305"><ele>214.66666666666669</ele><time>2026-04-04T08:25:31.999Z</time></trkpt><trkpt lat="45.56917423102576" lon="8.634300411986752"><ele>215.0</ele><time>2026-04-04T08:25:32.999Z</time></trkpt><trkpt lat="45.56936664609365" lon="8.634279498110683"><ele>214.66666666666669</ele><time>2026-04-04T08:25:33.999Z</time></trkpt><trkpt lat="45.569556566608355" lon="8.634258641001953"><ele>214.33333333333331</ele><time>2026-04-04T08:25:34.999Z</time></trkpt><trkpt lat="45.569748862528854" lon="8.63424052995979"><ele>214.0</ele><time>2026-04-04T08:25:35.999Z</time></trkpt><trkpt lat="45.569940007835356" lon="8.63422428929107"><ele>214.0</ele><time>2026-04-04T08:25:36.999Z</time></trkpt><trkpt lat="45.5701330543596" lon="8.634206659033898"><ele>214.0</ele><time>2026-04-04T08:25:37.999Z</time></trkpt><trkpt lat="45.57032680139744" lon="8.634189946495955"><ele>214.0</ele><time>2026-04-04T08:25:38.999Z</time></trkpt><trkpt lat="45.570523652977826" lon="8.634171197994053"><ele>215.0</ele><time>2026-04-04T08:25:39.999Z</time></trkpt><trkpt lat="45.57071502162815" lon="8.634151332004727"><ele>216.0</ele><time>2026-04-04T08:25:40.999Z</time></trkpt><trkpt lat="45.57091210917104" lon="8.634134969473292"><ele>217.0</ele><time>2026-04-04T08:25:41.999Z</time></trkpt><trkpt lat="45.57110522737797" lon="8.63411693104245"><ele>217.66666666666666</ele><time>2026-04-04T08:25:42.999Z</time></trkpt><trkpt lat="45.57129712279827" lon="8.634097873484606"><ele>218.33333333333331</ele><time>2026-04-04T08:25:43.999Z</time></trkpt><trkpt lat="45.571492885596754" lon="8.634079855972422"><ele>219.0</ele><time>2026-04-04T08:25:44.999Z</time></trkpt><trkpt lat="45.57168134167326" lon="8.634062938735127"><ele>219.0</ele><time>2026-04-04T08:25:45.999Z</time></trkpt><trkpt lat="45.57187258165271" lon="8.634047314161167"><ele>219.0</ele><time>2026-04-04T08:25:46.999Z</time></trkpt><trkpt lat="45.572057949795614" lon="8.634033667896892"><ele>219.0</ele><time>2026-04-04T08:25:47.999Z</time></trkpt><trkpt lat="45.57223114746799" lon="8.634030674512422"><ele>219.33333333333331</ele><time>2026-04-04T08:25:48.999Z</time></trkpt><trkpt lat="45.57238710173878" lon="8.634029843031769"><ele>219.66666666666666</ele><time>2026-04-04T08:25:49.999Z</time></trkpt><trkpt lat="45.572537193400166" lon="8.63403662617288"><ele>220.0</ele><time>2026-04-04T08:25:50.999Z</time></trkpt><trkpt lat="45.57268204052968" lon="8.634051738583368"><ele>220.0</ele><time>2026-04-04T08:25:51.999Z</time></trkpt><trkpt lat="45.57281768620383" lon="8.63407043939326"><ele>220.0</ele><time>2026-04-04T08:25:52.999Z</time></trkpt><trkpt lat="45.57295010949339" lon="8.634087744674417"><ele>220.0</ele><time>2026-04-04T08:25:54Z</time></trkpt><trkpt lat="45.57307052223699" lon="8.634104895562869"><ele>220.0</ele><time>2026-04-04T08:25:55Z</time></trkpt><trkpt lat="45.57317744605787" lon="8.634130172489167"><ele>220.0</ele><time>2026-04-04T08:25:56Z</time></trkpt><trkpt lat="45.573281525009726" lon="8.63414609781983"><ele>220.0</ele><time>2026-04-04T08:25:57Z</time></trkpt><trkpt lat="45.57339936619705" lon="8.634167597984963"><ele>220.0</ele><time>2026-04-04T08:25:58Z</time></trkpt><trkpt lat="45.57354442617834" lon="8.634198809872236"><ele>220.0</ele><time>2026-04-04T08:25:59Z</time></trkpt><trkpt lat="45.57368276444243" lon="8.634227337769076"><ele>220.0</ele><time>2026-04-04T08:26:00Z</time></trkpt><trkpt lat="45.573794601176644" lon="8.634267756153093"><ele>220.0</ele><time>2026-04-04T08:26:01Z</time></trkpt><trkpt lat="45.573887100700105" lon="8.634315552293968"><ele>220.0</ele><time>2026-04-04T08:26:02Z</time></trkpt><trkpt lat="45.5739557697874" lon="8.634345581523423"><ele>220.0</ele><time>2026-04-04T08:26:03Z</time></trkpt><trkpt lat="45.57401729343263" lon="8.634387056504131"><ele>220.0</ele><time>2026-04-04T08:26:05Z</time></trkpt><trkpt lat="45.57397444735069" lon="8.63470650965393"><ele>220.0</ele><time>2026-04-04T08:26:06Z</time></trkpt><trkpt lat="45.573839191800204" lon="8.634699287779922"><ele>220.0</ele><time>2026-04-04T08:26:07Z</time></trkpt><trkpt lat="45.573700660333266" lon="8.634778562826083"><ele>220.0</ele><time>2026-04-04T08:26:08Z</time></trkpt><trkpt lat="45.57349847895527" lon="8.634892348832095"><ele>220.0</ele><time>2026-04-04T08:26:09Z</time></trkpt><trkpt lat="45.573287999393294" lon="8.635011475452398"><ele>220.0</ele><time>2026-04-04T08:26:10Z</time></trkpt><trkpt lat="45.57307994537849" lon="8.635129523319302"><ele>220.0</ele><time>2026-04-04T08:26:11Z</time></trkpt><trkpt lat="45.57289665515476" lon="8.635233543395008"><ele>220.0</ele><time>2026-04-04T08:26:12Z</time></trkpt><trkpt lat="45.572720449737346" lon="8.635334007819436"><ele>220.0</ele><time>2026-04-04T08:26:13Z</time></trkpt><trkpt lat="45.572558468843894" lon="8.635425864365338"><ele>220.33333333333331</ele><time>2026-04-04T08:26:14Z</time></trkpt><trkpt lat="45.57240468849518" lon="8.635490735254953"><ele>220.66666666666669</ele><time>2026-04-04T08:26:15Z</time></trkpt><trkpt lat="45.572250133400864" lon="8.635525372277597"><ele>221.0</ele><time>2026-04-04T08:26:16Z</time></trkpt><trkpt lat="45.57207408103085" lon="8.635466152623907"><ele>221.0</ele><time>2026-04-04T08:26:17Z</time></trkpt><trkpt lat="45.571890231561554" lon="8.635383437215172"><ele>221.0</ele><time>2026-04-04T08:26:18Z</time></trkpt><trkpt lat="45.57171810994276" lon="8.63532812742144"><ele>221.0</ele><time>2026-04-04T08:26:19Z</time></trkpt><trkpt lat="45.571561418220234" lon="8.635286919195302"><ele>221.0</ele><time>2026-04-04T08:26:20Z</time></trkpt><trkpt lat="45.571412242285604" lon="8.635249819363388"><ele>221.0</ele><time>2026-04-04T08:26:21Z</time></trkpt><trkpt lat="45.571267184687166" lon="8.635214452691155"><ele>221.0</ele><time>2026-04-04T08:26:22Z</time></trkpt><trkpt lat="45.57113809783875" lon="8.635174758687457"><ele>221.0</ele><time>2026-04-04T08:26:23Z</time></trkpt><trkpt lat="45.57100993657987" lon="8.635139637648468"><ele>220.66666666666669</ele><time>2026-04-04T08:26:24Z</time></trkpt><trkpt lat="45.57090534241061" lon="8.635112839551102"><ele>220.33333333333334</ele><time>2026-04-04T08:26:25Z</time></trkpt><trkpt lat="45.57083223328404" lon="8.635091221448372"><ele>220.0</ele><time>2026-04-04T08:26:26Z</time></trkpt><trkpt lat="45.57075451448776" lon="8.635066583354558"><ele>219.66666666666669</ele><time>2026-04-04T08:26:28Z</time></trkpt><trkpt lat="45.57068344332927" lon="8.63500445034339"><ele>219.33333333333334</ele><time>2026-04-04T08:26:32Z</time></trkpt><trkpt lat="45.57060528717148" lon="8.634995137398963"><ele>219.0</ele><time>2026-04-04T08:27:12Z</time></trkpt><trkpt lat="45.570696123644304" lon="8.634622817152522"><ele>219.0</ele><time>2026-04-04T08:27:16Z</time></trkpt><trkpt lat="45.57080267003866" lon="8.63459197705043"><ele>218.99999999999997</ele><time>2026-04-04T08:27:17.999Z</time></trkpt><trkpt lat="45.57088230228816" lon="8.634668445130595"><ele>218.99999999999997</ele><time>2026-04-04T08:27:19.999Z</time></trkpt><trkpt lat="45.57096526807944" lon="8.634608519546502"><ele>219.0</ele><time>2026-04-04T08:33:22Z</time></trkpt><trkpt lat="45.57088469590411" lon="8.634534582385632"><ele>219.0</ele><time>2026-04-04T08:33:24Z</time></trkpt><trkpt lat="45.57080761252783" lon="8.634545223773987"><ele>219.0</ele><time>2026-04-04T08:33:25Z</time></trkpt><trkpt lat="45.57073401333386" lon="8.634536221703513"><ele>219.0</ele><time>2026-04-04T08:33:26Z</time></trkpt><trkpt lat="45.570672748846334" lon="8.634559885031088"><ele>219.0</ele><time>2026-04-04T08:33:26.999Z</time></trkpt><trkpt lat="45.57063644195615" lon="8.634647868363935"><ele>219.0</ele><time>2026-04-04T08:33:27.999Z</time></trkpt><trkpt lat="45.57062864076251" lon="8.634764120159918"><ele>219.0</ele><time>2026-04-04T08:33:28.999Z</time></trkpt><trkpt lat="45.57063557247532" lon="8.63486041451183"><ele>219.0</ele><time>2026-04-04T08:33:30.999Z</time></trkpt><trkpt lat="45.57062637155402" lon="8.634963598990417"><ele>219.0</ele><time>2026-04-04T08:33:44.999Z</time></trkpt><trkpt lat="45.5706741536142" lon="8.635088846618004"><ele>219.0</ele><time>2026-04-04T08:33:48.999Z</time></trkpt><trkpt lat="45.570755593137754" lon="8.635142993921017"><ele>218.99999999999997</ele><time>2026-04-04T08:33:49.999Z</time></trkpt><trkpt lat="45.57087019213686" lon="8.635156867144875"><ele>218.99999999999997</ele><time>2026-04-04T08:33:50.999Z</time></trkpt><trkpt lat="45.570989820803476" lon="8.635180317242584"><ele>219.0</ele><time>2026-04-04T08:33:51.999Z</time></trkpt><trkpt lat="45.571107499868724" lon="8.635209711312056"><ele>219.0</ele><time>2026-04-04T08:33:52.999Z</time></trkpt><trkpt lat="45.571234159915605" lon="8.635245834284218"><ele>219.5</ele><time>2026-04-04T08:33:53.999Z</time></trkpt><trkpt lat="45.57136673523703" lon="8.635277312693162"><ele>220.0</ele><time>2026-04-04T08:33:54.999Z</time></trkpt><trkpt lat="45.57150450173591" lon="8.635315973879926"><ele>220.5</ele><time>2026-04-04T08:33:55.999Z</time></trkpt><trkpt lat="45.571648604740304" lon="8.635354314425502"><ele>221.0</ele><time>2026-04-04T08:33:56.999Z</time></trkpt><trkpt lat="45.57179367391611" lon="8.63539651016595"><ele>221.0</ele><time>2026-04-04T08:33:57.999Z</time></trkpt><trkpt lat="45.57194135778341" lon="8.63543340233535"><ele>221.0</ele><time>2026-04-04T08:33:58.999Z</time></trkpt><trkpt lat="45.57209464412803" lon="8.635473992451297"><ele>221.0</ele><time>2026-04-04T08:33:59.999Z</time></trkpt><trkpt lat="45.57224621859445" lon="8.635510991327775"><ele>221.0</ele><time>2026-04-04T08:34:00.999Z</time></trkpt><trkpt lat="45.57239488312435" lon="8.63553739492592"><ele>221.0</ele><time>2026-04-04T08:34:01.999Z</time></trkpt><trkpt lat="45.57253905533477" lon="8.63551061996094"><ele>221.0</ele><time>2026-04-04T08:34:02.999Z</time></trkpt><trkpt lat="45.5726759724233" lon="8.635417762549908"><ele>221.0</ele><time>2026-04-04T08:34:03.999Z</time></trkpt><trkpt lat="45.57281805328423" lon="8.635329841470048"><ele>220.66666666666669</ele><time>2026-04-04T08:34:04.999Z</time></trkpt><trkpt lat="45.572957724847804" lon="8.635252759089187"><ele>220.33333333333331</ele><time>2026-04-04T08:34:05.999Z</time></trkpt><trkpt lat="45.57309692589296" lon="8.635168811436433"><ele>220.0</ele><time>2026-04-04T08:34:06.999Z</time></trkpt><trkpt lat="45.57323623689127" lon="8.635087604948557"><ele>220.0</ele><time>2026-04-04T08:34:07.999Z</time></trkpt><trkpt lat="45.5733760056318" lon="8.635015550654336"><ele>220.0</ele><time>2026-04-04T08:34:08.999Z</time></trkpt><trkpt lat="45.57352139121152" lon="8.634938478125594"><ele>220.0</ele><time>2026-04-04T08:34:09.999Z</time></trkpt><trkpt lat="45.57366695712106" lon="8.634864025275855"><ele>220.0</ele><time>2026-04-04T08:34:10.999Z</time></trkpt><trkpt lat="45.5738071466785" lon="8.634800026005784"><ele>220.0</ele><time>2026-04-04T08:34:11.999Z</time></trkpt><trkpt lat="45.57392744364296" lon="8.634726080824603"><ele>220.0</ele><time>2026-04-04T08:34:12.999Z</time></trkpt><trkpt lat="45.57402646263138" lon="8.634627961007846"><ele>220.0</ele><time>2026-04-04T08:34:13.999Z</time></trkpt><trkpt lat="45.57411817582929" lon="8.634519911219833"><ele>220.0</ele><time>2026-04-04T08:34:14.999Z</time></trkpt><trkpt lat="45.57424285202928" lon="8.634558028024715"><ele>220.0</ele><time>2026-04-04T08:34:15.999Z</time></trkpt><trkpt lat="45.57436069201908" lon="8.634438077297943"><ele>220.0</ele><time>2026-04-04T08:34:16.999Z</time></trkpt><trkpt lat="45.574515753475794" lon="8.634470028036125"><ele>220.0</ele><time>2026-04-04T08:34:18Z</time></trkpt><trkpt lat="45.574687305965156" lon="8.634545499819634"><ele>220.33333333333331</ele><time>2026-04-04T08:34:19Z</time></trkpt><trkpt lat="45.57485722164681" lon="8.634624186022874"><ele>220.66666666666669</ele><time>2026-04-04T08:34:20Z</time></trkpt><trkpt lat="45.575027385019744" lon="8.634700909049265"><ele>221.0</ele><time>2026-04-04T08:34:21Z</time></trkpt><trkpt lat="45.57520181085614" lon="8.63477774009269"><ele>221.33333333333334</ele><time>2026-04-04T08:34:22Z</time></trkpt><trkpt lat="45.57537397787559" lon="8.634862080074214"><ele>221.66666666666669</ele><time>2026-04-04T08:34:23Z</time></trkpt><trkpt lat="45.5755406315037" lon="8.634946741855758"><ele>222.0</ele><time>2026-04-04T08:34:24Z</time></trkpt><trkpt lat="45.575706653665456" lon="8.635041938223864"><ele>222.0</ele><time>2026-04-04T08:34:25Z</time></trkpt><trkpt lat="45.57586884493799" lon="8.635127785918657"><ele>222.0</ele><time>2026-04-04T08:34:26Z</time></trkpt><trkpt lat="45.57603418042794" lon="8.635217593310125"><ele>222.0</ele><time>2026-04-04T08:34:27Z</time></trkpt><trkpt lat="45.57620310899168" lon="8.635308692751202"><ele>222.66666666666669</ele><time>2026-04-04T08:34:28Z</time></trkpt><trkpt lat="45.576368046662424" lon="8.63539626106979"><ele>223.33333333333334</ele><time>2026-04-04T08:34:29Z</time></trkpt><trkpt lat="45.57654100861763" lon="8.635495002291195"><ele>224.0</ele><time>2026-04-04T08:34:30Z</time></trkpt><trkpt lat="45.576712113228766" lon="8.635588268147854"><ele>224.0</ele><time>2026-04-04T08:34:31Z</time></trkpt><trkpt lat="45.57688181048628" lon="8.635678649655434"><ele>224.0</ele><time>2026-04-04T08:34:32Z</time></trkpt><trkpt lat="45.577043007059366" lon="8.635765061677153"><ele>224.0</ele><time>2026-04-04T08:34:33Z</time></trkpt><trkpt lat="45.57720994458581" lon="8.635850551435292"><ele>224.0</ele><time>2026-04-04T08:34:34Z</time></trkpt><trkpt lat="45.57737663284894" lon="8.63593915143584"><ele>224.0</ele><time>2026-04-04T08:34:35Z</time></trkpt><trkpt lat="45.577548908228685" lon="8.636032756751383"><ele>224.0</ele><time>2026-04-04T08:34:36Z</time></trkpt><trkpt lat="45.57771592012982" lon="8.636126155513049"><ele>222.66666666666669</ele><time>2026-04-04T08:34:37Z</time></trkpt><trkpt lat="45.57788290066546" lon="8.6362209483386"><ele>221.33333333333331</ele><time>2026-04-04T08:34:38Z</time></trkpt><trkpt lat="45.578054071853536" lon="8.636309393498019"><ele>220.0</ele><time>2026-04-04T08:34:39Z</time></trkpt><trkpt lat="45.57822114463803" lon="8.636407500868177"><ele>220.0</ele><time>2026-04-04T08:34:40Z</time></trkpt><trkpt lat="45.578387742316984" lon="8.636498399047355"><ele>220.0</ele><time>2026-04-04T08:34:41Z</time></trkpt><trkpt lat="45.578554160424005" lon="8.636596834903658"><ele>220.0</ele><time>2026-04-04T08:34:42Z</time></trkpt><trkpt lat="45.578725221104605" lon="8.636679533415753"><ele>220.66666666666666</ele><time>2026-04-04T08:34:43Z</time></trkpt><trkpt lat="45.578882005105314" lon="8.636761154424365"><ele>221.33333333333331</ele><time>2026-04-04T08:34:44Z</time></trkpt><trkpt lat="45.57904086128584" lon="8.636843166677993"><ele>222.0</ele><time>2026-04-04T08:34:45Z</time></trkpt><trkpt lat="45.57921135616901" lon="8.636936101638703"><ele>219.66666666666669</ele><time>2026-04-04T08:34:46Z</time></trkpt><trkpt lat="45.57938603125789" lon="8.63703270490274"><ele>217.33333333333334</ele><time>2026-04-04T08:34:47Z</time></trkpt><trkpt lat="45.57957134946068" lon="8.637133725472125"><ele>215.0</ele><time>2026-04-04T08:34:48Z</time></trkpt><trkpt lat="45.57976898161875" lon="8.63724349309672"><ele>215.0</ele><time>2026-04-04T08:34:49Z</time></trkpt><trkpt lat="45.579979047587535" lon="8.637349774599357"><ele>215.0</ele><time>2026-04-04T08:34:50Z</time></trkpt><trkpt lat="45.58019633516343" lon="8.637466285199233"><ele>219.5</ele><time>2026-04-04T08:34:51Z</time></trkpt><trkpt lat="45.58041687538471" lon="8.637583100969662"><ele>224.0</ele><time>2026-04-04T08:34:52Z</time></trkpt><trkpt lat="45.58064641910808" lon="8.637697414562815"><ele>224.0</ele><time>2026-04-04T08:34:53Z</time></trkpt><trkpt lat="45.58088555686498" lon="8.637800490632172"><ele>224.0</ele><time>2026-04-04T08:34:54Z</time></trkpt><trkpt lat="45.581134852665464" lon="8.637887028133092"><ele>216.5</ele><time>2026-04-04T08:34:55Z</time></trkpt><trkpt lat="45.58138482844723" lon="8.637970761807773"><ele>209.0</ele><time>2026-04-04T08:34:56Z</time></trkpt><trkpt lat="45.58163500009882" lon="8.638045002789497"><ele>209.0</ele><time>2026-04-04T08:34:57Z</time></trkpt><trkpt lat="45.58188852080541" lon="8.638107924919852"><ele>209.0</ele><time>2026-04-04T08:34:58Z</time></trkpt><trkpt lat="45.58212912914681" lon="8.638172582669727"><ele>209.66666666666669</ele><time>2026-04-04T08:34:59Z</time></trkpt><trkpt lat="45.58234793461591" lon="8.638221447200578"><ele>210.33333333333331</ele><time>2026-04-04T08:35:00Z</time></trkpt><trkpt lat="45.58255292768157" lon="8.638269611736595"><ele>211.0</ele><time>2026-04-04T08:35:01Z</time></trkpt><trkpt lat="45.582748369548966" lon="8.63832912886763"><ele>211.0</ele><time>2026-04-04T08:35:02Z</time></trkpt><trkpt lat="45.58292238710387" lon="8.63837615902615"><ele>211.0</ele><time>2026-04-04T08:35:03Z</time></trkpt><trkpt lat="45.58309106387556" lon="8.63843732415727"><ele>211.0</ele><time>2026-04-04T08:35:04Z</time></trkpt><trkpt lat="45.58324775692204" lon="8.638504243005569"><ele>211.0</ele><time>2026-04-04T08:35:05Z</time></trkpt><trkpt lat="45.583408541120534" lon="8.638583517451009"><ele>211.0</ele><time>2026-04-04T08:35:06Z</time></trkpt><trkpt lat="45.58357901133876" lon="8.638677269470149"><ele>211.0</ele><time>2026-04-04T08:35:07Z</time></trkpt><trkpt lat="45.58374380790215" lon="8.638774632699413"><ele>208.0</ele><time>2026-04-04T08:35:08Z</time></trkpt><trkpt lat="45.58390290547347" lon="8.638868210303956"><ele>205.0</ele><time>2026-04-04T08:35:09Z</time></trkpt><trkpt lat="45.584059297368505" lon="8.638962663502058"><ele>202.0</ele><time>2026-04-04T08:35:10Z</time></trkpt><trkpt lat="45.584215542159455" lon="8.639054136630884"><ele>202.0</ele><time>2026-04-04T08:35:10.999Z</time></trkpt><trkpt lat="45.584374012739666" lon="8.639147458550468"><ele>202.0</ele><time>2026-04-04T08:35:11.999Z</time></trkpt><trkpt lat="45.58453396480785" lon="8.6392454528081"><ele>202.0</ele><time>2026-04-04T08:35:12.999Z</time></trkpt><trkpt lat="45.58469015692518" lon="8.639336033648929"><ele>202.0</ele><time>2026-04-04T08:35:13.999Z</time></trkpt><trkpt lat="45.58484795327088" lon="8.639432190197361"><ele>202.0</ele><time>2026-04-04T08:35:14.999Z</time></trkpt><trkpt lat="45.58501144257113" lon="8.639529610965722"><ele>202.0</ele><time>2026-04-04T08:35:15.999Z</time></trkpt><trkpt lat="45.58516929443032" lon="8.639627830706868"><ele>201.66666666666666</ele><time>2026-04-04T08:35:16.999Z</time></trkpt><trkpt lat="45.58532670100027" lon="8.63972855973368"><ele>201.33333333333331</ele><time>2026-04-04T08:35:17.999Z</time></trkpt><trkpt lat="45.585475505728425" lon="8.639818259396252"><ele>201.0</ele><time>2026-04-04T08:35:18.999Z</time></trkpt><trkpt lat="45.58562739419311" lon="8.639909298214768"><ele>200.66666666666669</ele><time>2026-04-04T08:35:19.999Z</time></trkpt><trkpt lat="45.58578091744759" lon="8.640002378066056"><ele>200.33333333333334</ele><time>2026-04-04T08:35:20.999Z</time></trkpt><trkpt lat="45.58594094469075" lon="8.640102142146034"><ele>200.0</ele><time>2026-04-04T08:35:21.999Z</time></trkpt><trkpt lat="45.58609179969748" lon="8.64019338783805"><ele>200.33333333333334</ele><time>2026-04-04T08:35:22.999Z</time></trkpt><trkpt lat="45.58624867630187" lon="8.640287680555048"><ele>200.66666666666669</ele><time>2026-04-04T08:35:23.999Z</time></trkpt><trkpt lat="45.586401356911374" lon="8.640382113073976"><ele>201.0</ele><time>2026-04-04T08:35:24.999Z</time></trkpt><trkpt lat="45.58655352864763" lon="8.640473531211304"><ele>201.0</ele><time>2026-04-04T08:35:25.999Z</time></trkpt><trkpt lat="45.58670329923443" lon="8.64056423951751"><ele>201.0</ele><time>2026-04-04T08:35:26.999Z</time></trkpt><trkpt lat="45.58686131381488" lon="8.640668477299549"><ele>201.0</ele><time>2026-04-04T08:35:27.999Z</time></trkpt><trkpt lat="45.58700932851249" lon="8.640762321511724"><ele>201.0</ele><time>2026-04-04T08:35:28.999Z</time></trkpt><trkpt lat="45.58716141966833" lon="8.64085888341759"><ele>201.0</ele><time>2026-04-04T08:35:29.999Z</time></trkpt><trkpt lat="45.58731635022539" lon="8.64094954911932"><ele>201.0</ele><time>2026-04-04T08:35:30.999Z</time></trkpt><trkpt lat="45.5874690006935" lon="8.641040529702197"><ele>201.0</ele><time>2026-04-04T08:35:31.999Z</time></trkpt><trkpt lat="45.5876325170881" lon="8.64114576350354"><ele>201.0</ele><time>2026-04-04T08:35:32.999Z</time></trkpt><trkpt lat="45.5877752101686" lon="8.64122977686685"><ele>201.0</ele><time>2026-04-04T08:35:33.999Z</time></trkpt><trkpt lat="45.58792939026667" lon="8.641325028697825"><ele>201.0</ele><time>2026-04-04T08:35:34.999Z</time></trkpt><trkpt lat="45.588085265398206" lon="8.641420776563667"><ele>201.0</ele><time>2026-04-04T08:35:35.999Z</time></trkpt><trkpt lat="45.58824031985788" lon="8.64151632551396"><ele>201.0</ele><time>2026-04-04T08:35:36.999Z</time></trkpt><trkpt lat="45.588388468576056" lon="8.641606850335195"><ele>201.0</ele><time>2026-04-04T08:35:37.999Z</time></trkpt><trkpt lat="45.58854729845356" lon="8.641693051181457"><ele>201.0</ele><time>2026-04-04T08:35:38.999Z</time></trkpt><trkpt lat="45.588686379453044" lon="8.641792181602154"><ele>201.0</ele><time>2026-04-04T08:35:39.999Z</time></trkpt><trkpt lat="45.58881795544537" lon="8.641874741134972"><ele>201.25</ele><time>2026-04-04T08:35:40.999Z</time></trkpt><trkpt lat="45.58893470975468" lon="8.64194561713893"><ele>201.5</ele><time>2026-04-04T08:35:41.999Z</time></trkpt><trkpt lat="45.58904537465307" lon="8.64201448686414"><ele>201.75</ele><time>2026-04-04T08:35:42.999Z</time></trkpt><trkpt lat="45.58915965483443" lon="8.642088294786973"><ele>202.0</ele><time>2026-04-04T08:35:43.999Z</time></trkpt><trkpt lat="45.58928295770037" lon="8.642164449758301"><ele>202.0</ele><time>2026-04-04T08:35:44.999Z</time></trkpt><trkpt lat="45.589410463639325" lon="8.642239198079158"><ele>202.0</ele><time>2026-04-04T08:35:45.999Z</time></trkpt><trkpt lat="45.58953573531416" lon="8.64231147776835"><ele>202.0</ele><time>2026-04-04T08:35:46.999Z</time></trkpt><trkpt lat="45.58965974140073" lon="8.642385234605975"><ele>202.0</ele><time>2026-04-04T08:35:47.999Z</time></trkpt><trkpt lat="45.58977879217044" lon="8.64246046701803"><ele>202.0</ele><time>2026-04-04T08:35:48.999Z</time></trkpt><trkpt lat="45.58990515548072" lon="8.642532658263502"><ele>202.0</ele><time>2026-04-04T08:35:49.999Z</time></trkpt><trkpt lat="45.590032613267255" lon="8.642603406101063"><ele>202.0</ele><time>2026-04-04T08:35:50.999Z</time></trkpt><trkpt lat="45.59015631876274" lon="8.642673327499397"><ele>202.0</ele><time>2026-04-04T08:35:51.999Z</time></trkpt><trkpt lat="45.5902710803445" lon="8.642746933154585"><ele>202.2</ele><time>2026-04-04T08:35:52.999Z</time></trkpt><trkpt lat="45.59037529022544" lon="8.642810209906505"><ele>202.39999999999998</ele><time>2026-04-04T08:35:53.999Z</time></trkpt><trkpt lat="45.59047117777616" lon="8.642865285940905"><ele>202.60000000000002</ele><time>2026-04-04T08:35:54.999Z</time></trkpt><trkpt lat="45.590565610924656" lon="8.642922666370414"><ele>202.8</ele><time>2026-04-04T08:35:55.999Z</time></trkpt><trkpt lat="45.59065019259952" lon="8.642978306986937"><ele>203.0</ele><time>2026-04-04T08:35:56.999Z</time></trkpt><trkpt lat="45.59072782204353" lon="8.643030570522422"><ele>203.00000000000003</ele><time>2026-04-04T08:35:57.999Z</time></trkpt><trkpt lat="45.590802626137325" lon="8.643080769585229"><ele>203.0</ele><time>2026-04-04T08:35:58.999Z</time></trkpt><trkpt lat="45.59088105221997" lon="8.643125827326152"><ele>203.0</ele><time>2026-04-04T08:35:59.999Z</time></trkpt><trkpt lat="45.5909465900274" lon="8.643168249662496"><ele>203.0</ele><time>2026-04-04T08:36:00.999Z</time></trkpt><trkpt lat="45.5910486322583" lon="8.643230148650943"><ele>203.00000000000003</ele><time>2026-04-04T08:36:02.999Z</time></trkpt><trkpt lat="45.591133416433074" lon="8.643281667490246"><ele>203.0</ele><time>2026-04-04T08:36:04.999Z</time></trkpt><trkpt lat="45.59121601539626" lon="8.64338239572466"><ele>203.16666666666669</ele><time>2026-04-04T08:36:06.999Z</time></trkpt><trkpt lat="45.59128486736218" lon="8.64350847453172"><ele>203.33333333333334</ele><time>2026-04-04T08:36:08.999Z</time></trkpt><trkpt lat="45.59134344316212" lon="8.64354301826026"><ele>203.5</ele><time>2026-04-04T08:36:09.999Z</time></trkpt><trkpt lat="45.591414597425114" lon="8.643553930922947"><ele>203.66666666666669</ele><time>2026-04-04T08:36:10.999Z</time></trkpt><trkpt lat="45.591503483901484" lon="8.6435617870129"><ele>203.83333333333334</ele><time>2026-04-04T08:36:11.999Z</time></trkpt><trkpt lat="45.59160834494783" lon="8.643579915258043"><ele>204.0</ele><time>2026-04-04T08:36:12.999Z</time></trkpt><trkpt lat="45.59172729130323" lon="8.643622029307458"><ele>203.66666666666669</ele><time>2026-04-04T08:36:13.999Z</time></trkpt><trkpt lat="45.59187762098991" lon="8.643708772530308"><ele>203.33333333333334</ele><time>2026-04-04T08:36:14.999Z</time></trkpt><trkpt lat="45.59204241059636" lon="8.643823630610704"><ele>203.0</ele><time>2026-04-04T08:36:15.999Z</time></trkpt><trkpt lat="45.592213920836066" lon="8.64394134277098"><ele>203.0</ele><time>2026-04-04T08:36:16.999Z</time></trkpt><trkpt lat="45.59240114081475" lon="8.644057660757214"><ele>203.0</ele><time>2026-04-04T08:36:17.999Z</time></trkpt><trkpt lat="45.592592870909115" lon="8.644176231347911"><ele>203.0</ele><time>2026-04-04T08:36:18.999Z</time></trkpt><trkpt lat="45.59277483588199" lon="8.644278405572356"><ele>203.33333333333334</ele><time>2026-04-04T08:36:19.999Z</time></trkpt><trkpt lat="45.592952148060355" lon="8.644375431196455"><ele>203.66666666666669</ele><time>2026-04-04T08:36:20.999Z</time></trkpt><trkpt lat="45.593118988307765" lon="8.644474585334766"><ele>204.0</ele><time>2026-04-04T08:36:21.999Z</time></trkpt><trkpt lat="45.593285558527015" lon="8.644572875215733"><ele>204.33333333333331</ele><time>2026-04-04T08:36:22.999Z</time></trkpt><trkpt lat="45.593451653855695" lon="8.644665699011329"><ele>204.66666666666666</ele><time>2026-04-04T08:36:23.999Z</time></trkpt><trkpt lat="45.593625668753624" lon="8.644793030313005"><ele>205.0</ele><time>2026-04-04T08:36:24.999Z</time></trkpt><trkpt lat="45.59381661651668" lon="8.644882274464228"><ele>204.33333333333331</ele><time>2026-04-04T08:36:25.999Z</time></trkpt><trkpt lat="45.593985543161054" lon="8.644985404192887"><ele>203.66666666666669</ele><time>2026-04-04T08:36:26.999Z</time></trkpt><trkpt lat="45.59416527342008" lon="8.645059356769664"><ele>203.0</ele><time>2026-04-04T08:36:27.999Z</time></trkpt><trkpt lat="45.59431413430261" lon="8.645115826176921"><ele>203.0</ele><time>2026-04-04T08:36:28.999Z</time></trkpt><trkpt lat="45.59449903014433" lon="8.645171213762229"><ele>203.0</ele><time>2026-04-04T08:36:29.999Z</time></trkpt><trkpt lat="45.59469473564082" lon="8.645232410433588"><ele>203.0</ele><time>2026-04-04T08:36:30.999Z</time></trkpt><trkpt lat="45.59489284957318" lon="8.645286616336158"><ele>203.33333333333334</ele><time>2026-04-04T08:36:31.999Z</time></trkpt><trkpt lat="45.59509545108425" lon="8.645320927995199"><ele>203.66666666666669</ele><time>2026-04-04T08:36:32.999Z</time></trkpt><trkpt lat="45.59528149173955" lon="8.64533050472734"><ele>204.0</ele><time>2026-04-04T08:36:33.999Z</time></trkpt><trkpt lat="45.59545450491565" lon="8.64533491107422"><ele>204.0</ele><time>2026-04-04T08:36:34.999Z</time></trkpt><trkpt lat="45.59558805205671" lon="8.64532158528401"><ele>204.0</ele><time>2026-04-04T08:36:35.999Z</time></trkpt><trkpt lat="45.59570074311747" lon="8.645306970794035"><ele>204.0</ele><time>2026-04-04T08:36:36.999Z</time></trkpt><trkpt lat="45.59578894477842" lon="8.645287624717282"><ele>204.0</ele><time>2026-04-04T08:36:37.999Z</time></trkpt><trkpt lat="45.59586857891525" lon="8.64527566544005"><ele>204.0</ele><time>2026-04-04T08:36:38.999Z</time></trkpt><trkpt lat="45.59595538406179" lon="8.645264499559058"><ele>204.0</ele><time>2026-04-04T08:36:39.999Z</time></trkpt><trkpt lat="45.59604768670524" lon="8.645248283392785"><ele>204.0</ele><time>2026-04-04T08:36:40.999Z</time></trkpt><trkpt lat="45.596148089213784" lon="8.645257554730565"><ele>204.0</ele><time>2026-04-04T08:36:41.999Z</time></trkpt><trkpt lat="45.59621117495479" lon="8.64522574781174"><ele>204.0</ele><time>2026-04-04T08:36:42.999Z</time></trkpt><trkpt lat="45.59628713170877" lon="8.645206030784184"><ele>204.0</ele><time>2026-04-04T08:36:43.999Z</time></trkpt><trkpt lat="45.59636738430085" lon="8.64518673716964"><ele>204.0</ele><time>2026-04-04T08:36:44.999Z</time></trkpt><trkpt lat="45.596454335753144" lon="8.645169704436427"><ele>204.25</ele><time>2026-04-04T08:36:45.999Z</time></trkpt><trkpt lat="45.596561468945566" lon="8.64515182093179"><ele>204.5</ele><time>2026-04-04T08:36:46.999Z</time></trkpt><trkpt lat="45.596685305247135" lon="8.64511757150868"><ele>204.75</ele><time>2026-04-04T08:36:47.999Z</time></trkpt><trkpt lat="45.59680867091932" lon="8.645103355563862"><ele>205.0</ele><time>2026-04-04T08:36:48.999Z</time></trkpt><trkpt lat="45.596913429400914" lon="8.64508541319501"><ele>205.5</ele><time>2026-04-04T08:36:49.999Z</time></trkpt><trkpt lat="45.59702379465561" lon="8.645056316436511"><ele>206.0</ele><time>2026-04-04T08:36:50.999Z</time></trkpt><trkpt lat="45.59714298640954" lon="8.645048055071033"><ele>206.5</ele><time>2026-04-04T08:36:51.999Z</time></trkpt><trkpt lat="45.59726017741881" lon="8.64499934649546"><ele>207.0</ele><time>2026-04-04T08:36:52.999Z</time></trkpt><trkpt lat="45.59738339914541" lon="8.644973063872763"><ele>207.0</ele><time>2026-04-04T08:36:53.999Z</time></trkpt><trkpt lat="45.59750655844545" lon="8.644951045065131"><ele>207.0</ele><time>2026-04-04T08:36:54.999Z</time></trkpt><trkpt lat="45.59763192838082" lon="8.64492307157254"><ele>207.0</ele><time>2026-04-04T08:36:55.999Z</time></trkpt><trkpt lat="45.59775476835342" lon="8.644897401032477"><ele>207.0</ele><time>2026-04-04T08:36:56.999Z</time></trkpt><trkpt lat="45.59787346226345" lon="8.644873024666833"><ele>206.5</ele><time>2026-04-04T08:36:57.999Z</time></trkpt><trkpt lat="45.59798848274036" lon="8.64484694328345"><ele>206.0</ele><time>2026-04-04T08:36:58.999Z</time></trkpt><trkpt lat="45.5981029198308" lon="8.644826722912649"><ele>205.5</ele><time>2026-04-04T08:36:59.999Z</time></trkpt><trkpt lat="45.59821697208587" lon="8.644798466429211"><ele>205.0</ele><time>2026-04-04T08:37:00.999Z</time></trkpt><trkpt lat="45.59833370333777" lon="8.64477037452747"><ele>205.0</ele><time>2026-04-04T08:37:01.999Z</time></trkpt><trkpt lat="45.59845049434431" lon="8.644743422546489"><ele>205.0</ele><time>2026-04-04T08:37:02.999Z</time></trkpt><trkpt lat="45.598563650232585" lon="8.644718962190753"><ele>205.0</ele><time>2026-04-04T08:37:03.999Z</time></trkpt><trkpt lat="45.598679392782415" lon="8.644696691366994"><ele>205.0</ele><time>2026-04-04T08:37:04.999Z</time></trkpt><trkpt lat="45.598793184501716" lon="8.644682390177158"><ele>205.0</ele><time>2026-04-04T08:37:05.999Z</time></trkpt><trkpt lat="45.5989043776316" lon="8.644678289454863"><ele>205.0</ele><time>2026-04-04T08:37:06.999Z</time></trkpt><trkpt lat="45.59901369008595" lon="8.64467710277461"><ele>205.0</ele><time>2026-04-04T08:37:07.999Z</time></trkpt><trkpt lat="45.59911660819767" lon="8.644681554808106"><ele>205.0</ele><time>2026-04-04T08:37:08.999Z</time></trkpt><trkpt lat="45.59920928530418" lon="8.644693597149436"><ele>205.0</ele><time>2026-04-04T08:37:09.999Z</time></trkpt><trkpt lat="45.59929395539836" lon="8.6447151135812"><ele>204.99999999999997</ele><time>2026-04-04T08:37:10.999Z</time></trkpt><trkpt lat="45.59938028076786" lon="8.644742547995202"><ele>205.0</ele><time>2026-04-04T08:37:11.999Z</time></trkpt><trkpt lat="45.599465364133344" lon="8.644776298540274"><ele>205.0</ele><time>2026-04-04T08:37:12.999Z</time></trkpt><trkpt lat="45.59954069590555" lon="8.644810854472928"><ele>205.0</ele><time>2026-04-04T08:37:13.999Z</time></trkpt><trkpt lat="45.599615943254584" lon="8.644853313339873"><ele>204.99999999999997</ele><time>2026-04-04T08:37:14.999Z</time></trkpt><trkpt lat="45.599686786930754" lon="8.644904572694083"><ele>205.0</ele><time>2026-04-04T08:37:15.999Z</time></trkpt><trkpt lat="45.59975164163408" lon="8.644977345319344"><ele>205.14285714285714</ele><time>2026-04-04T08:37:16.999Z</time></trkpt><trkpt lat="45.59981640590783" lon="8.64506236890242"><ele>205.28571428571428</ele><time>2026-04-04T08:37:17.999Z</time></trkpt><trkpt lat="45.59988499763979" lon="8.645122511429296"><ele>205.42857142857142</ele><time>2026-04-04T08:37:18.999Z</time></trkpt><trkpt lat="45.59995405004497" lon="8.64512279477578"><ele>205.57142857142856</ele><time>2026-04-04T08:37:19.999Z</time></trkpt><trkpt lat="45.60001469324765" lon="8.645092236183274"><ele>205.71428571428572</ele><time>2026-04-04T08:37:20.999Z</time></trkpt><trkpt lat="45.600057178435975" lon="8.645019677687019"><ele>205.85714285714283</ele><time>2026-04-04T08:37:21.999Z</time></trkpt><trkpt lat="45.600085188129164" lon="8.64491866794048"><ele>206.0</ele><time>2026-04-04T08:37:22.999Z</time></trkpt><trkpt lat="45.60012499776409" lon="8.64481567375612"><ele>206.0</ele><time>2026-04-04T08:37:23.999Z</time></trkpt><trkpt lat="45.600203297088605" lon="8.644723774550474"><ele>206.0</ele><time>2026-04-04T08:37:24.999Z</time></trkpt><trkpt lat="45.60027058842805" lon="8.644638478853802"><ele>206.0</ele><time>2026-04-04T08:37:25.999Z</time></trkpt><trkpt lat="45.60035108425886" lon="8.644583321546545"><ele>206.0</ele><time>2026-04-04T08:37:26.999Z</time></trkpt><trkpt lat="45.600436702122785" lon="8.644504336128822"><ele>206.0</ele><time>2026-04-04T08:37:27.999Z</time></trkpt><trkpt lat="45.60053146236441" lon="8.644429975291557"><ele>206.5</ele><time>2026-04-04T08:37:28.999Z</time></trkpt><trkpt lat="45.60063716007526" lon="8.644359525168749"><ele>207.0</ele><time>2026-04-04T08:37:29.999Z</time></trkpt><trkpt lat="45.60076340897951" lon="8.644289019698665"><ele>207.5</ele><time>2026-04-04T08:37:30.999Z</time></trkpt><trkpt lat="45.60094082764391" lon="8.644260396119527"><ele>208.0</ele><time>2026-04-04T08:37:31.999Z</time></trkpt><trkpt lat="45.6011415233188" lon="8.644220048920554"><ele>207.5</ele><time>2026-04-04T08:37:32.999Z</time></trkpt><trkpt lat="45.601373167392715" lon="8.644182570430075"><ele>207.0</ele><time>2026-04-04T08:37:33.999Z</time></trkpt><trkpt lat="45.60162861351291" lon="8.644143190385426"><ele>207.0</ele><time>2026-04-04T08:37:34.999Z</time></trkpt><trkpt lat="45.601884484829164" lon="8.644103629941682"><ele>207.0</ele><time>2026-04-04T08:37:35.999Z</time></trkpt><trkpt lat="45.6021547557157" lon="8.644060524471108"><ele>208.5</ele><time>2026-04-04T08:37:36.999Z</time></trkpt><trkpt lat="45.60241404123753" lon="8.644019171140002"><ele>210.0</ele><time>2026-04-04T08:37:37.999Z</time></trkpt><trkpt lat="45.602666381761445" lon="8.643956125665275"><ele>212.0</ele><time>2026-04-04T08:37:38.999Z</time></trkpt><trkpt lat="45.60290813339299" lon="8.643926460564463"><ele>214.0</ele><time>2026-04-04T08:37:39.999Z</time></trkpt><trkpt lat="45.603154659692244" lon="8.6438964282202"><ele>214.0</ele><time>2026-04-04T08:37:40.999Z</time></trkpt><trkpt lat="45.60339448799791" lon="8.643857869175193"><ele>214.0</ele><time>2026-04-04T08:37:41.999Z</time></trkpt><trkpt lat="45.60363058207425" lon="8.64381699778725"><ele>214.33333333333331</ele><time>2026-04-04T08:37:42.999Z</time></trkpt><trkpt lat="45.60385084867443" lon="8.643786554029207"><ele>214.66666666666669</ele><time>2026-04-04T08:37:43.999Z</time></trkpt><trkpt lat="45.60405204817171" lon="8.643749132116595"><ele>215.0</ele><time>2026-04-04T08:37:44.999Z</time></trkpt><trkpt lat="45.60425123775077" lon="8.643715606876636"><ele>215.0</ele><time>2026-04-04T08:37:45.999Z</time></trkpt><trkpt lat="45.60444739077337" lon="8.643667188732454"><ele>215.0</ele><time>2026-04-04T08:37:46.999Z</time></trkpt><trkpt lat="45.604637235553554" lon="8.643601115416068"><ele>215.0</ele><time>2026-04-04T08:37:47.999Z</time></trkpt><trkpt lat="45.604838408948396" lon="8.643521547910456"><ele>217.33333333333334</ele><time>2026-04-04T08:37:48.999Z</time></trkpt><trkpt lat="45.60502446305247" lon="8.643421053141656"><ele>219.66666666666669</ele><time>2026-04-04T08:37:49.999Z</time></trkpt><trkpt lat="45.605242681250374" lon="8.643271790839288"><ele>222.0</ele><time>2026-04-04T08:37:50.999Z</time></trkpt><trkpt lat="45.605481927989054" lon="8.64311411711911"><ele>224.5</ele><time>2026-04-04T08:37:51.999Z</time></trkpt><trkpt lat="45.605732392821146" lon="8.642932961080838"><ele>227.0</ele><time>2026-04-04T08:37:52.999Z</time></trkpt><trkpt lat="45.605986846929255" lon="8.642748111077058"><ele>230.5</ele><time>2026-04-04T08:37:53.999Z</time></trkpt><trkpt lat="45.606246324533686" lon="8.642562057561396"><ele>234.0</ele><time>2026-04-04T08:37:54.999Z</time></trkpt><trkpt lat="45.606504842020115" lon="8.642375993612848"><ele>234.0</ele><time>2026-04-04T08:37:55.999Z</time></trkpt><trkpt lat="45.606762203058025" lon="8.642190326845867"><ele>234.0</ele><time>2026-04-04T08:37:56.999Z</time></trkpt><trkpt lat="45.607011713838645" lon="8.641986189070211"><ele>235.5</ele><time>2026-04-04T08:37:57.999Z</time></trkpt><trkpt lat="45.60727049947504" lon="8.641805772851285"><ele>237.0</ele><time>2026-04-04T08:37:58.999Z</time></trkpt><trkpt lat="45.60753414706156" lon="8.641616348570968"><ele>237.0</ele><time>2026-04-04T08:37:59.999Z</time></trkpt><trkpt lat="45.60779024588148" lon="8.64143400424082"><ele>237.0</ele><time>2026-04-04T08:38:00.999Z</time></trkpt><trkpt lat="45.60805620190386" lon="8.641268469333037"><ele>238.5</ele><time>2026-04-04T08:38:01.999Z</time></trkpt><trkpt lat="45.60831411540639" lon="8.641082833839903"><ele>240.0</ele><time>2026-04-04T08:38:02.999Z</time></trkpt><trkpt lat="45.6085562904142" lon="8.64090534537329"><ele>243.0</ele><time>2026-04-04T08:38:03.999Z</time></trkpt><trkpt lat="45.608791329158905" lon="8.640724719458195"><ele>246.0</ele><time>2026-04-04T08:38:04.999Z</time></trkpt><trkpt lat="45.609012551529254" lon="8.640510972079786"><ele>244.5</ele><time>2026-04-04T08:38:05.999Z</time></trkpt><trkpt lat="45.609234946770904" lon="8.640296663571185"><ele>243.0</ele><time>2026-04-04T08:38:06.999Z</time></trkpt><trkpt lat="45.60945538756241" lon="8.640064472774649"><ele>244.5</ele><time>2026-04-04T08:38:07.999Z</time></trkpt><trkpt lat="45.60967436962926" lon="8.639827475642969"><ele>246.0</ele><time>2026-04-04T08:38:08.999Z</time></trkpt><trkpt lat="45.609896017786895" lon="8.639595704267858"><ele>245.5</ele><time>2026-04-04T08:38:09.999Z</time></trkpt><trkpt lat="45.61011821770917" lon="8.639375488515604"><ele>245.0</ele><time>2026-04-04T08:38:10.999Z</time></trkpt><trkpt lat="45.61034044535407" lon="8.63913632496102"><ele>246.0</ele><time>2026-04-04T08:38:11.999Z</time></trkpt><trkpt lat="45.61056071942263" lon="8.63890277625201"><ele>247.0</ele><time>2026-04-04T08:38:12.999Z</time></trkpt><trkpt lat="45.610778512695454" lon="8.638669490838739"><ele>246.5</ele><time>2026-04-04T08:38:13.999Z</time></trkpt><trkpt lat="45.610990663685676" lon="8.63844870008719"><ele>246.0</ele><time>2026-04-04T08:38:14.999Z</time></trkpt><trkpt lat="45.611191361267764" lon="8.638240993197117"><ele>245.5</ele><time>2026-04-04T08:38:15.999Z</time></trkpt><trkpt lat="45.61138108604985" lon="8.638043251328956"><ele>245.0</ele><time>2026-04-04T08:38:16.999Z</time></trkpt><trkpt lat="45.611561805418496" lon="8.637848884957823"><ele>246.0</ele><time>2026-04-04T08:38:17.999Z</time></trkpt><trkpt lat="45.61176502955599" lon="8.637639394767046"><ele>247.0</ele><time>2026-04-04T08:38:18.999Z</time></trkpt><trkpt lat="45.61199030690474" lon="8.637415837784763"><ele>247.0</ele><time>2026-04-04T08:38:19.999Z</time></trkpt><trkpt lat="45.61221666653914" lon="8.63717819063415"><ele>247.0</ele><time>2026-04-04T08:38:20.999Z</time></trkpt><trkpt lat="45.61243678342769" lon="8.636928277594794"><ele>247.0</ele><time>2026-04-04T08:38:21.999Z</time></trkpt><trkpt lat="45.612658037250235" lon="8.636658668404582"><ele>247.0</ele><time>2026-04-04T08:38:22.999Z</time></trkpt><trkpt lat="45.612872863429004" lon="8.636393562204594"><ele>247.0</ele><time>2026-04-04T08:38:23.999Z</time></trkpt><trkpt lat="45.613089802851185" lon="8.636130940317752"><ele>247.0</ele><time>2026-04-04T08:38:24.999Z</time></trkpt><trkpt lat="45.61331132260999" lon="8.635866335398132"><ele>247.0</ele><time>2026-04-04T08:38:25.999Z</time></trkpt><trkpt lat="45.61353253268832" lon="8.635603712335099"><ele>247.0</ele><time>2026-04-04T08:38:26.998Z</time></trkpt><trkpt lat="45.613759474726315" lon="8.6353357406534"><ele>246.0</ele><time>2026-04-04T08:38:27.998Z</time></trkpt><trkpt lat="45.613977266214256" lon="8.635076880385531"><ele>245.0</ele><time>2026-04-04T08:38:28.998Z</time></trkpt><trkpt lat="45.614199468515835" lon="8.634807989441821"><ele>245.0</ele><time>2026-04-04T08:38:29.998Z</time></trkpt><trkpt lat="45.61442102327594" lon="8.63454665327782"><ele>245.0</ele><time>2026-04-04T08:38:30.998Z</time></trkpt><trkpt lat="45.61464173260048" lon="8.63428094819222"><ele>245.0</ele><time>2026-04-04T08:38:31.998Z</time></trkpt><trkpt lat="45.61486857232411" lon="8.634007773187745"><ele>245.0</ele><time>2026-04-04T08:38:32.998Z</time></trkpt><trkpt lat="45.6151008528761" lon="8.63372884142598"><ele>245.5</ele><time>2026-04-04T08:38:33.998Z</time></trkpt><trkpt lat="45.61531970188058" lon="8.633463627951572"><ele>246.0</ele><time>2026-04-04T08:38:34.998Z</time></trkpt><trkpt lat="45.615545730033894" lon="8.633195630158182"><ele>246.0</ele><time>2026-04-04T08:38:35.998Z</time></trkpt><trkpt lat="45.61577148702996" lon="8.632924386014576"><ele>246.0</ele><time>2026-04-04T08:38:36.998Z</time></trkpt><trkpt lat="45.61599886501059" lon="8.632655758012739"><ele>245.5</ele><time>2026-04-04T08:38:37.998Z</time></trkpt><trkpt lat="45.61622943577515" lon="8.632377660243089"><ele>245.0</ele><time>2026-04-04T08:38:38.998Z</time></trkpt><trkpt lat="45.61644923411901" lon="8.632109689873285"><ele>247.5</ele><time>2026-04-04T08:38:39.998Z</time></trkpt><trkpt lat="45.616690017054175" lon="8.631825785060704"><ele>250.0</ele><time>2026-04-04T08:38:40.999Z</time></trkpt><trkpt lat="45.616926791839354" lon="8.631538720735122"><ele>249.5</ele><time>2026-04-04T08:38:41.999Z</time></trkpt><trkpt lat="45.61715962725884" lon="8.631255011847452"><ele>249.0</ele><time>2026-04-04T08:38:42.999Z</time></trkpt><trkpt lat="45.61739803013621" lon="8.63097296055097"><ele>249.5</ele><time>2026-04-04T08:38:43.999Z</time></trkpt><trkpt lat="45.61763684609745" lon="8.630683946418394"><ele>250.0</ele><time>2026-04-04T08:38:44.999Z</time></trkpt><trkpt lat="45.61787280583707" lon="8.630393553343495"><ele>252.5</ele><time>2026-04-04T08:38:45.999Z</time></trkpt><trkpt lat="45.618111070092525" lon="8.630104452327133"><ele>255.0</ele><time>2026-04-04T08:38:46.999Z</time></trkpt><trkpt lat="45.618348319200145" lon="8.629814661381376"><ele>255.0</ele><time>2026-04-04T08:38:47.999Z</time></trkpt><trkpt lat="45.61860337026582" lon="8.629569408012577"><ele>255.0</ele><time>2026-04-04T08:38:48.999Z</time></trkpt><trkpt lat="45.61884784253893" lon="8.629275340302014"><ele>254.0</ele><time>2026-04-04T08:38:49.999Z</time></trkpt><trkpt lat="45.619083334262534" lon="8.628968530759485"><ele>253.0</ele><time>2026-04-04T08:38:50.999Z</time></trkpt><trkpt lat="45.61932876551302" lon="8.628652230889244"><ele>253.0</ele><time>2026-04-04T08:38:51.999Z</time></trkpt><trkpt lat="45.61956727329034" lon="8.628374595453872"><ele>253.0</ele><time>2026-04-04T08:38:52.999Z</time></trkpt><trkpt lat="45.61980785497446" lon="8.628083196672321"><ele>253.0</ele><time>2026-04-04T08:38:53.999Z</time></trkpt><trkpt lat="45.62005030073036" lon="8.627794096213057"><ele>253.0</ele><time>2026-04-04T08:38:54.999Z</time></trkpt><trkpt lat="45.620292371065126" lon="8.627498491331847"><ele>253.0</ele><time>2026-04-04T08:38:55.999Z</time></trkpt><trkpt lat="45.62053706029596" lon="8.627204455382289"><ele>253.0</ele><time>2026-04-04T08:38:56.999Z</time></trkpt><trkpt lat="45.620767467488655" lon="8.626924335693976"><ele>254.0</ele><time>2026-04-04T08:38:57.999Z</time></trkpt><trkpt lat="45.62097782217511" lon="8.626682280328398"><ele>255.0</ele><time>2026-04-04T08:38:58.999Z</time></trkpt><trkpt lat="45.62116821406405" lon="8.626474556418877"><ele>255.0</ele><time>2026-04-04T08:38:59.999Z</time></trkpt><trkpt lat="45.62135355462502" lon="8.626292288771735"><ele>255.0</ele><time>2026-04-04T08:39:00.999Z</time></trkpt><trkpt lat="45.62153707346228" lon="8.626136691207584"><ele>255.0</ele><time>2026-04-04T08:39:01.999Z</time></trkpt><trkpt lat="45.62173981344707" lon="8.625960986050595"><ele>256.0</ele><time>2026-04-04T08:39:02.999Z</time></trkpt><trkpt lat="45.62196549605053" lon="8.62575894544962"><ele>257.0</ele><time>2026-04-04T08:39:03.999Z</time></trkpt><trkpt lat="45.62219339960645" lon="8.625575111587711"><ele>256.0</ele><time>2026-04-04T08:39:04.999Z</time></trkpt><trkpt lat="45.622418927881775" lon="8.625415482946712"><ele>255.0</ele><time>2026-04-04T08:39:05.999Z</time></trkpt><trkpt lat="45.622651635026294" lon="8.625256750315497"><ele>255.0</ele><time>2026-04-04T08:39:06.999Z</time></trkpt><trkpt lat="45.62289104698945" lon="8.625116050148819"><ele>255.0</ele><time>2026-04-04T08:39:07.999Z</time></trkpt><trkpt lat="45.62313176200719" lon="8.624981324762782"><ele>255.0</ele><time>2026-04-04T08:39:08.999Z</time></trkpt><trkpt lat="45.62338519016913" lon="8.62484526739917"><ele>255.0</ele><time>2026-04-04T08:39:09.999Z</time></trkpt><trkpt lat="45.62364447556216" lon="8.624720311332192"><ele>253.5</ele><time>2026-04-04T08:39:10.999Z</time></trkpt><trkpt lat="45.623902867971324" lon="8.624613358644991"><ele>252.0</ele><time>2026-04-04T08:39:11.999Z</time></trkpt><trkpt lat="45.62416862205842" lon="8.624520316888162"><ele>252.0</ele><time>2026-04-04T08:39:12.999Z</time></trkpt><trkpt lat="45.624439861363" lon="8.624433644088954"><ele>252.0</ele><time>2026-04-04T08:39:13.999Z</time></trkpt><trkpt lat="45.624706056332414" lon="8.624359350941905"><ele>251.5</ele><time>2026-04-04T08:39:14.999Z</time></trkpt><trkpt lat="45.62496797159874" lon="8.624292007161996"><ele>251.0</ele><time>2026-04-04T08:39:15.999Z</time></trkpt><trkpt lat="45.625239894695724" lon="8.624230871067926"><ele>251.5</ele><time>2026-04-04T08:39:16.999Z</time></trkpt><trkpt lat="45.62551096334597" lon="8.624178285158232"><ele>252.0</ele><time>2026-04-04T08:39:17.999Z</time></trkpt><trkpt lat="45.625796628193214" lon="8.62413439429856"><ele>252.0</ele><time>2026-04-04T08:39:18.999Z</time></trkpt><trkpt lat="45.62608348002298" lon="8.624100682391452"><ele>252.0</ele><time>2026-04-04T08:39:19.999Z</time></trkpt><trkpt lat="45.626369569653455" lon="8.624066651206084"><ele>252.0</ele><time>2026-04-04T08:39:20.999Z</time></trkpt><trkpt lat="45.62665061604401" lon="8.624022532242664"><ele>252.0</ele><time>2026-04-04T08:39:21.999Z</time></trkpt><trkpt lat="45.62693090185605" lon="8.623976897479023"><ele>252.5</ele><time>2026-04-04T08:39:22.999Z</time></trkpt><trkpt lat="45.62719819916624" lon="8.623929160557733"><ele>253.0</ele><time>2026-04-04T08:39:23.999Z</time></trkpt><trkpt lat="45.62743731881876" lon="8.623886566315207"><ele>253.0</ele><time>2026-04-04T08:39:24.999Z</time></trkpt><trkpt lat="45.62767462405163" lon="8.623850113584318"><ele>253.0</ele><time>2026-04-04T08:39:25.999Z</time></trkpt><trkpt lat="45.627911788759484" lon="8.623811674911641"><ele>252.5</ele><time>2026-04-04T08:39:26.999Z</time></trkpt><trkpt lat="45.62814783052795" lon="8.62377317898637"><ele>252.0</ele><time>2026-04-04T08:39:27.999Z</time></trkpt><trkpt lat="45.62838150100687" lon="8.623732109611643"><ele>252.0</ele><time>2026-04-04T08:39:28.999Z</time></trkpt><trkpt lat="45.62860895148622" lon="8.623694933142191"><ele>252.0</ele><time>2026-04-04T08:39:29.999Z</time></trkpt><trkpt lat="45.62883590306226" lon="8.623656908651558"><ele>253.5</ele><time>2026-04-04T08:39:30.999Z</time></trkpt><trkpt lat="45.62906940099242" lon="8.623619238199407"><ele>255.0</ele><time>2026-04-04T08:39:31.999Z</time></trkpt><trkpt lat="45.62932159703698" lon="8.623568123617463"><ele>256.0</ele><time>2026-04-04T08:39:32.999Z</time></trkpt><trkpt lat="45.62961741918766" lon="8.623541572038166"><ele>257.0</ele><time>2026-04-04T08:39:33.999Z</time></trkpt><trkpt lat="45.62993496066076" lon="8.623490716623154"><ele>257.0</ele><time>2026-04-04T08:39:34.999Z</time></trkpt><trkpt lat="45.630261863015726" lon="8.623438076619436"><ele>257.0</ele><time>2026-04-04T08:39:35.999Z</time></trkpt><trkpt lat="45.63058858599525" lon="8.623385539977338"><ele>256.0</ele><time>2026-04-04T08:39:36.999Z</time></trkpt><trkpt lat="45.63091860979319" lon="8.623312107140823"><ele>255.0</ele><time>2026-04-04T08:39:37.999Z</time></trkpt><trkpt lat="45.6312422449633" lon="8.623269878428461"><ele>254.0</ele><time>2026-04-04T08:39:38.999Z</time></trkpt><trkpt lat="45.63155950631778" lon="8.623225913442012"><ele>253.0</ele><time>2026-04-04T08:39:39.999Z</time></trkpt><trkpt lat="45.63186860203343" lon="8.623180441269277"><ele>254.0</ele><time>2026-04-04T08:39:40.999Z</time></trkpt><trkpt lat="45.63213843501445" lon="8.623135379200104"><ele>255.0</ele><time>2026-04-04T08:39:41.999Z</time></trkpt><trkpt lat="45.632419852545915" lon="8.623093872335048"><ele>255.0</ele><time>2026-04-04T08:39:42.999Z</time></trkpt><trkpt lat="45.632646707656484" lon="8.623054255370253"><ele>255.0</ele><time>2026-04-04T08:39:43.999Z</time></trkpt><trkpt lat="45.63287011053338" lon="8.62301799774629"><ele>256.3333333333333</ele><time>2026-04-04T08:39:44.999Z</time></trkpt><trkpt lat="45.63308272757288" lon="8.622981890212042"><ele>257.66666666666663</ele><time>2026-04-04T08:39:45.999Z</time></trkpt><trkpt lat="45.63327759717206" lon="8.622957040229696"><ele>259.0</ele><time>2026-04-04T08:39:46.999Z</time></trkpt><trkpt lat="45.63347356874385" lon="8.622922377476227"><ele>259.0</ele><time>2026-04-04T08:39:47.999Z</time></trkpt><trkpt lat="45.63366462539043" lon="8.622891411951114"><ele>259.0</ele><time>2026-04-04T08:39:48.999Z</time></trkpt><trkpt lat="45.63385951517716" lon="8.622860138118284"><ele>259.0</ele><time>2026-04-04T08:39:49.999Z</time></trkpt><trkpt lat="45.63405117369918" lon="8.622826615486606"><ele>259.0</ele><time>2026-04-04T08:39:50.999Z</time></trkpt><trkpt lat="45.63424853004709" lon="8.622798258513878"><ele>259.0</ele><time>2026-04-04T08:39:51.999Z</time></trkpt><trkpt lat="45.634443779428196" lon="8.62279198825745"><ele>259.0</ele><time>2026-04-04T08:39:52.999Z</time></trkpt><trkpt lat="45.634634254520975" lon="8.622741981180534"><ele>259.0</ele><time>2026-04-04T08:39:53.999Z</time></trkpt><trkpt lat="45.634823011991536" lon="8.62270856214454"><ele>259.0</ele><time>2026-04-04T08:39:54.999Z</time></trkpt><trkpt lat="45.635012262180474" lon="8.622676175741532"><ele>259.0</ele><time>2026-04-04T08:39:55.999Z</time></trkpt><trkpt lat="45.63520200934582" lon="8.62264655869579"><ele>259.3333333333333</ele><time>2026-04-04T08:39:56.999Z</time></trkpt><trkpt lat="45.63539382545561" lon="8.622613251044832"><ele>259.6666666666667</ele><time>2026-04-04T08:39:57.999Z</time></trkpt><trkpt lat="45.63558912295424" lon="8.622580620765687"><ele>260.0</ele><time>2026-04-04T08:39:58.999Z</time></trkpt><trkpt lat="45.63577002507994" lon="8.622551541803197"><ele>260.0</ele><time>2026-04-04T08:39:59.999Z</time></trkpt><trkpt lat="45.63595111555691" lon="8.622521302705088"><ele>260.0</ele><time>2026-04-04T08:40:00.999Z</time></trkpt><trkpt lat="45.636138587603405" lon="8.622498457578768"><ele>260.0</ele><time>2026-04-04T08:40:01.999Z</time></trkpt><trkpt lat="45.636315301651116" lon="8.622463436850643"><ele>261.0</ele><time>2026-04-04T08:40:02.999Z</time></trkpt><trkpt lat="45.636508592313405" lon="8.622426900249396"><ele>262.0</ele><time>2026-04-04T08:40:03.999Z</time></trkpt><trkpt lat="45.63668791354936" lon="8.622396362455538"><ele>263.0</ele><time>2026-04-04T08:40:04.999Z</time></trkpt><trkpt lat="45.63687377929551" lon="8.622373942912844"><ele>264.6666666666667</ele><time>2026-04-04T08:40:05.999Z</time></trkpt><trkpt lat="45.637061616080004" lon="8.622339212890155"><ele>266.3333333333333</ele><time>2026-04-04T08:40:06.999Z</time></trkpt><trkpt lat="45.63724925016929" lon="8.622307115471415"><ele>268.0</ele><time>2026-04-04T08:40:07.999Z</time></trkpt><trkpt lat="45.63746631723991" lon="8.622266845785106"><ele>268.0</ele><time>2026-04-04T08:40:08.999Z</time></trkpt><trkpt lat="45.63772240316842" lon="8.622235666290134"><ele>268.0</ele><time>2026-04-04T08:40:09.999Z</time></trkpt><trkpt lat="45.63801853157193" lon="8.622169823547729"><ele>268.5</ele><time>2026-04-04T08:40:10.999Z</time></trkpt><trkpt lat="45.63834643428342" lon="8.622123586316652"><ele>269.0</ele><time>2026-04-04T08:40:11.999Z</time></trkpt><trkpt lat="45.63867806213695" lon="8.622057617323442"><ele>268.0</ele><time>2026-04-04T08:40:12.999Z</time></trkpt><trkpt lat="45.638981273716226" lon="8.622007926910664"><ele>267.0</ele><time>2026-04-04T08:40:13.999Z</time></trkpt><trkpt lat="45.639315692165624" lon="8.62194497965738"><ele>267.5</ele><time>2026-04-04T08:40:14.999Z</time></trkpt><trkpt lat="45.63966923810697" lon="8.621923131755112"><ele>268.0</ele><time>2026-04-04T08:40:15.999Z</time></trkpt><trkpt lat="45.64002207744053" lon="8.62186867149002"><ele>270.0</ele><time>2026-04-04T08:40:16.999Z</time></trkpt><trkpt lat="45.64039344533001" lon="8.621821187775936"><ele>272.0</ele><time>2026-04-04T08:40:17.999Z</time></trkpt><trkpt lat="45.640766226008274" lon="8.621754544554452"><ele>272.0</ele><time>2026-04-04T08:40:18.999Z</time></trkpt><trkpt lat="45.641099144926486" lon="8.621697976829521"><ele>272.0</ele><time>2026-04-04T08:40:19.999Z</time></trkpt><trkpt lat="45.641404563556996" lon="8.621650946992478"><ele>273.0</ele><time>2026-04-04T08:40:20.999Z</time></trkpt><trkpt lat="45.641689702293405" lon="8.621610105866134"><ele>274.0</ele><time>2026-04-04T08:40:21.999Z</time></trkpt><trkpt lat="45.64195156932138" lon="8.621572185003897"><ele>273.5</ele><time>2026-04-04T08:40:22.999Z</time></trkpt><trkpt lat="45.64220081745253" lon="8.621529817891728"><ele>273.0</ele><time>2026-04-04T08:40:23.999Z</time></trkpt><trkpt lat="45.642432077217656" lon="8.621488485337892"><ele>273.0</ele><time>2026-04-04T08:40:24.999Z</time></trkpt><trkpt lat="45.64265377646271" lon="8.621453195004603"><ele>273.0</ele><time>2026-04-04T08:40:25.999Z</time></trkpt><trkpt lat="45.6428501635787" lon="8.621419281052981"><ele>273.0</ele><time>2026-04-04T08:40:26.999Z</time></trkpt><trkpt lat="45.643005904942854" lon="8.621394608445954"><ele>273.25</ele><time>2026-04-04T08:40:27.999Z</time></trkpt><trkpt lat="45.643119169890326" lon="8.621374410032333"><ele>273.5</ele><time>2026-04-04T08:40:28.999Z</time></trkpt><trkpt lat="45.64325446727378" lon="8.621355546423608"><ele>273.75</ele><time>2026-04-04T08:40:29.999Z</time></trkpt><trkpt lat="45.64337336063514" lon="8.621349930822271"><ele>274.0</ele><time>2026-04-04T08:40:30.999Z</time></trkpt><trkpt lat="45.64348075091207" lon="8.621392485250071"><ele>274.0</ele><time>2026-04-04T08:40:31.999Z</time></trkpt><trkpt lat="45.643567393910054" lon="8.621483063069148"><ele>274.0</ele><time>2026-04-04T08:40:32.999Z</time></trkpt><trkpt lat="45.643643236593235" lon="8.621575113747738"><ele>274.0</ele><time>2026-04-04T08:40:33.999Z</time></trkpt><trkpt lat="45.643743843327286" lon="8.62159138313019"><ele>274.0</ele><time>2026-04-04T08:40:34.999Z</time></trkpt><trkpt lat="45.64383407315009" lon="8.621551307687294"><ele>274.0</ele><time>2026-04-04T08:40:35.999Z</time></trkpt><trkpt lat="45.64391616439458" lon="8.621473833858648"><ele>274.4</ele><time>2026-04-04T08:40:36.999Z</time></trkpt><trkpt lat="45.64399043632715" lon="8.621391170038274"><ele>274.79999999999995</ele><time>2026-04-04T08:40:37.999Z</time></trkpt><trkpt lat="45.64405510454361" lon="8.621301022189735"><ele>275.20000000000005</ele><time>2026-04-04T08:40:38.999Z</time></trkpt><trkpt lat="45.6441294921971" lon="8.621213143913184"><ele>275.6</ele><time>2026-04-04T08:40:39.999Z</time></trkpt><trkpt lat="45.644241286879165" lon="8.621138679679937"><ele>276.0</ele><time>2026-04-04T08:40:40.999Z</time></trkpt><trkpt lat="45.64440226051714" lon="8.62107772355779"><ele>277.0</ele><time>2026-04-04T08:40:41.999Z</time></trkpt><trkpt lat="45.644619575435186" lon="8.621029178977357"><ele>278.0</ele><time>2026-04-04T08:40:42.999Z</time></trkpt><trkpt lat="45.64483550169649" lon="8.620966531698487"><ele>279.0</ele><time>2026-04-04T08:40:43.999Z</time></trkpt><trkpt lat="45.64500362293385" lon="8.620910838875492"><ele>279.0</ele><time>2026-04-04T08:40:44.999Z</time></trkpt><trkpt lat="45.645133809578674" lon="8.620854366818255"><ele>279.0</ele><time>2026-04-04T08:40:45.999Z</time></trkpt><trkpt lat="45.645285665711135" lon="8.620774052994413"><ele>279.0</ele><time>2026-04-04T08:40:46.999Z</time></trkpt><trkpt lat="45.6455031202539" lon="8.62066467819683"><ele>281.0</ele><time>2026-04-04T08:40:47.999Z</time></trkpt><trkpt lat="45.64578299812311" lon="8.62055497459367"><ele>283.0</ele><time>2026-04-04T08:40:48.999Z</time></trkpt><trkpt lat="45.64607680812622" lon="8.620425981080759"><ele>284.0</ele><time>2026-04-04T08:40:49.999Z</time></trkpt><trkpt lat="45.64636731843159" lon="8.620280621123536"><ele>285.0</ele><time>2026-04-04T08:40:50.999Z</time></trkpt><trkpt lat="45.64664932748602" lon="8.620134432568335"><ele>285.0</ele><time>2026-04-04T08:40:51.999Z</time></trkpt><trkpt lat="45.6469317298873" lon="8.619994029546962"><ele>285.0</ele><time>2026-04-04T08:40:52.999Z</time></trkpt><trkpt lat="45.64721418722023" lon="8.619854297740963"><ele>285.0</ele><time>2026-04-04T08:40:53.999Z</time></trkpt><trkpt lat="45.64748915249157" lon="8.619716201928307"><ele>285.0</ele><time>2026-04-04T08:40:54.999Z</time></trkpt><trkpt lat="45.64776477250961" lon="8.619575396735172"><ele>283.5</ele><time>2026-04-04T08:40:55.999Z</time></trkpt><trkpt lat="45.64803364744845" lon="8.61944047662604"><ele>282.0</ele><time>2026-04-04T08:40:56.999Z</time></trkpt><trkpt lat="45.64830253096236" lon="8.619312304851478"><ele>282.0</ele><time>2026-04-04T08:40:57.999Z</time></trkpt><trkpt lat="45.648573991383785" lon="8.619193360192925"><ele>282.0</ele><time>2026-04-04T08:40:58.999Z</time></trkpt><trkpt lat="45.64884139740605" lon="8.619091455464861"><ele>283.5</ele><time>2026-04-04T08:40:59.999Z</time></trkpt><trkpt lat="45.649089861209966" lon="8.61902280123026"><ele>285.0</ele><time>2026-04-04T08:41:00.999Z</time></trkpt><trkpt lat="45.64933952872849" lon="8.618969705518932"><ele>285.5</ele><time>2026-04-04T08:41:01.999Z</time></trkpt><trkpt lat="45.64959154114924" lon="8.618934843923778"><ele>286.0</ele><time>2026-04-04T08:41:02.999Z</time></trkpt><trkpt lat="45.649844549845696" lon="8.61890745370572"><ele>286.0</ele><time>2026-04-04T08:41:03.999Z</time></trkpt><trkpt lat="45.65009435464508" lon="8.61888580997592"><ele>286.0</ele><time>2026-04-04T08:41:04.999Z</time></trkpt><trkpt lat="45.6503450374666" lon="8.61885861764968"><ele>285.0</ele><time>2026-04-04T08:41:05.999Z</time></trkpt><trkpt lat="45.650573204719315" lon="8.618830157730049"><ele>284.0</ele><time>2026-04-04T08:41:06.999Z</time></trkpt><trkpt lat="45.65082544456412" lon="8.61879955401507"><ele>284.0</ele><time>2026-04-04T08:41:07.999Z</time></trkpt><trkpt lat="45.65106131961149" lon="8.618766053905393"><ele>284.0</ele><time>2026-04-04T08:41:08.999Z</time></trkpt><trkpt lat="45.651275882687344" lon="8.618746241317563"><ele>284.33333333333337</ele><time>2026-04-04T08:41:09.999Z</time></trkpt><trkpt lat="45.65145273659717" lon="8.61873227042651"><ele>284.6666666666667</ele><time>2026-04-04T08:41:10.999Z</time></trkpt><trkpt lat="45.651610438523576" lon="8.61871165367495"><ele>285.0</ele><time>2026-04-04T08:41:11.999Z</time></trkpt><trkpt lat="45.651745173170305" lon="8.618699341147074"><ele>285.0</ele><time>2026-04-04T08:41:12.999Z</time></trkpt><trkpt lat="45.65187198167271" lon="8.618704218507162"><ele>285.0</ele><time>2026-04-04T08:41:13.999Z</time></trkpt><trkpt lat="45.651985370083054" lon="8.618764698087226"><ele>285.0</ele><time>2026-04-04T08:41:14.999Z</time></trkpt><trkpt lat="45.65208292787396" lon="8.618846342918156"><ele>285.0</ele><time>2026-04-04T08:41:15.999Z</time></trkpt><trkpt lat="45.65219292440064" lon="8.618864197182516"><ele>285.3333333333333</ele><time>2026-04-04T08:41:16.999Z</time></trkpt><trkpt lat="45.652298696871576" lon="8.618818507074325"><ele>285.66666666666663</ele><time>2026-04-04T08:41:17.999Z</time></trkpt><trkpt lat="45.65251226259174" lon="8.618692834442077"><ele>286.0</ele><time>2026-04-04T08:41:19.999Z</time></trkpt><trkpt lat="45.6526297572187" lon="8.618667167494017"><ele>286.0</ele><time>2026-04-04T08:41:20.999Z</time></trkpt><trkpt lat="45.65277411571328" lon="8.618658376230503"><ele>286.0</ele><time>2026-04-04T08:41:21.999Z</time></trkpt><trkpt lat="45.65295597358316" lon="8.618636364491072"><ele>286.0</ele><time>2026-04-04T08:41:22.999Z</time></trkpt><trkpt lat="45.653154575091584" lon="8.61860891380847"><ele>287.3333333333333</ele><time>2026-04-04T08:41:23.999Z</time></trkpt><trkpt lat="45.65335892948266" lon="8.618580444937933"><ele>288.6666666666667</ele><time>2026-04-04T08:41:24.999Z</time></trkpt><trkpt lat="45.65357958929752" lon="8.61852825268026"><ele>290.0</ele><time>2026-04-04T08:41:25.999Z</time></trkpt><trkpt lat="45.653806362946305" lon="8.618477613982606"><ele>291.0</ele><time>2026-04-04T08:41:26.999Z</time></trkpt><trkpt lat="45.65402822561336" lon="8.618453080435689"><ele>292.0</ele><time>2026-04-04T08:41:27.999Z</time></trkpt><trkpt lat="45.65422896793802" lon="8.618436206328067"><ele>293.0</ele><time>2026-04-04T08:41:28.999Z</time></trkpt><trkpt lat="45.65440373528779" lon="8.618437209308413"><ele>293.33333333333337</ele><time>2026-04-04T08:41:29.999Z</time></trkpt><trkpt lat="45.654566147127696" lon="8.618450763979315"><ele>293.6666666666667</ele><time>2026-04-04T08:41:30.999Z</time></trkpt><trkpt lat="45.654729703320676" lon="8.61846217603533"><ele>294.0</ele><time>2026-04-04T08:41:31.999Z</time></trkpt><trkpt lat="45.654922011954305" lon="8.618499681764774"><ele>294.0</ele><time>2026-04-04T08:41:32.999Z</time></trkpt><trkpt lat="45.655141611153134" lon="8.61850519192217"><ele>294.0</ele><time>2026-04-04T08:41:33.999Z</time></trkpt><trkpt lat="45.65535839788723" lon="8.618534194522045"><ele>294.0</ele><time>2026-04-04T08:41:34.999Z</time></trkpt><trkpt lat="45.655581820626594" lon="8.618561648383489"><ele>294.0</ele><time>2026-04-04T08:41:35.999Z</time></trkpt><trkpt lat="45.65581368942631" lon="8.618589564323152"><ele>294.0</ele><time>2026-04-04T08:41:36.999Z</time></trkpt><trkpt lat="45.65603872714515" lon="8.618618994396346"><ele>293.3333333333333</ele><time>2026-04-04T08:41:37.999Z</time></trkpt><trkpt lat="45.656249666163774" lon="8.618653300985645"><ele>292.66666666666663</ele><time>2026-04-04T08:41:38.999Z</time></trkpt><trkpt lat="45.65644239546511" lon="8.618677713783264"><ele>292.0</ele><time>2026-04-04T08:41:39.999Z</time></trkpt><trkpt lat="45.65663536737585" lon="8.618699511659294"><ele>292.0</ele><time>2026-04-04T08:41:40.999Z</time></trkpt><trkpt lat="45.65685514853513" lon="8.618723806979096"><ele>292.0</ele><time>2026-04-04T08:41:41.999Z</time></trkpt><trkpt lat="45.65708693700592" lon="8.618756920566605"><ele>292.5</ele><time>2026-04-04T08:41:42.999Z</time></trkpt><trkpt lat="45.657346219674544" lon="8.618809731836244"><ele>293.0</ele><time>2026-04-04T08:41:43.999Z</time></trkpt><trkpt lat="45.65759480782134" lon="8.618848917739019"><ele>294.0</ele><time>2026-04-04T08:41:44.999Z</time></trkpt><trkpt lat="45.65786530216331" lon="8.618883037338751"><ele>295.0</ele><time>2026-04-04T08:41:45.999Z</time></trkpt><trkpt lat="45.65813786925535" lon="8.618920424819798"><ele>295.0</ele><time>2026-04-04T08:41:46.999Z</time></trkpt><trkpt lat="45.65842075955917" lon="8.618950873405815"><ele>295.0</ele><time>2026-04-04T08:41:47.999Z</time></trkpt><trkpt lat="45.658701739014255" lon="8.61896442262987"><ele>295.5</ele><time>2026-04-04T08:41:48.999Z</time></trkpt><trkpt lat="45.658989351114975" lon="8.618959374034263"><ele>296.0</ele><time>2026-04-04T08:41:49.999Z</time></trkpt><trkpt lat="45.659280563751715" lon="8.618940899171516"><ele>296.5</ele><time>2026-04-04T08:41:50.999Z</time></trkpt><trkpt lat="45.659575380035356" lon="8.618910892671826"><ele>297.0</ele><time>2026-04-04T08:41:51.999Z</time></trkpt><trkpt lat="45.65987502754827" lon="8.618883859119608"><ele>297.0</ele><time>2026-04-04T08:41:52.999Z</time></trkpt><trkpt lat="45.660175941542455" lon="8.618857899749734"><ele>297.0</ele><time>2026-04-04T08:41:53.999Z</time></trkpt><trkpt lat="45.66048010880336" lon="8.618833836257554"><ele>296.5</ele><time>2026-04-04T08:41:54.999Z</time></trkpt><trkpt lat="45.66078639561765" lon="8.61880501734226"><ele>296.0</ele><time>2026-04-04T08:41:55.999Z</time></trkpt><trkpt lat="45.66109741508119" lon="8.618780864618586"><ele>293.0</ele><time>2026-04-04T08:41:56.999Z</time></trkpt><trkpt lat="45.66140672570379" lon="8.618754495103992"><ele>290.0</ele><time>2026-04-04T08:41:57.999Z</time></trkpt><trkpt lat="45.66172382261916" lon="8.618730787489355"><ele>290.0</ele><time>2026-04-04T08:41:58.999Z</time></trkpt><trkpt lat="45.66203444510154" lon="8.618702656778442"><ele>290.0</ele><time>2026-04-04T08:41:59.999Z</time></trkpt><trkpt lat="45.66232093132577" lon="8.618677952818123"><ele>290.0</ele><time>2026-04-04T08:42:00.999Z</time></trkpt><trkpt lat="45.66257680893823" lon="8.618654481357039"><ele>290.0</ele><time>2026-04-04T08:42:01.999Z</time></trkpt><trkpt lat="45.66282388278474" lon="8.618634703461703"><ele>291.33333333333337</ele><time>2026-04-04T08:42:02.999Z</time></trkpt><trkpt lat="45.66305162428798" lon="8.618614199620875"><ele>292.6666666666667</ele><time>2026-04-04T08:42:03.999Z</time></trkpt><trkpt lat="45.66326974896475" lon="8.618593998846325"><ele>294.0</ele><time>2026-04-04T08:42:04.999Z</time></trkpt><trkpt lat="45.66347594888705" lon="8.6185752728795"><ele>294.3333333333333</ele><time>2026-04-04T08:42:05.999Z</time></trkpt><trkpt lat="45.6636702460486" lon="8.61855580873839"><ele>294.66666666666663</ele><time>2026-04-04T08:42:06.999Z</time></trkpt><trkpt lat="45.663844745876034" lon="8.618541393110414"><ele>295.0</ele><time>2026-04-04T08:42:07.999Z</time></trkpt><trkpt lat="45.66399304070806" lon="8.618535578427627"><ele>295.0</ele><time>2026-04-04T08:42:08.999Z</time></trkpt><trkpt lat="45.664105965752604" lon="8.618550275815956"><ele>295.0</ele><time>2026-04-04T08:42:09.999Z</time></trkpt><trkpt lat="45.664167660445024" lon="8.618579634461721"><ele>295.0</ele><time>2026-04-04T08:42:10.999Z</time></trkpt><trkpt lat="45.664221864040854" lon="8.618629095908734"><ele>295.0</ele><time>2026-04-04T08:42:11.999Z</time></trkpt><trkpt lat="45.66427433934095" lon="8.618695512740626"><ele>295.0</ele><time>2026-04-04T08:42:12.999Z</time></trkpt><trkpt lat="45.66433774508508" lon="8.618780892936194"><ele>295.0</ele><time>2026-04-04T08:42:13.999Z</time></trkpt><trkpt lat="45.66441330435988" lon="8.618865427325295"><ele>294.75</ele><time>2026-04-04T08:42:14.999Z</time></trkpt><trkpt lat="45.66451006999501" lon="8.61893560598667"><ele>294.5</ele><time>2026-04-04T08:42:15.999Z</time></trkpt><trkpt lat="45.664632918461365" lon="8.618932230984258"><ele>294.25</ele><time>2026-04-04T08:42:16.999Z</time></trkpt><trkpt lat="45.66468362702311" lon="8.619178291122434"><ele>294.0</ele><time>2026-04-04T08:42:17.999Z</time></trkpt><trkpt lat="45.66472295671948" lon="8.619381740496477"><ele>293.6666666666667</ele><time>2026-04-04T08:42:18.999Z</time></trkpt><trkpt lat="45.66475449119689" lon="8.619623898913327"><ele>293.33333333333337</ele><time>2026-04-04T08:42:19.999Z</time></trkpt><trkpt lat="45.66478967827573" lon="8.619884352842954"><ele>293.0</ele><time>2026-04-04T08:42:20.999Z</time></trkpt><trkpt lat="45.66482091866173" lon="8.620147249253545"><ele>293.0</ele><time>2026-04-04T08:42:21.999Z</time></trkpt><trkpt lat="45.66485638366561" lon="8.620404206705915"><ele>293.0</ele><time>2026-04-04T08:42:22.999Z</time></trkpt><trkpt lat="45.66489347456671" lon="8.620667164781919"><ele>293.0</ele><time>2026-04-04T08:42:23.999Z</time></trkpt><trkpt lat="45.66492948370527" lon="8.620911622890475"><ele>293.0</ele><time>2026-04-04T08:42:24.999Z</time></trkpt><trkpt lat="45.66495983431017" lon="8.621127058502292"><ele>293.0</ele><time>2026-04-04T08:42:25.999Z</time></trkpt><trkpt lat="45.6649869167136" lon="8.621323168689639"><ele>293.0</ele><time>2026-04-04T08:42:26.999Z</time></trkpt><trkpt lat="45.66501119947518" lon="8.621506968087843"><ele>293.0</ele><time>2026-04-04T08:42:27.999Z</time></trkpt><trkpt lat="45.66501687847068" lon="8.62168001137421"><ele>293.0</ele><time>2026-04-04T08:42:28.999Z</time></trkpt><trkpt lat="45.665039258680125" lon="8.621850150657723"><ele>293.0</ele><time>2026-04-04T08:42:29.999Z</time></trkpt><trkpt lat="45.6650607040893" lon="8.622015158008063"><ele>293.0</ele><time>2026-04-04T08:42:30.999Z</time></trkpt><trkpt lat="45.665080612034814" lon="8.622166106093305"><ele>293.0</ele><time>2026-04-04T08:42:31.999Z</time></trkpt><trkpt lat="45.66511695051276" lon="8.622320679922243"><ele>293.25</ele><time>2026-04-04T08:42:32.999Z</time></trkpt><trkpt lat="45.66513855593685" lon="8.622488364504827"><ele>293.5</ele><time>2026-04-04T08:42:33.999Z</time></trkpt><trkpt lat="45.665153993429946" lon="8.622660902198742"><ele>293.75</ele><time>2026-04-04T08:42:34.999Z</time></trkpt><trkpt lat="45.66518083834303" lon="8.622833567498404"><ele>294.0</ele><time>2026-04-04T08:42:35.999Z</time></trkpt><trkpt lat="45.66520021631891" lon="8.623024665496322"><ele>294.25</ele><time>2026-04-04T08:42:36.999Z</time></trkpt><trkpt lat="45.665228944660264" lon="8.623211652027054"><ele>294.5</ele><time>2026-04-04T08:42:37.999Z</time></trkpt><trkpt lat="45.665255686617485" lon="8.62339978274502"><ele>294.75</ele><time>2026-04-04T08:42:38.999Z</time></trkpt><trkpt lat="45.66528027957697" lon="8.62359249178127"><ele>295.0</ele><time>2026-04-04T08:42:39.999Z</time></trkpt><trkpt lat="45.665301445599745" lon="8.623792422573036"><ele>295.5</ele><time>2026-04-04T08:42:40.999Z</time></trkpt><trkpt lat="45.66533200110175" lon="8.623992009397096"><ele>296.0</ele><time>2026-04-04T08:42:41.999Z</time></trkpt><trkpt lat="45.6653596627994" lon="8.624195890558015"><ele>296.5</ele><time>2026-04-04T08:42:42.999Z</time></trkpt><trkpt lat="45.66538131015225" lon="8.624392257311216"><ele>297.0</ele><time>2026-04-04T08:42:43.999Z</time></trkpt><trkpt lat="45.665407963790045" lon="8.624595760951735"><ele>297.0</ele><time>2026-04-04T08:42:44.999Z</time></trkpt><trkpt lat="45.665428030200545" lon="8.62478952197651"><ele>297.0</ele><time>2026-04-04T08:42:45.999Z</time></trkpt><trkpt lat="45.66544115982423" lon="8.624987238447684"><ele>297.0</ele><time>2026-04-04T08:42:46.999Z</time></trkpt><trkpt lat="45.665442451003294" lon="8.62518935253199"><ele>297.0</ele><time>2026-04-04T08:42:47.999Z</time></trkpt><trkpt lat="45.66543448915455" lon="8.625388289623626"><ele>297.0</ele><time>2026-04-04T08:42:48.999Z</time></trkpt><trkpt lat="45.66542618723085" lon="8.625586281372396"><ele>297.0</ele><time>2026-04-04T08:42:49.999Z</time></trkpt><trkpt lat="45.665419805161875" lon="8.625789426684806"><ele>297.0</ele><time>2026-04-04T08:42:50.999Z</time></trkpt><trkpt lat="45.665408553112556" lon="8.625993240566528"><ele>297.0</ele><time>2026-04-04T08:42:51.999Z</time></trkpt><trkpt lat="45.66539971638121" lon="8.626191420328517"><ele>297.0</ele><time>2026-04-04T08:42:52.999Z</time></trkpt><trkpt lat="45.66539082834236" lon="8.626386352816175"><ele>297.0</ele><time>2026-04-04T08:42:53.999Z</time></trkpt><trkpt lat="45.66537903885512" lon="8.626596892326944"><ele>297.0</ele><time>2026-04-04T08:42:54.999Z</time></trkpt><trkpt lat="45.66537255188589" lon="8.626792276152418"><ele>297.0</ele><time>2026-04-04T08:42:55.999Z</time></trkpt><trkpt lat="45.66536396504101" lon="8.626974074087254"><ele>296.8</ele><time>2026-04-04T08:42:56.999Z</time></trkpt><trkpt lat="45.66535788380216" lon="8.627144663498642"><ele>296.6</ele><time>2026-04-04T08:42:57.999Z</time></trkpt><trkpt lat="45.665353427962785" lon="8.627301248383887"><ele>296.40000000000003</ele><time>2026-04-04T08:42:58.999Z</time></trkpt><trkpt lat="45.66535026245287" lon="8.627455013736435"><ele>296.2</ele><time>2026-04-04T08:42:59.999Z</time></trkpt><trkpt lat="45.6653421316856" lon="8.627599766171361"><ele>296.0</ele><time>2026-04-04T08:43:00.999Z</time></trkpt><trkpt lat="45.66533802825201" lon="8.62772509062726"><ele>295.83333333333337</ele><time>2026-04-04T08:43:01.999Z</time></trkpt><trkpt lat="45.66533449731395" lon="8.62784636033685"><ele>295.6666666666667</ele><time>2026-04-04T08:43:02.999Z</time></trkpt><trkpt lat="45.66532779430768" lon="8.62795561424212"><ele>295.5</ele><time>2026-04-04T08:43:03.999Z</time></trkpt><trkpt lat="45.66532620790145" lon="8.628069815027278"><ele>295.3333333333333</ele><time>2026-04-04T08:43:04.999Z</time></trkpt><trkpt lat="45.6653271824082" lon="8.628170024117322"><ele>295.16666666666663</ele><time>2026-04-04T08:43:05.999Z</time></trkpt><trkpt lat="45.66535556610122" lon="8.628328192158536"><ele>295.0</ele><time>2026-04-04T08:43:07.999Z</time></trkpt><trkpt lat="45.665458663547795" lon="8.628367388494484"><ele>295.0</ele><time>2026-04-04T08:43:10Z</time></trkpt><trkpt lat="45.66553015835261" lon="8.628312392563508"><ele>295.0</ele><time>2026-04-04T08:43:11Z</time></trkpt><trkpt lat="45.665616826194494" lon="8.628286372279923"><ele>295.0</ele><time>2026-04-04T08:43:12Z</time></trkpt><trkpt lat="45.665703126112895" lon="8.628273436245687"><ele>295.0</ele><time>2026-04-04T08:43:13Z</time></trkpt><trkpt lat="45.66579566454577" lon="8.628284598577784"><ele>295.0</ele><time>2026-04-04T08:43:14Z</time></trkpt><trkpt lat="45.66589748172803" lon="8.628264422581823"><ele>295.0</ele><time>2026-04-04T08:43:15Z</time></trkpt><trkpt lat="45.66600881641277" lon="8.628258427411225"><ele>295.0</ele><time>2026-04-04T08:43:16Z</time></trkpt><trkpt lat="45.66611984670872" lon="8.628251231668447"><ele>295.0</ele><time>2026-04-04T08:43:17Z</time></trkpt><trkpt lat="45.66622985567943" lon="8.628241504026597"><ele>295.0</ele><time>2026-04-04T08:43:18Z</time></trkpt><trkpt lat="45.66633278046469" lon="8.62823688777531"><ele>295.0</ele><time>2026-04-04T08:43:19Z</time></trkpt><trkpt lat="45.66642226328888" lon="8.628227519837115"><ele>295.42857142857144</ele><time>2026-04-04T08:43:20Z</time></trkpt><trkpt lat="45.6664993893541" lon="8.628213221410554"><ele>295.8571428571429</ele><time>2026-04-04T08:43:21Z</time></trkpt><trkpt lat="45.66656469659265" lon="8.62820066842198"><ele>296.2857142857143</ele><time>2026-04-04T08:43:22Z</time></trkpt><trkpt lat="45.666635237519436" lon="8.628197847824033"><ele>296.7142857142857</ele><time>2026-04-04T08:43:23Z</time></trkpt><trkpt lat="45.66671434201708" lon="8.628192782639402"><ele>297.1428571428571</ele><time>2026-04-04T08:43:24Z</time></trkpt><trkpt lat="45.66679692726928" lon="8.628207773882176"><ele>297.57142857142856</ele><time>2026-04-04T08:43:25Z</time></trkpt><trkpt lat="45.666856709819726" lon="8.628254414492638"><ele>298.0</ele><time>2026-04-04T08:43:26Z</time></trkpt><trkpt lat="45.66688929186578" lon="8.628335394356627"><ele>298.0</ele><time>2026-04-04T08:43:27Z</time></trkpt><trkpt lat="45.66689154012567" lon="8.628449932085315"><ele>298.0</ele><time>2026-04-04T08:43:28Z</time></trkpt><trkpt lat="45.6668655991747" lon="8.628566704281901"><ele>298.0</ele><time>2026-04-04T08:43:29Z</time></trkpt><trkpt lat="45.66684399745073" lon="8.62870751107939"><ele>298.0</ele><time>2026-04-04T08:43:30Z</time></trkpt><trkpt lat="45.66680918226501" lon="8.628845991111778"><ele>298.0</ele><time>2026-04-04T08:43:31Z</time></trkpt><trkpt lat="45.66679856981249" lon="8.629000007468656"><ele>298.5</ele><time>2026-04-04T08:43:32Z</time></trkpt><trkpt lat="45.66678804954751" lon="8.629154635690282"><ele>299.0</ele><time>2026-04-04T08:43:33Z</time></trkpt><trkpt lat="45.66676940960956" lon="8.629314758915474"><ele>299.5</ele><time>2026-04-04T08:43:34Z</time></trkpt><trkpt lat="45.666743012157845" lon="8.629475214025987"><ele>300.0</ele><time>2026-04-04T08:43:35Z</time></trkpt><trkpt lat="45.66670989172681" lon="8.629631125120769"><ele>300.2</ele><time>2026-04-04T08:43:36Z</time></trkpt><trkpt lat="45.666669771566056" lon="8.629770909541158"><ele>300.4</ele><time>2026-04-04T08:43:37Z</time></trkpt><trkpt lat="45.66663531773916" lon="8.629899657764932"><ele>300.6</ele><time>2026-04-04T08:43:38Z</time></trkpt><trkpt lat="45.666589271756074" lon="8.63003370797495"><ele>300.8</ele><time>2026-04-04T08:43:39Z</time></trkpt><trkpt lat="45.66653995863601" lon="8.630177599312235"><ele>301.0</ele><time>2026-04-04T08:43:40Z</time></trkpt><trkpt lat="45.66651903800533" lon="8.630335019992257"><ele>301.25</ele><time>2026-04-04T08:43:41Z</time></trkpt><trkpt lat="45.66647821909171" lon="8.63049015007357"><ele>301.5</ele><time>2026-04-04T08:43:42Z</time></trkpt><trkpt lat="45.666441277974144" lon="8.630656269678461"><ele>301.75</ele><time>2026-04-04T08:43:43Z</time></trkpt><trkpt lat="45.66640477007039" lon="8.630817164378174"><ele>302.0</ele><time>2026-04-04T08:43:44Z</time></trkpt><trkpt lat="45.66636821440857" lon="8.630973244711475"><ele>302.0</ele><time>2026-04-04T08:43:45Z</time></trkpt><trkpt lat="45.66634139914874" lon="8.631120054529584"><ele>302.0</ele><time>2026-04-04T08:43:46Z</time></trkpt><trkpt lat="45.66633214456234" lon="8.631253005147375"><ele>302.0</ele><time>2026-04-04T08:43:47Z</time></trkpt><trkpt lat="45.66633091885722" lon="8.631362207327756"><ele>302.0</ele><time>2026-04-04T08:43:48Z</time></trkpt><trkpt lat="45.6663601539466" lon="8.63147593128554"><ele>302.0</ele><time>2026-04-04T08:43:49Z</time></trkpt><trkpt lat="45.666421980991096" lon="8.63155173236973"><ele>302.0</ele><time>2026-04-04T08:43:50Z</time></trkpt><trkpt lat="45.66652098039547" lon="8.631648492211863"><ele>301.2</ele><time>2026-04-04T08:43:51Z</time></trkpt><trkpt lat="45.66657033589469" lon="8.631743609287982"><ele>300.4</ele><time>2026-04-04T08:43:52Z</time></trkpt><trkpt lat="45.666580556119996" lon="8.6318506396575"><ele>299.6</ele><time>2026-04-04T08:43:53Z</time></trkpt><trkpt lat="45.666520123875614" lon="8.631961632087194"><ele>298.8</ele><time>2026-04-04T08:43:54Z</time></trkpt><trkpt lat="45.66650477828171" lon="8.632093946189515"><ele>298.0</ele><time>2026-04-04T08:43:55Z</time></trkpt><trkpt lat="45.66648673254881" lon="8.63223710772727"><ele>297.8</ele><time>2026-04-04T08:43:56Z</time></trkpt><trkpt lat="45.66647824435567" lon="8.632395687174046"><ele>297.6</ele><time>2026-04-04T08:43:57Z</time></trkpt><trkpt lat="45.66648424190867" lon="8.632553037373325"><ele>297.4</ele><time>2026-04-04T08:43:58Z</time></trkpt><trkpt lat="45.66648104864537" lon="8.632687575611094"><ele>297.2</ele><time>2026-04-04T08:43:59Z</time></trkpt><trkpt lat="45.666489706958664" lon="8.632815108554128"><ele>297.0</ele><time>2026-04-04T08:44:00Z</time></trkpt><trkpt lat="45.66651395347673" lon="8.632939610248114"><ele>297.0</ele><time>2026-04-04T08:44:01Z</time></trkpt><trkpt lat="45.6665315188449" lon="8.633055754969572"><ele>297.0</ele><time>2026-04-04T08:44:02Z</time></trkpt><trkpt lat="45.66659464579668" lon="8.633143943762539"><ele>297.0</ele><time>2026-04-04T08:44:03Z</time></trkpt><trkpt lat="45.666648943982175" lon="8.633220922154656"><ele>297.0</ele><time>2026-04-04T08:44:04Z</time></trkpt><trkpt lat="45.66672016136729" lon="8.633297370512736"><ele>297.0</ele><time>2026-04-04T08:44:05Z</time></trkpt><trkpt lat="45.66677872851453" lon="8.633378017696474"><ele>297.0</ele><time>2026-04-04T08:44:06Z</time></trkpt><trkpt lat="45.66682372869624" lon="8.633469730397863"><ele>297.0</ele><time>2026-04-04T08:44:07Z</time></trkpt><trkpt lat="45.6668662485815" lon="8.633561596275603"><ele>297.0</ele><time>2026-04-04T08:44:08Z</time></trkpt><trkpt lat="45.66689957462441" lon="8.633650644596345"><ele>297.0</ele><time>2026-04-04T08:44:09Z</time></trkpt><trkpt lat="45.66692362193022" lon="8.633763382760502"><ele>297.0</ele><time>2026-04-04T08:44:10Z</time></trkpt><trkpt lat="45.66694446985676" lon="8.633980554303264"><ele>297.0</ele><time>2026-04-04T08:44:12Z</time></trkpt><trkpt lat="45.66695908332638" lon="8.63417800941691"><ele>294.6666666666667</ele><time>2026-04-04T08:44:13Z</time></trkpt><trkpt lat="45.666981901374946" lon="8.634390599576957"><ele>292.33333333333337</ele><time>2026-04-04T08:44:14Z</time></trkpt><trkpt lat="45.667009412372735" lon="8.634611861992372"><ele>290.0</ele><time>2026-04-04T08:44:15Z</time></trkpt><trkpt lat="45.66703629353391" lon="8.6348348110341"><ele>288.33333333333337</ele><time>2026-04-04T08:44:16Z</time></trkpt><trkpt lat="45.6670611409039" lon="8.63505793504151"><ele>286.6666666666667</ele><time>2026-04-04T08:44:17Z</time></trkpt><trkpt lat="45.66705879909027" lon="8.635279093125218"><ele>285.0</ele><time>2026-04-04T08:44:18Z</time></trkpt><trkpt lat="45.66706187298622" lon="8.635502598375297"><ele>284.0</ele><time>2026-04-04T08:44:19Z</time></trkpt><trkpt lat="45.66706225579797" lon="8.63572558918099"><ele>283.0</ele><time>2026-04-04T08:44:20Z</time></trkpt><trkpt lat="45.66706050804613" lon="8.635950148214228"><ele>282.0</ele><time>2026-04-04T08:44:21Z</time></trkpt><trkpt lat="45.66705557466654" lon="8.63616076472526"><ele>282.0</ele><time>2026-04-04T08:44:22Z</time></trkpt><trkpt lat="45.667042996150606" lon="8.636370607214795"><ele>282.0</ele><time>2026-04-04T08:44:23Z</time></trkpt><trkpt lat="45.66702950691956" lon="8.63656756975411"><ele>282.0</ele><time>2026-04-04T08:44:24Z</time></trkpt><trkpt lat="45.66702032029908" lon="8.636751341247296"><ele>282.0</ele><time>2026-04-04T08:44:25Z</time></trkpt><trkpt lat="45.66702021046137" lon="8.63692031607613"><ele>282.8</ele><time>2026-04-04T08:44:26Z</time></trkpt><trkpt lat="45.667049289586565" lon="8.63707544467942"><ele>283.6</ele><time>2026-04-04T08:44:27Z</time></trkpt><trkpt lat="45.66705738662791" lon="8.637233111627685"><ele>284.40000000000003</ele><time>2026-04-04T08:44:28Z</time></trkpt><trkpt lat="45.66707916117079" lon="8.637384788312104"><ele>285.2</ele><time>2026-04-04T08:44:29Z</time></trkpt><trkpt lat="45.667102110609534" lon="8.637547268105697"><ele>286.0</ele><time>2026-04-04T08:44:30Z</time></trkpt><trkpt lat="45.667123022223116" lon="8.637703028832123"><ele>286.25</ele><time>2026-04-04T08:44:31Z</time></trkpt><trkpt lat="45.66714016055979" lon="8.637858333161823"><ele>286.5</ele><time>2026-04-04T08:44:32Z</time></trkpt><trkpt lat="45.66715177815678" lon="8.638015036820287"><ele>286.75</ele><time>2026-04-04T08:44:33Z</time></trkpt><trkpt lat="45.66716400969144" lon="8.638179729052023"><ele>287.0</ele><time>2026-04-04T08:44:34Z</time></trkpt><trkpt lat="45.667196926634595" lon="8.638342352832277"><ele>287.0</ele><time>2026-04-04T08:44:35Z</time></trkpt><trkpt lat="45.66722067156448" lon="8.63851103595787"><ele>287.0</ele><time>2026-04-04T08:44:36Z</time></trkpt><trkpt lat="45.667252022296786" lon="8.638680882396274"><ele>287.0</ele><time>2026-04-04T08:44:37Z</time></trkpt><trkpt lat="45.667297376773696" lon="8.638854459995516"><ele>287.0</ele><time>2026-04-04T08:44:38Z</time></trkpt><trkpt lat="45.66736580888564" lon="8.63902935618764"><ele>286.25</ele><time>2026-04-04T08:44:39Z</time></trkpt><trkpt lat="45.667447631000904" lon="8.639198452566697"><ele>285.5</ele><time>2026-04-04T08:44:40Z</time></trkpt><trkpt lat="45.66752372388405" lon="8.639356416910774"><ele>284.75</ele><time>2026-04-04T08:44:41Z</time></trkpt><trkpt lat="45.66759771192038" lon="8.639513611055914"><ele>284.0</ele><time>2026-04-04T08:44:42Z</time></trkpt><trkpt lat="45.66768094116654" lon="8.639663696415642"><ele>283.75</ele><time>2026-04-04T08:44:43Z</time></trkpt><trkpt lat="45.66777610466502" lon="8.639808275470255"><ele>283.5</ele><time>2026-04-04T08:44:44Z</time></trkpt><trkpt lat="45.66786909411233" lon="8.639956802146221"><ele>283.25</ele><time>2026-04-04T08:44:45Z</time></trkpt><trkpt lat="45.6679544958672" lon="8.640115013185161"><ele>283.0</ele><time>2026-04-04T08:44:46Z</time></trkpt><trkpt lat="45.66805378432559" lon="8.640264495703436"><ele>283.66666666666663</ele><time>2026-04-04T08:44:47Z</time></trkpt><trkpt lat="45.668156704674736" lon="8.640430520243356"><ele>284.3333333333333</ele><time>2026-04-04T08:44:48Z</time></trkpt><trkpt lat="45.668267496130824" lon="8.640617828790681"><ele>285.0</ele><time>2026-04-04T08:44:49Z</time></trkpt><trkpt lat="45.6683474024336" lon="8.640814490524876"><ele>285.0</ele><time>2026-04-04T08:44:50Z</time></trkpt><trkpt lat="45.66843059271868" lon="8.641013685466847"><ele>285.0</ele><time>2026-04-04T08:44:51Z</time></trkpt><trkpt lat="45.66852360277959" lon="8.641213927266428"><ele>285.0</ele><time>2026-04-04T08:44:52Z</time></trkpt><trkpt lat="45.66863485090958" lon="8.641442002675541"><ele>287.0</ele><time>2026-04-04T08:44:53Z</time></trkpt><trkpt lat="45.66875291240592" lon="8.641668996121734"><ele>289.0</ele><time>2026-04-04T08:44:54Z</time></trkpt><trkpt lat="45.66887083194453" lon="8.64190312857528"><ele>291.0</ele><time>2026-04-04T08:44:55Z</time></trkpt><trkpt lat="45.668999371554925" lon="8.64212227643459"><ele>291.6666666666667</ele><time>2026-04-04T08:44:56Z</time></trkpt><trkpt lat="45.66913866086936" lon="8.642329499091767"><ele>292.33333333333337</ele><time>2026-04-04T08:44:57Z</time></trkpt><trkpt lat="45.66922183046292" lon="8.64256168134307"><ele>293.0</ele><time>2026-04-04T08:44:58Z</time></trkpt><trkpt lat="45.66927297878691" lon="8.642791676521634"><ele>290.33333333333337</ele><time>2026-04-04T08:44:59Z</time></trkpt><trkpt lat="45.66926372409735" lon="8.643016469929854"><ele>287.6666666666667</ele><time>2026-04-04T08:45:00Z</time></trkpt><trkpt lat="45.66924887433917" lon="8.643262548807636"><ele>285.0</ele><time>2026-04-04T08:45:01Z</time></trkpt><trkpt lat="45.669235429132044" lon="8.643519780106004"><ele>280.3333333333333</ele><time>2026-04-04T08:45:02Z</time></trkpt><trkpt lat="45.669231492866665" lon="8.643788020457295"><ele>275.66666666666663</ele><time>2026-04-04T08:45:03Z</time></trkpt><trkpt lat="45.66926922304135" lon="8.644035783325451"><ele>271.0</ele><time>2026-04-04T08:45:04Z</time></trkpt><trkpt lat="45.66930063985034" lon="8.644243801156263"><ele>271.0</ele><time>2026-04-04T08:45:05Z</time></trkpt><trkpt lat="45.66933431094076" lon="8.644457347475136"><ele>271.0</ele><time>2026-04-04T08:45:06Z</time></trkpt><trkpt lat="45.669358837408474" lon="8.644710910402427"><ele>271.0</ele><time>2026-04-04T08:45:07Z</time></trkpt><trkpt lat="45.66940251863521" lon="8.645007012679216"><ele>267.5</ele><time>2026-04-04T08:45:08Z</time></trkpt><trkpt lat="45.66944803899277" lon="8.645342695485079"><ele>264.0</ele><time>2026-04-04T08:45:09Z</time></trkpt><trkpt lat="45.66948640057211" lon="8.645708821037138"><ele>264.0</ele><time>2026-04-04T08:45:10Z</time></trkpt><trkpt lat="45.66951398760292" lon="8.646048138274537"><ele>264.0</ele><time>2026-04-04T08:45:11Z</time></trkpt><trkpt lat="45.669536351460096" lon="8.646412646035072"><ele>263.5</ele><time>2026-04-04T08:45:12Z</time></trkpt><trkpt lat="45.66954735627583" lon="8.646785383080733"><ele>263.0</ele><time>2026-04-04T08:45:13Z</time></trkpt><trkpt lat="45.669558621294264" lon="8.647155022377259"><ele>262.5</ele><time>2026-04-04T08:45:14Z</time></trkpt><trkpt lat="45.6695719679805" lon="8.647500252796434"><ele>262.0</ele><time>2026-04-04T08:45:15Z</time></trkpt><trkpt lat="45.66961916926504" lon="8.647831933318974"><ele>262.0</ele><time>2026-04-04T08:45:16Z</time></trkpt><trkpt lat="45.66968385201472" lon="8.648178862532081"><ele>262.0</ele><time>2026-04-04T08:45:17Z</time></trkpt><trkpt lat="45.66976808459144" lon="8.648518029774202"><ele>260.0</ele><time>2026-04-04T08:45:18Z</time></trkpt><trkpt lat="45.66984125465969" lon="8.648892435161958"><ele>258.0</ele><time>2026-04-04T08:45:19Z</time></trkpt><trkpt lat="45.669902141867226" lon="8.649261245020185"><ele>257.0</ele><time>2026-04-04T08:45:20Z</time></trkpt><trkpt lat="45.66994120894489" lon="8.649642387741654"><ele>256.0</ele><time>2026-04-04T08:45:21Z</time></trkpt><trkpt lat="45.66994907678362" lon="8.650030964663967"><ele>256.0</ele><time>2026-04-04T08:45:22Z</time></trkpt><trkpt lat="45.66994983769807" lon="8.6504318184467"><ele>256.0</ele><time>2026-04-04T08:45:23Z</time></trkpt><trkpt lat="45.669950830776386" lon="8.650835636169795"><ele>256.0</ele><time>2026-04-04T08:45:24Z</time></trkpt><trkpt lat="45.66994968986372" lon="8.651228584105876"><ele>256.0</ele><time>2026-04-04T08:45:25Z</time></trkpt><trkpt lat="45.669949055715364" lon="8.65161078739496"><ele>254.5</ele><time>2026-04-04T08:45:26Z</time></trkpt><trkpt lat="45.66995868694547" lon="8.651979642832908"><ele>253.0</ele><time>2026-04-04T08:45:27Z</time></trkpt><trkpt lat="45.66998367601388" lon="8.652349209354158"><ele>253.0</ele><time>2026-04-04T08:45:28Z</time></trkpt><trkpt lat="45.67001858976703" lon="8.652710383960327"><ele>253.0</ele><time>2026-04-04T08:45:29Z</time></trkpt><trkpt lat="45.670080499760076" lon="8.653066379910381"><ele>253.0</ele><time>2026-04-04T08:45:30Z</time></trkpt><trkpt lat="45.670135254721444" lon="8.653423163501973"><ele>253.0</ele><time>2026-04-04T08:45:31Z</time></trkpt><trkpt lat="45.67016827170372" lon="8.653786272453456"><ele>253.0</ele><time>2026-04-04T08:45:32Z</time></trkpt><trkpt lat="45.670192591814356" lon="8.654141233836418"><ele>253.0</ele><time>2026-04-04T08:45:33Z</time></trkpt><trkpt lat="45.670207081406865" lon="8.654511709248833"><ele>254.0</ele><time>2026-04-04T08:45:34Z</time></trkpt><trkpt lat="45.67021919417858" lon="8.654888773779394"><ele>255.0</ele><time>2026-04-04T08:45:35Z</time></trkpt><trkpt lat="45.67022504447823" lon="8.65526595483357"><ele>257.0</ele><time>2026-04-04T08:45:36Z</time></trkpt><trkpt lat="45.67020694986195" lon="8.655627880414421"><ele>259.0</ele><time>2026-04-04T08:45:37Z</time></trkpt><trkpt lat="45.67018519322542" lon="8.65596146095764"><ele>258.66666666666663</ele><time>2026-04-04T08:45:38Z</time></trkpt><trkpt lat="45.670191346907515" lon="8.656281904937295"><ele>258.3333333333333</ele><time>2026-04-04T08:45:39Z</time></trkpt><trkpt lat="45.67020134091341" lon="8.656604143549261"><ele>258.0</ele><time>2026-04-04T08:45:40Z</time></trkpt><trkpt lat="45.6702124519379" lon="8.656956110969514"><ele>254.5</ele><time>2026-04-04T08:45:41Z</time></trkpt><trkpt lat="45.67022830167094" lon="8.65734263774167"><ele>251.0</ele><time>2026-04-04T08:45:42Z</time></trkpt><trkpt lat="45.67026047269748" lon="8.65773147586503"><ele>250.0</ele><time>2026-04-04T08:45:43Z</time></trkpt><trkpt lat="45.67025947824039" lon="8.65813038440122"><ele>249.0</ele><time>2026-04-04T08:45:44Z</time></trkpt><trkpt lat="45.67025134959845" lon="8.658528985567148"><ele>248.0</ele><time>2026-04-04T08:45:45Z</time></trkpt><trkpt lat="45.67024551123122" lon="8.658925423888284"><ele>247.0</ele><time>2026-04-04T08:45:46Z</time></trkpt><trkpt lat="45.67024043816138" lon="8.659323872585503"><ele>244.0</ele><time>2026-04-04T08:45:47Z</time></trkpt><trkpt lat="45.67023614954076" lon="8.659723020151302"><ele>241.0</ele><time>2026-04-04T08:45:48Z</time></trkpt><trkpt lat="45.670231014540036" lon="8.66010921542667"><ele>240.0</ele><time>2026-04-04T08:45:49Z</time></trkpt><trkpt lat="45.670201635116825" lon="8.660484971463983"><ele>239.0</ele><time>2026-04-04T08:45:50Z</time></trkpt><trkpt lat="45.67014789164928" lon="8.660874421303703"><ele>236.0</ele><time>2026-04-04T08:45:51Z</time></trkpt><trkpt lat="45.670067288497044" lon="8.661251276978584"><ele>233.0</ele><time>2026-04-04T08:45:52Z</time></trkpt><trkpt lat="45.669979116929284" lon="8.66163085640373"><ele>229.0</ele><time>2026-04-04T08:45:53Z</time></trkpt><trkpt lat="45.66991256201042" lon="8.661998845178172"><ele>225.0</ele><time>2026-04-04T08:45:54Z</time></trkpt><trkpt lat="45.66987762783554" lon="8.662361644174071"><ele>225.0</ele><time>2026-04-04T08:45:55Z</time></trkpt><trkpt lat="45.6698769318067" lon="8.662734582794524"><ele>225.0</ele><time>2026-04-04T08:45:56Z</time></trkpt><trkpt lat="45.669945370397734" lon="8.663128246451652"><ele>225.0</ele><time>2026-04-04T08:45:57Z</time></trkpt><trkpt lat="45.670008604011194" lon="8.663502367533665"><ele>225.0</ele><time>2026-04-04T08:45:58Z</time></trkpt><trkpt lat="45.670085281536316" lon="8.663874919888018"><ele>224.5</ele><time>2026-04-04T08:45:59Z</time></trkpt><trkpt lat="45.67016468468438" lon="8.664232040492683"><ele>224.0</ele><time>2026-04-04T08:46:00Z</time></trkpt><trkpt lat="45.670304864054145" lon="8.664568515237784"><ele>223.0</ele><time>2026-04-04T08:46:01Z</time></trkpt><trkpt lat="45.67047977769801" lon="8.664875944555579"><ele>222.0</ele><time>2026-04-04T08:46:02Z</time></trkpt><trkpt lat="45.670649965746634" lon="8.66518080138364"><ele>223.0</ele><time>2026-04-04T08:46:03Z</time></trkpt><trkpt lat="45.670845669218394" lon="8.66548239506016"><ele>224.0</ele><time>2026-04-04T08:46:04Z</time></trkpt><trkpt lat="45.6710285709819" lon="8.665795276861754"><ele>221.0</ele><time>2026-04-04T08:46:05Z</time></trkpt><trkpt lat="45.67120546686308" lon="8.666113620295308"><ele>218.0</ele><time>2026-04-04T08:46:06Z</time></trkpt><trkpt lat="45.67138712517124" lon="8.66642545335869"><ele>218.0</ele><time>2026-04-04T08:46:07Z</time></trkpt><trkpt lat="45.671575880444166" lon="8.66674808901672"><ele>218.0</ele><time>2026-04-04T08:46:08Z</time></trkpt><trkpt lat="45.67175700750933" lon="8.667064775482052"><ele>218.5</ele><time>2026-04-04T08:46:09Z</time></trkpt><trkpt lat="45.6719442071058" lon="8.667381547892724"><ele>219.0</ele><time>2026-04-04T08:46:10Z</time></trkpt><trkpt lat="45.67213103927453" lon="8.667700971357226"><ele>217.0</ele><time>2026-04-04T08:46:11Z</time></trkpt><trkpt lat="45.6723222903017" lon="8.668022986234485"><ele>215.0</ele><time>2026-04-04T08:46:12Z</time></trkpt><trkpt lat="45.67252147886169" lon="8.668362453010902"><ele>214.5</ele><time>2026-04-04T08:46:13Z</time></trkpt><trkpt lat="45.67273871437853" lon="8.668733369118799"><ele>214.0</ele><time>2026-04-04T08:46:14Z</time></trkpt><trkpt lat="45.672940657704366" lon="8.669076621004276"><ele>214.0</ele><time>2026-04-04T08:46:15Z</time></trkpt><trkpt lat="45.67311273830526" lon="8.669385669198535"><ele>214.0</ele><time>2026-04-04T08:46:16Z</time></trkpt><trkpt lat="45.673273560682375" lon="8.669670181780537"><ele>213.5</ele><time>2026-04-04T08:46:17Z</time></trkpt><trkpt lat="45.673434107078705" lon="8.669943379688084"><ele>213.0</ele><time>2026-04-04T08:46:18Z</time></trkpt><trkpt lat="45.673575877225694" lon="8.67019365541916"><ele>210.33333333333331</ele><time>2026-04-04T08:46:19Z</time></trkpt><trkpt lat="45.673713468987174" lon="8.670445640129746"><ele>207.66666666666666</ele><time>2026-04-04T08:46:20Z</time></trkpt><trkpt lat="45.6738434232017" lon="8.67068544543764"><ele>205.0</ele><time>2026-04-04T08:46:21Z</time></trkpt><trkpt lat="45.673965934248294" lon="8.670894971767119"><ele>205.0</ele><time>2026-04-04T08:46:22Z</time></trkpt><trkpt lat="45.67407341934815" lon="8.671077264171112"><ele>205.0</ele><time>2026-04-04T08:46:23Z</time></trkpt><trkpt lat="45.67418110855215" lon="8.671242818650182"><ele>205.0</ele><time>2026-04-04T08:46:24Z</time></trkpt><trkpt lat="45.674295591868436" lon="8.671371014900389"><ele>204.0</ele><time>2026-04-04T08:46:25Z</time></trkpt><trkpt lat="45.67442747130766" lon="8.671452492179652"><ele>203.0</ele><time>2026-04-04T08:46:26Z</time></trkpt><trkpt lat="45.674563001856356" lon="8.671461060769813"><ele>202.0</ele><time>2026-04-04T08:46:27Z</time></trkpt><trkpt lat="45.6747004890821" lon="8.671414557102866"><ele>201.0</ele><time>2026-04-04T08:46:28Z</time></trkpt><trkpt lat="45.674847287944694" lon="8.671324808269404"><ele>198.66666666666669</ele><time>2026-04-04T08:46:29Z</time></trkpt><trkpt lat="45.67502585886337" lon="8.671198598840641"><ele>196.33333333333334</ele><time>2026-04-04T08:46:30Z</time></trkpt><trkpt lat="45.675239948516065" lon="8.671073518471543"><ele>194.0</ele><time>2026-04-04T08:46:31Z</time></trkpt><trkpt lat="45.675471487098996" lon="8.670952911373368"><ele>192.5</ele><time>2026-04-04T08:46:32Z</time></trkpt><trkpt lat="45.67572005360153" lon="8.670823604562303"><ele>191.0</ele><time>2026-04-04T08:46:33Z</time></trkpt><trkpt lat="45.67598164005039" lon="8.670686027696666"><ele>190.5</ele><time>2026-04-04T08:46:34Z</time></trkpt><trkpt lat="45.67623163814394" lon="8.670546296454745"><ele>190.0</ele><time>2026-04-04T08:46:35Z</time></trkpt><trkpt lat="45.676477544245" lon="8.670413036990901"><ele>190.0</ele><time>2026-04-04T08:46:36Z</time></trkpt><trkpt lat="45.67672188552411" lon="8.670281495254478"><ele>190.0</ele><time>2026-04-04T08:46:37Z</time></trkpt><trkpt lat="45.67696211594305" lon="8.670152733853307"><ele>192.33333333333334</ele><time>2026-04-04T08:46:38Z</time></trkpt><trkpt lat="45.67717277747394" lon="8.67003200179158"><ele>194.66666666666669</ele><time>2026-04-04T08:46:39Z</time></trkpt><trkpt lat="45.67735196391226" lon="8.669932114285936"><ele>197.0</ele><time>2026-04-04T08:46:40Z</time></trkpt><trkpt lat="45.67750401858017" lon="8.669857730186814"><ele>197.0</ele><time>2026-04-04T08:46:41Z</time></trkpt><trkpt lat="45.67765009782813" lon="8.66978845092074"><ele>197.0</ele><time>2026-04-04T08:46:42Z</time></trkpt><trkpt lat="45.67779310428578" lon="8.669772726004602"><ele>197.0</ele><time>2026-04-04T08:46:43Z</time></trkpt><trkpt lat="45.67792549078931" lon="8.669831809150633"><ele>197.0</ele><time>2026-04-04T08:46:44Z</time></trkpt><trkpt lat="45.67802955949634" lon="8.669964569756496"><ele>201.5</ele><time>2026-04-04T08:46:45Z</time></trkpt><trkpt lat="45.67810972531712" lon="8.67012443562628"><ele>206.0</ele><time>2026-04-04T08:46:46Z</time></trkpt><trkpt lat="45.678149400221294" lon="8.670319397776087"><ele>210.5</ele><time>2026-04-04T08:46:47Z</time></trkpt><trkpt lat="45.678160820416934" lon="8.670525714528234"><ele>215.0</ele><time>2026-04-04T08:46:48Z</time></trkpt><trkpt lat="45.678113781760956" lon="8.670771564603749"><ele>215.0</ele><time>2026-04-04T08:46:49Z</time></trkpt><trkpt lat="45.677989985994756" lon="8.671000068624355"><ele>215.0</ele><time>2026-04-04T08:46:50Z</time></trkpt><trkpt lat="45.677888335828435" lon="8.671290051847933"><ele>215.0</ele><time>2026-04-04T08:46:51Z</time></trkpt><trkpt lat="45.67781147701704" lon="8.67154054499898"><ele>216.33333333333334</ele><time>2026-04-04T08:46:52Z</time></trkpt><trkpt lat="45.67776990913252" lon="8.67182088478769"><ele>217.66666666666669</ele><time>2026-04-04T08:46:53Z</time></trkpt><trkpt lat="45.6777588111683" lon="8.672118860888588"><ele>219.0</ele><time>2026-04-04T08:46:54Z</time></trkpt><trkpt lat="45.67777834222972" lon="8.672411349406415"><ele>219.0</ele><time>2026-04-04T08:46:55Z</time></trkpt><trkpt lat="45.677829492024664" lon="8.672697951609392"><ele>219.0</ele><time>2026-04-04T08:46:56Z</time></trkpt><trkpt lat="45.677904976111606" lon="8.672968241934104"><ele>219.0</ele><time>2026-04-04T08:46:57Z</time></trkpt><trkpt lat="45.67797782351864" lon="8.67320632373933"><ele>217.66666666666669</ele><time>2026-04-04T08:46:58Z</time></trkpt><trkpt lat="45.67803456963408" lon="8.673403100300755"><ele>216.33333333333334</ele><time>2026-04-04T08:46:59Z</time></trkpt><trkpt lat="45.67806140086602" lon="8.673599381225676"><ele>215.0</ele><time>2026-04-04T08:47:00Z</time></trkpt><trkpt lat="45.678085540463655" lon="8.673857984620852"><ele>211.5</ele><time>2026-04-04T08:47:01Z</time></trkpt><trkpt lat="45.67812557884426" lon="8.674164373666802"><ele>208.0</ele><time>2026-04-04T08:47:02Z</time></trkpt><trkpt lat="45.67819347961029" lon="8.674490718858591"><ele>205.66666666666666</ele><time>2026-04-04T08:47:03Z</time></trkpt><trkpt lat="45.67826663342068" lon="8.67478908794337"><ele>203.33333333333331</ele><time>2026-04-04T08:47:04Z</time></trkpt><trkpt lat="45.67834346647359" lon="8.675091438693967"><ele>201.0</ele><time>2026-04-04T08:47:05Z</time></trkpt><trkpt lat="45.67842488075021" lon="8.675404354148771"><ele>199.0</ele><time>2026-04-04T08:47:06Z</time></trkpt><trkpt lat="45.67849325193665" lon="8.675714339110739"><ele>197.0</ele><time>2026-04-04T08:47:07Z</time></trkpt><trkpt lat="45.67855408202621" lon="8.676031314433692"><ele>195.5</ele><time>2026-04-04T08:47:08Z</time></trkpt><trkpt lat="45.678600436297266" lon="8.676345642966739"><ele>194.0</ele><time>2026-04-04T08:47:09Z</time></trkpt><trkpt lat="45.6786361127302" lon="8.676667791979623"><ele>202.5</ele><time>2026-04-04T08:47:10Z</time></trkpt><trkpt lat="45.67866048657032" lon="8.677003901999372"><ele>211.0</ele><time>2026-04-04T08:47:11Z</time></trkpt><trkpt lat="45.67867713022187" lon="8.677347763924645"><ele>211.0</ele><time>2026-04-04T08:47:12Z</time></trkpt><trkpt lat="45.678689482317104" lon="8.67769657754593"><ele>211.0</ele><time>2026-04-04T08:47:13Z</time></trkpt><trkpt lat="45.678693266342286" lon="8.678041501742543"><ele>207.5</ele><time>2026-04-04T08:47:14Z</time></trkpt><trkpt lat="45.678679901935" lon="8.678377654462382"><ele>204.0</ele><time>2026-04-04T08:47:15Z</time></trkpt><trkpt lat="45.67864352351356" lon="8.67871043030838"><ele>197.5</ele><time>2026-04-04T08:47:16Z</time></trkpt><trkpt lat="45.6785970065224" lon="8.67903942820584"><ele>191.0</ele><time>2026-04-04T08:47:17Z</time></trkpt><trkpt lat="45.678551024526364" lon="8.679362247146706"><ele>191.5</ele><time>2026-04-04T08:47:18Z</time></trkpt><trkpt lat="45.678499987014526" lon="8.679684389200835"><ele>192.0</ele><time>2026-04-04T08:47:19Z</time></trkpt><trkpt lat="45.67843488438172" lon="8.679995475392618"><ele>192.33333333333331</ele><time>2026-04-04T08:47:20Z</time></trkpt><trkpt lat="45.67835120457879" lon="8.680296699617076"><ele>192.66666666666666</ele><time>2026-04-04T08:47:21Z</time></trkpt><trkpt lat="45.67826594334306" lon="8.680586374674725"><ele>193.0</ele><time>2026-04-04T08:47:22Z</time></trkpt><trkpt lat="45.67818490881615" lon="8.68085203985634"><ele>193.0</ele><time>2026-04-04T08:47:23Z</time></trkpt><trkpt lat="45.67811148309778" lon="8.681086525013594"><ele>193.0</ele><time>2026-04-04T08:47:24Z</time></trkpt><trkpt lat="45.67804311200366" lon="8.681301736864093"><ele>193.0</ele><time>2026-04-04T08:47:25Z</time></trkpt><trkpt lat="45.67797874218745" lon="8.681504353887979"><ele>193.0</ele><time>2026-04-04T08:47:26Z</time></trkpt><trkpt lat="45.677929251881004" lon="8.681700467852131"><ele>193.0</ele><time>2026-04-04T08:47:27Z</time></trkpt><trkpt lat="45.677905198917976" lon="8.681898151104582"><ele>193.0</ele><time>2026-04-04T08:47:28Z</time></trkpt><trkpt lat="45.67788550958005" lon="8.682076003416679"><ele>193.0</ele><time>2026-04-04T08:47:29Z</time></trkpt><trkpt lat="45.67786804661906" lon="8.682244650997513"><ele>193.0</ele><time>2026-04-04T08:47:30Z</time></trkpt><trkpt lat="45.67784659768974" lon="8.682398015697771"><ele>193.0</ele><time>2026-04-04T08:47:31Z</time></trkpt><trkpt lat="45.677820850381366" lon="8.68253974763168"><ele>193.0</ele><time>2026-04-04T08:47:32Z</time></trkpt><trkpt lat="45.67779169655836" lon="8.682660327835185"><ele>193.0</ele><time>2026-04-04T08:47:33Z</time></trkpt><trkpt lat="45.677749847389585" lon="8.682801548647546"><ele>193.0</ele><time>2026-04-04T08:47:34Z</time></trkpt><trkpt lat="45.67770818371325" lon="8.682957094573299"><ele>193.0</ele><time>2026-04-04T08:47:35Z</time></trkpt><trkpt lat="45.677636439692456" lon="8.68309627048034"><ele>193.0</ele><time>2026-04-04T08:47:36Z</time></trkpt><trkpt lat="45.6775682503712" lon="8.683253316809367"><ele>193.0</ele><time>2026-04-04T08:47:37Z</time></trkpt><trkpt lat="45.67749746510338" lon="8.68340852144514"><ele>193.0</ele><time>2026-04-04T08:47:38Z</time></trkpt><trkpt lat="45.67743084108067" lon="8.683546965790878"><ele>193.8</ele><time>2026-04-04T08:47:39Z</time></trkpt><trkpt lat="45.67737286053568" lon="8.683671011033224"><ele>194.60000000000002</ele><time>2026-04-04T08:47:40Z</time></trkpt><trkpt lat="45.67731819156822" lon="8.683794724301855"><ele>195.39999999999998</ele><time>2026-04-04T08:47:41Z</time></trkpt><trkpt lat="45.677271921335375" lon="8.6839148778706"><ele>196.2</ele><time>2026-04-04T08:47:42Z</time></trkpt><trkpt lat="45.677242424560426" lon="8.684041546368693"><ele>197.0</ele><time>2026-04-04T08:47:43Z</time></trkpt><trkpt lat="45.67726175317556" lon="8.684166331975344"><ele>197.0</ele><time>2026-04-04T08:47:44Z</time></trkpt><trkpt lat="45.67729405882607" lon="8.684287324158802"><ele>197.0</ele><time>2026-04-04T08:47:45Z</time></trkpt><trkpt lat="45.677359840230984" lon="8.684393390965989"><ele>197.0</ele><time>2026-04-04T08:47:46Z</time></trkpt><trkpt lat="45.67746262452104" lon="8.68448687297478"><ele>197.0</ele><time>2026-04-04T08:47:47Z</time></trkpt><trkpt lat="45.67756892128353" lon="8.68457553327583"><ele>197.0</ele><time>2026-04-04T08:47:48Z</time></trkpt><trkpt lat="45.67767173689016" lon="8.684659338784547"><ele>198.66666666666669</ele><time>2026-04-04T08:47:49Z</time></trkpt><trkpt lat="45.677775131645994" lon="8.684748450572561"><ele>200.33333333333331</ele><time>2026-04-04T08:47:50Z</time></trkpt><trkpt lat="45.67791701043849" lon="8.684861280668512"><ele>202.0</ele><time>2026-04-04T08:47:51Z</time></trkpt><trkpt lat="45.67806604435366" lon="8.685012587924515"><ele>202.0</ele><time>2026-04-04T08:47:52Z</time></trkpt><trkpt lat="45.67823217268003" lon="8.685129037396733"><ele>202.0</ele><time>2026-04-04T08:47:53Z</time></trkpt><trkpt lat="45.678372754491825" lon="8.685267681611998"><ele>202.0</ele><time>2026-04-04T08:47:54Z</time></trkpt><trkpt lat="45.67851681846172" lon="8.6853914560188"><ele>203.66666666666666</ele><time>2026-04-04T08:47:55Z</time></trkpt><trkpt lat="45.67865988952013" lon="8.685499041169422"><ele>205.33333333333331</ele><time>2026-04-04T08:47:56Z</time></trkpt><trkpt lat="45.678833603818646" lon="8.685581525839982"><ele>207.0</ele><time>2026-04-04T08:47:57Z</time></trkpt><trkpt lat="45.67906653958742" lon="8.685699165237189"><ele>207.0</ele><time>2026-04-04T08:47:58Z</time></trkpt><trkpt lat="45.679333726199275" lon="8.685789921171132"><ele>207.0</ele><time>2026-04-04T08:47:59Z</time></trkpt><trkpt lat="45.67961253255566" lon="8.685897735383783"><ele>206.5</ele><time>2026-04-04T08:48:00Z</time></trkpt><trkpt lat="45.67989326321866" lon="8.685981481320487"><ele>206.0</ele><time>2026-04-04T08:48:01Z</time></trkpt><trkpt lat="45.68015607481817" lon="8.686066136609638"><ele>211.5</ele><time>2026-04-04T08:48:02Z</time></trkpt><trkpt lat="45.68038954418094" lon="8.68622132313124"><ele>217.0</ele><time>2026-04-04T08:48:03Z</time></trkpt><trkpt lat="45.68063144826031" lon="8.686388976188038"><ele>217.0</ele><time>2026-04-04T08:48:04Z</time></trkpt><trkpt lat="45.68088594348216" lon="8.686548154532735"><ele>217.0</ele><time>2026-04-04T08:48:05Z</time></trkpt><trkpt lat="45.68113273871205" lon="8.68673850225399"><ele>216.0</ele><time>2026-04-04T08:48:06Z</time></trkpt><trkpt lat="45.68138239640373" lon="8.68692676351411"><ele>215.0</ele><time>2026-04-04T08:48:07Z</time></trkpt><trkpt lat="45.68163116216463" lon="8.687114351847232"><ele>215.0</ele><time>2026-04-04T08:48:08Z</time></trkpt><trkpt lat="45.68188540156996" lon="8.68730633820027"><ele>215.0</ele><time>2026-04-04T08:48:09Z</time></trkpt><trkpt lat="45.68212231064161" lon="8.687525602789648"><ele>214.5</ele><time>2026-04-04T08:48:10Z</time></trkpt><trkpt lat="45.68233603428549" lon="8.687694392798797"><ele>214.0</ele><time>2026-04-04T08:48:11Z</time></trkpt><trkpt lat="45.68255446057239" lon="8.687856920269303"><ele>220.5</ele><time>2026-04-04T08:48:12Z</time></trkpt><trkpt lat="45.68279937564162" lon="8.687978293774133"><ele>227.0</ele><time>2026-04-04T08:48:13Z</time></trkpt><trkpt lat="45.68305251841973" lon="8.688090005883605"><ele>227.0</ele><time>2026-04-04T08:48:14Z</time></trkpt><trkpt lat="45.68330472251674" lon="8.68824327288476"><ele>227.0</ele><time>2026-04-04T08:48:15Z</time></trkpt><trkpt lat="45.68354508923642" lon="8.688413640822718"><ele>223.5</ele><time>2026-04-04T08:48:16Z</time></trkpt><trkpt lat="45.68378459322099" lon="8.68858338653255"><ele>220.0</ele><time>2026-04-04T08:48:17Z</time></trkpt><trkpt lat="45.68403453768571" lon="8.688745439032825"><ele>223.5</ele><time>2026-04-04T08:48:18Z</time></trkpt><trkpt lat="45.684283605070114" lon="8.688913762286404"><ele>227.0</ele><time>2026-04-04T08:48:19Z</time></trkpt><trkpt lat="45.68453127098166" lon="8.689084976409067"><ele>227.0</ele><time>2026-04-04T08:48:20Z</time></trkpt><trkpt lat="45.6847862036271" lon="8.689245085542176"><ele>227.0</ele><time>2026-04-04T08:48:21Z</time></trkpt><trkpt lat="45.685046352264315" lon="8.68938755138835"><ele>233.0</ele><time>2026-04-04T08:48:22Z</time></trkpt><trkpt lat="45.68531196762447" lon="8.68951179479517"><ele>239.0</ele><time>2026-04-04T08:48:23Z</time></trkpt><trkpt lat="45.68558351689476" lon="8.689618714258991"><ele>239.0</ele><time>2026-04-04T08:48:24Z</time></trkpt><trkpt lat="45.68585747745941" lon="8.689711932955642"><ele>239.0</ele><time>2026-04-04T08:48:25Z</time></trkpt><trkpt lat="45.68613643192895" lon="8.689794538798568"><ele>238.5</ele><time>2026-04-04T08:48:26Z</time></trkpt><trkpt lat="45.68641860985018" lon="8.689868502491555"><ele>238.0</ele><time>2026-04-04T08:48:27Z</time></trkpt><trkpt lat="45.68670203747338" lon="8.689973605963866"><ele>238.5</ele><time>2026-04-04T08:48:28Z</time></trkpt><trkpt lat="45.68698891791653" lon="8.690058727879915"><ele>239.0</ele><time>2026-04-04T08:48:29Z</time></trkpt><trkpt lat="45.68727235428218" lon="8.690129016650477"><ele>239.0</ele><time>2026-04-04T08:48:30Z</time></trkpt><trkpt lat="45.68755429076949" lon="8.690219530525463"><ele>239.0</ele><time>2026-04-04T08:48:31Z</time></trkpt><trkpt lat="45.68783941935285" lon="8.69029855358633"><ele>252.5</ele><time>2026-04-04T08:48:32Z</time></trkpt><trkpt lat="45.688119467296" lon="8.690365265810543"><ele>266.0</ele><time>2026-04-04T08:48:33Z</time></trkpt><trkpt lat="45.688396239369936" lon="8.690433778578262"><ele>265.0</ele><time>2026-04-04T08:48:34Z</time></trkpt><trkpt lat="45.68864886583401" lon="8.6905003278411"><ele>264.0</ele><time>2026-04-04T08:48:35Z</time></trkpt><trkpt lat="45.68887508628239" lon="8.690566493869303"><ele>264.0</ele><time>2026-04-04T08:48:36Z</time></trkpt><trkpt lat="45.6890796038813" lon="8.690621244138871"><ele>264.0</ele><time>2026-04-04T08:48:37Z</time></trkpt><trkpt lat="45.689280593423156" lon="8.690682182756792"><ele>264.0</ele><time>2026-04-04T08:48:38Z</time></trkpt><trkpt lat="45.68948137761748" lon="8.690757423409012"><ele>262.0</ele><time>2026-04-04T08:48:39Z</time></trkpt><trkpt lat="45.68965142365394" lon="8.690839453624966"><ele>260.0</ele><time>2026-04-04T08:48:40Z</time></trkpt><trkpt lat="45.68980150331201" lon="8.690913832388501"><ele>258.0</ele><time>2026-04-04T08:48:41Z</time></trkpt><trkpt lat="45.68994577437511" lon="8.690983789479324"><ele>258.0</ele><time>2026-04-04T08:48:42Z</time></trkpt><trkpt lat="45.690075388469396" lon="8.69104786837159"><ele>258.0</ele><time>2026-04-04T08:48:43Z</time></trkpt><trkpt lat="45.690184442979586" lon="8.691133473257006"><ele>258.0</ele><time>2026-04-04T08:48:44Z</time></trkpt><trkpt lat="45.690265705593546" lon="8.691260529137354"><ele>258.0</ele><time>2026-04-04T08:48:45Z</time></trkpt><trkpt lat="45.69029658121701" lon="8.691436612000091"><ele>260.3333333333333</ele><time>2026-04-04T08:48:46Z</time></trkpt><trkpt lat="45.69032969865393" lon="8.69163215280151"><ele>262.66666666666663</ele><time>2026-04-04T08:48:47Z</time></trkpt><trkpt lat="45.690345544728274" lon="8.691846395097922"><ele>265.0</ele><time>2026-04-04T08:48:48Z</time></trkpt><trkpt lat="45.690328283900065" lon="8.692092407715595"><ele>272.5</ele><time>2026-04-04T08:48:49Z</time></trkpt><trkpt lat="45.69026652551646" lon="8.69238689344488"><ele>280.0</ele><time>2026-04-04T08:48:50Z</time></trkpt><trkpt lat="45.690189720140324" lon="8.692713315843475"><ele>279.5</ele><time>2026-04-04T08:48:51Z</time></trkpt><trkpt lat="45.690120633697425" lon="8.693001808644812"><ele>279.0</ele><time>2026-04-04T08:48:52Z</time></trkpt><trkpt lat="45.69004205114735" lon="8.693329955754768"><ele>278.3333333333333</ele><time>2026-04-04T08:48:53Z</time></trkpt><trkpt lat="45.689972944910544" lon="8.693599918703299"><ele>277.66666666666663</ele><time>2026-04-04T08:48:54Z</time></trkpt><trkpt lat="45.689907012190226" lon="8.693840280670273"><ele>277.0</ele><time>2026-04-04T08:48:55Z</time></trkpt><trkpt lat="45.68985483357756" lon="8.694030501154511"><ele>277.0</ele><time>2026-04-04T08:48:56Z</time></trkpt><trkpt lat="45.68981540183333" lon="8.694144781081656"><ele>277.0</ele><time>2026-04-04T08:48:57Z</time></trkpt><trkpt lat="45.689759337150235" lon="8.694216128261083"><ele>277.0</ele><time>2026-04-04T08:48:58Z</time></trkpt><trkpt lat="45.68972069235089" lon="8.694288781499912"><ele>277.0</ele><time>2026-04-04T08:48:59Z</time></trkpt><trkpt lat="45.68957673275673" lon="8.694226753770254"><ele>277.0</ele><time>2026-04-04T08:49:00Z</time></trkpt><trkpt lat="45.689498748133026" lon="8.694371946914336"><ele>277.0</ele><time>2026-04-04T08:49:02Z</time></trkpt><trkpt lat="45.68944619801006" lon="8.694453641386508"><ele>277.0</ele><time>2026-04-04T08:49:03Z</time></trkpt><trkpt lat="45.68938580908317" lon="8.69454783129741"><ele>277.0</ele><time>2026-04-04T08:49:04Z</time></trkpt><trkpt lat="45.689319267507784" lon="8.694651617556076"><ele>277.0</ele><time>2026-04-04T08:49:05Z</time></trkpt><trkpt lat="45.6893514244688" lon="8.694897096863627"><ele>277.0</ele><time>2026-04-04T08:49:06Z</time></trkpt><trkpt lat="45.68930216056982" lon="8.695061580669426"><ele>276.75</ele><time>2026-04-04T08:49:07Z</time></trkpt><trkpt lat="45.689258830354376" lon="8.695225262462795"><ele>276.5</ele><time>2026-04-04T08:49:08Z</time></trkpt><trkpt lat="45.68921518124906" lon="8.695418248399296"><ele>276.25</ele><time>2026-04-04T08:49:09Z</time></trkpt><trkpt lat="45.68917097812533" lon="8.695622180285396"><ele>276.0</ele><time>2026-04-04T08:49:10Z</time></trkpt><trkpt lat="45.689126048480695" lon="8.69582092440334"><ele>276.0</ele><time>2026-04-04T08:49:11Z</time></trkpt><trkpt lat="45.68908625741451" lon="8.696031434257065"><ele>276.0</ele><time>2026-04-04T08:49:12Z</time></trkpt><trkpt lat="45.689047945372145" lon="8.696210019019631"><ele>276.0</ele><time>2026-04-04T08:49:13Z</time></trkpt><trkpt lat="45.68901208346279" lon="8.696370830347533"><ele>276.0</ele><time>2026-04-04T08:49:14Z</time></trkpt><trkpt lat="45.68897976008468" lon="8.696527637659317"><ele>276.5</ele><time>2026-04-04T08:49:15Z</time></trkpt><trkpt lat="45.68894230617106" lon="8.696715278136372"><ele>277.0</ele><time>2026-04-04T08:49:16Z</time></trkpt><trkpt lat="45.688911942175565" lon="8.696921847883162"><ele>277.5</ele><time>2026-04-04T08:49:17Z</time></trkpt><trkpt lat="45.688887829112296" lon="8.697134863418551"><ele>278.0</ele><time>2026-04-04T08:49:18Z</time></trkpt><trkpt lat="45.68886184651513" lon="8.697349437733926"><ele>278.6666666666667</ele><time>2026-04-04T08:49:19Z</time></trkpt><trkpt lat="45.688829546704504" lon="8.697570426553593"><ele>279.3333333333333</ele><time>2026-04-04T08:49:20Z</time></trkpt><trkpt lat="45.68877933876722" lon="8.697791329328076"><ele>280.0</ele><time>2026-04-04T08:49:21Z</time></trkpt><trkpt lat="45.68871885580696" lon="8.698009565935829"><ele>280.0</ele><time>2026-04-04T08:49:22Z</time></trkpt><trkpt lat="45.68867136726035" lon="8.698241145139544"><ele>280.0</ele><time>2026-04-04T08:49:23Z</time></trkpt><trkpt lat="45.688646660154404" lon="8.698484772077473"><ele>280.0</ele><time>2026-04-04T08:49:24Z</time></trkpt><trkpt lat="45.68862846989158" lon="8.69873180000406"><ele>279.66666666666663</ele><time>2026-04-04T08:49:25Z</time></trkpt><trkpt lat="45.68861496493319" lon="8.698982269064077"><ele>279.3333333333333</ele><time>2026-04-04T08:49:26Z</time></trkpt><trkpt lat="45.688603618581105" lon="8.699246294952731"><ele>279.0</ele><time>2026-04-04T08:49:27Z</time></trkpt><trkpt lat="45.68858908645274" lon="8.699500440721774"><ele>278.6666666666667</ele><time>2026-04-04T08:49:28Z</time></trkpt><trkpt lat="45.68858057330841" lon="8.699756404301517"><ele>278.33333333333337</ele><time>2026-04-04T08:49:29Z</time></trkpt><trkpt lat="45.688564694662915" lon="8.700009333151456"><ele>278.0</ele><time>2026-04-04T08:49:30Z</time></trkpt><trkpt lat="45.6885468029346" lon="8.70026374483966"><ele>278.0</ele><time>2026-04-04T08:49:31Z</time></trkpt><trkpt lat="45.68852261706167" lon="8.700519844452714"><ele>278.0</ele><time>2026-04-04T08:49:32Z</time></trkpt><trkpt lat="45.68849045824206" lon="8.700758475366122"><ele>278.0</ele><time>2026-04-04T08:49:33Z</time></trkpt><trkpt lat="45.68845857732069" lon="8.700973017032293"><ele>278.0</ele><time>2026-04-04T08:49:34Z</time></trkpt><trkpt lat="45.688433648599414" lon="8.70116661526452"><ele>278.0</ele><time>2026-04-04T08:49:35Z</time></trkpt><trkpt lat="45.6884189695098" lon="8.70132971282015"><ele>278.0</ele><time>2026-04-04T08:49:36Z</time></trkpt><trkpt lat="45.688405272829286" lon="8.7014727778053"><ele>278.0</ele><time>2026-04-04T08:49:37Z</time></trkpt><trkpt lat="45.688397443746666" lon="8.701577141813518"><ele>278.0</ele><time>2026-04-04T08:49:38Z</time></trkpt><trkpt lat="45.68838460685364" lon="8.701723687161468"><ele>278.0</ele><time>2026-04-04T08:49:40Z</time></trkpt><trkpt lat="45.68837626541074" lon="8.701843675192647"><ele>278.0</ele><time>2026-04-04T08:49:42Z</time></trkpt><trkpt lat="45.68842010045222" lon="8.701982831528452"><ele>278.0</ele><time>2026-04-04T08:50:52Z</time></trkpt><trkpt lat="45.688467922994036" lon="8.702063417640417"><ele>278.0</ele><time>2026-04-04T08:50:53Z</time></trkpt><trkpt lat="45.68854394567464" lon="8.70211962605619"><ele>278.0</ele><time>2026-04-04T08:50:54Z</time></trkpt><trkpt lat="45.6886338129142" lon="8.702146912728672"><ele>278.0</ele><time>2026-04-04T08:50:55Z</time></trkpt><trkpt lat="45.68877435001523" lon="8.70216459240347"><ele>277.6666666666667</ele><time>2026-04-04T08:50:56Z</time></trkpt><trkpt lat="45.68893967211381" lon="8.70217671894658"><ele>277.3333333333333</ele><time>2026-04-04T08:50:57Z</time></trkpt><trkpt lat="45.68912244665525" lon="8.702183887296234"><ele>277.0</ele><time>2026-04-04T08:50:58Z</time></trkpt><trkpt lat="45.689344780429224" lon="8.702198797618683"><ele>277.0</ele><time>2026-04-04T08:50:59Z</time></trkpt><trkpt lat="45.6895760734651" lon="8.70222274196873"><ele>277.0</ele><time>2026-04-04T08:51:00Z</time></trkpt><trkpt lat="45.689785659045285" lon="8.702251715988593"><ele>277.0</ele><time>2026-04-04T08:51:01Z</time></trkpt><trkpt lat="45.689970305143476" lon="8.702278597515496"><ele>277.0</ele><time>2026-04-04T08:51:02Z</time></trkpt><trkpt lat="45.690125262659166" lon="8.702297887380867"><ele>277.0</ele><time>2026-04-04T08:51:03Z</time></trkpt><trkpt lat="45.69025552480888" lon="8.702347626222213"><ele>277.0</ele><time>2026-04-04T08:51:04Z</time></trkpt><trkpt lat="45.69037222696442" lon="8.702457071142126"><ele>277.0</ele><time>2026-04-04T08:51:05.001Z</time></trkpt><trkpt lat="45.69047691664636" lon="8.70258481463938"><ele>277.75</ele><time>2026-04-04T08:51:06.001Z</time></trkpt><trkpt lat="45.690555674300064" lon="8.70274344541842"><ele>278.5</ele><time>2026-04-04T08:51:07.001Z</time></trkpt><trkpt lat="45.69060431153549" lon="8.702898797578012"><ele>279.25</ele><time>2026-04-04T08:51:08.001Z</time></trkpt><trkpt lat="45.69058559045412" lon="8.703058138157322"><ele>280.0</ele><time>2026-04-04T08:51:09.001Z</time></trkpt><trkpt lat="45.6905929226683" lon="8.703259620888009"><ele>280.5</ele><time>2026-04-04T08:51:10.001Z</time></trkpt><trkpt lat="45.69065030688062" lon="8.70349499336675"><ele>281.0</ele><time>2026-04-04T08:51:11.001Z</time></trkpt><trkpt lat="45.69071229563949" lon="8.703704219247111"><ele>281.5</ele><time>2026-04-04T08:51:12.001Z</time></trkpt><trkpt lat="45.69074408934872" lon="8.703835039966666"><ele>282.0</ele><time>2026-04-04T08:51:13.001Z</time></trkpt><trkpt lat="45.69077959984224" lon="8.703938479469835"><ele>282.4</ele><time>2026-04-04T08:51:14.001Z</time></trkpt><trkpt lat="45.690853394386984" lon="8.703994611816189"><ele>282.79999999999995</ele><time>2026-04-04T08:51:15.001Z</time></trkpt><trkpt lat="45.690949477041286" lon="8.703988612211269"><ele>283.2</ele><time>2026-04-04T08:51:16.001Z</time></trkpt><trkpt lat="45.69106219995961" lon="8.703906135686708"><ele>283.59999999999997</ele><time>2026-04-04T08:51:17.001Z</time></trkpt><trkpt lat="45.69119132050298" lon="8.703821583012433"><ele>284.0</ele><time>2026-04-04T08:51:18.001Z</time></trkpt><trkpt lat="45.691337646125085" lon="8.703734933448688"><ele>284.33333333333337</ele><time>2026-04-04T08:51:19.001Z</time></trkpt><trkpt lat="45.69149503669956" lon="8.703635458318033"><ele>284.6666666666667</ele><time>2026-04-04T08:51:20.001Z</time></trkpt><trkpt lat="45.691651966046024" lon="8.70354318322757"><ele>285.0</ele><time>2026-04-04T08:51:21.001Z</time></trkpt><trkpt lat="45.691809695195765" lon="8.703446604072036"><ele>284.0</ele><time>2026-04-04T08:51:22.001Z</time></trkpt><trkpt lat="45.69196808761141" lon="8.7033533728084"><ele>283.0</ele><time>2026-04-04T08:51:23.001Z</time></trkpt><trkpt lat="45.69212242598047" lon="8.703258527607808"><ele>282.0</ele><time>2026-04-04T08:51:24.001Z</time></trkpt><trkpt lat="45.69227369479834" lon="8.703163517804242"><ele>282.0</ele><time>2026-04-04T08:51:25.001Z</time></trkpt><trkpt lat="45.69242986208653" lon="8.703065964003871"><ele>282.0</ele><time>2026-04-04T08:51:26.001Z</time></trkpt><trkpt lat="45.69259112316312" lon="8.702960555363973"><ele>282.0</ele><time>2026-04-04T08:51:27.001Z</time></trkpt><trkpt lat="45.69275071350902" lon="8.702853367746608"><ele>281.3333333333333</ele><time>2026-04-04T08:51:28.001Z</time></trkpt><trkpt lat="45.69290800341727" lon="8.70274265201988"><ele>280.66666666666663</ele><time>2026-04-04T08:51:29.001Z</time></trkpt><trkpt lat="45.693068024312865" lon="8.702633221385748"><ele>280.0</ele><time>2026-04-04T08:51:30.001Z</time></trkpt><trkpt lat="45.69323274520086" lon="8.702524057518612"><ele>280.0</ele><time>2026-04-04T08:51:31.001Z</time></trkpt><trkpt lat="45.693394037306795" lon="8.702417632438474"><ele>280.0</ele><time>2026-04-04T08:51:32.001Z</time></trkpt><trkpt lat="45.69356082708613" lon="8.702308489820807"><ele>280.0</ele><time>2026-04-04T08:51:33.001Z</time></trkpt><trkpt lat="45.69372127077277" lon="8.702199992411021"><ele>279.3333333333333</ele><time>2026-04-04T08:51:34.001Z</time></trkpt><trkpt lat="45.69388158232259" lon="8.702094663822212"><ele>278.6666666666667</ele><time>2026-04-04T08:51:35.001Z</time></trkpt><trkpt lat="45.694044647113735" lon="8.701980606547083"><ele>278.0</ele><time>2026-04-04T08:51:36.001Z</time></trkpt><trkpt lat="45.69421414311779" lon="8.701873521537937"><ele>278.0</ele><time>2026-04-04T08:51:37.001Z</time></trkpt><trkpt lat="45.69438579663284" lon="8.701765822411435"><ele>278.0</ele><time>2026-04-04T08:51:38.001Z</time></trkpt><trkpt lat="45.69454689427139" lon="8.701653450144326"><ele>278.0</ele><time>2026-04-04T08:51:39.001Z</time></trkpt><trkpt lat="45.69470169822039" lon="8.701553168153668"><ele>277.4</ele><time>2026-04-04T08:51:40.001Z</time></trkpt><trkpt lat="45.69483168757637" lon="8.701475238765862"><ele>276.8</ele><time>2026-04-04T08:51:41Z</time></trkpt><trkpt lat="45.69494460964461" lon="8.701431527796181"><ele>276.2</ele><time>2026-04-04T08:51:42Z</time></trkpt><trkpt lat="45.69504365303121" lon="8.701444737144138"><ele>275.6</ele><time>2026-04-04T08:51:43Z</time></trkpt><trkpt lat="45.69513515981388" lon="8.701449875618348"><ele>275.0</ele><time>2026-04-04T08:51:44Z</time></trkpt><trkpt lat="45.69520658236801" lon="8.701349961929436"><ele>274.6666666666667</ele><time>2026-04-04T08:51:45Z</time></trkpt><trkpt lat="45.695290150978266" lon="8.70119379270567"><ele>274.3333333333333</ele><time>2026-04-04T08:51:46Z</time></trkpt><trkpt lat="45.695417968289036" lon="8.701077478850271"><ele>274.0</ele><time>2026-04-04T08:51:47Z</time></trkpt><trkpt lat="45.69557569083132" lon="8.701015675765854"><ele>274.0</ele><time>2026-04-04T08:51:48Z</time></trkpt><trkpt lat="45.69575952333599" lon="8.701019950057214"><ele>274.0</ele><time>2026-04-04T08:51:49Z</time></trkpt><trkpt lat="45.695950822258204" lon="8.701042358214638"><ele>274.0</ele><time>2026-04-04T08:51:50Z</time></trkpt><trkpt lat="45.696150418367374" lon="8.701145743404917"><ele>273.0</ele><time>2026-04-04T08:51:51Z</time></trkpt><trkpt lat="45.69635688617684" lon="8.701270665424968"><ele>272.0</ele><time>2026-04-04T08:51:52Z</time></trkpt><trkpt lat="45.69655546456423" lon="8.701406349127884"><ele>271.0</ele><time>2026-04-04T08:51:53Z</time></trkpt><trkpt lat="45.696752651115354" lon="8.70152041366634"><ele>269.0</ele><time>2026-04-04T08:51:54Z</time></trkpt><trkpt lat="45.69694222696388" lon="8.701624386510254"><ele>267.0</ele><time>2026-04-04T08:51:55Z</time></trkpt><trkpt lat="45.69713967632115" lon="8.70173645296637"><ele>265.0</ele><time>2026-04-04T08:51:56Z</time></trkpt><trkpt lat="45.69733530364081" lon="8.701848461287545"><ele>265.0</ele><time>2026-04-04T08:51:57Z</time></trkpt><trkpt lat="45.697529147107325" lon="8.701958727856125"><ele>265.0</ele><time>2026-04-04T08:51:58Z</time></trkpt><trkpt lat="45.697727433748334" lon="8.702070216559035"><ele>265.0</ele><time>2026-04-04T08:51:59Z</time></trkpt><trkpt lat="45.697926771298164" lon="8.702180283487856"><ele>265.0</ele><time>2026-04-04T08:52:00Z</time></trkpt><trkpt lat="45.69812678793822" lon="8.702293529583557"><ele>265.0</ele><time>2026-04-04T08:52:01Z</time></trkpt><trkpt lat="45.69832211025536" lon="8.702403499391895"><ele>265.0</ele><time>2026-04-04T08:52:02Z</time></trkpt><trkpt lat="45.69851456943407" lon="8.70251308772771"><ele>263.3333333333333</ele><time>2026-04-04T08:52:03Z</time></trkpt><trkpt lat="45.69870503213383" lon="8.702584734291593"><ele>261.6666666666667</ele><time>2026-04-04T08:52:04Z</time></trkpt><trkpt lat="45.69889480555579" lon="8.70257891834639"><ele>260.0</ele><time>2026-04-04T08:52:05Z</time></trkpt><trkpt lat="45.69908090027654" lon="8.70246854743969"><ele>260.0</ele><time>2026-04-04T08:52:06Z</time></trkpt><trkpt lat="45.69926392400896" lon="8.702331485725978"><ele>260.0</ele><time>2026-04-04T08:52:07Z</time></trkpt><trkpt lat="45.69945157320493" lon="8.702194489277474"><ele>260.0</ele><time>2026-04-04T08:52:08Z</time></trkpt><trkpt lat="45.69965951178856" lon="8.702078823808884"><ele>260.0</ele><time>2026-04-04T08:52:09Z</time></trkpt><trkpt lat="45.699882944934934" lon="8.701951077710707"><ele>260.0</ele><time>2026-04-04T08:52:10Z</time></trkpt><trkpt lat="45.70011987658981" lon="8.701816356661345"><ele>260.5</ele><time>2026-04-04T08:52:11Z</time></trkpt><trkpt lat="45.70036130642304" lon="8.701674477239601"><ele>261.0</ele><time>2026-04-04T08:52:12Z</time></trkpt><trkpt lat="45.70060651639922" lon="8.701528222989474"><ele>261.0</ele><time>2026-04-04T08:52:13Z</time></trkpt><trkpt lat="45.700856524418136" lon="8.70138028492696"><ele>261.0</ele><time>2026-04-04T08:52:14Z</time></trkpt><trkpt lat="45.70110981270467" lon="8.701224741100422"><ele>262.5</ele><time>2026-04-04T08:52:15Z</time></trkpt><trkpt lat="45.70136413711541" lon="8.701072852875903"><ele>264.0</ele><time>2026-04-04T08:52:16Z</time></trkpt><trkpt lat="45.70161938267235" lon="8.700915070374894"><ele>264.0</ele><time>2026-04-04T08:52:17Z</time></trkpt><trkpt lat="45.701875888485105" lon="8.700759045976378"><ele>264.0</ele><time>2026-04-04T08:52:18Z</time></trkpt><trkpt lat="45.70213633400831" lon="8.70059663825366"><ele>264.0</ele><time>2026-04-04T08:52:19Z</time></trkpt><trkpt lat="45.702390828219215" lon="8.700446228524187"><ele>264.0</ele><time>2026-04-04T08:52:20Z</time></trkpt><trkpt lat="45.70263583072971" lon="8.700296097890593"><ele>264.5</ele><time>2026-04-04T08:52:21Z</time></trkpt><trkpt lat="45.70287765554518" lon="8.700152431470032"><ele>265.0</ele><time>2026-04-04T08:52:22Z</time></trkpt><trkpt lat="45.70311893139817" lon="8.700005405706625"><ele>265.0</ele><time>2026-04-04T08:52:23Z</time></trkpt><trkpt lat="45.70334302221697" lon="8.699877071989084"><ele>265.0</ele><time>2026-04-04T08:52:24Z</time></trkpt><trkpt lat="45.70354757732058" lon="8.69974502514892"><ele>264.3333333333333</ele><time>2026-04-04T08:52:25Z</time></trkpt><trkpt lat="45.70373716458587" lon="8.69962190617314"><ele>263.6666666666667</ele><time>2026-04-04T08:52:26Z</time></trkpt><trkpt lat="45.7039062881078" lon="8.69951933680053"><ele>263.0</ele><time>2026-04-04T08:52:27Z</time></trkpt><trkpt lat="45.704062189219954" lon="8.699435399104962"><ele>262.25</ele><time>2026-04-04T08:52:28Z</time></trkpt><trkpt lat="45.70419699361769" lon="8.699383447205344"><ele>261.5</ele><time>2026-04-04T08:52:29Z</time></trkpt><trkpt lat="45.70431551377799" lon="8.69939101010681"><ele>260.75</ele><time>2026-04-04T08:52:30Z</time></trkpt><trkpt lat="45.70440459961126" lon="8.699355559728339"><ele>260.0</ele><time>2026-04-04T08:52:31Z</time></trkpt><trkpt lat="45.704528039826116" lon="8.699501833335283"><ele>260.0</ele><time>2026-04-04T08:52:32Z</time></trkpt><trkpt lat="45.70459453663992" lon="8.699694951777209"><ele>260.0</ele><time>2026-04-04T08:52:33Z</time></trkpt><trkpt lat="45.7046626190342" lon="8.69990849298491"><ele>260.0</ele><time>2026-04-04T08:52:34Z</time></trkpt><trkpt lat="45.704719626568604" lon="8.700166275578548"><ele>259.6666666666667</ele><time>2026-04-04T08:52:35Z</time></trkpt><trkpt lat="45.704773414644535" lon="8.70043201054958"><ele>259.3333333333333</ele><time>2026-04-04T08:52:36Z</time></trkpt><trkpt lat="45.704822742826025" lon="8.700673494800627"><ele>259.0</ele><time>2026-04-04T08:52:37Z</time></trkpt><trkpt lat="45.70486611612554" lon="8.700893134745476"><ele>258.3333333333333</ele><time>2026-04-04T08:52:38Z</time></trkpt><trkpt lat="45.70492893269451" lon="8.701091914641873"><ele>257.6666666666667</ele><time>2026-04-04T08:52:39Z</time></trkpt><trkpt lat="45.705004863623984" lon="8.70129214118685"><ele>257.0</ele><time>2026-04-04T08:52:40Z</time></trkpt><trkpt lat="45.705083156189204" lon="8.701535302709859"><ele>257.0</ele><time>2026-04-04T08:52:41Z</time></trkpt><trkpt lat="45.705183856921884" lon="8.701803630232646"><ele>257.0</ele><time>2026-04-04T08:52:42Z</time></trkpt><trkpt lat="45.70530556512286" lon="8.702079155350484"><ele>257.0</ele><time>2026-04-04T08:52:43Z</time></trkpt><trkpt lat="45.705434276842055" lon="8.702362803157945"><ele>256.5</ele><time>2026-04-04T08:52:44Z</time></trkpt><trkpt lat="45.705564633668345" lon="8.702661116485388"><ele>256.0</ele><time>2026-04-04T08:52:45Z</time></trkpt><trkpt lat="45.705702249660966" lon="8.702963682690124"><ele>256.0</ele><time>2026-04-04T08:52:46Z</time></trkpt><trkpt lat="45.705831094801205" lon="8.703268114403253"><ele>256.0</ele><time>2026-04-04T08:52:47Z</time></trkpt><trkpt lat="45.705967017700814" lon="8.703573336452017"><ele>257.5</ele><time>2026-04-04T08:52:48Z</time></trkpt><trkpt lat="45.70612346119019" lon="8.703870829267496"><ele>259.0</ele><time>2026-04-04T08:52:49Z</time></trkpt><trkpt lat="45.7062621487601" lon="8.704190160315248"><ele>260.5</ele><time>2026-04-04T08:52:50Z</time></trkpt><trkpt lat="45.7064053745666" lon="8.704510265075262"><ele>262.0</ele><time>2026-04-04T08:52:51Z</time></trkpt><trkpt lat="45.70654601021572" lon="8.70483427299229"><ele>262.0</ele><time>2026-04-04T08:52:52Z</time></trkpt><trkpt lat="45.70667684413615" lon="8.705172140156602"><ele>262.0</ele><time>2026-04-04T08:52:53Z</time></trkpt><trkpt lat="45.70680558792551" lon="8.705508998119381"><ele>263.0</ele><time>2026-04-04T08:52:54Z</time></trkpt><trkpt lat="45.70690984071651" lon="8.705804680846468"><ele>264.0</ele><time>2026-04-04T08:52:55Z</time></trkpt><trkpt lat="45.70702010103631" lon="8.706072533767966"><ele>265.0</ele><time>2026-04-04T08:52:56Z</time></trkpt><trkpt lat="45.70715641123415" lon="8.706315900226498"><ele>265.0</ele><time>2026-04-04T08:52:57Z</time></trkpt><trkpt lat="45.707352892164586" lon="8.706530861186849"><ele>265.0</ele><time>2026-04-04T08:52:58Z</time></trkpt><trkpt lat="45.707577389056866" lon="8.706734457835182"><ele>264.5</ele><time>2026-04-04T08:52:59Z</time></trkpt><trkpt lat="45.70781359383606" lon="8.706928488808098"><ele>264.0</ele><time>2026-04-04T08:53:00Z</time></trkpt><trkpt lat="45.708038455313506" lon="8.707139889184038"><ele>264.0</ele><time>2026-04-04T08:53:01Z</time></trkpt><trkpt lat="45.70827161077252" lon="8.707350667681153"><ele>264.0</ele><time>2026-04-04T08:53:02Z</time></trkpt><trkpt lat="45.70850539443088" lon="8.707565167975797"><ele>264.5</ele><time>2026-04-04T08:53:03Z</time></trkpt><trkpt lat="45.70874190128513" lon="8.707787646327198"><ele>265.0</ele><time>2026-04-04T08:53:04Z</time></trkpt><trkpt lat="45.70898156463799" lon="8.70800986358392"><ele>265.0</ele><time>2026-04-04T08:53:05Z</time></trkpt><trkpt lat="45.70922535032202" lon="8.70823003316901"><ele>265.0</ele><time>2026-04-04T08:53:06Z</time></trkpt><trkpt lat="45.709472642713216" lon="8.70845420445354"><ele>266.0</ele><time>2026-04-04T08:53:07Z</time></trkpt><trkpt lat="45.70971931507687" lon="8.708682148966501"><ele>267.0</ele><time>2026-04-04T08:53:08Z</time></trkpt><trkpt lat="45.70996450058867" lon="8.708903698328003"><ele>267.0</ele><time>2026-04-04T08:53:09Z</time></trkpt><trkpt lat="45.71017878425634" lon="8.709107737142714"><ele>267.0</ele><time>2026-04-04T08:53:10Z</time></trkpt><trkpt lat="45.710380395454195" lon="8.70929880434973"><ele>268.0</ele><time>2026-04-04T08:53:11.001Z</time></trkpt><trkpt lat="45.71057161092942" lon="8.70945627097735"><ele>269.0</ele><time>2026-04-04T08:53:12.001Z</time></trkpt><trkpt lat="45.710734029453164" lon="8.70961951943263"><ele>270.0</ele><time>2026-04-04T08:53:13.001Z</time></trkpt><trkpt lat="45.71086635587958" lon="8.709821212679133"><ele>270.0</ele><time>2026-04-04T08:53:14.001Z</time></trkpt><trkpt lat="45.71096878964238" lon="8.710093272565027"><ele>270.0</ele><time>2026-04-04T08:53:15.001Z</time></trkpt><trkpt lat="45.711048894108174" lon="8.710431750592912"><ele>268.0</ele><time>2026-04-04T08:53:16.001Z</time></trkpt><trkpt lat="45.71111958892029" lon="8.710780903973436"><ele>266.0</ele><time>2026-04-04T08:53:17Z</time></trkpt><trkpt lat="45.711212054559724" lon="8.711087107002232"><ele>265.33333333333337</ele><time>2026-04-04T08:53:18Z</time></trkpt><trkpt lat="45.71129875736982" lon="8.711362115286267"><ele>264.6666666666667</ele><time>2026-04-04T08:53:19Z</time></trkpt><trkpt lat="45.71141218771459" lon="8.71160063534891"><ele>264.0</ele><time>2026-04-04T08:53:20Z</time></trkpt><trkpt lat="45.711581486741444" lon="8.711724173555314"><ele>264.0</ele><time>2026-04-04T08:53:21Z</time></trkpt><trkpt lat="45.71178859617736" lon="8.711853525733746"><ele>264.0</ele><time>2026-04-04T08:53:22Z</time></trkpt><trkpt lat="45.71201927631385" lon="8.711995698382328"><ele>263.5</ele><time>2026-04-04T08:53:23Z</time></trkpt><trkpt lat="45.712249146421755" lon="8.7121527105312"><ele>263.0</ele><time>2026-04-04T08:53:24Z</time></trkpt><trkpt lat="45.71247446613201" lon="8.712323379556413"><ele>263.0</ele><time>2026-04-04T08:53:25Z</time></trkpt><trkpt lat="45.71270114280437" lon="8.712502436551912"><ele>263.0</ele><time>2026-04-04T08:53:26Z</time></trkpt><trkpt lat="45.71292404560967" lon="8.712682537061575"><ele>263.5</ele><time>2026-04-04T08:53:27Z</time></trkpt><trkpt lat="45.71314122089667" lon="8.712854027837007"><ele>264.0</ele><time>2026-04-04T08:53:28Z</time></trkpt><trkpt lat="45.7133258520227" lon="8.71302417122593"><ele>264.0</ele><time>2026-04-04T08:53:29Z</time></trkpt><trkpt lat="45.71350673046983" lon="8.713197312479695"><ele>264.0</ele><time>2026-04-04T08:53:30Z</time></trkpt><trkpt lat="45.713728919732254" lon="8.713357079584863"><ele>266.0</ele><time>2026-04-04T08:53:31Z</time></trkpt><trkpt lat="45.713985402381674" lon="8.713509395866302"><ele>268.0</ele><time>2026-04-04T08:53:32Z</time></trkpt><trkpt lat="45.714253434151225" lon="8.713681611783356"><ele>268.0</ele><time>2026-04-04T08:53:33Z</time></trkpt><trkpt lat="45.71453234056268" lon="8.713884404986814"><ele>268.0</ele><time>2026-04-04T08:53:34Z</time></trkpt><trkpt lat="45.714804516163724" lon="8.7140841443626"><ele>268.0</ele><time>2026-04-04T08:53:35Z</time></trkpt><trkpt lat="45.715072764708694" lon="8.714273231145244"><ele>268.0</ele><time>2026-04-04T08:53:36Z</time></trkpt><trkpt lat="45.71531611181884" lon="8.714448746046905"><ele>267.0</ele><time>2026-04-04T08:53:37Z</time></trkpt><trkpt lat="45.71554778819173" lon="8.714609114400226"><ele>266.0</ele><time>2026-04-04T08:53:38Z</time></trkpt><trkpt lat="45.71575920393038" lon="8.714766369345915"><ele>266.0</ele><time>2026-04-04T08:53:39Z</time></trkpt><trkpt lat="45.715932615612616" lon="8.714977878411572"><ele>266.0</ele><time>2026-04-04T08:53:40Z</time></trkpt><trkpt lat="45.716106213210296" lon="8.715197784436949"><ele>270.5</ele><time>2026-04-04T08:53:41Z</time></trkpt><trkpt lat="45.7162850400155" lon="8.715443847022994"><ele>275.0</ele><time>2026-04-04T08:53:42Z</time></trkpt><trkpt lat="45.71648337171097" lon="8.715699712385222"><ele>275.0</ele><time>2026-04-04T08:53:43Z</time></trkpt><trkpt lat="45.71667744932053" lon="8.71597825154532"><ele>275.0</ele><time>2026-04-04T08:53:44Z</time></trkpt><trkpt lat="45.716883629390395" lon="8.71625902708901"><ele>275.5</ele><time>2026-04-04T08:53:45Z</time></trkpt><trkpt lat="45.71709849527038" lon="8.716545680032777"><ele>276.0</ele><time>2026-04-04T08:53:46Z</time></trkpt><trkpt lat="45.71731183421686" lon="8.716827436989684"><ele>276.5</ele><time>2026-04-04T08:53:47Z</time></trkpt><trkpt lat="45.71752443864656" lon="8.717100978514203"><ele>277.0</ele><time>2026-04-04T08:53:48Z</time></trkpt><trkpt lat="45.71770741142718" lon="8.71737058915726"><ele>276.0</ele><time>2026-04-04T08:53:49Z</time></trkpt><trkpt lat="45.717884876835036" lon="8.717582190439567"><ele>275.0</ele><time>2026-04-04T08:53:50Z</time></trkpt><trkpt lat="45.71803838544106" lon="8.717816160188395"><ele>275.0</ele><time>2026-04-04T08:53:51Z</time></trkpt><trkpt lat="45.718196809807765" lon="8.718008218275354"><ele>275.0</ele><time>2026-04-04T08:53:52Z</time></trkpt><trkpt lat="45.718391228059616" lon="8.718148600116"><ele>275.0</ele><time>2026-04-04T08:53:53Z</time></trkpt><trkpt lat="45.71862054339231" lon="8.718243334945907"><ele>275.0</ele><time>2026-04-04T08:53:54Z</time></trkpt><trkpt lat="45.71886958562732" lon="8.718298622879841"><ele>275.0</ele><time>2026-04-04T08:53:55Z</time></trkpt><trkpt lat="45.71910691222175" lon="8.718401117640182"><ele>275.0</ele><time>2026-04-04T08:53:56Z</time></trkpt><trkpt lat="45.7193381424001" lon="8.718556844399242"><ele>275.0</ele><time>2026-04-04T08:53:57Z</time></trkpt><trkpt lat="45.71958567742485" lon="8.718735440500787"><ele>276.5</ele><time>2026-04-04T08:53:58Z</time></trkpt><trkpt lat="45.719837662682046" lon="8.718940935033347"><ele>278.0</ele><time>2026-04-04T08:53:59Z</time></trkpt><trkpt lat="45.720100847306696" lon="8.71915466394636"><ele>277.0</ele><time>2026-04-04T08:54:00Z</time></trkpt><trkpt lat="45.72036666043757" lon="8.719371173513858"><ele>276.0</ele><time>2026-04-04T08:54:01Z</time></trkpt><trkpt lat="45.72063571475348" lon="8.719592613181922"><ele>276.0</ele><time>2026-04-04T08:54:02Z</time></trkpt><trkpt lat="45.72091727917157" lon="8.71982191245143"><ele>276.0</ele><time>2026-04-04T08:54:03Z</time></trkpt><trkpt lat="45.72120015824981" lon="8.720050777615564"><ele>274.5</ele><time>2026-04-04T08:54:04Z</time></trkpt><trkpt lat="45.72148096741431" lon="8.7202757760063"><ele>273.0</ele><time>2026-04-04T08:54:05Z</time></trkpt><trkpt lat="45.72176778748964" lon="8.720513844646245"><ele>274.5</ele><time>2026-04-04T08:54:06Z</time></trkpt><trkpt lat="45.72204011880579" lon="8.72073625196045"><ele>276.0</ele><time>2026-04-04T08:54:07Z</time></trkpt><trkpt lat="45.72231297231894" lon="8.720955653528828"><ele>276.5</ele><time>2026-04-04T08:54:08Z</time></trkpt><trkpt lat="45.72258434839324" lon="8.721175258218095"><ele>277.0</ele><time>2026-04-04T08:54:09Z</time></trkpt><trkpt lat="45.72285555655811" lon="8.721392988437422"><ele>278.0</ele><time>2026-04-04T08:54:10Z</time></trkpt><trkpt lat="45.723127441487186" lon="8.721612795080596"><ele>279.0</ele><time>2026-04-04T08:54:11Z</time></trkpt><trkpt lat="45.72340040703707" lon="8.721827857143467"><ele>279.5</ele><time>2026-04-04T08:54:12Z</time></trkpt><trkpt lat="45.72367359167667" lon="8.722040153512664"><ele>280.0</ele><time>2026-04-04T08:54:13Z</time></trkpt><trkpt lat="45.723940765866146" lon="8.72224997252738"><ele>280.0</ele><time>2026-04-04T08:54:14Z</time></trkpt><trkpt lat="45.72421348246582" lon="8.722460512136676"><ele>280.0</ele><time>2026-04-04T08:54:15Z</time></trkpt><trkpt lat="45.72448198561883" lon="8.72266890992063"><ele>276.0</ele><time>2026-04-04T08:54:16Z</time></trkpt><trkpt lat="45.72473176798576" lon="8.722858429984086"><ele>272.0</ele><time>2026-04-04T08:54:17Z</time></trkpt><trkpt lat="45.72496068174829" lon="8.723038664186044"><ele>272.0</ele><time>2026-04-04T08:54:18Z</time></trkpt><trkpt lat="45.72515578483633" lon="8.723188727538108"><ele>272.0</ele><time>2026-04-04T08:54:19Z</time></trkpt><trkpt lat="45.72533096297658" lon="8.723371361676802"><ele>272.0</ele><time>2026-04-04T08:54:20Z</time></trkpt><trkpt lat="45.72546665792033" lon="8.723580464896003"><ele>271.33333333333337</ele><time>2026-04-04T08:54:21Z</time></trkpt><trkpt lat="45.725608747105554" lon="8.723770594977278"><ele>270.6666666666667</ele><time>2026-04-04T08:54:22Z</time></trkpt><trkpt lat="45.72574334727988" lon="8.724004797243607"><ele>270.0</ele><time>2026-04-04T08:54:23Z</time></trkpt><trkpt lat="45.72588600149059" lon="8.724234467415648"><ele>270.0</ele><time>2026-04-04T08:54:24Z</time></trkpt><trkpt lat="45.72603689526491" lon="8.724476160744064"><ele>270.0</ele><time>2026-04-04T08:54:25Z</time></trkpt><trkpt lat="45.72618413083275" lon="8.724714471284297"><ele>270.0</ele><time>2026-04-04T08:54:26Z</time></trkpt><trkpt lat="45.726340338875495" lon="8.724965586634179"><ele>271.5</ele><time>2026-04-04T08:54:27Z</time></trkpt><trkpt lat="45.72650277927982" lon="8.725213194181503"><ele>273.0</ele><time>2026-04-04T08:54:28Z</time></trkpt><trkpt lat="45.72666505328929" lon="8.725463144544701"><ele>273.0</ele><time>2026-04-04T08:54:29Z</time></trkpt><trkpt lat="45.72683227737696" lon="8.72571361111493"><ele>273.0</ele><time>2026-04-04T08:54:30Z</time></trkpt><trkpt lat="45.72700550314637" lon="8.725954808802715"><ele>274.0</ele><time>2026-04-04T08:54:31Z</time></trkpt><trkpt lat="45.72719418006579" lon="8.726188676546323"><ele>275.0</ele><time>2026-04-04T08:54:32Z</time></trkpt><trkpt lat="45.72739952219471" lon="8.72639755119243"><ele>275.0</ele><time>2026-04-04T08:54:33Z</time></trkpt><trkpt lat="45.727604882606755" lon="8.726578950444031"><ele>275.0</ele><time>2026-04-04T08:54:34Z</time></trkpt><trkpt lat="45.72776508923594" lon="8.726724651528587"><ele>275.0</ele><time>2026-04-04T08:54:35Z</time></trkpt><trkpt lat="45.72788609585665" lon="8.726855149090664"><ele>274.25</ele><time>2026-04-04T08:54:36Z</time></trkpt><trkpt lat="45.72799326886557" lon="8.726993350673581"><ele>273.5</ele><time>2026-04-04T08:54:37Z</time></trkpt><trkpt lat="45.72809942792439" lon="8.727114155398617"><ele>272.75</ele><time>2026-04-04T08:54:38Z</time></trkpt><trkpt lat="45.728224216550885" lon="8.72717456492139"><ele>272.0</ele><time>2026-04-04T08:54:39Z</time></trkpt><trkpt lat="45.728343282837265" lon="8.727263385489785"><ele>272.0</ele><time>2026-04-04T08:54:40Z</time></trkpt><trkpt lat="45.72847429832982" lon="8.727393564431736"><ele>272.0</ele><time>2026-04-04T08:54:41Z</time></trkpt><trkpt lat="45.728602344262136" lon="8.727534157334015"><ele>272.0</ele><time>2026-04-04T08:54:42Z</time></trkpt><trkpt lat="45.72871931378911" lon="8.727796890452069"><ele>271.33333333333337</ele><time>2026-04-04T08:54:43Z</time></trkpt><trkpt lat="45.72882149420767" lon="8.728046718819803"><ele>270.6666666666667</ele><time>2026-04-04T08:54:44Z</time></trkpt><trkpt lat="45.72891765200805" lon="8.728320202680866"><ele>270.0</ele><time>2026-04-04T08:54:45Z</time></trkpt><trkpt lat="45.72902692752339" lon="8.728585153510794"><ele>269.6666666666667</ele><time>2026-04-04T08:54:46Z</time></trkpt><trkpt lat="45.72913760185489" lon="8.728852115439715"><ele>269.33333333333337</ele><time>2026-04-04T08:54:47Z</time></trkpt><trkpt lat="45.72924748934039" lon="8.729115943085935"><ele>269.0</ele><time>2026-04-04T08:54:48Z</time></trkpt><trkpt lat="45.72935864392795" lon="8.729385267155447"><ele>269.6666666666667</ele><time>2026-04-04T08:54:49Z</time></trkpt><trkpt lat="45.72945991351086" lon="8.729646134409176"><ele>270.3333333333333</ele><time>2026-04-04T08:54:50Z</time></trkpt><trkpt lat="45.72955923270667" lon="8.729893203530516"><ele>271.0</ele><time>2026-04-04T08:54:51Z</time></trkpt><trkpt lat="45.72964977037537" lon="8.730120284650567"><ele>271.0</ele><time>2026-04-04T08:54:52Z</time></trkpt><trkpt lat="45.72973823047556" lon="8.730319383540552"><ele>271.0</ele><time>2026-04-04T08:54:53Z</time></trkpt><trkpt lat="45.72981351037611" lon="8.730491424088019"><ele>271.0</ele><time>2026-04-04T08:54:54Z</time></trkpt><trkpt lat="45.72988202085084" lon="8.730653348415952"><ele>271.0</ele><time>2026-04-04T08:54:55Z</time></trkpt><trkpt lat="45.7299450646531" lon="8.730805107191138"><ele>271.0</ele><time>2026-04-04T08:54:56Z</time></trkpt><trkpt lat="45.729966278352705" lon="8.730960766036556"><ele>271.0</ele><time>2026-04-04T08:54:57Z</time></trkpt><trkpt lat="45.729952088295235" lon="8.73112665170173"><ele>271.0</ele><time>2026-04-04T08:54:58Z</time></trkpt><trkpt lat="45.7299756057767" lon="8.73126847117377"><ele>271.0</ele><time>2026-04-04T08:54:59Z</time></trkpt><trkpt lat="45.73006420452465" lon="8.731359602731356"><ele>271.0</ele><time>2026-04-04T08:55:00Z</time></trkpt><trkpt lat="45.73017665300657" lon="8.731387023382888"><ele>272.0</ele><time>2026-04-04T08:55:01Z</time></trkpt><trkpt lat="45.730274794569226" lon="8.73145606310527"><ele>273.0</ele><time>2026-04-04T08:55:02Z</time></trkpt><trkpt lat="45.73033809615066" lon="8.731572359236642"><ele>274.0</ele><time>2026-04-04T08:55:03Z</time></trkpt><trkpt lat="45.730395594952846" lon="8.731694328932628"><ele>275.0</ele><time>2026-04-04T08:55:04Z</time></trkpt><trkpt lat="45.73048745584581" lon="8.731861964116984"><ele>275.33333333333337</ele><time>2026-04-04T08:55:05Z</time></trkpt><trkpt lat="45.7305938570281" lon="8.732057097892238"><ele>275.6666666666667</ele><time>2026-04-04T08:55:06Z</time></trkpt><trkpt lat="45.730705823150295" lon="8.732263734451017"><ele>276.0</ele><time>2026-04-04T08:55:07Z</time></trkpt><trkpt lat="45.730808684790475" lon="8.732450218482724"><ele>276.0</ele><time>2026-04-04T08:55:08Z</time></trkpt><trkpt lat="45.730894802009516" lon="8.732611754325001"><ele>276.0</ele><time>2026-04-04T08:55:09Z</time></trkpt><trkpt lat="45.730979147967794" lon="8.732759025328525"><ele>276.0</ele><time>2026-04-04T08:55:10Z</time></trkpt><trkpt lat="45.73106146844489" lon="8.73291069471013"><ele>276.0</ele><time>2026-04-04T08:55:11Z</time></trkpt><trkpt lat="45.731131053314186" lon="8.733070955562816"><ele>277.0</ele><time>2026-04-04T08:55:12Z</time></trkpt><trkpt lat="45.731195521954405" lon="8.73322755851157"><ele>278.0</ele><time>2026-04-04T08:55:13Z</time></trkpt><trkpt lat="45.73125687555343" lon="8.733373493074081"><ele>279.0</ele><time>2026-04-04T08:55:14Z</time></trkpt><trkpt lat="45.73131382315915" lon="8.733517122159306"><ele>280.0</ele><time>2026-04-04T08:55:15Z</time></trkpt><trkpt lat="45.7313759789692" lon="8.733685043220268"><ele>280.0</ele><time>2026-04-04T08:55:16Z</time></trkpt><trkpt lat="45.73144911367773" lon="8.733897899854"><ele>280.0</ele><time>2026-04-04T08:55:17Z</time></trkpt><trkpt lat="45.731536830892466" lon="8.734139542305996"><ele>280.0</ele><time>2026-04-04T08:55:18Z</time></trkpt><trkpt lat="45.73161467095662" lon="8.73441574579306"><ele>281.0</ele><time>2026-04-04T08:55:19Z</time></trkpt><trkpt lat="45.73168704524436" lon="8.734624828893505"><ele>282.0</ele><time>2026-04-04T08:55:20Z</time></trkpt><trkpt lat="45.73175784786339" lon="8.734790985874358"><ele>283.0</ele><time>2026-04-04T08:55:21Z</time></trkpt><trkpt lat="45.731817186310515" lon="8.734940328888788"><ele>284.0</ele><time>2026-04-04T08:55:22Z</time></trkpt><trkpt lat="45.73186231023998" lon="8.735060028259289"><ele>284.2</ele><time>2026-04-04T08:55:23Z</time></trkpt><trkpt lat="45.73189885068088" lon="8.735166384596917"><ele>284.4</ele><time>2026-04-04T08:55:24Z</time></trkpt><trkpt lat="45.731922071510574" lon="8.735257250460505"><ele>284.6</ele><time>2026-04-04T08:55:25Z</time></trkpt><trkpt lat="45.73191777630123" lon="8.735427574240505"><ele>284.8</ele><time>2026-04-04T08:55:27Z</time></trkpt><trkpt lat="45.73190958557546" lon="8.735610541806151"><ele>285.0</ele><time>2026-04-04T08:55:29Z</time></trkpt><trkpt lat="45.731934504484784" lon="8.735714083656744"><ele>285.0</ele><time>2026-04-04T08:55:30Z</time></trkpt><trkpt lat="45.7320039487824" lon="8.735792447525956"><ele>285.0</ele><time>2026-04-04T08:55:31Z</time></trkpt><trkpt lat="45.732151892505165" lon="8.73592214038246"><ele>285.0</ele><time>2026-04-04T08:55:33Z</time></trkpt><trkpt lat="45.73220258391981" lon="8.736013158041983"><ele>285.0</ele><time>2026-04-04T08:55:34Z</time></trkpt><trkpt lat="45.73225779788795" lon="8.73614801390102"><ele>285.6666666666667</ele><time>2026-04-04T08:55:35Z</time></trkpt><trkpt lat="45.73230705183239" lon="8.736346969683524"><ele>286.33333333333337</ele><time>2026-04-04T08:55:36Z</time></trkpt><trkpt lat="45.73239773669545" lon="8.736602086938662"><ele>287.0</ele><time>2026-04-04T08:55:37Z</time></trkpt><trkpt lat="45.73252385946808" lon="8.73690370543969"><ele>286.5</ele><time>2026-04-04T08:55:38Z</time></trkpt><trkpt lat="45.732642566303724" lon="8.73725248388537"><ele>286.0</ele><time>2026-04-04T08:55:39Z</time></trkpt><trkpt lat="45.73277190818973" lon="8.737606224509232"><ele>283.5</ele><time>2026-04-04T08:55:40Z</time></trkpt><trkpt lat="45.73288162287541" lon="8.737960021766051"><ele>281.0</ele><time>2026-04-04T08:55:41Z</time></trkpt><trkpt lat="45.733020260702155" lon="8.738303528968606"><ele>282.0</ele><time>2026-04-04T08:55:42Z</time></trkpt><trkpt lat="45.73313561378306" lon="8.738676075259079"><ele>283.0</ele><time>2026-04-04T08:55:43Z</time></trkpt><trkpt lat="45.73326509643306" lon="8.739039396055146"><ele>284.5</ele><time>2026-04-04T08:55:44Z</time></trkpt><trkpt lat="45.73339386111488" lon="8.73940459497045"><ele>286.0</ele><time>2026-04-04T08:55:45Z</time></trkpt><trkpt lat="45.7335292773745" lon="8.73978278882912"><ele>286.0</ele><time>2026-04-04T08:55:46Z</time></trkpt><trkpt lat="45.73366198778259" lon="8.740160224536586"><ele>286.0</ele><time>2026-04-04T08:55:47Z</time></trkpt><trkpt lat="45.733796608004035" lon="8.740540167167971"><ele>286.0</ele><time>2026-04-04T08:55:48Z</time></trkpt><trkpt lat="45.73393033411261" lon="8.740915663224298"><ele>286.0</ele><time>2026-04-04T08:55:49Z</time></trkpt><trkpt lat="45.734050546859834" lon="8.741251923141197"><ele>286.0</ele><time>2026-04-04T08:55:50Z</time></trkpt><trkpt lat="45.734150402357706" lon="8.741534506535547"><ele>286.0</ele><time>2026-04-04T08:55:51Z</time></trkpt><trkpt lat="45.734234502869285" lon="8.741766855803759"><ele>286.0</ele><time>2026-04-04T08:55:52Z</time></trkpt><trkpt lat="45.73430086885777" lon="8.74195016739279"><ele>286.0</ele><time>2026-04-04T08:55:53Z</time></trkpt><trkpt lat="45.73435816757703" lon="8.742103959995841"><ele>286.0</ele><time>2026-04-04T08:55:54Z</time></trkpt><trkpt lat="45.73436983032566" lon="8.74225927391746"><ele>286.0</ele><time>2026-04-04T08:55:55Z</time></trkpt><trkpt lat="45.734392752942554" lon="8.742371300384374"><ele>286.0</ele><time>2026-04-04T08:55:56Z</time></trkpt><trkpt lat="45.73446115104436" lon="8.74244587104198"><ele>286.0</ele><time>2026-04-04T08:55:57Z</time></trkpt><trkpt lat="45.73455657667862" lon="8.742534456655534"><ele>286.0</ele><time>2026-04-04T08:55:58Z</time></trkpt><trkpt lat="45.73463034454171" lon="8.742644058307265"><ele>286.0</ele><time>2026-04-04T08:55:59Z</time></trkpt><trkpt lat="45.734713238012134" lon="8.742763554376328"><ele>286.0</ele><time>2026-04-04T08:56:00Z</time></trkpt><trkpt lat="45.734803204430534" lon="8.74288189356686"><ele>286.0</ele><time>2026-04-04T08:56:01Z</time></trkpt><trkpt lat="45.73490247105025" lon="8.743009115615001"><ele>286.0</ele><time>2026-04-04T08:56:02Z</time></trkpt><trkpt lat="45.735003242631464" lon="8.74314027889597"><ele>286.0</ele><time>2026-04-04T08:56:03Z</time></trkpt><trkpt lat="45.73511487144479" lon="8.743261648311966"><ele>286.0</ele><time>2026-04-04T08:56:04Z</time></trkpt><trkpt lat="45.735237604415765" lon="8.743389302388993"><ele>286.0</ele><time>2026-04-04T08:56:05Z</time></trkpt><trkpt lat="45.735368695057495" lon="8.743515383853678"><ele>283.3333333333333</ele><time>2026-04-04T08:56:06Z</time></trkpt><trkpt lat="45.73550232291207" lon="8.743633236599209"><ele>280.6666666666667</ele><time>2026-04-04T08:56:07Z</time></trkpt><trkpt lat="45.73563558169175" lon="8.743756476339712"><ele>278.0</ele><time>2026-04-04T08:56:08Z</time></trkpt><trkpt lat="45.735764901344375" lon="8.74388179305596"><ele>278.0</ele><time>2026-04-04T08:56:09Z</time></trkpt><trkpt lat="45.73589560467235" lon="8.744007839307379"><ele>278.0</ele><time>2026-04-04T08:56:10Z</time></trkpt><trkpt lat="45.7360243450274" lon="8.744125110700791"><ele>278.0</ele><time>2026-04-04T08:56:11Z</time></trkpt><trkpt lat="45.73616126882668" lon="8.744251557740304"><ele>278.33333333333337</ele><time>2026-04-04T08:56:12Z</time></trkpt><trkpt lat="45.73629015424096" lon="8.744376450058358"><ele>278.6666666666667</ele><time>2026-04-04T08:56:13Z</time></trkpt><trkpt lat="45.73642300981841" lon="8.74449619061961"><ele>279.0</ele><time>2026-04-04T08:56:14Z</time></trkpt><trkpt lat="45.73654864660609" lon="8.744613240166073"><ele>279.0</ele><time>2026-04-04T08:56:15Z</time></trkpt><trkpt lat="45.73667762375648" lon="8.744726691831362"><ele>279.0</ele><time>2026-04-04T08:56:16Z</time></trkpt><trkpt lat="45.7367955119276" lon="8.744845083640651"><ele>279.0</ele><time>2026-04-04T08:56:17Z</time></trkpt><trkpt lat="45.73690573313542" lon="8.744952244358691"><ele>279.0</ele><time>2026-04-04T08:56:18Z</time></trkpt><trkpt lat="45.73701669446945" lon="8.74505103390954"><ele>279.2</ele><time>2026-04-04T08:56:19Z</time></trkpt><trkpt lat="45.73711148149438" lon="8.745148500383175"><ele>279.4</ele><time>2026-04-04T08:56:20Z</time></trkpt><trkpt lat="45.73717547398366" lon="8.745243570259136"><ele>279.6</ele><time>2026-04-04T08:56:21Z</time></trkpt><trkpt lat="45.73719796341537" lon="8.745356502431065"><ele>279.8</ele><time>2026-04-04T08:56:22Z</time></trkpt><trkpt lat="45.73725456148255" lon="8.745465928376538"><ele>280.0</ele><time>2026-04-04T08:56:23Z</time></trkpt><trkpt lat="45.73733555303476" lon="8.74550374593121"><ele>280.0</ele><time>2026-04-04T08:56:24Z</time></trkpt><trkpt lat="45.737416107723384" lon="8.745499770015407"><ele>280.0</ele><time>2026-04-04T08:56:25Z</time></trkpt><trkpt lat="45.737517351913944" lon="8.74552384660893"><ele>280.0</ele><time>2026-04-04T08:56:26Z</time></trkpt><trkpt lat="45.737613351201965" lon="8.745598312887765"><ele>280.0</ele><time>2026-04-04T08:56:27Z</time></trkpt><trkpt lat="45.73771207534363" lon="8.745702361570002"><ele>280.0</ele><time>2026-04-04T08:56:28Z</time></trkpt><trkpt lat="45.73781177355344" lon="8.745802326082572"><ele>279.75</ele><time>2026-04-04T08:56:29Z</time></trkpt><trkpt lat="45.73792381331618" lon="8.745904373422052"><ele>279.5</ele><time>2026-04-04T08:56:30Z</time></trkpt><trkpt lat="45.73803642028771" lon="8.746010906251895"><ele>279.25</ele><time>2026-04-04T08:56:31Z</time></trkpt><trkpt lat="45.73815248304943" lon="8.746107788718165"><ele>279.0</ele><time>2026-04-04T08:56:32Z</time></trkpt><trkpt lat="45.73827216486783" lon="8.746229166704605"><ele>279.5</ele><time>2026-04-04T08:56:33Z</time></trkpt><trkpt lat="45.73838892879776" lon="8.746351336856447"><ele>280.0</ele><time>2026-04-04T08:56:34Z</time></trkpt><trkpt lat="45.73851063894877" lon="8.746469184889209"><ele>280.5</ele><time>2026-04-04T08:56:35Z</time></trkpt><trkpt lat="45.73860801703031" lon="8.746537228271523"><ele>281.0</ele><time>2026-04-04T08:56:37Z</time></trkpt><trkpt lat="45.738704653892455" lon="8.746631112948306"><ele>281.25</ele><time>2026-04-04T08:56:38Z</time></trkpt><trkpt lat="45.738808380531204" lon="8.74672807628443"><ele>281.5</ele><time>2026-04-04T08:56:39Z</time></trkpt><trkpt lat="45.738918108231914" lon="8.746823502017872"><ele>281.75</ele><time>2026-04-04T08:56:40Z</time></trkpt><trkpt lat="45.73902169585169" lon="8.746924423362197"><ele>282.0</ele><time>2026-04-04T08:56:41Z</time></trkpt><trkpt lat="45.73912220840256" lon="8.747020710471265"><ele>282.0</ele><time>2026-04-04T08:56:42Z</time></trkpt><trkpt lat="45.73921469004453" lon="8.747113393833533"><ele>282.0</ele><time>2026-04-04T08:56:43Z</time></trkpt><trkpt lat="45.739309049095255" lon="8.74719773475301"><ele>282.0</ele><time>2026-04-04T08:56:44Z</time></trkpt><trkpt lat="45.73940299545828" lon="8.747281078224887"><ele>282.0</ele><time>2026-04-04T08:56:45Z</time></trkpt><trkpt lat="45.73950258970777" lon="8.747378195994473"><ele>281.75</ele><time>2026-04-04T08:56:46Z</time></trkpt><trkpt lat="45.739609182482866" lon="8.747480688501001"><ele>281.5</ele><time>2026-04-04T08:56:47Z</time></trkpt><trkpt lat="45.73974228423336" lon="8.747588184778861"><ele>281.25</ele><time>2026-04-04T08:56:48Z</time></trkpt><trkpt lat="45.73987223496479" lon="8.747701496886936"><ele>281.0</ele><time>2026-04-04T08:56:49Z</time></trkpt><trkpt lat="45.740017075203276" lon="8.7478286030969"><ele>281.25</ele><time>2026-04-04T08:56:50Z</time></trkpt><trkpt lat="45.7401340357935" lon="8.747950333352575"><ele>281.5</ele><time>2026-04-04T08:56:51Z</time></trkpt><trkpt lat="45.74024274936892" lon="8.74805968054144"><ele>281.75</ele><time>2026-04-04T08:56:52Z</time></trkpt><trkpt lat="45.74033630282917" lon="8.748143966596569"><ele>282.0</ele><time>2026-04-04T08:56:53Z</time></trkpt><trkpt lat="45.740425483856406" lon="8.74822852444749"><ele>282.0</ele><time>2026-04-04T08:56:54Z</time></trkpt><trkpt lat="45.740519286658404" lon="8.748312911667618"><ele>282.0</ele><time>2026-04-04T08:56:55Z</time></trkpt><trkpt lat="45.74065398320524" lon="8.74842700047172"><ele>282.0</ele><time>2026-04-04T08:56:56Z</time></trkpt><trkpt lat="45.7408074979218" lon="8.748565635451751"><ele>282.0</ele><time>2026-04-04T08:56:57Z</time></trkpt><trkpt lat="45.74095566522427" lon="8.748725977279927"><ele>282.0</ele><time>2026-04-04T08:56:58Z</time></trkpt><trkpt lat="45.741105657576966" lon="8.74887947962779"><ele>282.0</ele><time>2026-04-04T08:56:59Z</time></trkpt><trkpt lat="45.741229532460615" lon="8.749022708004562"><ele>282.0</ele><time>2026-04-04T08:57:00Z</time></trkpt><trkpt lat="45.741323714172324" lon="8.749174125125338"><ele>282.0</ele><time>2026-04-04T08:57:01Z</time></trkpt><trkpt lat="45.74138207341267" lon="8.749325432602204"><ele>282.0</ele><time>2026-04-04T08:57:02Z</time></trkpt><trkpt lat="45.74144691228022" lon="8.749431518788485"><ele>282.0</ele><time>2026-04-04T08:57:03Z</time></trkpt><trkpt lat="45.741545058372715" lon="8.749434238002339"><ele>282.0</ele><time>2026-04-04T08:57:04Z</time></trkpt><trkpt lat="45.74163402217649" lon="8.749453528730935"><ele>282.0</ele><time>2026-04-04T08:57:05Z</time></trkpt><trkpt lat="45.74173354276152" lon="8.749466301267201"><ele>282.0</ele><time>2026-04-04T08:57:06Z</time></trkpt><trkpt lat="45.74182894517473" lon="8.74953735308944"><ele>282.0</ele><time>2026-04-04T08:57:07Z</time></trkpt><trkpt lat="45.74193226550153" lon="8.749622203862797"><ele>282.0</ele><time>2026-04-04T08:57:08Z</time></trkpt><trkpt lat="45.742056322368484" lon="8.749727212029425"><ele>282.0</ele><time>2026-04-04T08:57:09Z</time></trkpt><trkpt lat="45.74221681410427" lon="8.749866283055807"><ele>282.6666666666667</ele><time>2026-04-04T08:57:10Z</time></trkpt><trkpt lat="45.74241288928761" lon="8.750052280282173"><ele>283.33333333333337</ele><time>2026-04-04T08:57:11Z</time></trkpt><trkpt lat="45.74256052688164" lon="8.750221047189507"><ele>284.0</ele><time>2026-04-04T08:57:12Z</time></trkpt><trkpt lat="45.74271169993477" lon="8.750354939787439"><ele>283.6666666666667</ele><time>2026-04-04T08:57:13Z</time></trkpt><trkpt lat="45.7428643770384" lon="8.75048608609948"><ele>283.3333333333333</ele><time>2026-04-04T08:57:14Z</time></trkpt><trkpt lat="45.743001194054315" lon="8.750624269186204"><ele>283.0</ele><time>2026-04-04T08:57:15Z</time></trkpt><trkpt lat="45.74314119708109" lon="8.750766602549499"><ele>283.0</ele><time>2026-04-04T08:57:16Z</time></trkpt><trkpt lat="45.74327692114776" lon="8.750903012903562"><ele>283.0</ele><time>2026-04-04T08:57:17Z</time></trkpt><trkpt lat="45.743419005176605" lon="8.751040883663395"><ele>283.0</ele><time>2026-04-04T08:57:18Z</time></trkpt><trkpt lat="45.74356215902494" lon="8.751174540990773"><ele>283.66666666666663</ele><time>2026-04-04T08:57:19Z</time></trkpt><trkpt lat="45.74370067413235" lon="8.751299238067924"><ele>284.3333333333333</ele><time>2026-04-04T08:57:20Z</time></trkpt><trkpt lat="45.74384739915161" lon="8.751436273841907"><ele>285.0</ele><time>2026-04-04T08:57:21Z</time></trkpt><trkpt lat="45.743987938574975" lon="8.751565756847029"><ele>285.0</ele><time>2026-04-04T08:57:22Z</time></trkpt><trkpt lat="45.74412964681011" lon="8.751693564809587"><ele>285.0</ele><time>2026-04-04T08:57:23Z</time></trkpt><trkpt lat="45.74427038563269" lon="8.751823261763732"><ele>285.0</ele><time>2026-04-04T08:57:24Z</time></trkpt><trkpt lat="45.74440895649202" lon="8.751957436516182"><ele>285.6666666666667</ele><time>2026-04-04T08:57:25Z</time></trkpt><trkpt lat="45.7445509469807" lon="8.752087789949181"><ele>286.33333333333337</ele><time>2026-04-04T08:57:26Z</time></trkpt><trkpt lat="45.74469705907603" lon="8.752218584383993"><ele>287.0</ele><time>2026-04-04T08:57:27Z</time></trkpt><trkpt lat="45.744836165966724" lon="8.752350073205628"><ele>287.0</ele><time>2026-04-04T08:57:28Z</time></trkpt><trkpt lat="45.74497677832902" lon="8.75248012371721"><ele>287.0</ele><time>2026-04-04T08:57:29Z</time></trkpt><trkpt lat="45.74511908347961" lon="8.752604754462507"><ele>287.0</ele><time>2026-04-04T08:57:30Z</time></trkpt><trkpt lat="45.74526052907414" lon="8.752735834056091"><ele>288.0</ele><time>2026-04-04T08:57:31Z</time></trkpt><trkpt lat="45.74539717756789" lon="8.752867890009108"><ele>289.0</ele><time>2026-04-04T08:57:32Z</time></trkpt><trkpt lat="45.74553913753503" lon="8.752999745891222"><ele>290.0</ele><time>2026-04-04T08:57:33Z</time></trkpt><trkpt lat="45.745677059941436" lon="8.753130926421495"><ele>290.0</ele><time>2026-04-04T08:57:34Z</time></trkpt><trkpt lat="45.74581812381" lon="8.753262746872846"><ele>290.0</ele><time>2026-04-04T08:57:35Z</time></trkpt><trkpt lat="45.745946131332126" lon="8.75337971723586"><ele>290.0</ele><time>2026-04-04T08:57:36Z</time></trkpt><trkpt lat="45.74606246170669" lon="8.753485437454076"><ele>291.0</ele><time>2026-04-04T08:57:37Z</time></trkpt><trkpt lat="45.746167917740564" lon="8.753581981778995"><ele>292.0</ele><time>2026-04-04T08:57:38Z</time></trkpt><trkpt lat="45.746256417742444" lon="8.753666171454077"><ele>293.0</ele><time>2026-04-04T08:57:39Z</time></trkpt><trkpt lat="45.74633047204962" lon="8.75373042872689"><ele>294.0</ele><time>2026-04-04T08:57:40Z</time></trkpt><trkpt lat="45.74639444742345" lon="8.753802617320646"><ele>295.0</ele><time>2026-04-04T08:57:41Z</time></trkpt><trkpt lat="45.746458360899396" lon="8.753869515044485"><ele>295.0</ele><time>2026-04-04T08:57:42Z</time></trkpt><trkpt lat="45.74654773374271" lon="8.75400583146514"><ele>295.0</ele><time>2026-04-04T08:57:44Z</time></trkpt><trkpt lat="45.74658915829057" lon="8.754083564001432"><ele>295.0</ele><time>2026-04-04T08:57:45Z</time></trkpt><trkpt lat="45.74670245800154" lon="8.754082638642776"><ele>295.0</ele><time>2026-04-04T08:57:46Z</time></trkpt><trkpt lat="45.74679394587967" lon="8.75409433080421"><ele>295.0</ele><time>2026-04-04T08:57:47Z</time></trkpt><trkpt lat="45.74688502960336" lon="8.754091343829039"><ele>295.0</ele><time>2026-04-04T08:57:48Z</time></trkpt><trkpt lat="45.74697808094064" lon="8.754096253975197"><ele>295.0</ele><time>2026-04-04T08:57:49Z</time></trkpt><trkpt lat="45.74708012717917" lon="8.754117394948626"><ele>295.0</ele><time>2026-04-04T08:57:50Z</time></trkpt><trkpt lat="45.747185128383194" lon="8.754132835834191"><ele>295.0</ele><time>2026-04-04T08:57:51Z</time></trkpt><trkpt lat="45.74731389526215" lon="8.754144840157219"><ele>295.0</ele><time>2026-04-04T08:57:52Z</time></trkpt><trkpt lat="45.74744641229928" lon="8.754146141412715"><ele>295.0</ele><time>2026-04-04T08:57:53Z</time></trkpt><trkpt lat="45.74757600384887" lon="8.754140138241512"><ele>295.0</ele><time>2026-04-04T08:57:54Z</time></trkpt><trkpt lat="45.74770732919872" lon="8.754133879132063"><ele>295.0</ele><time>2026-04-04T08:57:55Z</time></trkpt><trkpt lat="45.74785256163757" lon="8.754140170769025"><ele>295.0</ele><time>2026-04-04T08:57:56Z</time></trkpt><trkpt lat="45.748003069435356" lon="8.75412948385313"><ele>294.66666666666663</ele><time>2026-04-04T08:57:57Z</time></trkpt><trkpt lat="45.74815671684503" lon="8.754117736603511"><ele>294.3333333333333</ele><time>2026-04-04T08:57:58Z</time></trkpt><trkpt lat="45.74831498856186" lon="8.754097971303024"><ele>294.0</ele><time>2026-04-04T08:57:59Z</time></trkpt><trkpt lat="45.748477945187474" lon="8.75407629319577"><ele>294.6666666666667</ele><time>2026-04-04T08:58:00Z</time></trkpt><trkpt lat="45.748646517362275" lon="8.754063016049297"><ele>295.33333333333337</ele><time>2026-04-04T08:58:01Z</time></trkpt><trkpt lat="45.74881822450021" lon="8.754047741742442"><ele>296.0</ele><time>2026-04-04T08:58:02Z</time></trkpt><trkpt lat="45.748995418060254" lon="8.754038429311619"><ele>296.0</ele><time>2026-04-04T08:58:03Z</time></trkpt><trkpt lat="45.74917283338425" lon="8.754027753463152"><ele>296.0</ele><time>2026-04-04T08:58:04Z</time></trkpt><trkpt lat="45.74934667407061" lon="8.754021770046053"><ele>296.0</ele><time>2026-04-04T08:58:05Z</time></trkpt><trkpt lat="45.74951064950083" lon="8.754007183910756"><ele>296.25</ele><time>2026-04-04T08:58:06Z</time></trkpt><trkpt lat="45.749656197421636" lon="8.753991106755215"><ele>296.5</ele><time>2026-04-04T08:58:07Z</time></trkpt><trkpt lat="45.74980022734499" lon="8.753987534785026"><ele>296.75</ele><time>2026-04-04T08:58:08Z</time></trkpt><trkpt lat="45.74993784749058" lon="8.753982483549121"><ele>297.0</ele><time>2026-04-04T08:58:09Z</time></trkpt><trkpt lat="45.75008042833139" lon="8.753971038762701"><ele>297.75</ele><time>2026-04-04T08:58:10Z</time></trkpt><trkpt lat="45.75022698236703" lon="8.753960327238714"><ele>298.5</ele><time>2026-04-04T08:58:11Z</time></trkpt><trkpt lat="45.750375500284335" lon="8.75395157483929"><ele>299.25</ele><time>2026-04-04T08:58:12Z</time></trkpt><trkpt lat="45.750525158387475" lon="8.753934995514948"><ele>300.0</ele><time>2026-04-04T08:58:13Z</time></trkpt><trkpt lat="45.750678555283606" lon="8.753922960611984"><ele>300.0</ele><time>2026-04-04T08:58:14Z</time></trkpt><trkpt lat="45.75082841497583" lon="8.753916764695541"><ele>300.0</ele><time>2026-04-04T08:58:15Z</time></trkpt><trkpt lat="45.750982414123165" lon="8.753915088082312"><ele>300.0</ele><time>2026-04-04T08:58:16Z</time></trkpt><trkpt lat="45.75117932853872" lon="8.753932373744712"><ele>300.0</ele><time>2026-04-04T08:58:17Z</time></trkpt><trkpt lat="45.75130010758078" lon="8.753910398793481"><ele>300.0</ele><time>2026-04-04T08:58:18Z</time></trkpt><trkpt lat="45.75145472155656" lon="8.753925160505"><ele>300.0</ele><time>2026-04-04T08:58:19Z</time></trkpt><trkpt lat="45.75159815012944" lon="8.753940417851931"><ele>300.0</ele><time>2026-04-04T08:58:20Z</time></trkpt><trkpt lat="45.75176120169429" lon="8.753964616841353"><ele>300.3333333333333</ele><time>2026-04-04T08:58:21Z</time></trkpt><trkpt lat="45.75191563213755" lon="8.753985009044861"><ele>300.66666666666663</ele><time>2026-04-04T08:58:22Z</time></trkpt><trkpt lat="45.75206540085162" lon="8.754007664092384"><ele>301.0</ele><time>2026-04-04T08:58:23Z</time></trkpt><trkpt lat="45.75221793348698" lon="8.754033536484341"><ele>301.0</ele><time>2026-04-04T08:58:24Z</time></trkpt><trkpt lat="45.75236989192382" lon="8.754059459262947"><ele>301.0</ele><time>2026-04-04T08:58:25Z</time></trkpt><trkpt lat="45.75252208340037" lon="8.754092620680375"><ele>301.0</ele><time>2026-04-04T08:58:26Z</time></trkpt><trkpt lat="45.75267382554272" lon="8.75411891619955"><ele>302.3333333333333</ele><time>2026-04-04T08:58:27Z</time></trkpt><trkpt lat="45.75283239410314" lon="8.75415424084077"><ele>303.6666666666667</ele><time>2026-04-04T08:58:28Z</time></trkpt><trkpt lat="45.75297580553353" lon="8.75418259266726"><ele>305.0</ele><time>2026-04-04T08:58:29Z</time></trkpt><trkpt lat="45.75312682814389" lon="8.754204693087738"><ele>305.0</ele><time>2026-04-04T08:58:30Z</time></trkpt><trkpt lat="45.75326802707769" lon="8.754242133149392"><ele>305.0</ele><time>2026-04-04T08:58:31Z</time></trkpt><trkpt lat="45.75342778362618" lon="8.754280616992341"><ele>305.0</ele><time>2026-04-04T08:58:32Z</time></trkpt><trkpt lat="45.75357251839507" lon="8.754340935579405"><ele>303.33333333333337</ele><time>2026-04-04T08:58:33Z</time></trkpt><trkpt lat="45.753715351563535" lon="8.754407542521818"><ele>301.6666666666667</ele><time>2026-04-04T08:58:34Z</time></trkpt><trkpt lat="45.753858337926914" lon="8.754495292133736"><ele>300.0</ele><time>2026-04-04T08:58:35Z</time></trkpt><trkpt lat="45.75399625218657" lon="8.754584473241557"><ele>300.0</ele><time>2026-04-04T08:58:36Z</time></trkpt><trkpt lat="45.75412636018082" lon="8.754687556635574"><ele>300.0</ele><time>2026-04-04T08:58:37Z</time></trkpt><trkpt lat="45.75425284960439" lon="8.754799138294898"><ele>300.0</ele><time>2026-04-04T08:58:38Z</time></trkpt><trkpt lat="45.75437960547207" lon="8.754933349187347"><ele>300.3333333333333</ele><time>2026-04-04T08:58:39Z</time></trkpt><trkpt lat="45.754501310990285" lon="8.755083977144047"><ele>300.66666666666663</ele><time>2026-04-04T08:58:40Z</time></trkpt><trkpt lat="45.75462308182997" lon="8.755266154145119"><ele>301.0</ele><time>2026-04-04T08:58:41Z</time></trkpt><trkpt lat="45.75473585610917" lon="8.755445351673306"><ele>301.3333333333333</ele><time>2026-04-04T08:58:42Z</time></trkpt><trkpt lat="45.754840377208026" lon="8.755631033634398"><ele>301.6666666666667</ele><time>2026-04-04T08:58:43Z</time></trkpt><trkpt lat="45.754931323432025" lon="8.755809265966015"><ele>302.0</ele><time>2026-04-04T08:58:44Z</time></trkpt><trkpt lat="45.755018783641994" lon="8.756004668575672"><ele>302.0</ele><time>2026-04-04T08:58:45Z</time></trkpt><trkpt lat="45.75509692260622" lon="8.756207000133399"><ele>302.0</ele><time>2026-04-04T08:58:46Z</time></trkpt><trkpt lat="45.755169910745465" lon="8.756413552979824"><ele>302.0</ele><time>2026-04-04T08:58:47Z</time></trkpt><trkpt lat="45.75524514542282" lon="8.756615413026744"><ele>303.0</ele><time>2026-04-04T08:58:48Z</time></trkpt><trkpt lat="45.75531034890485" lon="8.75680314942595"><ele>304.0</ele><time>2026-04-04T08:58:49Z</time></trkpt><trkpt lat="45.75538172371911" lon="8.75699603762831"><ele>305.0</ele><time>2026-04-04T08:58:50Z</time></trkpt><trkpt lat="45.75544711591986" lon="8.75718098923138"><ele>306.0</ele><time>2026-04-04T08:58:51Z</time></trkpt><trkpt lat="45.75550648931858" lon="8.757357773765678"><ele>306.0</ele><time>2026-04-04T08:58:52Z</time></trkpt><trkpt lat="45.755565031527674" lon="8.757522901271193"><ele>306.0</ele><time>2026-04-04T08:58:53Z</time></trkpt><trkpt lat="45.75561938703478" lon="8.757671369081695"><ele>306.0</ele><time>2026-04-04T08:58:54Z</time></trkpt><trkpt lat="45.755676471873535" lon="8.757816311759482"><ele>306.0</ele><time>2026-04-04T08:58:55Z</time></trkpt><trkpt lat="45.75573173695151" lon="8.757971167047138"><ele>305.5</ele><time>2026-04-04T08:58:56Z</time></trkpt><trkpt lat="45.75579821079723" lon="8.75813894768812"><ele>305.0</ele><time>2026-04-04T08:58:57Z</time></trkpt><trkpt lat="45.755868888333175" lon="8.758306441658405"><ele>304.5</ele><time>2026-04-04T08:58:58Z</time></trkpt><trkpt lat="45.75593950213053" lon="8.758485841172252"><ele>304.0</ele><time>2026-04-04T08:58:59Z</time></trkpt><trkpt lat="45.75602371523061" lon="8.758657644532553"><ele>305.25</ele><time>2026-04-04T08:59:00Z</time></trkpt><trkpt lat="45.75609995532819" lon="8.758827867815617"><ele>306.5</ele><time>2026-04-04T08:59:01Z</time></trkpt><trkpt lat="45.75618258796107" lon="8.758994211495516"><ele>307.75</ele><time>2026-04-04T08:59:02Z</time></trkpt><trkpt lat="45.756259991792064" lon="8.759172719280741"><ele>309.0</ele><time>2026-04-04T08:59:03Z</time></trkpt><trkpt lat="45.75634335518436" lon="8.759345843098684"><ele>309.0</ele><time>2026-04-04T08:59:04Z</time></trkpt><trkpt lat="45.756426591721734" lon="8.759523439513988"><ele>309.0</ele><time>2026-04-04T08:59:05Z</time></trkpt><trkpt lat="45.75651307941763" lon="8.75970263108815"><ele>309.0</ele><time>2026-04-04T08:59:06Z</time></trkpt><trkpt lat="45.75659733045902" lon="8.759879080055157"><ele>309.0</ele><time>2026-04-04T08:59:07Z</time></trkpt><trkpt lat="45.75668428534516" lon="8.760053928662833"><ele>309.0</ele><time>2026-04-04T08:59:08Z</time></trkpt><trkpt lat="45.75676693877279" lon="8.760229352289032"><ele>309.0</ele><time>2026-04-04T08:59:09Z</time></trkpt><trkpt lat="45.756846303529656" lon="8.760411036214151"><ele>309.0</ele><time>2026-04-04T08:59:10Z</time></trkpt><trkpt lat="45.756934966292704" lon="8.760595283347913"><ele>310.0</ele><time>2026-04-04T08:59:11Z</time></trkpt><trkpt lat="45.7570268241875" lon="8.760783889656896"><ele>311.0</ele><time>2026-04-04T08:59:12Z</time></trkpt><trkpt lat="45.75712715992362" lon="8.761002516376813"><ele>312.0</ele><time>2026-04-04T08:59:13Z</time></trkpt><trkpt lat="45.757231603050876" lon="8.761225445956292"><ele>312.0</ele><time>2026-04-04T08:59:14Z</time></trkpt><trkpt lat="45.75733895109665" lon="8.761446890887289"><ele>312.0</ele><time>2026-04-04T08:59:15Z</time></trkpt><trkpt lat="45.757434989686956" lon="8.761647211775164"><ele>312.0</ele><time>2026-04-04T08:59:16Z</time></trkpt><trkpt lat="45.75752252249" lon="8.761829245405925"><ele>310.6666666666667</ele><time>2026-04-04T08:59:17Z</time></trkpt><trkpt lat="45.75761293368896" lon="8.762015813858486"><ele>309.33333333333337</ele><time>2026-04-04T08:59:18Z</time></trkpt><trkpt lat="45.75770544423511" lon="8.76220815233131"><ele>308.0</ele><time>2026-04-04T08:59:19Z</time></trkpt><trkpt lat="45.757795265105536" lon="8.762392726382737"><ele>308.75</ele><time>2026-04-04T08:59:20Z</time></trkpt><trkpt lat="45.757876661222106" lon="8.76255561051624"><ele>309.5</ele><time>2026-04-04T08:59:21Z</time></trkpt><trkpt lat="45.757960250034984" lon="8.762709762199187"><ele>310.25</ele><time>2026-04-04T08:59:22Z</time></trkpt><trkpt lat="45.7580445857473" lon="8.762833221151325"><ele>311.0</ele><time>2026-04-04T08:59:23Z</time></trkpt><trkpt lat="45.75811705285442" lon="8.76293582130901"><ele>311.0</ele><time>2026-04-04T08:59:24Z</time></trkpt><trkpt lat="45.75818048097804" lon="8.7630258116537"><ele>311.0</ele><time>2026-04-04T08:59:25Z</time></trkpt><trkpt lat="45.758237490705135" lon="8.763100784606706"><ele>311.0</ele><time>2026-04-04T08:59:26Z</time></trkpt><trkpt lat="45.758281932608945" lon="8.763171648029273"><ele>311.0</ele><time>2026-04-04T08:59:27Z</time></trkpt><trkpt lat="45.758385476053874" lon="8.763259908781626"><ele>311.0</ele><time>2026-04-04T08:59:28.999Z</time></trkpt><trkpt lat="45.758470307363346" lon="8.76336465098602"><ele>309.83333333333337</ele><time>2026-04-04T08:59:30.999Z</time></trkpt><trkpt lat="45.758558428085074" lon="8.763453275256857"><ele>308.6666666666667</ele><time>2026-04-04T08:59:32.999Z</time></trkpt><trkpt lat="45.75864031461375" lon="8.763556561578568"><ele>307.5</ele><time>2026-04-04T08:59:34.999Z</time></trkpt><trkpt lat="45.75867515592773" lon="8.763639220760743"><ele>306.3333333333333</ele><time>2026-04-04T08:59:35.999Z</time></trkpt><trkpt lat="45.75872176229097" lon="8.763730165711282"><ele>305.16666666666663</ele><time>2026-04-04T08:59:36.999Z</time></trkpt><trkpt lat="45.75878751726667" lon="8.7637973778142"><ele>304.0</ele><time>2026-04-04T08:59:37.999Z</time></trkpt><trkpt lat="45.75885419023156" lon="8.76384012640658"><ele>303.8333333333333</ele><time>2026-04-04T08:59:38.999Z</time></trkpt><trkpt lat="45.75892081886304" lon="8.76385765987374"><ele>303.66666666666663</ele><time>2026-04-04T08:59:40Z</time></trkpt><trkpt lat="45.75899390123075" lon="8.763872303608448"><ele>303.5</ele><time>2026-04-04T08:59:41Z</time></trkpt><trkpt lat="45.759068613227754" lon="8.763908073046075"><ele>303.3333333333333</ele><time>2026-04-04T08:59:42Z</time></trkpt><trkpt lat="45.75915006296213" lon="8.763964983310839"><ele>303.1666666666667</ele><time>2026-04-04T08:59:43Z</time></trkpt><trkpt lat="45.759231833344174" lon="8.76403354742046"><ele>303.0</ele><time>2026-04-04T08:59:44Z</time></trkpt><trkpt lat="45.7593209815514" lon="8.764108222016656"><ele>302.8</ele><time>2026-04-04T08:59:45Z</time></trkpt><trkpt lat="45.75941326803698" lon="8.764193354635422"><ele>302.6</ele><time>2026-04-04T08:59:46Z</time></trkpt><trkpt lat="45.75949948883382" lon="8.7642776708737"><ele>302.4</ele><time>2026-04-04T08:59:47Z</time></trkpt><trkpt lat="45.7595667606049" lon="8.764339858370487"><ele>302.2</ele><time>2026-04-04T08:59:48Z</time></trkpt><trkpt lat="45.75965066189139" lon="8.764419284162514"><ele>302.0</ele><time>2026-04-04T08:59:50Z</time></trkpt><trkpt lat="45.759750228612354" lon="8.764500407100291"><ele>302.0</ele><time>2026-04-04T08:59:52Z</time></trkpt><trkpt lat="45.75981438465263" lon="8.764552153163386"><ele>302.0</ele><time>2026-04-04T08:59:53Z</time></trkpt><trkpt lat="45.759877998355606" lon="8.764604336094065"><ele>302.0</ele><time>2026-04-04T08:59:54Z</time></trkpt><trkpt lat="45.75994094002602" lon="8.764657644201744"><ele>302.0</ele><time>2026-04-04T08:59:55Z</time></trkpt><trkpt lat="45.76000897831496" lon="8.764717850260618"><ele>302.0</ele><time>2026-04-04T08:59:56Z</time></trkpt><trkpt lat="45.760082590292896" lon="8.76477950736127"><ele>302.0</ele><time>2026-04-04T08:59:57Z</time></trkpt><trkpt lat="45.76016124620992" lon="8.76484326849933"><ele>302.0</ele><time>2026-04-04T08:59:58Z</time></trkpt><trkpt lat="45.76024232426773" lon="8.764903747562734"><ele>302.0</ele><time>2026-04-04T08:59:59Z</time></trkpt><trkpt lat="45.76031969503063" lon="8.764971453086645"><ele>302.0</ele><time>2026-04-04T09:00:00Z</time></trkpt><trkpt lat="45.76039010700909" lon="8.765038881970042"><ele>302.0</ele><time>2026-04-04T09:00:01Z</time></trkpt><trkpt lat="45.76045935075328" lon="8.765104626928329"><ele>302.0</ele><time>2026-04-04T09:00:02Z</time></trkpt><trkpt lat="45.760534057572826" lon="8.765165315319166"><ele>302.0</ele><time>2026-04-04T09:00:03Z</time></trkpt><trkpt lat="45.760609606208774" lon="8.76523564912624"><ele>302.1666666666667</ele><time>2026-04-04T09:00:04Z</time></trkpt><trkpt lat="45.76069464064323" lon="8.765307581788393"><ele>302.33333333333337</ele><time>2026-04-04T09:00:05Z</time></trkpt><trkpt lat="45.76077011350904" lon="8.765374392579636"><ele>302.5</ele><time>2026-04-04T09:00:06Z</time></trkpt><trkpt lat="45.76084231193074" lon="8.765440471167384"><ele>302.6666666666667</ele><time>2026-04-04T09:00:07Z</time></trkpt><trkpt lat="45.760920145021664" lon="8.765507557392395"><ele>302.8333333333333</ele><time>2026-04-04T09:00:08Z</time></trkpt><trkpt lat="45.76098182180366" lon="8.76556191577419"><ele>303.0</ele><time>2026-04-04T09:00:09Z</time></trkpt><trkpt lat="45.76104258593809" lon="8.765617436657879"><ele>303.0</ele><time>2026-04-04T09:00:10Z</time></trkpt><trkpt lat="45.761099743814846" lon="8.765673932293565"><ele>303.0</ele><time>2026-04-04T09:00:11Z</time></trkpt><trkpt lat="45.761149889873955" lon="8.76573940127643"><ele>303.0</ele><time>2026-04-04T09:00:12Z</time></trkpt><trkpt lat="45.7611924798149" lon="8.765809941595485"><ele>303.0</ele><time>2026-04-04T09:00:13Z</time></trkpt><trkpt lat="45.761279861031745" lon="8.765930975234404"><ele>303.0</ele><time>2026-04-04T09:00:15Z</time></trkpt><trkpt lat="45.76133859981504" lon="8.765982214667495"><ele>303.0</ele><time>2026-04-04T09:00:16Z</time></trkpt><trkpt lat="45.76141119413068" lon="8.7660130930221"><ele>303.0</ele><time>2026-04-04T09:00:17Z</time></trkpt><trkpt lat="45.76147526499187" lon="8.766026061429804"><ele>303.0</ele><time>2026-04-04T09:00:18Z</time></trkpt><trkpt lat="45.76154595906896" lon="8.766055597352445"><ele>303.0</ele><time>2026-04-04T09:00:19Z</time></trkpt><trkpt lat="45.76161913176764" lon="8.76611577544159"><ele>303.0</ele><time>2026-04-04T09:00:20Z</time></trkpt><trkpt lat="45.76169928038018" lon="8.766182004407023"><ele>303.0</ele><time>2026-04-04T09:00:21Z</time></trkpt><trkpt lat="45.76176999555564" lon="8.76624638451065"><ele>303.0</ele><time>2026-04-04T09:00:22Z</time></trkpt><trkpt lat="45.76184286282477" lon="8.76631943550211"><ele>303.0</ele><time>2026-04-04T09:00:23Z</time></trkpt><trkpt lat="45.76192431275651" lon="8.766392300656872"><ele>303.0</ele><time>2026-04-04T09:00:24Z</time></trkpt><trkpt lat="45.762004617360226" lon="8.76645943881339"><ele>303.0</ele><time>2026-04-04T09:00:25Z</time></trkpt><trkpt lat="45.76207355852967" lon="8.766521971449215"><ele>303.0</ele><time>2026-04-04T09:00:26Z</time></trkpt><trkpt lat="45.762142808967255" lon="8.766579036765803"><ele>303.0</ele><time>2026-04-04T09:00:27Z</time></trkpt><trkpt lat="45.762221423875644" lon="8.766636167229604"><ele>303.0</ele><time>2026-04-04T09:00:28Z</time></trkpt><trkpt lat="45.76230165027508" lon="8.766707883956103"><ele>303.0</ele><time>2026-04-04T09:00:29Z</time></trkpt><trkpt lat="45.76236765974884" lon="8.766771192461986"><ele>303.0</ele><time>2026-04-04T09:00:30Z</time></trkpt><trkpt lat="45.7624420512181" lon="8.766837188343736"><ele>303.0</ele><time>2026-04-04T09:00:31Z</time></trkpt><trkpt lat="45.76251807091161" lon="8.766907425635837"><ele>303.0</ele><time>2026-04-04T09:00:32Z</time></trkpt><trkpt lat="45.762635139662294" lon="8.766992730803631"><ele>303.0</ele><time>2026-04-04T09:00:33Z</time></trkpt><trkpt lat="45.76278084389821" lon="8.767114177987303"><ele>304.0</ele><time>2026-04-04T09:00:34Z</time></trkpt><trkpt lat="45.762931823509334" lon="8.767279735573158"><ele>305.0</ele><time>2026-04-04T09:00:35Z</time></trkpt><trkpt lat="45.76305979312323" lon="8.76740486285587"><ele>306.0</ele><time>2026-04-04T09:00:36Z</time></trkpt><trkpt lat="45.76317446648495" lon="8.767503576111624"><ele>306.0</ele><time>2026-04-04T09:00:37Z</time></trkpt><trkpt lat="45.76323925009967" lon="8.767550937045657"><ele>306.0</ele><time>2026-04-04T09:00:38Z</time></trkpt><trkpt lat="45.76334168166303" lon="8.767632618018858"><ele>306.0</ele><time>2026-04-04T09:00:40Z</time></trkpt><trkpt lat="45.76340802912391" lon="8.767679709352368"><ele>306.0</ele><time>2026-04-04T09:00:41Z</time></trkpt><trkpt lat="45.763484687085345" lon="8.767734891761558"><ele>306.0</ele><time>2026-04-04T09:00:42Z</time></trkpt><trkpt lat="45.76361504791169" lon="8.767826369682703"><ele>305.6666666666667</ele><time>2026-04-04T09:00:43Z</time></trkpt><trkpt lat="45.763776832294305" lon="8.767989051321132"><ele>305.33333333333337</ele><time>2026-04-04T09:00:44Z</time></trkpt><trkpt lat="45.76394250429429" lon="8.7681483651308"><ele>305.0</ele><time>2026-04-04T09:00:45Z</time></trkpt><trkpt lat="45.76409760320313" lon="8.768290335261282"><ele>305.0</ele><time>2026-04-04T09:00:46Z</time></trkpt><trkpt lat="45.76424806766692" lon="8.768410187628524"><ele>305.0</ele><time>2026-04-04T09:00:47Z</time></trkpt><trkpt lat="45.76439328971892" lon="8.768516725699762"><ele>305.0</ele><time>2026-04-04T09:00:48Z</time></trkpt><trkpt lat="45.76452750656938" lon="8.768654475399781"><ele>305.25</ele><time>2026-04-04T09:00:49Z</time></trkpt><trkpt lat="45.7646586722612" lon="8.768779918685249"><ele>305.5</ele><time>2026-04-04T09:00:50Z</time></trkpt><trkpt lat="45.76478201269188" lon="8.76889529338643"><ele>305.75</ele><time>2026-04-04T09:00:51Z</time></trkpt><trkpt lat="45.7648983415324" lon="8.768995323066513"><ele>306.0</ele><time>2026-04-04T09:00:52Z</time></trkpt><trkpt lat="45.76500428777381" lon="8.769077350200334"><ele>306.0</ele><time>2026-04-04T09:00:53Z</time></trkpt><trkpt lat="45.76509801305216" lon="8.769136431666146"><ele>306.0</ele><time>2026-04-04T09:00:54Z</time></trkpt><trkpt lat="45.76517564182757" lon="8.769168262972546"><ele>306.0</ele><time>2026-04-04T09:00:55Z</time></trkpt><trkpt lat="45.76525241681653" lon="8.76919282013988"><ele>306.0</ele><time>2026-04-04T09:00:58Z</time></trkpt><trkpt lat="45.76531033731154" lon="8.769241684930135"><ele>306.0</ele><time>2026-04-04T09:00:59Z</time></trkpt><trkpt lat="45.765372540025275" lon="8.769307193309885"><ele>306.0</ele><time>2026-04-04T09:01:00Z</time></trkpt><trkpt lat="45.765439760487254" lon="8.769385084610509"><ele>305.75</ele><time>2026-04-04T09:01:01Z</time></trkpt><trkpt lat="45.76551925113934" lon="8.769494208446435"><ele>305.5</ele><time>2026-04-04T09:01:02Z</time></trkpt><trkpt lat="45.76561808613774" lon="8.76961530676378"><ele>305.25</ele><time>2026-04-04T09:01:03Z</time></trkpt><trkpt lat="45.765744710046754" lon="8.769733384672918"><ele>305.0</ele><time>2026-04-04T09:01:04Z</time></trkpt><trkpt lat="45.76588632807778" lon="8.769841851766254"><ele>305.33333333333337</ele><time>2026-04-04T09:01:05Z</time></trkpt><trkpt lat="45.76602968031785" lon="8.769954510606972"><ele>305.6666666666667</ele><time>2026-04-04T09:01:06Z</time></trkpt><trkpt lat="45.76615297353403" lon="8.770069236652036"><ele>306.0</ele><time>2026-04-04T09:01:07Z</time></trkpt><trkpt lat="45.76627530453036" lon="8.770179674524572"><ele>306.3333333333333</ele><time>2026-04-04T09:01:08Z</time></trkpt><trkpt lat="45.76639827577497" lon="8.770286964855705"><ele>306.66666666666663</ele><time>2026-04-04T09:01:09Z</time></trkpt><trkpt lat="45.76652790249995" lon="8.770403314522262"><ele>307.0</ele><time>2026-04-04T09:01:10Z</time></trkpt><trkpt lat="45.76666662671696" lon="8.77052760201722"><ele>307.0</ele><time>2026-04-04T09:01:11Z</time></trkpt><trkpt lat="45.76682169093409" lon="8.77066776287182"><ele>307.0</ele><time>2026-04-04T09:01:12Z</time></trkpt><trkpt lat="45.76696814987611" lon="8.77079399192583"><ele>307.0</ele><time>2026-04-04T09:01:13Z</time></trkpt><trkpt lat="45.767100625752605" lon="8.770907846825752"><ele>307.0</ele><time>2026-04-04T09:01:14Z</time></trkpt><trkpt lat="45.7672181332539" lon="8.771015812320588"><ele>307.0</ele><time>2026-04-04T09:01:15Z</time></trkpt><trkpt lat="45.767337023963584" lon="8.771123378546568"><ele>307.0</ele><time>2026-04-04T09:01:16Z</time></trkpt><trkpt lat="45.76743836620503" lon="8.771237109317603"><ele>307.0</ele><time>2026-04-04T09:01:17Z</time></trkpt><trkpt lat="45.767528555979176" lon="8.771349081905623"><ele>307.0</ele><time>2026-04-04T09:01:18Z</time></trkpt><trkpt lat="45.76764074768703" lon="8.771463121430392"><ele>307.0</ele><time>2026-04-04T09:01:19Z</time></trkpt><trkpt lat="45.76778322554203" lon="8.771586317457752"><ele>307.0</ele><time>2026-04-04T09:01:20Z</time></trkpt><trkpt lat="45.76793417359134" lon="8.771726466666687"><ele>307.0</ele><time>2026-04-04T09:01:21Z</time></trkpt><trkpt lat="45.76808330741741" lon="8.771891468537527"><ele>307.0</ele><time>2026-04-04T09:01:22Z</time></trkpt><trkpt lat="45.76823472035845" lon="8.772068839384879"><ele>307.0</ele><time>2026-04-04T09:01:23Z</time></trkpt><trkpt lat="45.76838997047078" lon="8.77225979597655"><ele>306.66666666666663</ele><time>2026-04-04T09:01:24Z</time></trkpt><trkpt lat="45.768539032854534" lon="8.772457848875447"><ele>306.3333333333333</ele><time>2026-04-04T09:01:25Z</time></trkpt><trkpt lat="45.768687626678116" lon="8.772668958656967"><ele>306.0</ele><time>2026-04-04T09:01:26Z</time></trkpt><trkpt lat="45.7688378715549" lon="8.77287570014956"><ele>306.6666666666667</ele><time>2026-04-04T09:01:27Z</time></trkpt><trkpt lat="45.76899368521913" lon="8.773079931885208"><ele>307.33333333333337</ele><time>2026-04-04T09:01:28Z</time></trkpt><trkpt lat="45.76914421574517" lon="8.773287205578043"><ele>308.0</ele><time>2026-04-04T09:01:29Z</time></trkpt><trkpt lat="45.769283526935794" lon="8.77347247594768"><ele>308.0</ele><time>2026-04-04T09:01:30Z</time></trkpt><trkpt lat="45.76941660793423" lon="8.77364629554472"><ele>308.0</ele><time>2026-04-04T09:01:31Z</time></trkpt><trkpt lat="45.769532271404834" lon="8.773850492940712"><ele>308.0</ele><time>2026-04-04T09:01:32Z</time></trkpt><trkpt lat="45.76964842260832" lon="8.773972867122724"><ele>308.0</ele><time>2026-04-04T09:01:33Z</time></trkpt><trkpt lat="45.769752862748085" lon="8.774107379423443"><ele>308.0</ele><time>2026-04-04T09:01:34Z</time></trkpt><trkpt lat="45.76985089543001" lon="8.774239892966934"><ele>308.0</ele><time>2026-04-04T09:01:34.999Z</time></trkpt><trkpt lat="45.7699489549482" lon="8.77437320462853"><ele>308.0</ele><time>2026-04-04T09:01:35.999Z</time></trkpt><trkpt lat="45.77004385398417" lon="8.77451714613608"><ele>307.5</ele><time>2026-04-04T09:01:36.999Z</time></trkpt><trkpt lat="45.77013295355921" lon="8.774668681250454"><ele>307.0</ele><time>2026-04-04T09:01:37.999Z</time></trkpt><trkpt lat="45.77021586774714" lon="8.774829269603801"><ele>306.5</ele><time>2026-04-04T09:01:38.999Z</time></trkpt><trkpt lat="45.77028987487475" lon="8.774998562535188"><ele>306.0</ele><time>2026-04-04T09:01:39.999Z</time></trkpt><trkpt lat="45.770353549053965" lon="8.77516789042623"><ele>306.6666666666667</ele><time>2026-04-04T09:01:40.999Z</time></trkpt><trkpt lat="45.7704035454348" lon="8.775312264392085"><ele>307.3333333333333</ele><time>2026-04-04T09:01:41.999Z</time></trkpt><trkpt lat="45.77044944899303" lon="8.775414944337042"><ele>308.0</ele><time>2026-04-04T09:01:42.999Z</time></trkpt><trkpt lat="45.77048620035981" lon="8.775498503085043"><ele>308.66666666666663</ele><time>2026-04-04T09:01:43.999Z</time></trkpt><trkpt lat="45.770535272347814" lon="8.775628675392731"><ele>309.3333333333333</ele><time>2026-04-04T09:01:45.999Z</time></trkpt><trkpt lat="45.770575613896106" lon="8.775717999962989"><ele>310.0</ele><time>2026-04-04T09:01:48.999Z</time></trkpt><trkpt lat="45.77061425725105" lon="8.775800919588413"><ele>310.0</ele><time>2026-04-04T09:02:11Z</time></trkpt><trkpt lat="45.77065145448371" lon="8.775886650366465"><ele>310.0</ele><time>2026-04-04T09:02:12Z</time></trkpt><trkpt lat="45.77069593012462" lon="8.77599369238331"><ele>310.0</ele><time>2026-04-04T09:02:13Z</time></trkpt><trkpt lat="45.77074416208043" lon="8.776104393814366"><ele>310.0</ele><time>2026-04-04T09:02:14Z</time></trkpt><trkpt lat="45.77079792847424" lon="8.776235752976849"><ele>310.0</ele><time>2026-04-04T09:02:15Z</time></trkpt><trkpt lat="45.770853290253136" lon="8.776381370702941"><ele>309.75</ele><time>2026-04-04T09:02:16Z</time></trkpt><trkpt lat="45.77091320153466" lon="8.776526999729644"><ele>309.5</ele><time>2026-04-04T09:02:17Z</time></trkpt><trkpt lat="45.77097269347286" lon="8.776690539666921"><ele>309.25</ele><time>2026-04-04T09:02:18Z</time></trkpt><trkpt lat="45.771037921239945" lon="8.776857466376065"><ele>309.0</ele><time>2026-04-04T09:02:19Z</time></trkpt><trkpt lat="45.77110355183873" lon="8.777029852430307"><ele>309.0</ele><time>2026-04-04T09:02:20Z</time></trkpt><trkpt lat="45.77117881982582" lon="8.77719933291064"><ele>309.0</ele><time>2026-04-04T09:02:21Z</time></trkpt><trkpt lat="45.77125052030189" lon="8.777352777211975"><ele>309.0</ele><time>2026-04-04T09:02:22Z</time></trkpt><trkpt lat="45.77133683704101" lon="8.777492392085751"><ele>309.0</ele><time>2026-04-04T09:02:23Z</time></trkpt><trkpt lat="45.77142920426267" lon="8.77763335685817"><ele>310.5</ele><time>2026-04-04T09:02:24Z</time></trkpt><trkpt lat="45.771530737136764" lon="8.777780036827979"><ele>312.0</ele><time>2026-04-04T09:02:25Z</time></trkpt><trkpt lat="45.7716280232553" lon="8.777927545215995"><ele>313.5</ele><time>2026-04-04T09:02:26Z</time></trkpt><trkpt lat="45.77172948672089" lon="8.778087476053079"><ele>315.0</ele><time>2026-04-04T09:02:27Z</time></trkpt><trkpt lat="45.7718294493668" lon="8.778243664815538"><ele>314.25</ele><time>2026-04-04T09:02:28Z</time></trkpt><trkpt lat="45.77192566488785" lon="8.778388213545139"><ele>313.5</ele><time>2026-04-04T09:02:29Z</time></trkpt><trkpt lat="45.772015373237515" lon="8.778529240379074"><ele>312.75</ele><time>2026-04-04T09:02:30Z</time></trkpt><trkpt lat="45.772101174161264" lon="8.778668139392725"><ele>312.0</ele><time>2026-04-04T09:02:31Z</time></trkpt><trkpt lat="45.77220017246111" lon="8.778809489579167"><ele>312.0</ele><time>2026-04-04T09:02:32Z</time></trkpt><trkpt lat="45.77229995030248" lon="8.778961436693766"><ele>312.0</ele><time>2026-04-04T09:02:33Z</time></trkpt><trkpt lat="45.772402601489674" lon="8.779121880866613"><ele>312.0</ele><time>2026-04-04T09:02:34Z</time></trkpt><trkpt lat="45.77249932536464" lon="8.779293796262673"><ele>311.0</ele><time>2026-04-04T09:02:35Z</time></trkpt><trkpt lat="45.77258711182266" lon="8.779474680722908"><ele>310.0</ele><time>2026-04-04T09:02:36Z</time></trkpt><trkpt lat="45.77266161156351" lon="8.779654680839567"><ele>309.0</ele><time>2026-04-04T09:02:37Z</time></trkpt><trkpt lat="45.77272149013126" lon="8.779821715407444"><ele>308.0</ele><time>2026-04-04T09:02:38Z</time></trkpt><trkpt lat="45.77276335964059" lon="8.780007181175103"><ele>308.0</ele><time>2026-04-04T09:02:39Z</time></trkpt><trkpt lat="45.77282130117533" lon="8.780158188413784"><ele>308.0</ele><time>2026-04-04T09:02:40Z</time></trkpt><trkpt lat="45.77286850298466" lon="8.780311550549603"><ele>308.0</ele><time>2026-04-04T09:02:41Z</time></trkpt><trkpt lat="45.77290337371633" lon="8.780484432417877"><ele>308.0</ele><time>2026-04-04T09:02:42Z</time></trkpt><trkpt lat="45.7729720248648" lon="8.780651840823209"><ele>308.0</ele><time>2026-04-04T09:02:43Z</time></trkpt><trkpt lat="45.77301465702272" lon="8.780824708223426"><ele>308.0</ele><time>2026-04-04T09:02:44Z</time></trkpt><trkpt lat="45.773065486867864" lon="8.780990591846871"><ele>308.0</ele><time>2026-04-04T09:02:45Z</time></trkpt><trkpt lat="45.773109309138995" lon="8.781145252824434"><ele>308.0</ele><time>2026-04-04T09:02:46Z</time></trkpt><trkpt lat="45.77315788845894" lon="8.781294608971235"><ele>308.0</ele><time>2026-04-04T09:02:47Z</time></trkpt><trkpt lat="45.7731993610695" lon="8.781440138027548"><ele>308.0</ele><time>2026-04-04T09:02:48Z</time></trkpt><trkpt lat="45.77323624794753" lon="8.781581006179861"><ele>308.0</ele><time>2026-04-04T09:02:49Z</time></trkpt><trkpt lat="45.77327198099904" lon="8.781707761773186"><ele>308.0</ele><time>2026-04-04T09:02:50Z</time></trkpt><trkpt lat="45.77330363687961" lon="8.781840879604381"><ele>308.0</ele><time>2026-04-04T09:02:51Z</time></trkpt><trkpt lat="45.77332404209128" lon="8.781966102056245"><ele>308.0</ele><time>2026-04-04T09:02:52Z</time></trkpt><trkpt lat="45.773335506773805" lon="8.78208018692669"><ele>308.0</ele><time>2026-04-04T09:02:53Z</time></trkpt><trkpt lat="45.773342483171625" lon="8.782176777266596"><ele>308.0</ele><time>2026-04-04T09:02:54Z</time></trkpt><trkpt lat="45.77332714383976" lon="8.782276097371374"><ele>308.0</ele><time>2026-04-04T09:02:55Z</time></trkpt><trkpt lat="45.773349877786885" lon="8.782463658667428"><ele>308.0</ele><time>2026-04-04T09:02:57Z</time></trkpt><trkpt lat="45.77338355420993" lon="8.782574160035924"><ele>308.0</ele><time>2026-04-04T09:02:58Z</time></trkpt><trkpt lat="45.773455858672165" lon="8.782747386068857"><ele>307.33333333333337</ele><time>2026-04-04T09:02:59Z</time></trkpt><trkpt lat="45.77348744145541" lon="8.782978689288312"><ele>306.6666666666667</ele><time>2026-04-04T09:03:00Z</time></trkpt><trkpt lat="45.77347088900157" lon="8.783203868193842"><ele>306.0</ele><time>2026-04-04T09:03:01Z</time></trkpt><trkpt lat="45.77348810229198" lon="8.783389363219825"><ele>306.0</ele><time>2026-04-04T09:03:02Z</time></trkpt><trkpt lat="45.77350409098311" lon="8.783561651807823"><ele>306.0</ele><time>2026-04-04T09:03:03Z</time></trkpt><trkpt lat="45.7735250928008" lon="8.783792602364542"><ele>306.0</ele><time>2026-04-04T09:03:04Z</time></trkpt><trkpt lat="45.77355302610486" lon="8.78411172122005"><ele>304.0</ele><time>2026-04-04T09:03:05Z</time></trkpt><trkpt lat="45.77360057709714" lon="8.784443624120529"><ele>302.0</ele><time>2026-04-04T09:03:06Z</time></trkpt><trkpt lat="45.77363496553439" lon="8.784783738958547"><ele>302.0</ele><time>2026-04-04T09:03:07Z</time></trkpt><trkpt lat="45.773658266320595" lon="8.785082536162323"><ele>302.0</ele><time>2026-04-04T09:03:08Z</time></trkpt><trkpt lat="45.77368330658477" lon="8.785370289996376"><ele>302.0</ele><time>2026-04-04T09:03:09Z</time></trkpt><trkpt lat="45.77369223155158" lon="8.785652978429106"><ele>303.6666666666667</ele><time>2026-04-04T09:03:10Z</time></trkpt><trkpt lat="45.7737170317573" lon="8.785929894328461"><ele>305.3333333333333</ele><time>2026-04-04T09:03:11Z</time></trkpt><trkpt lat="45.77374167825133" lon="8.78620842915791"><ele>307.0</ele><time>2026-04-04T09:03:12Z</time></trkpt><trkpt lat="45.773779944242634" lon="8.786482165388367"><ele>307.0</ele><time>2026-04-04T09:03:13Z</time></trkpt><trkpt lat="45.773803252194654" lon="8.786750411221243"><ele>307.0</ele><time>2026-04-04T09:03:14Z</time></trkpt><trkpt lat="45.77382181608147" lon="8.78701663099507"><ele>307.0</ele><time>2026-04-04T09:03:15Z</time></trkpt><trkpt lat="45.773844780314654" lon="8.78728036468312"><ele>307.3333333333333</ele><time>2026-04-04T09:03:16Z</time></trkpt><trkpt lat="45.7738667338617" lon="8.787536974095739"><ele>307.6666666666667</ele><time>2026-04-04T09:03:17Z</time></trkpt><trkpt lat="45.773887239766914" lon="8.78778921629842"><ele>308.0</ele><time>2026-04-04T09:03:18Z</time></trkpt><trkpt lat="45.77390860604104" lon="8.788041882479137"><ele>309.33333333333337</ele><time>2026-04-04T09:03:19Z</time></trkpt><trkpt lat="45.77393317275582" lon="8.788290134558219"><ele>310.6666666666667</ele><time>2026-04-04T09:03:20Z</time></trkpt><trkpt lat="45.77395613752536" lon="8.78854092353864"><ele>312.0</ele><time>2026-04-04T09:03:21Z</time></trkpt><trkpt lat="45.77397523147963" lon="8.788772923524158"><ele>312.75</ele><time>2026-04-04T09:03:22Z</time></trkpt><trkpt lat="45.77399491587971" lon="8.788974420727508"><ele>313.5</ele><time>2026-04-04T09:03:23Z</time></trkpt><trkpt lat="45.77401136017852" lon="8.789167290319499"><ele>314.25</ele><time>2026-04-04T09:03:24Z</time></trkpt><trkpt lat="45.774032894195514" lon="8.789347107667387"><ele>315.0</ele><time>2026-04-04T09:03:25Z</time></trkpt><trkpt lat="45.774061837433024" lon="8.789534281088896"><ele>315.25</ele><time>2026-04-04T09:03:26Z</time></trkpt><trkpt lat="45.774111015331165" lon="8.78971035294075"><ele>315.5</ele><time>2026-04-04T09:03:27Z</time></trkpt><trkpt lat="45.774174173896775" lon="8.789861938180813"><ele>315.75</ele><time>2026-04-04T09:03:28Z</time></trkpt><trkpt lat="45.7742441500283" lon="8.789980293708082"><ele>316.0</ele><time>2026-04-04T09:03:29Z</time></trkpt><trkpt lat="45.77432303655098" lon="8.790069708303536"><ele>316.8</ele><time>2026-04-04T09:03:30Z</time></trkpt><trkpt lat="45.77440898018888" lon="8.790138642163749"><ele>317.6</ele><time>2026-04-04T09:03:31Z</time></trkpt><trkpt lat="45.774500850066" lon="8.790199799883524"><ele>318.4</ele><time>2026-04-04T09:03:32Z</time></trkpt><trkpt lat="45.774592487919946" lon="8.790261743860357"><ele>319.2</ele><time>2026-04-04T09:03:33Z</time></trkpt><trkpt lat="45.77468944981103" lon="8.790331888741463"><ele>320.0</ele><time>2026-04-04T09:03:34Z</time></trkpt><trkpt lat="45.774788130599404" lon="8.790412811182831"><ele>320.0</ele><time>2026-04-04T09:03:35Z</time></trkpt><trkpt lat="45.774889060309135" lon="8.790503050348603"><ele>320.0</ele><time>2026-04-04T09:03:36Z</time></trkpt><trkpt lat="45.774989949308384" lon="8.79059389718"><ele>320.0</ele><time>2026-04-04T09:03:37Z</time></trkpt><trkpt lat="45.77508934850276" lon="8.790701903083644"><ele>320.0</ele><time>2026-04-04T09:03:38Z</time></trkpt><trkpt lat="45.775194208677256" lon="8.790828916719764"><ele>320.75</ele><time>2026-04-04T09:03:39Z</time></trkpt><trkpt lat="45.77529808007418" lon="8.790965466360078"><ele>321.5</ele><time>2026-04-04T09:03:40Z</time></trkpt><trkpt lat="45.7754015928644" lon="8.791113914993732"><ele>322.25</ele><time>2026-04-04T09:03:40.999Z</time></trkpt><trkpt lat="45.7755019385356" lon="8.791280254223198"><ele>323.0</ele><time>2026-04-04T09:03:41.999Z</time></trkpt><trkpt lat="45.77559801932157" lon="8.791460806572296"><ele>322.0</ele><time>2026-04-04T09:03:42.999Z</time></trkpt><trkpt lat="45.77568986844912" lon="8.791656418988245"><ele>321.0</ele><time>2026-04-04T09:03:43.999Z</time></trkpt><trkpt lat="45.77577730954988" lon="8.791856028943535"><ele>320.0</ele><time>2026-04-04T09:03:44.999Z</time></trkpt><trkpt lat="45.77585381288855" lon="8.79205782680412"><ele>320.0</ele><time>2026-04-04T09:03:45.999Z</time></trkpt><trkpt lat="45.77591738732301" lon="8.79224797212239"><ele>320.0</ele><time>2026-04-04T09:03:46.999Z</time></trkpt><trkpt lat="45.775976189969676" lon="8.79243151093818"><ele>320.0</ele><time>2026-04-04T09:03:47.999Z</time></trkpt><trkpt lat="45.77603375554658" lon="8.792605213576776"><ele>320.0</ele><time>2026-04-04T09:03:48.999Z</time></trkpt><trkpt lat="45.7760853449041" lon="8.792764756992819"><ele>320.8</ele><time>2026-04-04T09:03:49.999Z</time></trkpt><trkpt lat="45.77613317307993" lon="8.792913899846813"><ele>321.6</ele><time>2026-04-04T09:03:50.999Z</time></trkpt><trkpt lat="45.77617623698364" lon="8.79305420668045"><ele>322.4</ele><time>2026-04-04T09:03:51.999Z</time></trkpt><trkpt lat="45.7762224447666" lon="8.79317745996216"><ele>323.2</ele><time>2026-04-04T09:03:52.999Z</time></trkpt><trkpt lat="45.776265657908375" lon="8.793296583710447"><ele>324.0</ele><time>2026-04-04T09:03:54Z</time></trkpt><trkpt lat="45.776303320537394" lon="8.793409583523287"><ele>323.8333333333333</ele><time>2026-04-04T09:03:55Z</time></trkpt><trkpt lat="45.77633826293109" lon="8.793517985831357"><ele>323.6666666666667</ele><time>2026-04-04T09:03:56Z</time></trkpt><trkpt lat="45.77637050450263" lon="8.793612485117404"><ele>323.5</ele><time>2026-04-04T09:03:57Z</time></trkpt><trkpt lat="45.77638098194132" lon="8.793717284421142"><ele>323.33333333333337</ele><time>2026-04-04T09:03:58Z</time></trkpt><trkpt lat="45.77638813490119" lon="8.793828236010313"><ele>323.1666666666667</ele><time>2026-04-04T09:04:00Z</time></trkpt><trkpt lat="45.776380436826805" lon="8.794016259511514"><ele>323.0</ele><time>2026-04-04T09:04:02Z</time></trkpt><trkpt lat="45.77643474069952" lon="8.79413388002767"><ele>323.0</ele><time>2026-04-04T09:04:03Z</time></trkpt><trkpt lat="45.776545190607266" lon="8.794221577656101"><ele>323.0</ele><time>2026-04-04T09:04:04Z</time></trkpt><trkpt lat="45.77662286327772" lon="8.7943641516181"><ele>323.0</ele><time>2026-04-04T09:04:05Z</time></trkpt><trkpt lat="45.77669921829783" lon="8.794521244688735"><ele>323.0</ele><time>2026-04-04T09:04:06Z</time></trkpt><trkpt lat="45.77678433759641" lon="8.79468997323836"><ele>322.4</ele><time>2026-04-04T09:04:07Z</time></trkpt><trkpt lat="45.776866504737974" lon="8.794855132440157"><ele>321.79999999999995</ele><time>2026-04-04T09:04:08Z</time></trkpt><trkpt lat="45.7769373469908" lon="8.794988889489549"><ele>321.2</ele><time>2026-04-04T09:04:09Z</time></trkpt><trkpt lat="45.77697832800814" lon="8.79507424541519"><ele>320.6</ele><time>2026-04-04T09:04:10Z</time></trkpt><trkpt lat="45.77701870727858" lon="8.795153400079103"><ele>320.0</ele><time>2026-04-04T09:04:11Z</time></trkpt><trkpt lat="45.77705931996867" lon="8.795236188916773"><ele>319.6666666666667</ele><time>2026-04-04T09:04:12Z</time></trkpt><trkpt lat="45.77710677850473" lon="8.79534077782561"><ele>319.33333333333337</ele><time>2026-04-04T09:04:14Z</time></trkpt><trkpt lat="45.77713422133868" lon="8.795446618839437"><ele>319.0</ele><time>2026-04-04T09:04:18Z</time></trkpt><trkpt lat="45.77716348309293" lon="8.795556534016969"><ele>318.6666666666667</ele><time>2026-04-04T09:04:20Z</time></trkpt><trkpt lat="45.777211450721396" lon="8.79564523359301"><ele>318.3333333333333</ele><time>2026-04-04T09:04:22Z</time></trkpt><trkpt lat="45.77727436308559" lon="8.795748210149075"><ele>318.0</ele><time>2026-04-04T09:04:24Z</time></trkpt><trkpt lat="45.77727834277784" lon="8.795847588624856"><ele>318.0</ele><time>2026-04-04T09:04:25Z</time></trkpt><trkpt lat="45.77731471806114" lon="8.795933383473736"><ele>318.0</ele><time>2026-04-04T09:04:26Z</time></trkpt><trkpt lat="45.7773365995685" lon="8.796029977655865"><ele>318.0</ele><time>2026-04-04T09:04:27Z</time></trkpt><trkpt lat="45.77736145769771" lon="8.796164317369145"><ele>318.0</ele><time>2026-04-04T09:04:29Z</time></trkpt><trkpt lat="45.777380082918334" lon="8.796278530084694"><ele>318.0</ele><time>2026-04-04T09:04:31Z</time></trkpt><trkpt lat="45.777395456916985" lon="8.79639805452512"><ele>318.0</ele><time>2026-04-04T09:04:33Z</time></trkpt><trkpt lat="45.777422249284996" lon="8.796575011894737"><ele>318.2</ele><time>2026-04-04T09:04:35Z</time></trkpt><trkpt lat="45.777446901240104" lon="8.796719246748362"><ele>318.4</ele><time>2026-04-04T09:04:36Z</time></trkpt><trkpt lat="45.777464249119156" lon="8.796840724860422"><ele>318.59999999999997</ele><time>2026-04-04T09:04:37Z</time></trkpt><trkpt lat="45.7774840397647" lon="8.796945310945807"><ele>318.8</ele><time>2026-04-04T09:04:38Z</time></trkpt><trkpt lat="45.777506436958575" lon="8.797080778800721"><ele>319.0</ele><time>2026-04-04T09:04:39Z</time></trkpt><trkpt lat="45.777511201595594" lon="8.79722936583535"><ele>319.2</ele><time>2026-04-04T09:04:40Z</time></trkpt><trkpt lat="45.777531657620074" lon="8.797371258448774"><ele>319.4</ele><time>2026-04-04T09:04:41Z</time></trkpt><trkpt lat="45.777550134648415" lon="8.797507261839609"><ele>319.6</ele><time>2026-04-04T09:04:42Z</time></trkpt><trkpt lat="45.777558600498274" lon="8.79760822293066"><ele>319.8</ele><time>2026-04-04T09:04:43Z</time></trkpt><trkpt lat="45.77756429378373" lon="8.797805686647346"><ele>320.0</ele><time>2026-04-04T09:04:45Z</time></trkpt><trkpt lat="45.77756302398258" lon="8.797916081127779"><ele>320.2</ele><time>2026-04-04T09:04:46Z</time></trkpt><trkpt lat="45.77756124924884" lon="8.798031692245138"><ele>320.4</ele><time>2026-04-04T09:04:47Z</time></trkpt><trkpt lat="45.7775595057325" lon="8.798145269909476"><ele>320.6</ele><time>2026-04-04T09:04:48Z</time></trkpt><trkpt lat="45.77755587406094" lon="8.798309293245117"><ele>320.8</ele><time>2026-04-04T09:04:50Z</time></trkpt><trkpt lat="45.77755936892808" lon="8.79846419341443"><ele>321.0</ele><time>2026-04-04T09:04:52Z</time></trkpt><trkpt lat="45.777553625606394" lon="8.798608454735906"><ele>321.0</ele><time>2026-04-04T09:04:54Z</time></trkpt><trkpt lat="45.77754687105855" lon="8.798789036361953"><ele>321.0</ele><time>2026-04-04T09:04:56Z</time></trkpt><trkpt lat="45.77753623347389" lon="8.79888051969802"><ele>321.0</ele><time>2026-04-04T09:04:57Z</time></trkpt><trkpt lat="45.77752757669231" lon="8.799030588702271"><ele>321.0</ele><time>2026-04-04T09:04:59Z</time></trkpt><trkpt lat="45.777454562469686" lon="8.79916366130429"><ele>321.0</ele><time>2026-04-04T09:05:01Z</time></trkpt><trkpt lat="45.777510650896104" lon="8.799344952989767"><ele>320.8333333333333</ele><time>2026-04-04T09:05:03Z</time></trkpt><trkpt lat="45.77755402544723" lon="8.799433746173248"><ele>320.6666666666667</ele><time>2026-04-04T09:05:04Z</time></trkpt><trkpt lat="45.77758811503126" lon="8.799538725951313"><ele>320.5</ele><time>2026-04-04T09:05:05Z</time></trkpt><trkpt lat="45.777611960800904" lon="8.799632182341536"><ele>320.33333333333337</ele><time>2026-04-04T09:05:06Z</time></trkpt><trkpt lat="45.77764930922243" lon="8.799735175671115"><ele>320.1666666666667</ele><time>2026-04-04T09:05:07Z</time></trkpt><trkpt lat="45.77767724744207" lon="8.799824382613616"><ele>320.0</ele><time>2026-04-04T09:05:08Z</time></trkpt><trkpt lat="45.777721484765415" lon="8.800001233146695"><ele>319.4</ele><time>2026-04-04T09:05:10Z</time></trkpt><trkpt lat="45.77775354117882" lon="8.800109919836105"><ele>318.8</ele><time>2026-04-04T09:05:11Z</time></trkpt><trkpt lat="45.77779350066001" lon="8.800236866372536"><ele>318.2</ele><time>2026-04-04T09:05:12Z</time></trkpt><trkpt lat="45.77783031696489" lon="8.800376478358075"><ele>317.6</ele><time>2026-04-04T09:05:13Z</time></trkpt><trkpt lat="45.77787490004786" lon="8.80052381084182"><ele>317.0</ele><time>2026-04-04T09:05:14Z</time></trkpt><trkpt lat="45.77791035982376" lon="8.800719409363051"><ele>317.0</ele><time>2026-04-04T09:05:15Z</time></trkpt><trkpt lat="45.77796954957112" lon="8.800935444674478"><ele>317.0</ele><time>2026-04-04T09:05:16Z</time></trkpt><trkpt lat="45.77801850333657" lon="8.801123043068086"><ele>317.0</ele><time>2026-04-04T09:05:17Z</time></trkpt><trkpt lat="45.77806518059246" lon="8.801312905803554"><ele>317.0</ele><time>2026-04-04T09:05:18Z</time></trkpt><trkpt lat="45.778125562598795" lon="8.80148544596922"><ele>317.25</ele><time>2026-04-04T09:05:19Z</time></trkpt><trkpt lat="45.77813694980664" lon="8.801667835763604"><ele>317.5</ele><time>2026-04-04T09:05:20Z</time></trkpt><trkpt lat="45.77815441610662" lon="8.801846302139852"><ele>317.75</ele><time>2026-04-04T09:05:21Z</time></trkpt><trkpt lat="45.778163951017056" lon="8.802051454109462"><ele>318.0</ele><time>2026-04-04T09:05:22Z</time></trkpt><trkpt lat="45.77816848008575" lon="8.802274202079829"><ele>318.0</ele><time>2026-04-04T09:05:23Z</time></trkpt><trkpt lat="45.77817287018927" lon="8.802502603790247"><ele>318.0</ele><time>2026-04-04T09:05:24Z</time></trkpt><trkpt lat="45.77817702181586" lon="8.802722952266103"><ele>318.0</ele><time>2026-04-04T09:05:25Z</time></trkpt><trkpt lat="45.778180842671325" lon="8.802938771594793"><ele>317.75</ele><time>2026-04-04T09:05:26Z</time></trkpt><trkpt lat="45.778184064267386" lon="8.803132064236188"><ele>317.5</ele><time>2026-04-04T09:05:27Z</time></trkpt><trkpt lat="45.778187788456194" lon="8.803317547770222"><ele>317.25</ele><time>2026-04-04T09:05:28Z</time></trkpt><trkpt lat="45.77819164603752" lon="8.803519864171212"><ele>317.0</ele><time>2026-04-04T09:05:29Z</time></trkpt><trkpt lat="45.77819550658773" lon="8.803722333660177"><ele>317.0</ele><time>2026-04-04T09:05:30Z</time></trkpt><trkpt lat="45.77819833248703" lon="8.803930257603557"><ele>317.0</ele><time>2026-04-04T09:05:31Z</time></trkpt><trkpt lat="45.77821952092821" lon="8.804144590318698"><ele>317.0</ele><time>2026-04-04T09:05:32Z</time></trkpt><trkpt lat="45.77822145314841" lon="8.804357296409643"><ele>317.0</ele><time>2026-04-04T09:05:33Z</time></trkpt><trkpt lat="45.77822422411434" lon="8.804580892233473"><ele>317.33333333333337</ele><time>2026-04-04T09:05:34Z</time></trkpt><trkpt lat="45.77822395878348" lon="8.80480463380439"><ele>317.6666666666667</ele><time>2026-04-04T09:05:35Z</time></trkpt><trkpt lat="45.77822700400818" lon="8.805020156777871"><ele>318.0</ele><time>2026-04-04T09:05:36Z</time></trkpt><trkpt lat="45.77823340386319" lon="8.805237149683482"><ele>318.0</ele><time>2026-04-04T09:05:37Z</time></trkpt><trkpt lat="45.77824174946225" lon="8.805444137450937"><ele>318.0</ele><time>2026-04-04T09:05:38Z</time></trkpt><trkpt lat="45.778259884045184" lon="8.805650287955599"><ele>318.0</ele><time>2026-04-04T09:05:39Z</time></trkpt><trkpt lat="45.77828745345216" lon="8.805856964518949"><ele>318.0</ele><time>2026-04-04T09:05:40Z</time></trkpt><trkpt lat="45.77831977381405" lon="8.806065150189593"><ele>318.0</ele><time>2026-04-04T09:05:41Z</time></trkpt><trkpt lat="45.77836911518732" lon="8.806259978739279"><ele>318.0</ele><time>2026-04-04T09:05:42Z</time></trkpt><trkpt lat="45.778430541077654" lon="8.806460969708063"><ele>318.0</ele><time>2026-04-04T09:05:43Z</time></trkpt><trkpt lat="45.77849945185214" lon="8.80665403839244"><ele>318.0</ele><time>2026-04-04T09:05:44Z</time></trkpt><trkpt lat="45.77857817445826" lon="8.806842689656825"><ele>317.2</ele><time>2026-04-04T09:05:45Z</time></trkpt><trkpt lat="45.77866469299591" lon="8.807018093056593"><ele>316.4</ele><time>2026-04-04T09:05:46Z</time></trkpt><trkpt lat="45.77874520375839" lon="8.807159983868228"><ele>315.59999999999997</ele><time>2026-04-04T09:05:47Z</time></trkpt><trkpt lat="45.7787974249105" lon="8.80723729646664"><ele>314.8</ele><time>2026-04-04T09:05:48Z</time></trkpt><trkpt lat="45.77884390604121" lon="8.80730542311168"><ele>314.0</ele><time>2026-04-04T09:05:49Z</time></trkpt><trkpt lat="45.778895178853915" lon="8.807369364742069"><ele>314.0</ele><time>2026-04-04T09:05:50Z</time></trkpt><trkpt lat="45.77895446699776" lon="8.807478763777754"><ele>314.0</ele><time>2026-04-04T09:05:51Z</time></trkpt><trkpt lat="45.77904130701134" lon="8.807625548509437"><ele>314.0</ele><time>2026-04-04T09:05:52Z</time></trkpt><trkpt lat="45.779156025410636" lon="8.807772585740413"><ele>314.0</ele><time>2026-04-04T09:05:53Z</time></trkpt><trkpt lat="45.7792824945366" lon="8.807935366309954"><ele>315.0</ele><time>2026-04-04T09:05:54Z</time></trkpt><trkpt lat="45.77940568118427" lon="8.808102789747942"><ele>316.0</ele><time>2026-04-04T09:05:55Z</time></trkpt><trkpt lat="45.77952996682783" lon="8.808280447826936"><ele>317.0</ele><time>2026-04-04T09:05:56Z</time></trkpt><trkpt lat="45.7796532433848" lon="8.808456462111035"><ele>318.0</ele><time>2026-04-04T09:05:57Z</time></trkpt><trkpt lat="45.779771945071374" lon="8.80862167440454"><ele>319.0</ele><time>2026-04-04T09:05:58Z</time></trkpt><trkpt lat="45.7798931819064" lon="8.808789832328754"><ele>320.0</ele><time>2026-04-04T09:05:59Z</time></trkpt><trkpt lat="45.78000290935819" lon="8.808942719075796"><ele>320.0</ele><time>2026-04-04T09:06:00Z</time></trkpt><trkpt lat="45.780105892546636" lon="8.809082458348053"><ele>320.0</ele><time>2026-04-04T09:06:01Z</time></trkpt><trkpt lat="45.78019778336641" lon="8.809209040271378"><ele>320.0</ele><time>2026-04-04T09:06:02Z</time></trkpt><trkpt lat="45.78027331462004" lon="8.809319483746936"><ele>320.0</ele><time>2026-04-04T09:06:03Z</time></trkpt><trkpt lat="45.7803283125797" lon="8.80939974676015"><ele>320.0</ele><time>2026-04-04T09:06:04Z</time></trkpt><trkpt lat="45.78037675980841" lon="8.809470898358395"><ele>320.0</ele><time>2026-04-04T09:06:05Z</time></trkpt><trkpt lat="45.78042451531495" lon="8.809541473264742"><ele>320.0</ele><time>2026-04-04T09:06:06Z</time></trkpt><trkpt lat="45.780509415310526" lon="8.809670463452774"><ele>320.0</ele><time>2026-04-04T09:06:08Z</time></trkpt><trkpt lat="45.78055030366249" lon="8.809753365109259"><ele>320.0</ele><time>2026-04-04T09:06:10Z</time></trkpt><trkpt lat="45.780579773232176" lon="8.809853963285493"><ele>320.0</ele><time>2026-04-04T09:06:13Z</time></trkpt><trkpt lat="45.780594249599986" lon="8.809952634714197"><ele>320.0</ele><time>2026-04-04T09:06:14Z</time></trkpt><trkpt lat="45.78064670717712" lon="8.81011610845444"><ele>320.0</ele><time>2026-04-04T09:06:16Z</time></trkpt><trkpt lat="45.7807207075974" lon="8.810219725215548"><ele>320.0</ele><time>2026-04-04T09:06:17Z</time></trkpt><trkpt lat="45.78082444901372" lon="8.810385329359512"><ele>320.0</ele><time>2026-04-04T09:06:18Z</time></trkpt><trkpt lat="45.780885373786006" lon="8.810637036559278"><ele>320.0</ele><time>2026-04-04T09:06:19Z</time></trkpt><trkpt lat="45.7809539596784" lon="8.810822831113533"><ele>320.0</ele><time>2026-04-04T09:06:20Z</time></trkpt><trkpt lat="45.78099368902349" lon="8.810961382460373"><ele>320.0</ele><time>2026-04-04T09:06:21Z</time></trkpt><trkpt lat="45.781035493821406" lon="8.81109185447782"><ele>320.0</ele><time>2026-04-04T09:06:22Z</time></trkpt><trkpt lat="45.78106980413062" lon="8.811211159441473"><ele>320.0</ele><time>2026-04-04T09:06:23Z</time></trkpt><trkpt lat="45.781093802902355" lon="8.811327853554909"><ele>319.75</ele><time>2026-04-04T09:06:24Z</time></trkpt><trkpt lat="45.78113380893762" lon="8.811451318589851"><ele>319.5</ele><time>2026-04-04T09:06:25Z</time></trkpt><trkpt lat="45.78117489252707" lon="8.811614445607441"><ele>319.25</ele><time>2026-04-04T09:06:26Z</time></trkpt><trkpt lat="45.781224533688494" lon="8.811781679847758"><ele>319.0</ele><time>2026-04-04T09:06:27Z</time></trkpt><trkpt lat="45.781274150962076" lon="8.811958659118321"><ele>318.75</ele><time>2026-04-04T09:06:28Z</time></trkpt><trkpt lat="45.781328459090666" lon="8.812136097438584"><ele>318.5</ele><time>2026-04-04T09:06:29Z</time></trkpt><trkpt lat="45.78138434471626" lon="8.812318794878621"><ele>318.25</ele><time>2026-04-04T09:06:30Z</time></trkpt><trkpt lat="45.78143804229875" lon="8.81250418239367"><ele>318.0</ele><time>2026-04-04T09:06:31Z</time></trkpt><trkpt lat="45.78148658955938" lon="8.81267833850006"><ele>318.0</ele><time>2026-04-04T09:06:32Z</time></trkpt><trkpt lat="45.78153121769908" lon="8.812857090795182"><ele>318.0</ele><time>2026-04-04T09:06:33Z</time></trkpt><trkpt lat="45.78158051430127" lon="8.813028657837664"><ele>318.0</ele><time>2026-04-04T09:06:34Z</time></trkpt><trkpt lat="45.78162299127293" lon="8.813191528196757"><ele>318.0</ele><time>2026-04-04T09:06:35Z</time></trkpt><trkpt lat="45.78166156200401" lon="8.813333678794375"><ele>318.0</ele><time>2026-04-04T09:06:36Z</time></trkpt><trkpt lat="45.781693796267" lon="8.813461730518847"><ele>318.0</ele><time>2026-04-04T09:06:37Z</time></trkpt><trkpt lat="45.7817265328383" lon="8.813576174714852"><ele>318.0</ele><time>2026-04-04T09:06:38Z</time></trkpt><trkpt lat="45.78176265050644" lon="8.813693351395898"><ele>318.0</ele><time>2026-04-04T09:06:39Z</time></trkpt><trkpt lat="45.781803260126054" lon="8.813821148911643"><ele>318.0</ele><time>2026-04-04T09:06:40Z</time></trkpt><trkpt lat="45.78185229736045" lon="8.813976420371374"><ele>318.6666666666667</ele><time>2026-04-04T09:06:41Z</time></trkpt><trkpt lat="45.781898469391805" lon="8.814170172723818"><ele>319.33333333333337</ele><time>2026-04-04T09:06:42Z</time></trkpt><trkpt lat="45.78196575450295" lon="8.814406118063088"><ele>320.0</ele><time>2026-04-04T09:06:43Z</time></trkpt><trkpt lat="45.782042060447985" lon="8.814672854961028"><ele>320.5</ele><time>2026-04-04T09:06:44Z</time></trkpt><trkpt lat="45.782128621903496" lon="8.8149767481037"><ele>321.0</ele><time>2026-04-04T09:06:45Z</time></trkpt><trkpt lat="45.782224654233794" lon="8.815314838726644"><ele>323.0</ele><time>2026-04-04T09:06:46Z</time></trkpt><trkpt lat="45.782311895042135" lon="8.815618326387062"><ele>325.0</ele><time>2026-04-04T09:06:47Z</time></trkpt><trkpt lat="45.782418080763385" lon="8.815874806599474"><ele>327.0</ele><time>2026-04-04T09:06:48Z</time></trkpt><trkpt lat="45.78252656386261" lon="8.816118635407213"><ele>328.3333333333333</ele><time>2026-04-04T09:06:49Z</time></trkpt><trkpt lat="45.782669277683965" lon="8.81631671852532"><ele>329.66666666666663</ele><time>2026-04-04T09:06:50Z</time></trkpt><trkpt lat="45.78283558133076" lon="8.816487612973463"><ele>331.0</ele><time>2026-04-04T09:06:51Z</time></trkpt><trkpt lat="45.78299476456187" lon="8.816670606017437"><ele>331.0</ele><time>2026-04-04T09:06:52Z</time></trkpt><trkpt lat="45.78320658038517" lon="8.816788045380568"><ele>331.0</ele><time>2026-04-04T09:06:53Z</time></trkpt><trkpt lat="45.78345610425091" lon="8.816894880688798"><ele>336.0</ele><time>2026-04-04T09:06:54Z</time></trkpt><trkpt lat="45.783728653322044" lon="8.816966648479973"><ele>341.0</ele><time>2026-04-04T09:06:55Z</time></trkpt><trkpt lat="45.783973069612756" lon="8.81703501254905"><ele>341.0</ele><time>2026-04-04T09:06:56Z</time></trkpt><trkpt lat="45.78419169097016" lon="8.81711275305656"><ele>341.0</ele><time>2026-04-04T09:06:57Z</time></trkpt><trkpt lat="45.78438854073345" lon="8.81720169292815"><ele>341.0</ele><time>2026-04-04T09:06:58Z</time></trkpt><trkpt lat="45.784564081081065" lon="8.817301498526176"><ele>341.6666666666667</ele><time>2026-04-04T09:06:59Z</time></trkpt><trkpt lat="45.784722613408206" lon="8.817429517517889"><ele>342.3333333333333</ele><time>2026-04-04T09:07:00Z</time></trkpt><trkpt lat="45.784878392644316" lon="8.81758394752912"><ele>343.0</ele><time>2026-04-04T09:07:01Z</time></trkpt><trkpt lat="45.78500588372653" lon="8.817734748350327"><ele>343.0</ele><time>2026-04-04T09:07:02Z</time></trkpt><trkpt lat="45.78510905383872" lon="8.81785700348355"><ele>343.0</ele><time>2026-04-04T09:07:03Z</time></trkpt><trkpt lat="45.78519971433411" lon="8.818037000169706"><ele>343.0</ele><time>2026-04-04T09:07:04Z</time></trkpt><trkpt lat="45.7852977998914" lon="8.818167365983257"><ele>343.0</ele><time>2026-04-04T09:07:05Z</time></trkpt><trkpt lat="45.78539192191436" lon="8.818294347145564"><ele>341.0</ele><time>2026-04-04T09:07:06Z</time></trkpt><trkpt lat="45.78548340538031" lon="8.818412973084055"><ele>339.0</ele><time>2026-04-04T09:07:07Z</time></trkpt><trkpt lat="45.78557902464504" lon="8.818553681811297"><ele>337.0</ele><time>2026-04-04T09:07:08Z</time></trkpt><trkpt lat="45.78567615249587" lon="8.818697524429298"><ele>335.0</ele><time>2026-04-04T09:07:09Z</time></trkpt><trkpt lat="45.785725088488" lon="8.818885029183146"><ele>335.0</ele><time>2026-04-04T09:07:10Z</time></trkpt><trkpt lat="45.78572843560199" lon="8.819052309829498"><ele>335.0</ele><time>2026-04-04T09:07:11Z</time></trkpt><trkpt lat="45.78572563808686" lon="8.819261828584237"><ele>335.0</ele><time>2026-04-04T09:07:12Z</time></trkpt><trkpt lat="45.78569886375405" lon="8.819527591657902"><ele>334.0</ele><time>2026-04-04T09:07:13Z</time></trkpt><trkpt lat="45.78566089970165" lon="8.81985324553057"><ele>333.0</ele><time>2026-04-04T09:07:14Z</time></trkpt><trkpt lat="45.785629945112376" lon="8.82022798569331"><ele>333.0</ele><time>2026-04-04T09:07:15Z</time></trkpt><trkpt lat="45.78558410092317" lon="8.820510305963744"><ele>333.0</ele><time>2026-04-04T09:07:16Z</time></trkpt><trkpt lat="45.78555524763411" lon="8.820771988125959"><ele>333.0</ele><time>2026-04-04T09:07:17Z</time></trkpt><trkpt lat="45.78557498367861" lon="8.821018534381192"><ele>335.0</ele><time>2026-04-04T09:07:18Z</time></trkpt><trkpt lat="45.78563881223458" lon="8.821245488213787"><ele>337.0</ele><time>2026-04-04T09:07:19Z</time></trkpt><trkpt lat="45.785731251334155" lon="8.821451646304677"><ele>339.0</ele><time>2026-04-04T09:07:20Z</time></trkpt><trkpt lat="45.78583969775434" lon="8.82163399679655"><ele>339.0</ele><time>2026-04-04T09:07:21Z</time></trkpt><trkpt lat="45.785951368914446" lon="8.82181499836127"><ele>339.0</ele><time>2026-04-04T09:07:22Z</time></trkpt><trkpt lat="45.786105094985075" lon="8.822021799415621"><ele>339.0</ele><time>2026-04-04T09:07:23Z</time></trkpt><trkpt lat="45.786288536470394" lon="8.82226617355421"><ele>338.5</ele><time>2026-04-04T09:07:24Z</time></trkpt><trkpt lat="45.78649047303329" lon="8.822494545129722"><ele>338.0</ele><time>2026-04-04T09:07:25Z</time></trkpt><trkpt lat="45.786687089707044" lon="8.822730779869541"><ele>336.5</ele><time>2026-04-04T09:07:26Z</time></trkpt><trkpt lat="45.78688785248055" lon="8.822956101355516"><ele>335.0</ele><time>2026-04-04T09:07:27Z</time></trkpt><trkpt lat="45.78705764957599" lon="8.823208034458874"><ele>335.0</ele><time>2026-04-04T09:07:28Z</time></trkpt><trkpt lat="45.78720700111967" lon="8.82345613121464"><ele>335.0</ele><time>2026-04-04T09:07:29Z</time></trkpt><trkpt lat="45.78732310693385" lon="8.82370376326891"><ele>335.0</ele><time>2026-04-04T09:07:30Z</time></trkpt><trkpt lat="45.78743254802595" lon="8.823980140616344"><ele>337.5</ele><time>2026-04-04T09:07:31Z</time></trkpt><trkpt lat="45.787541638948674" lon="8.824267069103026"><ele>340.0</ele><time>2026-04-04T09:07:32Z</time></trkpt><trkpt lat="45.78766005752905" lon="8.824557600799434"><ele>340.5</ele><time>2026-04-04T09:07:33Z</time></trkpt><trkpt lat="45.78776779827492" lon="8.824835128135609"><ele>341.0</ele><time>2026-04-04T09:07:34Z</time></trkpt><trkpt lat="45.78799132054182" lon="8.825396317991453"><ele>344.5</ele><time>2026-04-04T09:07:36Z</time></trkpt><trkpt lat="45.788089425970405" lon="8.825698237898736"><ele>348.0</ele><time>2026-04-04T09:07:37Z</time></trkpt><trkpt lat="45.78819431055138" lon="8.825973956215742"><ele>349.3333333333333</ele><time>2026-04-04T09:07:38Z</time></trkpt><trkpt lat="45.7883010896795" lon="8.826252087867102"><ele>350.66666666666663</ele><time>2026-04-04T09:07:39Z</time></trkpt><trkpt lat="45.78840504123897" lon="8.826522983272767"><ele>352.0</ele><time>2026-04-04T09:07:40Z</time></trkpt><trkpt lat="45.78851087429875" lon="8.826800717247684"><ele>351.0</ele><time>2026-04-04T09:07:41Z</time></trkpt><trkpt lat="45.788607812200006" lon="8.8270507983508"><ele>350.0</ele><time>2026-04-04T09:07:42Z</time></trkpt><trkpt lat="45.78869634741522" lon="8.827278302558204"><ele>349.0</ele><time>2026-04-04T09:07:43Z</time></trkpt><trkpt lat="45.78878854918607" lon="8.827474749193028"><ele>349.75</ele><time>2026-04-04T09:07:44Z</time></trkpt><trkpt lat="45.78885074909363" lon="8.827672842871188"><ele>350.5</ele><time>2026-04-04T09:07:45Z</time></trkpt><trkpt lat="45.788913619829316" lon="8.827840377724186"><ele>351.25</ele><time>2026-04-04T09:07:46Z</time></trkpt><trkpt lat="45.78897973916049" lon="8.827984399893795"><ele>352.0</ele><time>2026-04-04T09:07:47Z</time></trkpt><trkpt lat="45.78897323744585" lon="8.828116615114821"><ele>352.0</ele><time>2026-04-04T09:07:48Z</time></trkpt><trkpt lat="45.78897970832033" lon="8.828223603046284"><ele>352.0</ele><time>2026-04-04T09:07:49Z</time></trkpt><trkpt lat="45.78903402931596" lon="8.828297019360413"><ele>352.0</ele><time>2026-04-04T09:07:50Z</time></trkpt><trkpt lat="45.78913249339658" lon="8.828371292568534"><ele>352.0</ele><time>2026-04-04T09:07:51Z</time></trkpt><trkpt lat="45.789212959940336" lon="8.828541609007209"><ele>352.0</ele><time>2026-04-04T09:07:52Z</time></trkpt><trkpt lat="45.78931638856809" lon="8.828788174980987"><ele>351.5</ele><time>2026-04-04T09:07:53Z</time></trkpt><trkpt lat="45.78947080073918" lon="8.82904998940798"><ele>351.0</ele><time>2026-04-04T09:07:54Z</time></trkpt><trkpt lat="45.78966923407275" lon="8.82934670301563"><ele>354.5</ele><time>2026-04-04T09:07:55Z</time></trkpt><trkpt lat="45.78984869420825" lon="8.829594152471945"><ele>358.0</ele><time>2026-04-04T09:07:56Z</time></trkpt><trkpt lat="45.79001767195177" lon="8.829791166501769"><ele>358.3333333333333</ele><time>2026-04-04T09:07:57Z</time></trkpt><trkpt lat="45.79018302167481" lon="8.829945319977904"><ele>358.6666666666667</ele><time>2026-04-04T09:07:58Z</time></trkpt><trkpt lat="45.79033148343589" lon="8.830101226233776"><ele>359.0</ele><time>2026-04-04T09:07:59Z</time></trkpt><trkpt lat="45.79046804665521" lon="8.830231756101513"><ele>359.0</ele><time>2026-04-04T09:08:00Z</time></trkpt><trkpt lat="45.790599889970316" lon="8.830349092579926"><ele>359.0</ele><time>2026-04-04T09:08:01Z</time></trkpt><trkpt lat="45.790773320367364" lon="8.8304762413436"><ele>359.0</ele><time>2026-04-04T09:08:02Z</time></trkpt><trkpt lat="45.790972781774734" lon="8.830636698069869"><ele>354.0</ele><time>2026-04-04T09:08:03Z</time></trkpt><trkpt lat="45.79118679437102" lon="8.83080703327441"><ele>349.0</ele><time>2026-04-04T09:08:04Z</time></trkpt><trkpt lat="45.79140293583516" lon="8.830931620623126"><ele>350.3333333333333</ele><time>2026-04-04T09:08:05Z</time></trkpt><trkpt lat="45.79160071334322" lon="8.831077041348518"><ele>351.6666666666667</ele><time>2026-04-04T09:08:06Z</time></trkpt><trkpt lat="45.79177006841272" lon="8.831171068970823"><ele>353.0</ele><time>2026-04-04T09:08:07Z</time></trkpt><trkpt lat="45.791917036863026" lon="8.831270311740202"><ele>353.0</ele><time>2026-04-04T09:08:08Z</time></trkpt><trkpt lat="45.792062086935736" lon="8.83135749212403"><ele>353.0</ele><time>2026-04-04T09:08:09Z</time></trkpt><trkpt lat="45.79220921464723" lon="8.831437784395938"><ele>353.0</ele><time>2026-04-04T09:08:10Z</time></trkpt><trkpt lat="45.79236300803501" lon="8.831516293050235"><ele>353.0</ele><time>2026-04-04T09:08:11Z</time></trkpt><trkpt lat="45.792512160797" lon="8.831578544732425"><ele>353.0</ele><time>2026-04-04T09:08:12Z</time></trkpt><trkpt lat="45.79266656826111" lon="8.83164112298686"><ele>353.0</ele><time>2026-04-04T09:08:13Z</time></trkpt><trkpt lat="45.7928205122392" lon="8.831706847947997"><ele>352.25</ele><time>2026-04-04T09:08:14Z</time></trkpt><trkpt lat="45.792966292796336" lon="8.831770965581203"><ele>351.5</ele><time>2026-04-04T09:08:15Z</time></trkpt><trkpt lat="45.7930954666914" lon="8.831829382284365"><ele>350.75</ele><time>2026-04-04T09:08:16Z</time></trkpt><trkpt lat="45.79323164517006" lon="8.831903107095375"><ele>350.0</ele><time>2026-04-04T09:08:17Z</time></trkpt><trkpt lat="45.79336668408361" lon="8.831977688610733"><ele>350.6666666666667</ele><time>2026-04-04T09:08:18Z</time></trkpt><trkpt lat="45.793505200644546" lon="8.832089150303224"><ele>351.3333333333333</ele><time>2026-04-04T09:08:19Z</time></trkpt><trkpt lat="45.79364234620669" lon="8.832195779097583"><ele>352.0</ele><time>2026-04-04T09:08:20Z</time></trkpt><trkpt lat="45.793789528153376" lon="8.832336449358035"><ele>352.0</ele><time>2026-04-04T09:08:21Z</time></trkpt><trkpt lat="45.79394464079751" lon="8.83248114784767"><ele>352.0</ele><time>2026-04-04T09:08:22Z</time></trkpt><trkpt lat="45.794096770881204" lon="8.832630481642372"><ele>352.0</ele><time>2026-04-04T09:08:23Z</time></trkpt><trkpt lat="45.79425661882196" lon="8.832795233768476"><ele>352.66666666666663</ele><time>2026-04-04T09:08:24Z</time></trkpt><trkpt lat="45.79442159529577" lon="8.832968933716066"><ele>353.3333333333333</ele><time>2026-04-04T09:08:25Z</time></trkpt><trkpt lat="45.79459963523994" lon="8.833154753346612"><ele>354.0</ele><time>2026-04-04T09:08:26Z</time></trkpt><trkpt lat="45.79478357723254" lon="8.833331911285946"><ele>359.0</ele><time>2026-04-04T09:08:27Z</time></trkpt><trkpt lat="45.79497564740978" lon="8.833516093354092"><ele>364.0</ele><time>2026-04-04T09:08:28Z</time></trkpt><trkpt lat="45.79516701020172" lon="8.833703992556885"><ele>364.0</ele><time>2026-04-04T09:08:29Z</time></trkpt><trkpt lat="45.79535134505953" lon="8.833891278431238"><ele>364.0</ele><time>2026-04-04T09:08:30Z</time></trkpt><trkpt lat="45.795469120962515" lon="8.834053214135182"><ele>364.0</ele><time>2026-04-04T09:08:31Z</time></trkpt><trkpt lat="45.795575763250824" lon="8.834125220632135"><ele>364.0</ele><time>2026-04-04T09:08:32Z</time></trkpt><trkpt lat="45.79563834904631" lon="8.834194027409875"><ele>364.0</ele><time>2026-04-04T09:08:33Z</time></trkpt><trkpt lat="45.79570343644258" lon="8.834273515841147"><ele>364.0</ele><time>2026-04-04T09:08:35Z</time></trkpt><trkpt lat="45.7958071230041" lon="8.834350609241232"><ele>364.0</ele><time>2026-04-04T09:09:03Z</time></trkpt><trkpt lat="45.79590039576658" lon="8.834429404168732"><ele>364.0</ele><time>2026-04-04T09:09:04Z</time></trkpt><trkpt lat="45.79600195304144" lon="8.834501802077943"><ele>363.75</ele><time>2026-04-04T09:09:05Z</time></trkpt><trkpt lat="45.796113230184915" lon="8.834576095337455"><ele>363.5</ele><time>2026-04-04T09:09:06Z</time></trkpt><trkpt lat="45.79623242567062" lon="8.83465479362946"><ele>363.25</ele><time>2026-04-04T09:09:07Z</time></trkpt><trkpt lat="45.796351361927904" lon="8.834733211855825"><ele>363.0</ele><time>2026-04-04T09:09:08Z</time></trkpt><trkpt lat="45.796472685465666" lon="8.8348037692451"><ele>363.0</ele><time>2026-04-04T09:09:09Z</time></trkpt><trkpt lat="45.79660236583974" lon="8.834838231800706"><ele>363.0</ele><time>2026-04-04T09:09:10Z</time></trkpt><trkpt lat="45.79674261196185" lon="8.834884506425146"><ele>363.0</ele><time>2026-04-04T09:09:11Z</time></trkpt><trkpt lat="45.796872984866184" lon="8.834868313795678"><ele>363.0</ele><time>2026-04-04T09:09:12Z</time></trkpt><trkpt lat="45.79700186510026" lon="8.834771229361333"><ele>364.25</ele><time>2026-04-04T09:09:13Z</time></trkpt><trkpt lat="45.797126873693955" lon="8.834636855108057"><ele>365.5</ele><time>2026-04-04T09:09:14Z</time></trkpt><trkpt lat="45.79722538166143" lon="8.834474012272965"><ele>366.75</ele><time>2026-04-04T09:09:15Z</time></trkpt><trkpt lat="45.79729941696692" lon="8.834316712436847"><ele>368.0</ele><time>2026-04-04T09:09:16Z</time></trkpt><trkpt lat="45.79736904463169" lon="8.834178950973905"><ele>368.0</ele><time>2026-04-04T09:09:17Z</time></trkpt><trkpt lat="45.79743398733993" lon="8.83406251454285"><ele>368.0</ele><time>2026-04-04T09:09:18Z</time></trkpt><trkpt lat="45.79750989171114" lon="8.833911007337154"><ele>368.0</ele><time>2026-04-04T09:09:19Z</time></trkpt><trkpt lat="45.79759628523142" lon="8.833820759278787"><ele>368.0</ele><time>2026-04-04T09:09:20Z</time></trkpt><trkpt lat="45.79780659721319" lon="8.833636205607768"><ele>370.25</ele><time>2026-04-04T09:09:22Z</time></trkpt><trkpt lat="45.79795208979864" lon="8.833573711588954"><ele>372.5</ele><time>2026-04-04T09:09:23Z</time></trkpt><trkpt lat="45.798094093888" lon="8.83357885925916"><ele>374.75</ele><time>2026-04-04T09:09:24Z</time></trkpt><trkpt lat="45.79824030946422" lon="8.833578605612692"><ele>377.0</ele><time>2026-04-04T09:09:25Z</time></trkpt><trkpt lat="45.79839219830606" lon="8.833581623139231"><ele>373.6666666666667</ele><time>2026-04-04T09:09:26Z</time></trkpt><trkpt lat="45.79854933909201" lon="8.833588371315395"><ele>370.3333333333333</ele><time>2026-04-04T09:09:27Z</time></trkpt><trkpt lat="45.79870647024891" lon="8.833590513774464"><ele>367.0</ele><time>2026-04-04T09:09:28Z</time></trkpt><trkpt lat="45.798859465192855" lon="8.833596009387925"><ele>367.0</ele><time>2026-04-04T09:09:29Z</time></trkpt><trkpt lat="45.799025165644366" lon="8.833594146918422"><ele>367.0</ele><time>2026-04-04T09:09:30Z</time></trkpt><trkpt lat="45.79919272930667" lon="8.833599541393506"><ele>367.0</ele><time>2026-04-04T09:09:31Z</time></trkpt><trkpt lat="45.79935511380541" lon="8.833604230877318"><ele>365.5</ele><time>2026-04-04T09:09:32Z</time></trkpt><trkpt lat="45.79950723928363" lon="8.833608777224926"><ele>364.0</ele><time>2026-04-04T09:09:33Z</time></trkpt><trkpt lat="45.7996579815614" lon="8.833617908894057"><ele>362.5</ele><time>2026-04-04T09:09:34Z</time></trkpt><trkpt lat="45.799798993375155" lon="8.833630567588116"><ele>361.0</ele><time>2026-04-04T09:09:35Z</time></trkpt><trkpt lat="45.799933111350086" lon="8.833630898138702"><ele>361.0</ele><time>2026-04-04T09:09:36.001Z</time></trkpt><trkpt lat="45.80006329806727" lon="8.833644581039032"><ele>361.0</ele><time>2026-04-04T09:09:37.001Z</time></trkpt><trkpt lat="45.80017922013976" lon="8.833667498332282"><ele>361.0</ele><time>2026-04-04T09:09:38.001Z</time></trkpt><trkpt lat="45.80028272973398" lon="8.83373138413894"><ele>361.0</ele><time>2026-04-04T09:09:39.001Z</time></trkpt><trkpt lat="45.80037982703315" lon="8.833835850227842"><ele>361.5</ele><time>2026-04-04T09:09:40.001Z</time></trkpt><trkpt lat="45.80047121007236" lon="8.83395064967306"><ele>362.0</ele><time>2026-04-04T09:09:41.001Z</time></trkpt><trkpt lat="45.80056730373945" lon="8.834039087312163"><ele>362.5</ele><time>2026-04-04T09:09:42.001Z</time></trkpt><trkpt lat="45.800675948780636" lon="8.834026696278865"><ele>363.0</ele><time>2026-04-04T09:09:43.001Z</time></trkpt><trkpt lat="45.800777643016204" lon="8.833887361727058"><ele>363.0</ele><time>2026-04-04T09:09:44.001Z</time></trkpt><trkpt lat="45.80091612442172" lon="8.833849466593062"><ele>363.0</ele><time>2026-04-04T09:09:45.001Z</time></trkpt><trkpt lat="45.80105082511544" lon="8.833839996302249"><ele>363.0</ele><time>2026-04-04T09:09:46.001Z</time></trkpt><trkpt lat="45.801182861783495" lon="8.833883169697701"><ele>363.0</ele><time>2026-04-04T09:09:47.001Z</time></trkpt><trkpt lat="45.80129997733488" lon="8.833935262677835"><ele>363.0</ele><time>2026-04-04T09:09:48.001Z</time></trkpt><trkpt lat="45.801398870501046" lon="8.834008764764475"><ele>363.0</ele><time>2026-04-04T09:09:49.001Z</time></trkpt><trkpt lat="45.80146303926543" lon="8.834131373041409"><ele>363.0</ele><time>2026-04-04T09:09:50.001Z</time></trkpt><trkpt lat="45.801532083326656" lon="8.834217533445198"><ele>363.0</ele><time>2026-04-04T09:09:51.001Z</time></trkpt><trkpt lat="45.80160919917876" lon="8.834239953626696"><ele>363.0</ele><time>2026-04-04T09:09:52.001Z</time></trkpt><trkpt lat="45.80170332864205" lon="8.834134669536054"><ele>363.0</ele><time>2026-04-04T09:09:53.001Z</time></trkpt><trkpt lat="45.80181344366822" lon="8.834042631938823"><ele>363.0</ele><time>2026-04-04T09:09:54.001Z</time></trkpt><trkpt lat="45.801950335396896" lon="8.833954544500372"><ele>363.0</ele><time>2026-04-04T09:09:55.001Z</time></trkpt><trkpt lat="45.802103289476065" lon="8.833938080622644"><ele>363.0</ele><time>2026-04-04T09:09:56.001Z</time></trkpt><trkpt lat="45.802255527623764" lon="8.83392837269624"><ele>364.0</ele><time>2026-04-04T09:09:57.001Z</time></trkpt><trkpt lat="45.80240045107328" lon="8.833899976880591"><ele>365.0</ele><time>2026-04-04T09:09:58.001Z</time></trkpt><trkpt lat="45.802545085330145" lon="8.833839595374673"><ele>366.0</ele><time>2026-04-04T09:09:59Z</time></trkpt><trkpt lat="45.80269660765602" lon="8.833761055527495"><ele>370.3333333333333</ele><time>2026-04-04T09:10:00Z</time></trkpt><trkpt lat="45.802848228958844" lon="8.833680808899143"><ele>374.66666666666663</ele><time>2026-04-04T09:10:01Z</time></trkpt><trkpt lat="45.80299405614914" lon="8.833599117496034"><ele>379.0</ele><time>2026-04-04T09:10:02Z</time></trkpt><trkpt lat="45.803143802323454" lon="8.833519050088565"><ele>378.3333333333333</ele><time>2026-04-04T09:10:03Z</time></trkpt><trkpt lat="45.80329076255503" lon="8.83344443014241"><ele>377.6666666666667</ele><time>2026-04-04T09:10:04Z</time></trkpt><trkpt lat="45.80343774890181" lon="8.833366931447788"><ele>377.0</ele><time>2026-04-04T09:10:05Z</time></trkpt><trkpt lat="45.803580710237895" lon="8.833286652570301"><ele>377.0</ele><time>2026-04-04T09:10:06Z</time></trkpt><trkpt lat="45.803720492339394" lon="8.833201469709186"><ele>377.0</ele><time>2026-04-04T09:10:07Z</time></trkpt><trkpt lat="45.803849875894386" lon="8.833098784155432"><ele>377.0</ele><time>2026-04-04T09:10:08Z</time></trkpt><trkpt lat="45.80398551053047" lon="8.833038139354352"><ele>377.0</ele><time>2026-04-04T09:10:09Z</time></trkpt><trkpt lat="45.80410601613151" lon="8.832966612754895"><ele>377.0</ele><time>2026-04-04T09:10:10Z</time></trkpt><trkpt lat="45.804217831531105" lon="8.832899819571294"><ele>377.0</ele><time>2026-04-04T09:10:11Z</time></trkpt><trkpt lat="45.80433329976831" lon="8.832827117560877"><ele>377.0</ele><time>2026-04-04T09:10:12Z</time></trkpt><trkpt lat="45.80445609800915" lon="8.832749076298908"><ele>377.0</ele><time>2026-04-04T09:10:13Z</time></trkpt><trkpt lat="45.804577690254646" lon="8.832672233694712"><ele>374.0</ele><time>2026-04-04T09:10:14Z</time></trkpt><trkpt lat="45.80470195925515" lon="8.832605065810283"><ele>371.0</ele><time>2026-04-04T09:10:15Z</time></trkpt><trkpt lat="45.80482693504474" lon="8.832532501613562"><ele>368.0</ele><time>2026-04-04T09:10:16Z</time></trkpt><trkpt lat="45.80494974433339" lon="8.832454555768807"><ele>365.0</ele><time>2026-04-04T09:10:17Z</time></trkpt><trkpt lat="45.805074862003266" lon="8.832387363684619"><ele>366.0</ele><time>2026-04-04T09:10:18Z</time></trkpt><trkpt lat="45.80519831400551" lon="8.832322672076339"><ele>367.0</ele><time>2026-04-04T09:10:19Z</time></trkpt><trkpt lat="45.805321377335105" lon="8.832259865336734"><ele>368.0</ele><time>2026-04-04T09:10:20Z</time></trkpt><trkpt lat="45.80544041342906" lon="8.83219310028217"><ele>369.0</ele><time>2026-04-04T09:10:21Z</time></trkpt><trkpt lat="45.805564092568375" lon="8.832144680576913"><ele>369.0</ele><time>2026-04-04T09:10:22Z</time></trkpt><trkpt lat="45.805686561673085" lon="8.832082349041135"><ele>369.0</ele><time>2026-04-04T09:10:23Z</time></trkpt><trkpt lat="45.80580735848966" lon="8.832021252915608"><ele>369.0</ele><time>2026-04-04T09:10:24Z</time></trkpt><trkpt lat="45.8059333357865" lon="8.831963093031169"><ele>369.0</ele><time>2026-04-04T09:10:25Z</time></trkpt><trkpt lat="45.80605967344416" lon="8.831905677669482"><ele>369.0</ele><time>2026-04-04T09:10:26Z</time></trkpt><trkpt lat="45.806184124339396" lon="8.831837767296628"><ele>369.0</ele><time>2026-04-04T09:10:27Z</time></trkpt><trkpt lat="45.806296237550924" lon="8.831775887562411"><ele>369.0</ele><time>2026-04-04T09:10:28Z</time></trkpt><trkpt lat="45.806399939359515" lon="8.83171957969309"><ele>369.0</ele><time>2026-04-04T09:10:29Z</time></trkpt><trkpt lat="45.806503905762455" lon="8.831693920274105"><ele>369.0</ele><time>2026-04-04T09:10:30Z</time></trkpt><trkpt lat="45.806598167322115" lon="8.831732114910139"><ele>369.0</ele><time>2026-04-04T09:10:31Z</time></trkpt><trkpt lat="45.80667638114232" lon="8.831762745043948"><ele>369.0</ele><time>2026-04-04T09:10:32Z</time></trkpt><trkpt lat="45.806753675210196" lon="8.831724925963748"><ele>369.0</ele><time>2026-04-04T09:10:33Z</time></trkpt><trkpt lat="45.80682124174263" lon="8.831651814376968"><ele>369.0</ele><time>2026-04-04T09:10:34Z</time></trkpt><trkpt lat="45.806855135359775" lon="8.831525021927863"><ele>369.0</ele><time>2026-04-04T09:10:35Z</time></trkpt><trkpt lat="45.80690823050857" lon="8.831427324479643"><ele>370.4</ele><time>2026-04-04T09:10:36Z</time></trkpt><trkpt lat="45.806984476250136" lon="8.83134882246021"><ele>371.79999999999995</ele><time>2026-04-04T09:10:37Z</time></trkpt><trkpt lat="45.80706898989943" lon="8.831288102042798"><ele>373.20000000000005</ele><time>2026-04-04T09:10:38Z</time></trkpt><trkpt lat="45.80716503678074" lon="8.831234752296227"><ele>374.6</ele><time>2026-04-04T09:10:39Z</time></trkpt><trkpt lat="45.807275589182794" lon="8.831178048029642"><ele>376.0</ele><time>2026-04-04T09:10:40Z</time></trkpt><trkpt lat="45.807396967110606" lon="8.83112059318364"><ele>376.0</ele><time>2026-04-04T09:10:41Z</time></trkpt><trkpt lat="45.80752647589769" lon="8.831066373171298"><ele>376.0</ele><time>2026-04-04T09:10:42Z</time></trkpt><trkpt lat="45.80765607234458" lon="8.831014770516816"><ele>376.0</ele><time>2026-04-04T09:10:43Z</time></trkpt><trkpt lat="45.80779126662711" lon="8.830977581825287"><ele>376.0</ele><time>2026-04-04T09:10:44Z</time></trkpt><trkpt lat="45.80792755976603" lon="8.830949180718124"><ele>376.0</ele><time>2026-04-04T09:10:45Z</time></trkpt><trkpt lat="45.80806998351581" lon="8.830922586461247"><ele>376.0</ele><time>2026-04-04T09:10:46Z</time></trkpt><trkpt lat="45.80821826005568" lon="8.830896209971847"><ele>376.0</ele><time>2026-04-04T09:10:47Z</time></trkpt><trkpt lat="45.80836783558892" lon="8.830874505336844"><ele>376.0</ele><time>2026-04-04T09:10:48Z</time></trkpt><trkpt lat="45.80851790695416" lon="8.830842888541431"><ele>376.0</ele><time>2026-04-04T09:10:49Z</time></trkpt><trkpt lat="45.808664148585194" lon="8.830808012489028"><ele>376.0</ele><time>2026-04-04T09:10:50Z</time></trkpt><trkpt lat="45.808810744818366" lon="8.830773656188027"><ele>376.0</ele><time>2026-04-04T09:10:51Z</time></trkpt><trkpt lat="45.808951894112425" lon="8.830741112116327"><ele>376.0</ele><time>2026-04-04T09:10:52Z</time></trkpt><trkpt lat="45.809080530443914" lon="8.830709274495826"><ele>376.0</ele><time>2026-04-04T09:10:53Z</time></trkpt><trkpt lat="45.80920665239029" lon="8.83067590409709"><ele>376.0</ele><time>2026-04-04T09:10:54Z</time></trkpt><trkpt lat="45.809324589514596" lon="8.83063806547391"><ele>376.0</ele><time>2026-04-04T09:10:55Z</time></trkpt><trkpt lat="45.80942639692366" lon="8.830579946814378"><ele>376.0</ele><time>2026-04-04T09:10:56Z</time></trkpt><trkpt lat="45.8095364348286" lon="8.830606837765528"><ele>377.0</ele><time>2026-04-04T09:10:57Z</time></trkpt><trkpt lat="45.80964908644573" lon="8.830640600107849"><ele>378.0</ele><time>2026-04-04T09:10:58Z</time></trkpt><trkpt lat="45.809760015870424" lon="8.83070246037133"><ele>379.0</ele><time>2026-04-04T09:10:59Z</time></trkpt><trkpt lat="45.809865402444345" lon="8.830788784145172"><ele>380.0</ele><time>2026-04-04T09:11:00Z</time></trkpt><trkpt lat="45.809965234635484" lon="8.830892357706258"><ele>382.25</ele><time>2026-04-04T09:11:01Z</time></trkpt><trkpt lat="45.81005385833355" lon="8.830981606684185"><ele>384.5</ele><time>2026-04-04T09:11:02Z</time></trkpt><trkpt lat="45.810143045300634" lon="8.83101657158238"><ele>386.75</ele><time>2026-04-04T09:11:03Z</time></trkpt><trkpt lat="45.81024299944694" lon="8.8309811403041"><ele>389.0</ele><time>2026-04-04T09:11:04Z</time></trkpt><trkpt lat="45.81038395426835" lon="8.83089004329238"><ele>389.0</ele><time>2026-04-04T09:11:05Z</time></trkpt><trkpt lat="45.8105454769671" lon="8.830809309147703"><ele>389.0</ele><time>2026-04-04T09:11:06Z</time></trkpt><trkpt lat="45.81070383661917" lon="8.830752664436888"><ele>389.0</ele><time>2026-04-04T09:11:07Z</time></trkpt><trkpt lat="45.81083610483287" lon="8.830650561447897"><ele>389.0</ele><time>2026-04-04T09:11:08Z</time></trkpt><trkpt lat="45.81096023787922" lon="8.830508643469738"><ele>389.0</ele><time>2026-04-04T09:11:09Z</time></trkpt><trkpt lat="45.81108329177883" lon="8.830343258975681"><ele>389.0</ele><time>2026-04-04T09:11:10Z</time></trkpt><trkpt lat="45.81120333267346" lon="8.83018569516383"><ele>391.0</ele><time>2026-04-04T09:11:11Z</time></trkpt><trkpt lat="45.81132034150499" lon="8.830034206529895"><ele>393.0</ele><time>2026-04-04T09:11:12Z</time></trkpt><trkpt lat="45.811440890323986" lon="8.82987221206705"><ele>395.0</ele><time>2026-04-04T09:11:13Z</time></trkpt><trkpt lat="45.811551127972145" lon="8.82969861922379"><ele>395.0</ele><time>2026-04-04T09:11:14Z</time></trkpt><trkpt lat="45.81164754470582" lon="8.829514056684877"><ele>395.0</ele><time>2026-04-04T09:11:15Z</time></trkpt><trkpt lat="45.811735000092796" lon="8.829330971751018"><ele>395.0</ele><time>2026-04-04T09:11:16Z</time></trkpt><trkpt lat="45.81180916777917" lon="8.829164992747987"><ele>397.25</ele><time>2026-04-04T09:11:17Z</time></trkpt><trkpt lat="45.81188706481519" lon="8.82904857360912"><ele>399.5</ele><time>2026-04-04T09:11:18.001Z</time></trkpt><trkpt lat="45.811987218041594" lon="8.828987750860495"><ele>401.75</ele><time>2026-04-04T09:11:19.001Z</time></trkpt><trkpt lat="45.81211352125214" lon="8.828937095895569"><ele>404.0</ele><time>2026-04-04T09:11:20.001Z</time></trkpt><trkpt lat="45.812256096943436" lon="8.82892266245889"><ele>404.0</ele><time>2026-04-04T09:11:21.001Z</time></trkpt><trkpt lat="45.812377594866874" lon="8.828913151142629"><ele>404.0</ele><time>2026-04-04T09:11:22.001Z</time></trkpt><trkpt lat="45.81247245920756" lon="8.828946134478239"><ele>404.0</ele><time>2026-04-04T09:11:23.001Z</time></trkpt><trkpt lat="45.81254988919051" lon="8.828990904711496"><ele>404.0</ele><time>2026-04-04T09:11:24.001Z</time></trkpt><trkpt lat="45.81261542618774" lon="8.829129265447005"><ele>404.0</ele><time>2026-04-04T09:11:26.001Z</time></trkpt><trkpt lat="45.812538109709905" lon="8.82931747676155"><ele>403.75</ele><time>2026-04-04T09:11:28.001Z</time></trkpt><trkpt lat="45.81250992226376" lon="8.829432683911818"><ele>403.5</ele><time>2026-04-04T09:11:29.001Z</time></trkpt><trkpt lat="45.81251793057192" lon="8.829591105463752"><ele>403.25</ele><time>2026-04-04T09:11:30.001Z</time></trkpt><trkpt lat="45.812541005533554" lon="8.829778438112378"><ele>403.0</ele><time>2026-04-04T09:11:31.001Z</time></trkpt><trkpt lat="45.81255471378443" lon="8.82995722540708"><ele>403.0</ele><time>2026-04-04T09:11:32.001Z</time></trkpt><trkpt lat="45.81257314964255" lon="8.830103321165987"><ele>403.0</ele><time>2026-04-04T09:11:33.001Z</time></trkpt><trkpt lat="45.81259137768443" lon="8.83019844008149"><ele>403.0</ele><time>2026-04-04T09:11:34.001Z</time></trkpt><trkpt lat="45.81257074302214" lon="8.8303541432683"><ele>403.0</ele><time>2026-04-04T09:11:36.001Z</time></trkpt><trkpt lat="45.812541681179695" lon="8.83049189912379"><ele>403.0</ele><time>2026-04-04T09:11:37.001Z</time></trkpt><trkpt lat="45.81252342365939" lon="8.830676251342354"><ele>402.79999999999995</ele><time>2026-04-04T09:11:38.001Z</time></trkpt><trkpt lat="45.81250565000469" lon="8.830844019384081"><ele>402.6</ele><time>2026-04-04T09:11:39.001Z</time></trkpt><trkpt lat="45.812478750946" lon="8.831002208063095"><ele>402.4</ele><time>2026-04-04T09:11:40.001Z</time></trkpt><trkpt lat="45.81246923028008" lon="8.831144787537985"><ele>402.20000000000005</ele><time>2026-04-04T09:11:41.001Z</time></trkpt><trkpt lat="45.81243506632099" lon="8.831250008639453"><ele>402.0</ele><time>2026-04-04T09:11:42.001Z</time></trkpt><trkpt lat="45.81240430791159" lon="8.831422621242616"><ele>401.6</ele><time>2026-04-04T09:11:44.001Z</time></trkpt><trkpt lat="45.81233789586214" lon="8.831608280673871"><ele>401.20000000000005</ele><time>2026-04-04T09:11:46.001Z</time></trkpt><trkpt lat="45.812294669039744" lon="8.831722530679478"><ele>400.8</ele><time>2026-04-04T09:11:47.001Z</time></trkpt><trkpt lat="45.8122572918548" lon="8.831849199144148"><ele>400.4</ele><time>2026-04-04T09:11:48.001Z</time></trkpt><trkpt lat="45.81222232544543" lon="8.831950383740137"><ele>400.0</ele><time>2026-04-04T09:11:49.001Z</time></trkpt><trkpt lat="45.812178765577784" lon="8.832018562158417"><ele>398.4</ele><time>2026-04-04T09:11:50.001Z</time></trkpt><trkpt lat="45.812368410699015" lon="8.83206191044102"><ele>396.8</ele><time>2026-04-04T09:11:53.001Z</time></trkpt><trkpt lat="45.812450853703325" lon="8.832031520942945"><ele>395.20000000000005</ele><time>2026-04-04T09:11:54.001Z</time></trkpt><trkpt lat="45.8125334182845" lon="8.832001868979397"><ele>393.6</ele><time>2026-04-04T09:11:55.001Z</time></trkpt><trkpt lat="45.812608726821715" lon="8.831993867805192"><ele>392.0</ele><time>2026-04-04T09:11:56.001Z</time></trkpt><trkpt lat="45.812685106898385" lon="8.831969078580054"><ele>391.16666666666663</ele><time>2026-04-04T09:11:57.001Z</time></trkpt><trkpt lat="45.8127695699894" lon="8.831944274507798"><ele>390.3333333333333</ele><time>2026-04-04T09:11:58.001Z</time></trkpt><trkpt lat="45.812836576188424" lon="8.831923614441543"><ele>389.5</ele><time>2026-04-04T09:11:59.001Z</time></trkpt><trkpt lat="45.81291130922116" lon="8.831896755408449"><ele>388.66666666666663</ele><time>2026-04-04T09:12:00.001Z</time></trkpt><trkpt lat="45.81298836826498" lon="8.831883279227469"><ele>387.8333333333333</ele><time>2026-04-04T09:12:01.001Z</time></trkpt><trkpt lat="45.81306302438457" lon="8.831867659671229"><ele>387.0</ele><time>2026-04-04T09:12:02.001Z</time></trkpt><trkpt lat="45.81313716127358" lon="8.831854170840579"><ele>387.0</ele><time>2026-04-04T09:12:03.001Z</time></trkpt><trkpt lat="45.81320751869375" lon="8.831837527874143"><ele>387.0</ele><time>2026-04-04T09:12:04.001Z</time></trkpt><trkpt lat="45.81329655078596" lon="8.831818698301994"><ele>387.0</ele><time>2026-04-04T09:12:05.999Z</time></trkpt><trkpt lat="45.813363193254354" lon="8.831827655327537"><ele>387.0</ele><time>2026-04-04T09:13:13Z</time></trkpt><trkpt lat="45.81348451010308" lon="8.831794487049494"><ele>387.0</ele><time>2026-04-04T09:13:16Z</time></trkpt><trkpt lat="45.81358701693646" lon="8.831779193307169"><ele>387.20000000000005</ele><time>2026-04-04T09:13:18Z</time></trkpt><trkpt lat="45.81368804354062" lon="8.831743631137828"><ele>387.4</ele><time>2026-04-04T09:13:20Z</time></trkpt><trkpt lat="45.813797357007594" lon="8.831707819863928"><ele>387.6</ele><time>2026-04-04T09:13:22Z</time></trkpt><trkpt lat="45.81386538891112" lon="8.831708631944064"><ele>387.79999999999995</ele><time>2026-04-04T09:13:23Z</time></trkpt><trkpt lat="45.81396570279887" lon="8.83169545954701"><ele>388.0</ele><time>2026-04-04T09:13:24Z</time></trkpt><trkpt lat="45.81405909860704" lon="8.831656345533284"><ele>388.0</ele><time>2026-04-04T09:13:25Z</time></trkpt><trkpt lat="45.814161946327005" lon="8.831647959655996"><ele>388.0</ele><time>2026-04-04T09:13:26Z</time></trkpt><trkpt lat="45.81426330006704" lon="8.83164253494772"><ele>388.0</ele><time>2026-04-04T09:13:27Z</time></trkpt><trkpt lat="45.814366246523" lon="8.831634485396053"><ele>388.0</ele><time>2026-04-04T09:13:28Z</time></trkpt><trkpt lat="45.814478016992325" lon="8.831609621321148"><ele>388.0</ele><time>2026-04-04T09:13:29Z</time></trkpt><trkpt lat="45.81458540530144" lon="8.831631058824401"><ele>388.0</ele><time>2026-04-04T09:13:30Z</time></trkpt><trkpt lat="45.8146930963926" lon="8.831628267876798"><ele>388.0</ele><time>2026-04-04T09:13:31Z</time></trkpt><trkpt lat="45.81479282451879" lon="8.831640527623716"><ele>388.0</ele><time>2026-04-04T09:13:32Z</time></trkpt><trkpt lat="45.81487051953754" lon="8.831611586388862"><ele>388.0</ele><time>2026-04-04T09:13:33Z</time></trkpt><trkpt lat="45.81494719991357" lon="8.831600193609596"><ele>388.0</ele><time>2026-04-04T09:13:34Z</time></trkpt><trkpt lat="45.81504532109674" lon="8.831640106080119"><ele>388.00000000000006</ele><time>2026-04-04T09:13:36Z</time></trkpt><trkpt lat="45.81512704065905" lon="8.831663704681477"><ele>388.0</ele><time>2026-04-04T09:13:39Z</time></trkpt><trkpt lat="45.815199401244" lon="8.831675074215784"><ele>388.0</ele><time>2026-04-04T09:13:41Z</time></trkpt><trkpt lat="45.81529604880883" lon="8.831681673886607"><ele>388.0</ele><time>2026-04-04T09:13:45Z</time></trkpt><trkpt lat="45.81538763708925" lon="8.831696254407069"><ele>388.00000000000006</ele><time>2026-04-04T09:13:47Z</time></trkpt><trkpt lat="45.81545073231985" lon="8.831709539677613"><ele>388.0</ele><time>2026-04-04T09:13:49Z</time></trkpt><trkpt lat="45.81552674669424" lon="8.831715431442277"><ele>387.79999999999995</ele><time>2026-04-04T09:13:51Z</time></trkpt><trkpt lat="45.815598885678455" lon="8.83170090317828"><ele>387.6</ele><time>2026-04-04T09:13:53Z</time></trkpt><trkpt lat="45.81573036513601" lon="8.83167066748403"><ele>387.4</ele><time>2026-04-04T09:14:21Z</time></trkpt><trkpt lat="45.81582748338326" lon="8.83167188475984"><ele>387.20000000000005</ele><time>2026-04-04T09:14:23Z</time></trkpt><trkpt lat="45.81590301164119" lon="8.831724545037147"><ele>387.0</ele><time>2026-04-04T09:14:24Z</time></trkpt><trkpt lat="45.815966081883786" lon="8.831802158932064"><ele>386.0</ele><time>2026-04-04T09:14:25Z</time></trkpt><trkpt lat="45.81602465523478" lon="8.83190598418327"><ele>385.0</ele><time>2026-04-04T09:14:26Z</time></trkpt><trkpt lat="45.8160801553756" lon="8.832007564506569"><ele>384.0</ele><time>2026-04-04T09:14:27Z</time></trkpt><trkpt lat="45.816131265421454" lon="8.832105945059332"><ele>383.0</ele><time>2026-04-04T09:14:28Z</time></trkpt><trkpt lat="45.816199827192975" lon="8.832189984875022"><ele>382.0</ele><time>2026-04-04T09:14:29Z</time></trkpt><trkpt lat="45.81628365850473" lon="8.832275560918752"><ele>382.0</ele><time>2026-04-04T09:14:30Z</time></trkpt><trkpt lat="45.81638065389537" lon="8.832322019931377"><ele>382.0</ele><time>2026-04-04T09:14:31Z</time></trkpt><trkpt lat="45.816483983201" lon="8.832337821150404"><ele>382.0</ele><time>2026-04-04T09:14:32Z</time></trkpt><trkpt lat="45.816596427364" lon="8.832350607637963"><ele>382.0</ele><time>2026-04-04T09:14:33Z</time></trkpt><trkpt lat="45.81671510811483" lon="8.832363760319362"><ele>382.0</ele><time>2026-04-04T09:14:34Z</time></trkpt><trkpt lat="45.8168405320696" lon="8.832367327421736"><ele>381.75</ele><time>2026-04-04T09:14:35Z</time></trkpt><trkpt lat="45.816970811029385" lon="8.832376831269439"><ele>381.5</ele><time>2026-04-04T09:14:36Z</time></trkpt><trkpt lat="45.817102879637105" lon="8.832384465727271"><ele>381.25</ele><time>2026-04-04T09:14:37Z</time></trkpt><trkpt lat="45.81721559732905" lon="8.832397352687682"><ele>381.0</ele><time>2026-04-04T09:14:38Z</time></trkpt><trkpt lat="45.81732600014743" lon="8.832407642895994"><ele>381.0</ele><time>2026-04-04T09:14:39Z</time></trkpt><trkpt lat="45.81743646167531" lon="8.832417309387054"><ele>381.0</ele><time>2026-04-04T09:14:40Z</time></trkpt><trkpt lat="45.817525348739096" lon="8.832425641072078"><ele>381.0</ele><time>2026-04-04T09:14:41Z</time></trkpt><trkpt lat="45.8176213931474" lon="8.83243713727328"><ele>381.0</ele><time>2026-04-04T09:14:42Z</time></trkpt><trkpt lat="45.81771612046894" lon="8.832446321682626"><ele>381.0</ele><time>2026-04-04T09:14:43Z</time></trkpt><trkpt lat="45.817804012863455" lon="8.83245928146331"><ele>381.0</ele><time>2026-04-04T09:14:44Z</time></trkpt><trkpt lat="45.81788414117405" lon="8.832472806330825"><ele>381.0</ele><time>2026-04-04T09:14:45Z</time></trkpt><trkpt lat="45.81797074412285" lon="8.832484595603926"><ele>381.0</ele><time>2026-04-04T09:14:46Z</time></trkpt><trkpt lat="45.81805403782676" lon="8.832493200399268"><ele>381.0</ele><time>2026-04-04T09:14:47Z</time></trkpt><trkpt lat="45.81814222627047" lon="8.83251274908749"><ele>381.0</ele><time>2026-04-04T09:14:48Z</time></trkpt><trkpt lat="45.818219152267005" lon="8.832542400132773"><ele>381.0</ele><time>2026-04-04T09:14:49Z</time></trkpt><trkpt lat="45.81827899645559" lon="8.832605719154591"><ele>380.4</ele><time>2026-04-04T09:14:50Z</time></trkpt><trkpt lat="45.81833951276183" lon="8.832658105445677"><ele>379.8</ele><time>2026-04-04T09:14:51Z</time></trkpt><trkpt lat="45.818384479157146" lon="8.832728063498866"><ele>379.2</ele><time>2026-04-04T09:14:52Z</time></trkpt><trkpt lat="45.81838452283426" lon="8.832928440898081"><ele>378.59999999999997</ele><time>2026-04-04T09:14:55Z</time></trkpt><trkpt lat="45.81843194392282" lon="8.832994568100888"><ele>378.0</ele><time>2026-04-04T09:14:57Z</time></trkpt><trkpt lat="45.81835375568392" lon="8.83313162358832"><ele>378.0</ele><time>2026-04-04T09:14:58Z</time></trkpt><trkpt lat="45.81835749562262" lon="8.833224726787423"><ele>378.0</ele><time>2026-04-04T09:15:03Z</time></trkpt><trkpt lat="45.81841147069672" lon="8.833285401066851"><ele>378.0</ele><time>2026-04-04T09:15:13.001Z</time></trkpt><trkpt lat="45.818471043960294" lon="8.833233664976758"><ele>378.0</ele><time>2026-04-04T09:15:17.001Z</time></trkpt><trkpt lat="45.818405058195495" lon="8.833222922441722"><ele>378.0</ele><time>2026-04-04T09:16:14.001Z</time></trkpt><trkpt lat="45.818333768436275" lon="8.833222483063372"><ele>378.0</ele><time>2026-04-04T09:16:22.001Z</time></trkpt><trkpt lat="45.81840164780296" lon="8.83319995462531"><ele>378.0</ele><time>2026-04-04T09:16:29.001Z</time></trkpt><trkpt lat="45.818346021651976" lon="8.833262810191668"><ele>378.0</ele><time>2026-04-04T09:16:33Z</time></trkpt><trkpt lat="45.81844695604482" lon="8.8332333768945"><ele>378.0</ele><time>2026-04-04T09:25:14Z</time></trkpt><trkpt lat="45.81847251816797" lon="8.833318186309066"><ele>378.0</ele><time>2026-04-04T09:27:40Z</time></trkpt><trkpt lat="45.81851339582949" lon="8.833401292990748"><ele>378.0</ele><time>2026-04-04T09:27:42Z</time></trkpt><trkpt lat="45.81857374598324" lon="8.833464769571755"><ele>378.0</ele><time>2026-04-04T09:27:44Z</time></trkpt><trkpt lat="45.818645393923035" lon="8.833463783780346"><ele>378.0</ele><time>2026-04-04T09:27:46Z</time></trkpt><trkpt lat="45.818721097786316" lon="8.833481574706752"><ele>377.7142857142857</ele><time>2026-04-04T09:27:55Z</time></trkpt><trkpt lat="45.818785528059" lon="8.833562878397203"><ele>377.42857142857144</ele><time>2026-04-04T09:27:57Z</time></trkpt><trkpt lat="45.81882573131063" lon="8.83364963646175"><ele>377.1428571428571</ele><time>2026-04-04T09:27:58Z</time></trkpt><trkpt lat="45.818868699967574" lon="8.833739022702124"><ele>376.8571428571429</ele><time>2026-04-04T09:27:59Z</time></trkpt><trkpt lat="45.81890332041522" lon="8.833825954097753"><ele>376.57142857142856</ele><time>2026-04-04T09:28:00Z</time></trkpt><trkpt lat="45.818943379551506" lon="8.83391343130197"><ele>376.2857142857143</ele><time>2026-04-04T09:28:01Z</time></trkpt><trkpt lat="45.81897993611097" lon="8.833996664651686"><ele>376.0</ele><time>2026-04-04T09:28:02Z</time></trkpt><trkpt lat="45.81902209590959" lon="8.834074747097137"><ele>376.0</ele><time>2026-04-04T09:28:03Z</time></trkpt><trkpt lat="45.81905761115039" lon="8.834157356444614"><ele>376.0</ele><time>2026-04-04T09:28:03.999Z</time></trkpt><trkpt lat="45.81912635735092" lon="8.834318588485521"><ele>376.0</ele><time>2026-04-04T09:28:05.999Z</time></trkpt><trkpt lat="45.819170246937446" lon="8.834416682909144"><ele>376.0</ele><time>2026-04-04T09:28:06.999Z</time></trkpt><trkpt lat="45.81921240863326" lon="8.834511735188451"><ele>376.0</ele><time>2026-04-04T09:28:07.999Z</time></trkpt><trkpt lat="45.819275787772995" lon="8.834651390095276"><ele>376.5</ele><time>2026-04-04T09:28:09.999Z</time></trkpt><trkpt lat="45.81933105273811" lon="8.834776964137342"><ele>377.0</ele><time>2026-04-04T09:28:11.999Z</time></trkpt><trkpt lat="45.81937071281168" lon="8.834859056547373"><ele>377.5</ele><time>2026-04-04T09:28:13.999Z</time></trkpt><trkpt lat="45.81943470457471" lon="8.834985043015076"><ele>378.0</ele><time>2026-04-04T09:28:40.999Z</time></trkpt><trkpt lat="45.81947840593322" lon="8.83507745930987"><ele>378.5</ele><time>2026-04-04T09:28:41.999Z</time></trkpt><trkpt lat="45.81952226604382" lon="8.835181219286461"><ele>379.0</ele><time>2026-04-04T09:28:42.999Z</time></trkpt><trkpt lat="45.81957132543667" lon="8.835308649981664"><ele>379.0</ele><time>2026-04-04T09:28:43.999Z</time></trkpt><trkpt lat="45.81958268037195" lon="8.835464633139955"><ele>379.0</ele><time>2026-04-04T09:28:44.999Z</time></trkpt><trkpt lat="45.81961352588749" lon="8.835628965165137"><ele>379.0</ele><time>2026-04-04T09:28:45.999Z</time></trkpt><trkpt lat="45.8196341419942" lon="8.83579280062687"><ele>379.0</ele><time>2026-04-04T09:28:46.999Z</time></trkpt><trkpt lat="45.81966571913715" lon="8.83595837792064"><ele>379.0</ele><time>2026-04-04T09:28:47.999Z</time></trkpt><trkpt lat="45.81967874415571" lon="8.836128810078721"><ele>379.0</ele><time>2026-04-04T09:28:48.999Z</time></trkpt><trkpt lat="45.81969125982783" lon="8.83629844197029"><ele>379.0</ele><time>2026-04-04T09:28:49.999Z</time></trkpt><trkpt lat="45.819717410261234" lon="8.836454503282607"><ele>379.0</ele><time>2026-04-04T09:28:50.999Z</time></trkpt><trkpt lat="45.81972646397641" lon="8.8365918055827"><ele>379.0</ele><time>2026-04-04T09:28:51.999Z</time></trkpt><trkpt lat="45.81974403207474" lon="8.8367161394943"><ele>378.79999999999995</ele><time>2026-04-04T09:28:52.999Z</time></trkpt><trkpt lat="45.8197685818058" lon="8.836838885944957"><ele>378.59999999999997</ele><time>2026-04-04T09:28:53.999Z</time></trkpt><trkpt lat="45.819793404366116" lon="8.83696804265844"><ele>378.4</ele><time>2026-04-04T09:28:54.999Z</time></trkpt><trkpt lat="45.819819615956895" lon="8.837116537650235"><ele>378.2</ele><time>2026-04-04T09:28:55.999Z</time></trkpt><trkpt lat="45.819845445183155" lon="8.837267588839573"><ele>378.0</ele><time>2026-04-04T09:28:56.999Z</time></trkpt><trkpt lat="45.81986768454368" lon="8.837408483970501"><ele>378.0</ele><time>2026-04-04T09:28:57.999Z</time></trkpt><trkpt lat="45.819884583326946" lon="8.837516310304318"><ele>378.0</ele><time>2026-04-04T09:28:59.999Z</time></trkpt><trkpt lat="45.81990274064912" lon="8.837662067696563"><ele>378.0</ele><time>2026-04-04T09:29:05.999Z</time></trkpt><trkpt lat="45.819934779470955" lon="8.837820151885666"><ele>378.0</ele><time>2026-04-04T09:29:07.999Z</time></trkpt><trkpt lat="45.81993981410527" lon="8.837913505861515"><ele>378.0</ele><time>2026-04-04T09:29:08.999Z</time></trkpt><trkpt lat="45.81994313089418" lon="8.838015172515462"><ele>378.0</ele><time>2026-04-04T09:29:09.999Z</time></trkpt><trkpt lat="45.81994022873384" lon="8.838115695815398"><ele>378.0</ele><time>2026-04-04T09:29:10.999Z</time></trkpt><trkpt lat="45.81994402824749" lon="8.838233954269725"><ele>378.0</ele><time>2026-04-04T09:29:11.999Z</time></trkpt><trkpt lat="45.81995112077965" lon="8.838356930833895"><ele>378.0</ele><time>2026-04-04T09:29:12.999Z</time></trkpt><trkpt lat="45.81995655822127" lon="8.838487442131123"><ele>378.0</ele><time>2026-04-04T09:29:13.999Z</time></trkpt><trkpt lat="45.81995913397267" lon="8.838619038818072"><ele>378.0</ele><time>2026-04-04T09:29:14.999Z</time></trkpt><trkpt lat="45.81996160707329" lon="8.838753973459022"><ele>378.0</ele><time>2026-04-04T09:29:15.999Z</time></trkpt><trkpt lat="45.81995984174349" lon="8.83889627731685"><ele>377.8333333333333</ele><time>2026-04-04T09:29:16.999Z</time></trkpt><trkpt lat="45.819948578251605" lon="8.839017414350874"><ele>377.6666666666667</ele><time>2026-04-04T09:29:17.999Z</time></trkpt><trkpt lat="45.819958369955565" lon="8.83914218778616"><ele>377.5</ele><time>2026-04-04T09:29:18.999Z</time></trkpt><trkpt lat="45.81995827895056" lon="8.83927043600629"><ele>377.33333333333337</ele><time>2026-04-04T09:29:19.999Z</time></trkpt><trkpt lat="45.81996489250542" lon="8.839407462339551"><ele>377.1666666666667</ele><time>2026-04-04T09:29:20.999Z</time></trkpt><trkpt lat="45.819967871344645" lon="8.8395383072918"><ele>377.0</ele><time>2026-04-04T09:29:21.999Z</time></trkpt><trkpt lat="45.819974256720634" lon="8.839669183600098"><ele>376.83333333333337</ele><time>2026-04-04T09:29:22.999Z</time></trkpt><trkpt lat="45.81997780329292" lon="8.839799955948669"><ele>376.6666666666667</ele><time>2026-04-04T09:29:23.999Z</time></trkpt><trkpt lat="45.81997360004737" lon="8.839924480632726"><ele>376.5</ele><time>2026-04-04T09:29:24.999Z</time></trkpt><trkpt lat="45.81997492973431" lon="8.840036872218645"><ele>376.3333333333333</ele><time>2026-04-04T09:29:25.999Z</time></trkpt><trkpt lat="45.81997636249381" lon="8.840154609920544"><ele>376.16666666666663</ele><time>2026-04-04T09:29:26.999Z</time></trkpt><trkpt lat="45.81997685021948" lon="8.840279339737046"><ele>376.0</ele><time>2026-04-04T09:29:27.999Z</time></trkpt><trkpt lat="45.81997671755824" lon="8.840419102082903"><ele>376.0</ele><time>2026-04-04T09:29:28.999Z</time></trkpt><trkpt lat="45.81997373542395" lon="8.840524979252875"><ele>376.0</ele><time>2026-04-04T09:29:29.999Z</time></trkpt><trkpt lat="45.81997429728566" lon="8.84063287364059"><ele>376.0</ele><time>2026-04-04T09:29:30.999Z</time></trkpt><trkpt lat="45.819976314083206" lon="8.840745480858011"><ele>376.0</ele><time>2026-04-04T09:29:31.999Z</time></trkpt><trkpt lat="45.81997520911297" lon="8.840864995492783"><ele>376.0</ele><time>2026-04-04T09:29:32.999Z</time></trkpt><trkpt lat="45.81997522168392" lon="8.840989505061174"><ele>376.0</ele><time>2026-04-04T09:29:33.999Z</time></trkpt><trkpt lat="45.819971055924455" lon="8.841106172259934"><ele>376.16666666666663</ele><time>2026-04-04T09:29:34.999Z</time></trkpt><trkpt lat="45.81995017858067" lon="8.841215828577818"><ele>376.3333333333333</ele><time>2026-04-04T09:29:35.999Z</time></trkpt><trkpt lat="45.819933303024" lon="8.84132029113107"><ele>376.5</ele><time>2026-04-04T09:29:36.999Z</time></trkpt><trkpt lat="45.8198275282317" lon="8.841375297403559"><ele>376.6666666666667</ele><time>2026-04-04T09:29:37.999Z</time></trkpt><trkpt lat="45.819781466231206" lon="8.841484116882151"><ele>376.83333333333337</ele><time>2026-04-04T09:29:38.999Z</time></trkpt><trkpt lat="45.8197236243084" lon="8.841569291012638"><ele>377.0</ele><time>2026-04-04T09:29:39.999Z</time></trkpt><trkpt lat="45.819661948031495" lon="8.841661440998458"><ele>377.0</ele><time>2026-04-04T09:29:40.999Z</time></trkpt><trkpt lat="45.81960704431714" lon="8.84176365261767"><ele>377.0</ele><time>2026-04-04T09:29:41.999Z</time></trkpt><trkpt lat="45.81954835058135" lon="8.841856586626804"><ele>377.0</ele><time>2026-04-04T09:29:42.999Z</time></trkpt><trkpt lat="45.81948414559688" lon="8.841957131808632"><ele>377.0</ele><time>2026-04-04T09:29:43.999Z</time></trkpt><trkpt lat="45.81941625338473" lon="8.842056734919865"><ele>377.0</ele><time>2026-04-04T09:29:44.999Z</time></trkpt><trkpt lat="45.81934632563497" lon="8.842147310928683"><ele>376.83333333333337</ele><time>2026-04-04T09:29:45.999Z</time></trkpt><trkpt lat="45.819297617698346" lon="8.842250757883315"><ele>376.6666666666667</ele><time>2026-04-04T09:29:46.999Z</time></trkpt><trkpt lat="45.81923845056438" lon="8.842328783171247"><ele>376.5</ele><time>2026-04-04T09:29:47.999Z</time></trkpt><trkpt lat="45.81919183520842" lon="8.84241307379773"><ele>376.3333333333333</ele><time>2026-04-04T09:29:48.999Z</time></trkpt><trkpt lat="45.81914440903429" lon="8.84249632444428"><ele>376.16666666666663</ele><time>2026-04-04T09:29:49.999Z</time></trkpt><trkpt lat="45.81909530488528" lon="8.842569947199475"><ele>376.0</ele><time>2026-04-04T09:29:50.999Z</time></trkpt><trkpt lat="45.81899926632581" lon="8.842718240241767"><ele>375.8333333333333</ele><time>2026-04-04T09:29:52.999Z</time></trkpt><trkpt lat="45.818944296401476" lon="8.842816141444452"><ele>375.66666666666663</ele><time>2026-04-04T09:29:53.999Z</time></trkpt><trkpt lat="45.8189012874849" lon="8.842891507886119"><ele>375.5</ele><time>2026-04-04T09:29:54.999Z</time></trkpt><trkpt lat="45.81881862982094" lon="8.842986457081796"><ele>375.3333333333333</ele><time>2026-04-04T09:29:56.999Z</time></trkpt><trkpt lat="45.81877651034524" lon="8.84305359833699"><ele>375.1666666666667</ele><time>2026-04-04T09:29:57.999Z</time></trkpt><trkpt lat="45.81873328848131" lon="8.843122497367558"><ele>375.0</ele><time>2026-04-04T09:29:58.999Z</time></trkpt><trkpt lat="45.81865582585162" lon="8.843247811764392"><ele>375.0</ele><time>2026-04-04T09:30:00.999Z</time></trkpt><trkpt lat="45.81858572324537" lon="8.843360544311558"><ele>375.0</ele><time>2026-04-04T09:30:02.999Z</time></trkpt><trkpt lat="45.81853699475558" lon="8.843469251959585"><ele>375.0</ele><time>2026-04-04T09:30:04.999Z</time></trkpt><trkpt lat="45.81847165071126" lon="8.843564096792266"><ele>375.0</ele><time>2026-04-04T09:30:10.999Z</time></trkpt><trkpt lat="45.81841429330099" lon="8.84364465290708"><ele>375.0</ele><time>2026-04-04T09:30:12.999Z</time></trkpt><trkpt lat="45.81836267261428" lon="8.843704176760138"><ele>375.0</ele><time>2026-04-04T09:30:14.999Z</time></trkpt><trkpt lat="45.81829419365439" lon="8.843774608439778"><ele>375.0</ele><time>2026-04-04T09:30:16.999Z</time></trkpt><trkpt lat="45.81821741328233" lon="8.843851074059602"><ele>375.0</ele><time>2026-04-04T09:30:17.999Z</time></trkpt><trkpt lat="45.81816655404547" lon="8.843959585359306"><ele>375.0</ele><time>2026-04-04T09:30:18.999Z</time></trkpt><trkpt lat="45.81810268313084" lon="8.844055140319139"><ele>375.0</ele><time>2026-04-04T09:30:19.999Z</time></trkpt><trkpt lat="45.81804611616751" lon="8.844147826720567"><ele>375.0</ele><time>2026-04-04T09:30:20.999Z</time></trkpt><trkpt lat="45.81799820250535" lon="8.844253063149253"><ele>374.8333333333333</ele><time>2026-04-04T09:30:21.999Z</time></trkpt><trkpt lat="45.81795733575675" lon="8.844353176869038"><ele>374.6666666666667</ele><time>2026-04-04T09:30:22.999Z</time></trkpt><trkpt lat="45.817918392022904" lon="8.844441002163371"><ele>374.5</ele><time>2026-04-04T09:30:23.999Z</time></trkpt><trkpt lat="45.81787205166393" lon="8.844538032010192"><ele>374.33333333333337</ele><time>2026-04-04T09:30:24.999Z</time></trkpt><trkpt lat="45.817806185347344" lon="8.84460943926331"><ele>374.1666666666667</ele><time>2026-04-04T09:30:25.999Z</time></trkpt><trkpt lat="45.817759328180244" lon="8.84471343388493"><ele>374.0</ele><time>2026-04-04T09:30:26.999Z</time></trkpt><trkpt lat="45.8176904043518" lon="8.844793100657885"><ele>374.0</ele><time>2026-04-04T09:30:27.999Z</time></trkpt><trkpt lat="45.817638131814995" lon="8.84490329266481"><ele>374.0</ele><time>2026-04-04T09:30:28.999Z</time></trkpt><trkpt lat="45.81756517673492" lon="8.845007526303926"><ele>374.0</ele><time>2026-04-04T09:30:29.999Z</time></trkpt><trkpt lat="45.81749642829193" lon="8.845114431695585"><ele>374.0</ele><time>2026-04-04T09:30:30.999Z</time></trkpt><trkpt lat="45.817423030301285" lon="8.845237665436"><ele>374.0</ele><time>2026-04-04T09:30:31.999Z</time></trkpt><trkpt lat="45.8173539960166" lon="8.845349590711423"><ele>374.0</ele><time>2026-04-04T09:30:32.999Z</time></trkpt><trkpt lat="45.81729024569238" lon="8.845440760546824"><ele>374.0</ele><time>2026-04-04T09:30:33.999Z</time></trkpt><trkpt lat="45.817223401251574" lon="8.845550439095677"><ele>374.0</ele><time>2026-04-04T09:30:34.999Z</time></trkpt><trkpt lat="45.81716120647689" lon="8.845655994630622"><ele>374.0</ele><time>2026-04-04T09:30:35.999Z</time></trkpt><trkpt lat="45.81710060024512" lon="8.845759402960681"><ele>374.0</ele><time>2026-04-04T09:30:36.999Z</time></trkpt><trkpt lat="45.817037491710906" lon="8.8458676091612"><ele>373.79999999999995</ele><time>2026-04-04T09:30:37.999Z</time></trkpt><trkpt lat="45.81696374153634" lon="8.845979383403723"><ele>373.59999999999997</ele><time>2026-04-04T09:30:38.999Z</time></trkpt><trkpt lat="45.81689166405791" lon="8.846091304665293"><ele>373.4</ele><time>2026-04-04T09:30:39.999Z</time></trkpt><trkpt lat="45.81680612359372" lon="8.846205004648143"><ele>373.2</ele><time>2026-04-04T09:30:40.999Z</time></trkpt><trkpt lat="45.816738239806256" lon="8.846313619676014"><ele>373.0</ele><time>2026-04-04T09:30:41.999Z</time></trkpt><trkpt lat="45.81666553843796" lon="8.846428526935437"><ele>372.79999999999995</ele><time>2026-04-04T09:30:42.999Z</time></trkpt><trkpt lat="45.816589616611466" lon="8.846549105582259"><ele>372.6</ele><time>2026-04-04T09:30:43.999Z</time></trkpt><trkpt lat="45.81653223842799" lon="8.846675302508443"><ele>372.4</ele><time>2026-04-04T09:30:44.999Z</time></trkpt><trkpt lat="45.81645102473357" lon="8.846769893246766"><ele>372.20000000000005</ele><time>2026-04-04T09:30:45.999Z</time></trkpt><trkpt lat="45.81638273597839" lon="8.84687934769441"><ele>372.0</ele><time>2026-04-04T09:30:46.999Z</time></trkpt><trkpt lat="45.816323342421455" lon="8.846974544789072"><ele>371.8</ele><time>2026-04-04T09:30:47.999Z</time></trkpt><trkpt lat="45.81626834574383" lon="8.847062414728784"><ele>371.6</ele><time>2026-04-04T09:30:48.999Z</time></trkpt><trkpt lat="45.81620486483091" lon="8.847163687674945"><ele>371.40000000000003</ele><time>2026-04-04T09:30:49.999Z</time></trkpt><trkpt lat="45.81614366527377" lon="8.84728146378628"><ele>371.20000000000005</ele><time>2026-04-04T09:30:50.999Z</time></trkpt><trkpt lat="45.816072068365706" lon="8.847379654942408"><ele>371.0</ele><time>2026-04-04T09:30:51.999Z</time></trkpt><trkpt lat="45.8160179654083" lon="8.84746569790034"><ele>371.0</ele><time>2026-04-04T09:30:52.999Z</time></trkpt><trkpt lat="45.81596713269285" lon="8.847551653151333"><ele>371.0</ele><time>2026-04-04T09:30:53.999Z</time></trkpt><trkpt lat="45.815916227442145" lon="8.84764060269087"><ele>371.0</ele><time>2026-04-04T09:30:54.999Z</time></trkpt><trkpt lat="45.81586171427756" lon="8.847733753462943"><ele>371.0</ele><time>2026-04-04T09:30:55.999Z</time></trkpt><trkpt lat="45.81579613451432" lon="8.84781395683864"><ele>371.0</ele><time>2026-04-04T09:30:56.999Z</time></trkpt><trkpt lat="45.81573947359565" lon="8.847904016950139"><ele>371.0</ele><time>2026-04-04T09:30:57.999Z</time></trkpt><trkpt lat="45.81567040431339" lon="8.848013799674753"><ele>371.0</ele><time>2026-04-04T09:30:59.996Z</time></trkpt><trkpt lat="45.8156231586865" lon="8.848092245436623"><ele>371.0</ele><time>2026-04-04T09:31:01.996Z</time></trkpt><trkpt lat="45.81558930809364" lon="8.84817062904283"><ele>371.0</ele><time>2026-04-04T09:31:03.996Z</time></trkpt><trkpt lat="45.81553893242278" lon="8.848236417001555"><ele>371.0</ele><time>2026-04-04T09:31:05.997Z</time></trkpt><trkpt lat="45.815496240161806" lon="8.84831038015503"><ele>371.0</ele><time>2026-04-04T09:31:08.997Z</time></trkpt><trkpt lat="45.81543227609187" lon="8.84841567649257"><ele>371.0</ele><time>2026-04-04T09:31:30.998Z</time></trkpt><trkpt lat="45.81534691230883" lon="8.848556123496545"><ele>371.0</ele><time>2026-04-04T09:31:32.998Z</time></trkpt><trkpt lat="45.8152880826292" lon="8.848653514165893"><ele>371.0</ele><time>2026-04-04T09:31:33.998Z</time></trkpt><trkpt lat="45.81523159533475" lon="8.848747027549724"><ele>371.0</ele><time>2026-04-04T09:31:34.998Z</time></trkpt><trkpt lat="45.81517922818513" lon="8.848831899162294"><ele>371.0</ele><time>2026-04-04T09:31:35.998Z</time></trkpt><trkpt lat="45.81512741255624" lon="8.849011184772634"><ele>371.0</ele><time>2026-04-04T09:31:36.998Z</time></trkpt><trkpt lat="45.815043545378934" lon="8.84912501204941"><ele>371.0</ele><time>2026-04-04T09:31:37.998Z</time></trkpt><trkpt lat="45.81496584814145" lon="8.849242684686772"><ele>371.0</ele><time>2026-04-04T09:31:38.998Z</time></trkpt><trkpt lat="45.814883257931264" lon="8.849372000218692"><ele>371.0</ele><time>2026-04-04T09:31:39.998Z</time></trkpt><trkpt lat="45.814774507657475" lon="8.849468984994445"><ele>371.0</ele><time>2026-04-04T09:31:40.998Z</time></trkpt><trkpt lat="45.81468981338304" lon="8.849592099871801"><ele>371.0</ele><time>2026-04-04T09:31:41.998Z</time></trkpt><trkpt lat="45.81459747188625" lon="8.849733982553433"><ele>371.0</ele><time>2026-04-04T09:31:42.998Z</time></trkpt><trkpt lat="45.814507986110534" lon="8.849872954918498"><ele>371.0</ele><time>2026-04-04T09:31:43.998Z</time></trkpt><trkpt lat="45.81441826186223" lon="8.85001588287984"><ele>371.0</ele><time>2026-04-04T09:31:44.999Z</time></trkpt><trkpt lat="45.8143363318797" lon="8.850173655100294"><ele>371.5</ele><time>2026-04-04T09:31:45.999Z</time></trkpt><trkpt lat="45.81424489675364" lon="8.850319093551372"><ele>372.0</ele><time>2026-04-04T09:31:46.999Z</time></trkpt><trkpt lat="45.81415563226984" lon="8.850464085606381"><ele>372.5</ele><time>2026-04-04T09:31:47.999Z</time></trkpt><trkpt lat="45.81408142137609" lon="8.850603356178157"><ele>373.0</ele><time>2026-04-04T09:31:48.999Z</time></trkpt><trkpt lat="45.81403857581754" lon="8.850769878207824"><ele>373.0</ele><time>2026-04-04T09:31:49.999Z</time></trkpt><trkpt lat="45.81399572694658" lon="8.850946887975965"><ele>373.0</ele><time>2026-04-04T09:31:50.999Z</time></trkpt><trkpt lat="45.81395585242351" lon="8.851111480035764"><ele>373.0</ele><time>2026-04-04T09:31:51.999Z</time></trkpt><trkpt lat="45.813914807143725" lon="8.851274941696191"><ele>373.0</ele><time>2026-04-04T09:31:52.999Z</time></trkpt><trkpt lat="45.81382677946591" lon="8.851418244452995"><ele>372.5</ele><time>2026-04-04T09:31:53.999Z</time></trkpt><trkpt lat="45.813722117929174" lon="8.851557020326009"><ele>372.0</ele><time>2026-04-04T09:31:54.999Z</time></trkpt><trkpt lat="45.813623735282846" lon="8.851702392463121"><ele>371.5</ele><time>2026-04-04T09:31:55.999Z</time></trkpt><trkpt lat="45.81351692587679" lon="8.851833188435435"><ele>371.0</ele><time>2026-04-04T09:31:56.999Z</time></trkpt><trkpt lat="45.81341360406863" lon="8.85195811309861"><ele>371.0</ele><time>2026-04-04T09:31:57.999Z</time></trkpt><trkpt lat="45.813322518765844" lon="8.852078219629393"><ele>371.0</ele><time>2026-04-04T09:31:58.999Z</time></trkpt><trkpt lat="45.813218884946195" lon="8.852195574933983"><ele>371.0</ele><time>2026-04-04T09:31:59.999Z</time></trkpt><trkpt lat="45.8131485518956" lon="8.852304020618563"><ele>371.0</ele><time>2026-04-04T09:32:00.999Z</time></trkpt><trkpt lat="45.813067204027945" lon="8.852403201045249"><ele>371.0</ele><time>2026-04-04T09:32:01.999Z</time></trkpt><trkpt lat="45.812992783904896" lon="8.852498780134548"><ele>371.0</ele><time>2026-04-04T09:32:02.999Z</time></trkpt><trkpt lat="45.81292754551954" lon="8.852589728266805"><ele>371.0</ele><time>2026-04-04T09:32:03.999Z</time></trkpt><trkpt lat="45.81286096914331" lon="8.852665032175416"><ele>371.0</ele><time>2026-04-04T09:32:04.999Z</time></trkpt><trkpt lat="45.812795394404944" lon="8.852745776358548"><ele>371.0</ele><time>2026-04-04T09:32:05.999Z</time></trkpt><trkpt lat="45.812731815024065" lon="8.852822112076776"><ele>371.0</ele><time>2026-04-04T09:32:06.999Z</time></trkpt><trkpt lat="45.812670094998055" lon="8.85288969598248"><ele>370.6</ele><time>2026-04-04T09:32:07.999Z</time></trkpt><trkpt lat="45.812602792201794" lon="8.85294908944566"><ele>370.20000000000005</ele><time>2026-04-04T09:32:08.999Z</time></trkpt><trkpt lat="45.81252465296328" lon="8.853008023026051"><ele>369.79999999999995</ele><time>2026-04-04T09:32:09.999Z</time></trkpt><trkpt lat="45.81244095331054" lon="8.853058138607542"><ele>369.4</ele><time>2026-04-04T09:32:10.999Z</time></trkpt><trkpt lat="45.81234973568095" lon="8.853121968476884"><ele>369.0</ele><time>2026-04-04T09:32:11.999Z</time></trkpt><trkpt lat="45.81227130429049" lon="8.853202971640211"><ele>369.0</ele><time>2026-04-04T09:32:12.999Z</time></trkpt><trkpt lat="45.81219340937841" lon="8.853288563402888"><ele>369.0</ele><time>2026-04-04T09:32:13.999Z</time></trkpt><trkpt lat="45.81213901624306" lon="8.85338745242645"><ele>369.0</ele><time>2026-04-04T09:32:14.999Z</time></trkpt><trkpt lat="45.81210237983305" lon="8.853490647195727"><ele>369.0</ele><time>2026-04-04T09:32:15.999Z</time></trkpt><trkpt lat="45.8120698128664" lon="8.853610525563974"><ele>369.0</ele><time>2026-04-04T09:32:16.999Z</time></trkpt><trkpt lat="45.81201521991943" lon="8.853728257012094"><ele>368.25</ele><time>2026-04-04T09:32:17.999Z</time></trkpt><trkpt lat="45.81193799905454" lon="8.853826546043019"><ele>367.5</ele><time>2026-04-04T09:32:18.999Z</time></trkpt><trkpt lat="45.81183381596502" lon="8.853905474260896"><ele>366.75</ele><time>2026-04-04T09:32:19.999Z</time></trkpt><trkpt lat="45.811714381292774" lon="8.853938059823331"><ele>366.0</ele><time>2026-04-04T09:32:20.999Z</time></trkpt><trkpt lat="45.811610656842326" lon="8.853987657727876"><ele>365.8</ele><time>2026-04-04T09:32:21.999Z</time></trkpt><trkpt lat="45.81151985424189" lon="8.854051264027705"><ele>365.6</ele><time>2026-04-04T09:32:22.999Z</time></trkpt><trkpt lat="45.81142553463376" lon="8.854099894420022"><ele>365.4</ele><time>2026-04-04T09:32:23.999Z</time></trkpt><trkpt lat="45.811347170507744" lon="8.854122432761296"><ele>365.2</ele><time>2026-04-04T09:32:24.999Z</time></trkpt><trkpt lat="45.81123514023042" lon="8.854179092839475"><ele>365.0</ele><time>2026-04-04T09:32:26.999Z</time></trkpt><trkpt lat="45.811153982878146" lon="8.854220138711613"><ele>365.0</ele><time>2026-04-04T09:32:28.999Z</time></trkpt><trkpt lat="45.81104866645729" lon="8.854273403374096"><ele>365.0</ele><time>2026-04-04T09:32:30.999Z</time></trkpt><trkpt lat="45.81098183580386" lon="8.854308323069677"><ele>365.0</ele><time>2026-04-04T09:32:31.999Z</time></trkpt><trkpt lat="45.81090474010817" lon="8.854347440483075"><ele>365.0</ele><time>2026-04-04T09:32:32.999Z</time></trkpt><trkpt lat="45.810828688952085" lon="8.854405162960846"><ele>365.0</ele><time>2026-04-04T09:32:33.999Z</time></trkpt><trkpt lat="45.81074211990765" lon="8.854451362005014"><ele>365.0</ele><time>2026-04-04T09:32:34.999Z</time></trkpt><trkpt lat="45.810653133031074" lon="8.854500268574572"><ele>363.0</ele><time>2026-04-04T09:32:35.999Z</time></trkpt><trkpt lat="45.810560877237045" lon="8.854542993991787"><ele>361.0</ele><time>2026-04-04T09:32:36.999Z</time></trkpt><trkpt lat="45.81047406226169" lon="8.854579881172407"><ele>359.0</ele><time>2026-04-04T09:32:37.999Z</time></trkpt><trkpt lat="45.810389750868715" lon="8.85461900000842"><ele>357.0</ele><time>2026-04-04T09:32:38.999Z</time></trkpt><trkpt lat="45.810294152453594" lon="8.854662980547108"><ele>355.0</ele><time>2026-04-04T09:32:39.999Z</time></trkpt><trkpt lat="45.810192562464294" lon="8.854697851453015"><ele>353.8</ele><time>2026-04-04T09:32:40.999Z</time></trkpt><trkpt lat="45.81009271633014" lon="8.85474316091167"><ele>352.6</ele><time>2026-04-04T09:32:41.999Z</time></trkpt><trkpt lat="45.810004460442535" lon="8.854810772553545"><ele>351.4</ele><time>2026-04-04T09:32:42.999Z</time></trkpt><trkpt lat="45.809934938888134" lon="8.854917089149978"><ele>350.2</ele><time>2026-04-04T09:32:43.999Z</time></trkpt><trkpt lat="45.8098761673192" lon="8.855011551468014"><ele>349.0</ele><time>2026-04-04T09:32:44.999Z</time></trkpt><trkpt lat="45.80981230714728" lon="8.855109885582781"><ele>348.5</ele><time>2026-04-04T09:32:45.999Z</time></trkpt><trkpt lat="45.80974944967563" lon="8.855222098406898"><ele>348.0</ele><time>2026-04-04T09:32:46.999Z</time></trkpt><trkpt lat="45.80967405316052" lon="8.855380977678003"><ele>347.5</ele><time>2026-04-04T09:32:47.999Z</time></trkpt><trkpt lat="45.809606447858286" lon="8.855522808696708"><ele>347.0</ele><time>2026-04-04T09:32:48.999Z</time></trkpt><trkpt lat="45.80953691716213" lon="8.855671186342686"><ele>347.0</ele><time>2026-04-04T09:32:49.999Z</time></trkpt><trkpt lat="45.80944746379856" lon="8.855830417459284"><ele>347.0</ele><time>2026-04-04T09:32:50.999Z</time></trkpt><trkpt lat="45.80931701391736" lon="8.85603310522129"><ele>347.0</ele><time>2026-04-04T09:32:51.999Z</time></trkpt><trkpt lat="45.80915392010913" lon="8.856232873457675"><ele>346.0</ele><time>2026-04-04T09:32:52.999Z</time></trkpt><trkpt lat="45.809063860284446" lon="8.856448433348898"><ele>345.0</ele><time>2026-04-04T09:32:53.999Z</time></trkpt><trkpt lat="45.80901769450051" lon="8.856694256329126"><ele>344.0</ele><time>2026-04-04T09:32:54.999Z</time></trkpt><trkpt lat="45.809011282300204" lon="8.85700701636204"><ele>340.0</ele><time>2026-04-04T09:32:55.999Z</time></trkpt><trkpt lat="45.80900711383804" lon="8.857298630012748"><ele>336.0</ele><time>2026-04-04T09:32:56.999Z</time></trkpt><trkpt lat="45.80896909214241" lon="8.857656429445685"><ele>336.0</ele><time>2026-04-04T09:32:57.999Z</time></trkpt><trkpt lat="45.808945617827895" lon="8.857973901233517"><ele>336.0</ele><time>2026-04-04T09:32:58.999Z</time></trkpt><trkpt lat="45.80893533008053" lon="8.858222860962888"><ele>336.0</ele><time>2026-04-04T09:32:59.999Z</time></trkpt><trkpt lat="45.80891711076561" lon="8.858429923697706"><ele>335.20000000000005</ele><time>2026-04-04T09:33:00.999Z</time></trkpt><trkpt lat="45.80890396735364" lon="8.858591614417008"><ele>334.40000000000003</ele><time>2026-04-04T09:33:01.999Z</time></trkpt><trkpt lat="45.808885824616986" lon="8.858735204376638"><ele>333.6</ele><time>2026-04-04T09:33:02.999Z</time></trkpt><trkpt lat="45.80884353055311" lon="8.858878413611196"><ele>332.8</ele><time>2026-04-04T09:33:03.999Z</time></trkpt><trkpt lat="45.80878003686357" lon="8.859005695370733"><ele>332.0</ele><time>2026-04-04T09:33:04.997Z</time></trkpt><trkpt lat="45.80869084016358" lon="8.859099307305337"><ele>332.0</ele><time>2026-04-04T09:33:05.997Z</time></trkpt><trkpt lat="45.808572678220195" lon="8.859142902765235"><ele>332.0</ele><time>2026-04-04T09:33:06.997Z</time></trkpt><trkpt lat="45.808411682054974" lon="8.859193952243622"><ele>332.0</ele><time>2026-04-04T09:33:07.997Z</time></trkpt><trkpt lat="45.808203926294574" lon="8.85926537916819"><ele>325.0</ele><time>2026-04-04T09:33:08.997Z</time></trkpt><trkpt lat="45.8079723595893" lon="8.859364175119234"><ele>318.0</ele><time>2026-04-04T09:33:09.998Z</time></trkpt><trkpt lat="45.807737426326376" lon="8.859423929510402"><ele>317.3333333333333</ele><time>2026-04-04T09:33:10.998Z</time></trkpt><trkpt lat="45.80752321570506" lon="8.859505107015208"><ele>316.66666666666663</ele><time>2026-04-04T09:33:11.998Z</time></trkpt><trkpt lat="45.80733064118188" lon="8.859587814300342"><ele>316.0</ele><time>2026-04-04T09:33:12.998Z</time></trkpt><trkpt lat="45.807155810603106" lon="8.859707147186592"><ele>316.0</ele><time>2026-04-04T09:33:13.998Z</time></trkpt><trkpt lat="45.80700136559193" lon="8.859853284522682"><ele>316.0</ele><time>2026-04-04T09:33:14.998Z</time></trkpt><trkpt lat="45.806839486228355" lon="8.860038051012724"><ele>316.0</ele><time>2026-04-04T09:33:15.998Z</time></trkpt><trkpt lat="45.80668625394404" lon="8.860252585793813"><ele>313.3333333333333</ele><time>2026-04-04T09:33:16.998Z</time></trkpt><trkpt lat="45.80654370420998" lon="8.86050221847388"><ele>310.6666666666667</ele><time>2026-04-04T09:33:17.998Z</time></trkpt><trkpt lat="45.80641666731431" lon="8.86075735113183"><ele>308.0</ele><time>2026-04-04T09:33:18.998Z</time></trkpt><trkpt lat="45.806276599344194" lon="8.861031255534426"><ele>307.33333333333337</ele><time>2026-04-04T09:33:19.998Z</time></trkpt><trkpt lat="45.8061509021031" lon="8.861273112107579"><ele>306.6666666666667</ele><time>2026-04-04T09:33:20.998Z</time></trkpt><trkpt lat="45.80603244911726" lon="8.861506377950889"><ele>306.0</ele><time>2026-04-04T09:33:21.998Z</time></trkpt><trkpt lat="45.80591910390136" lon="8.861719878053766"><ele>306.0</ele><time>2026-04-04T09:33:22.998Z</time></trkpt><trkpt lat="45.80580771885116" lon="8.86192914906524"><ele>306.0</ele><time>2026-04-04T09:33:23.998Z</time></trkpt><trkpt lat="45.80570546595361" lon="8.862125861135793"><ele>306.0</ele><time>2026-04-04T09:33:24.998Z</time></trkpt><trkpt lat="45.805610153199495" lon="8.862325424064638"><ele>306.0</ele><time>2026-04-04T09:33:25.998Z</time></trkpt><trkpt lat="45.80552178112243" lon="8.862513807345366"><ele>306.0</ele><time>2026-04-04T09:33:26.999Z</time></trkpt><trkpt lat="45.80545028519854" lon="8.862659541822135"><ele>306.0</ele><time>2026-04-04T09:33:27.999Z</time></trkpt><trkpt lat="45.80538349440201" lon="8.862783767907043"><ele>306.0</ele><time>2026-04-04T09:33:28.999Z</time></trkpt><trkpt lat="45.805310791619355" lon="8.862888742493032"><ele>305.75</ele><time>2026-04-04T09:33:29.999Z</time></trkpt><trkpt lat="45.80522885701896" lon="8.862963935887839"><ele>305.5</ele><time>2026-04-04T09:33:30.999Z</time></trkpt><trkpt lat="45.80513894766362" lon="8.86301117339262"><ele>305.25</ele><time>2026-04-04T09:33:31.999Z</time></trkpt><trkpt lat="45.80502028486231" lon="8.863080800701322"><ele>305.0</ele><time>2026-04-04T09:33:32.999Z</time></trkpt><trkpt lat="45.80492872986925" lon="8.863228971020293"><ele>304.33333333333337</ele><time>2026-04-04T09:33:33.999Z</time></trkpt><trkpt lat="45.80487913825491" lon="8.863428690594773"><ele>303.6666666666667</ele><time>2026-04-04T09:33:34.999Z</time></trkpt><trkpt lat="45.80475605759803" lon="8.863672551260574"><ele>303.0</ele><time>2026-04-04T09:33:35.999Z</time></trkpt><trkpt lat="45.80460030416561" lon="8.86389409011853"><ele>306.0</ele><time>2026-04-04T09:33:36.999Z</time></trkpt><trkpt lat="45.80441864382575" lon="8.86409723619651"><ele>309.0</ele><time>2026-04-04T09:33:37.999Z</time></trkpt><trkpt lat="45.8042457059076" lon="8.864296872603587"><ele>317.0</ele><time>2026-04-04T09:33:38.999Z</time></trkpt><trkpt lat="45.80406897434172" lon="8.86446575223351"><ele>325.0</ele><time>2026-04-04T09:33:39.999Z</time></trkpt><trkpt lat="45.80386951086446" lon="8.864653008725616"><ele>325.0</ele><time>2026-04-04T09:33:40.999Z</time></trkpt><trkpt lat="45.803652954543914" lon="8.864857752135206"><ele>325.0</ele><time>2026-04-04T09:33:41.999Z</time></trkpt><trkpt lat="45.803439808134954" lon="8.865059726853568"><ele>325.66666666666663</ele><time>2026-04-04T09:33:42.999Z</time></trkpt><trkpt lat="45.803253760333405" lon="8.865229726681962"><ele>326.3333333333333</ele><time>2026-04-04T09:33:43.999Z</time></trkpt><trkpt lat="45.80308846713732" lon="8.865405103021496"><ele>327.0</ele><time>2026-04-04T09:33:44.999Z</time></trkpt><trkpt lat="45.80295733420349" lon="8.865636890654542"><ele>327.0</ele><time>2026-04-04T09:33:45.999Z</time></trkpt><trkpt lat="45.802834701442286" lon="8.865906285278934"><ele>327.0</ele><time>2026-04-04T09:33:46.999Z</time></trkpt><trkpt lat="45.80268952537708" lon="8.866167160697643"><ele>323.0</ele><time>2026-04-04T09:33:47.999Z</time></trkpt><trkpt lat="45.80250015754878" lon="8.866384880693735"><ele>319.0</ele><time>2026-04-04T09:33:48.999Z</time></trkpt><trkpt lat="45.802331137292086" lon="8.866574223603907"><ele>319.0</ele><time>2026-04-04T09:33:49.999Z</time></trkpt><trkpt lat="45.80217843750157" lon="8.866749392405096"><ele>319.0</ele><time>2026-04-04T09:33:50.999Z</time></trkpt><trkpt lat="45.80205287867176" lon="8.866948732543445"><ele>319.0</ele><time>2026-04-04T09:33:51.999Z</time></trkpt><trkpt lat="45.801958266917296" lon="8.867170146512688"><ele>316.66666666666663</ele><time>2026-04-04T09:33:52.999Z</time></trkpt><trkpt lat="45.801893462640926" lon="8.867385371799468"><ele>314.3333333333333</ele><time>2026-04-04T09:33:53.999Z</time></trkpt><trkpt lat="45.801824594480685" lon="8.867592548364948"><ele>312.0</ele><time>2026-04-04T09:33:54.999Z</time></trkpt><trkpt lat="45.80175410414391" lon="8.867794531798152"><ele>312.0</ele><time>2026-04-04T09:33:55.999Z</time></trkpt><trkpt lat="45.80170089590389" lon="8.867983362517665"><ele>312.0</ele><time>2026-04-04T09:33:56.999Z</time></trkpt><trkpt lat="45.80166853002379" lon="8.86817606812637"><ele>312.0</ele><time>2026-04-04T09:33:57.999Z</time></trkpt><trkpt lat="45.8016440872998" lon="8.868357473092885"><ele>312.0</ele><time>2026-04-04T09:33:58.999Z</time></trkpt><trkpt lat="45.80162405690506" lon="8.868530157170177"><ele>313.0</ele><time>2026-04-04T09:33:59.999Z</time></trkpt><trkpt lat="45.80160104255509" lon="8.868698409376051"><ele>314.0</ele><time>2026-04-04T09:34:00.999Z</time></trkpt><trkpt lat="45.80157939479399" lon="8.868862510771377"><ele>315.0</ele><time>2026-04-04T09:34:01.999Z</time></trkpt><trkpt lat="45.801558838313774" lon="8.868997017004043"><ele>316.0</ele><time>2026-04-04T09:34:02.999Z</time></trkpt><trkpt lat="45.801536199729405" lon="8.869107125741959"><ele>317.0</ele><time>2026-04-04T09:34:04.999Z</time></trkpt><trkpt lat="45.80152655732391" lon="8.869212632360641"><ele>318.33333333333337</ele><time>2026-04-04T09:34:09Z</time></trkpt><trkpt lat="45.80151699389454" lon="8.869329105823244"><ele>319.6666666666667</ele><time>2026-04-04T09:34:13Z</time></trkpt><trkpt lat="45.801504349607605" lon="8.86942037549713"><ele>321.0</ele><time>2026-04-04T09:34:16Z</time></trkpt><trkpt lat="45.80148425029055" lon="8.869547049787947"><ele>322.3333333333333</ele><time>2026-04-04T09:34:18Z</time></trkpt><trkpt lat="45.80147745889082" lon="8.869673201810562"><ele>323.66666666666663</ele><time>2026-04-04T09:34:20Z</time></trkpt><trkpt lat="45.801449708465" lon="8.869772526581565"><ele>325.0</ele><time>2026-04-04T09:34:21Z</time></trkpt><trkpt lat="45.80143338087781" lon="8.869903447569644"><ele>325.0</ele><time>2026-04-04T09:34:22Z</time></trkpt><trkpt lat="45.80141538469733" lon="8.870045172892752"><ele>325.0</ele><time>2026-04-04T09:34:23Z</time></trkpt><trkpt lat="45.801398118439344" lon="8.870194103788549"><ele>325.0</ele><time>2026-04-04T09:34:24Z</time></trkpt><trkpt lat="45.801382957953656" lon="8.870359027384442"><ele>325.0</ele><time>2026-04-04T09:34:25Z</time></trkpt><trkpt lat="45.8013743083668" lon="8.870492836248449"><ele>325.0</ele><time>2026-04-04T09:34:26Z</time></trkpt><trkpt lat="45.801370556233564" lon="8.870601977802266"><ele>323.0</ele><time>2026-04-04T09:34:27Z</time></trkpt><trkpt lat="45.80137501080389" lon="8.87078629387428"><ele>321.0</ele><time>2026-04-04T09:34:29Z</time></trkpt><trkpt lat="45.80141833120544" lon="8.870958702747677"><ele>319.0</ele><time>2026-04-04T09:34:31Z</time></trkpt><trkpt lat="45.80143792886417" lon="8.871100457554432"><ele>317.0</ele><time>2026-04-04T09:34:32Z</time></trkpt><trkpt lat="45.80148379506388" lon="8.871265471598523"><ele>315.0</ele><time>2026-04-04T09:34:33Z</time></trkpt><trkpt lat="45.801519197091736" lon="8.871390755469173"><ele>313.0</ele><time>2026-04-04T09:34:34Z</time></trkpt><trkpt lat="45.80155114431234" lon="8.87149392103141"><ele>311.0</ele><time>2026-04-04T09:34:35Z</time></trkpt><trkpt lat="45.801539021121435" lon="8.871622316930438"><ele>309.0</ele><time>2026-04-04T09:34:36Z</time></trkpt><trkpt lat="45.801502619379086" lon="8.87175483044125"><ele>307.0</ele><time>2026-04-04T09:34:37Z</time></trkpt><trkpt lat="45.80149239394824" lon="8.871863968313544"><ele>305.0</ele><time>2026-04-04T09:34:38Z</time></trkpt><trkpt lat="45.80152992155305" lon="8.871961940863851"><ele>305.4</ele><time>2026-04-04T09:34:39Z</time></trkpt><trkpt lat="45.80159166714595" lon="8.872028186543321"><ele>305.8</ele><time>2026-04-04T09:34:40Z</time></trkpt><trkpt lat="45.80166717822826" lon="8.872065049215987"><ele>306.2</ele><time>2026-04-04T09:34:41Z</time></trkpt><trkpt lat="45.80180504423905" lon="8.871955039156726"><ele>306.6</ele><time>2026-04-04T09:34:43Z</time></trkpt><trkpt lat="45.80185719175794" lon="8.871847949530162"><ele>307.0</ele><time>2026-04-04T09:34:44Z</time></trkpt><trkpt lat="45.8018732180946" lon="8.871731455694766"><ele>307.0</ele><time>2026-04-04T09:34:45Z</time></trkpt><trkpt lat="45.80196045366136" lon="8.871650809660656"><ele>307.0</ele><time>2026-04-04T09:34:46Z</time></trkpt><trkpt lat="45.802055342803165" lon="8.87158469019873"><ele>307.0</ele><time>2026-04-04T09:34:47Z</time></trkpt><trkpt lat="45.80215995190614" lon="8.871535309859912"><ele>307.0</ele><time>2026-04-04T09:34:48Z</time></trkpt><trkpt lat="45.802273267893035" lon="8.87150349706623"><ele>307.0</ele><time>2026-04-04T09:34:49Z</time></trkpt><trkpt lat="45.802411746577306" lon="8.871486787883317"><ele>307.0</ele><time>2026-04-04T09:34:50Z</time></trkpt><trkpt lat="45.802545240496144" lon="8.871480397673398"><ele>307.0</ele><time>2026-04-04T09:34:51Z</time></trkpt><trkpt lat="45.80268874003429" lon="8.871519792956175"><ele>307.0</ele><time>2026-04-04T09:34:52Z</time></trkpt><trkpt lat="45.80283095582212" lon="8.871611364369594"><ele>307.0</ele><time>2026-04-04T09:34:53Z</time></trkpt><trkpt lat="45.80294511205778" lon="8.87175500837052"><ele>309.0</ele><time>2026-04-04T09:34:55Z</time></trkpt><trkpt lat="45.8030942064971" lon="8.87181910497346"><ele>311.0</ele><time>2026-04-04T09:34:56Z</time></trkpt><trkpt lat="45.80313885648115" lon="8.8720194359054"><ele>313.0</ele><time>2026-04-04T09:34:57Z</time></trkpt><trkpt lat="45.80320945817794" lon="8.872194631466476"><ele>315.0</ele><time>2026-04-04T09:34:58Z</time></trkpt><trkpt lat="45.80330171604109" lon="8.872372251363567"><ele>315.0</ele><time>2026-04-04T09:34:59Z</time></trkpt><trkpt lat="45.80342933448694" lon="8.872596166483975"><ele>315.0</ele><time>2026-04-04T09:35:00Z</time></trkpt><trkpt lat="45.80356404302433" lon="8.872858332081035"><ele>315.0</ele><time>2026-04-04T09:35:01Z</time></trkpt><trkpt lat="45.80366042625407" lon="8.873085354731266"><ele>315.6666666666667</ele><time>2026-04-04T09:35:02Z</time></trkpt><trkpt lat="45.80375335525605" lon="8.873282130252461"><ele>316.33333333333337</ele><time>2026-04-04T09:35:03Z</time></trkpt><trkpt lat="45.803843041477144" lon="8.873457324904054"><ele>317.0</ele><time>2026-04-04T09:35:04Z</time></trkpt><trkpt lat="45.80392396316749" lon="8.873615405787273"><ele>317.0</ele><time>2026-04-04T09:35:05Z</time></trkpt><trkpt lat="45.80400962717729" lon="8.873777539522084"><ele>317.0</ele><time>2026-04-04T09:35:06Z</time></trkpt><trkpt lat="45.80411119227706" lon="8.874015180925085"><ele>317.0</ele><time>2026-04-04T09:35:07Z</time></trkpt><trkpt lat="45.80423577801332" lon="8.874295037892896"><ele>323.0</ele><time>2026-04-04T09:35:08Z</time></trkpt><trkpt lat="45.80437801868402" lon="8.874579871822046"><ele>329.0</ele><time>2026-04-04T09:35:09Z</time></trkpt><trkpt lat="45.80450545908425" lon="8.874843471448003"><ele>329.0</ele><time>2026-04-04T09:35:10Z</time></trkpt><trkpt lat="45.80462619749019" lon="8.87506756396447"><ele>329.0</ele><time>2026-04-04T09:35:10.999Z</time></trkpt><trkpt lat="45.80473414198133" lon="8.875266583046047"><ele>329.0</ele><time>2026-04-04T09:35:11.999Z</time></trkpt><trkpt lat="45.804835279311014" lon="8.875441060724516"><ele>331.25</ele><time>2026-04-04T09:35:12.999Z</time></trkpt><trkpt lat="45.80493972039455" lon="8.875573466839311"><ele>333.5</ele><time>2026-04-04T09:35:13.999Z</time></trkpt><trkpt lat="45.80505244974681" lon="8.875661454250091"><ele>335.75</ele><time>2026-04-04T09:35:14.999Z</time></trkpt><trkpt lat="45.805146311786224" lon="8.875693502558796"><ele>338.0</ele><time>2026-04-04T09:35:15.999Z</time></trkpt><trkpt lat="45.80528225344253" lon="8.875824358932578"><ele>335.33333333333337</ele><time>2026-04-04T09:35:16.999Z</time></trkpt><trkpt lat="45.805405100656365" lon="8.875987919036943"><ele>332.6666666666667</ele><time>2026-04-04T09:35:17.999Z</time></trkpt><trkpt lat="45.805523976111786" lon="8.876137174884297"><ele>330.0</ele><time>2026-04-04T09:35:18.999Z</time></trkpt><trkpt lat="45.80561564497858" lon="8.876278642898612"><ele>330.0</ele><time>2026-04-04T09:35:19.999Z</time></trkpt><trkpt lat="45.80570660110453" lon="8.876412567687819"><ele>330.0</ele><time>2026-04-04T09:35:20.999Z</time></trkpt><trkpt lat="45.80579984350438" lon="8.876560882319344"><ele>330.0</ele><time>2026-04-04T09:35:21.999Z</time></trkpt><trkpt lat="45.805896430253995" lon="8.876726837689697"><ele>330.0</ele><time>2026-04-04T09:35:22.999Z</time></trkpt><trkpt lat="45.80597454495139" lon="8.876913682609658"><ele>330.5</ele><time>2026-04-04T09:35:23.999Z</time></trkpt><trkpt lat="45.80604400270661" lon="8.87709836534478"><ele>331.0</ele><time>2026-04-04T09:35:24.999Z</time></trkpt><trkpt lat="45.80611464714857" lon="8.87727628894534"><ele>331.5</ele><time>2026-04-04T09:35:25.999Z</time></trkpt><trkpt lat="45.806197196349224" lon="8.877444325993366"><ele>332.0</ele><time>2026-04-04T09:35:26.999Z</time></trkpt><trkpt lat="45.80627358024509" lon="8.877616559057918"><ele>332.0</ele><time>2026-04-04T09:35:27.999Z</time></trkpt><trkpt lat="45.8063506653058" lon="8.877785965258663"><ele>332.0</ele><time>2026-04-04T09:35:28.999Z</time></trkpt><trkpt lat="45.80643271352603" lon="8.87795111404759"><ele>332.0</ele><time>2026-04-04T09:35:29.999Z</time></trkpt><trkpt lat="45.8065283199593" lon="8.87810681271013"><ele>332.0</ele><time>2026-04-04T09:35:30.999Z</time></trkpt><trkpt lat="45.806630730539084" lon="8.878242566859022"><ele>332.0</ele><time>2026-04-04T09:35:31.999Z</time></trkpt><trkpt lat="45.806767073253944" lon="8.878359278299115"><ele>332.0</ele><time>2026-04-04T09:35:33Z</time></trkpt><trkpt lat="45.80692928240399" lon="8.878534339693106"><ele>332.0</ele><time>2026-04-04T09:35:34Z</time></trkpt><trkpt lat="45.80711877209566" lon="8.878677532395198"><ele>333.6666666666667</ele><time>2026-04-04T09:35:35Z</time></trkpt><trkpt lat="45.807268250250154" lon="8.87880804157379"><ele>335.3333333333333</ele><time>2026-04-04T09:35:36Z</time></trkpt><trkpt lat="45.80740914219165" lon="8.878915172839255"><ele>337.0</ele><time>2026-04-04T09:35:37Z</time></trkpt><trkpt lat="45.80752725554205" lon="8.879007916528135"><ele>337.0</ele><time>2026-04-04T09:35:38Z</time></trkpt><trkpt lat="45.807629364051714" lon="8.879101199320406"><ele>337.0</ele><time>2026-04-04T09:35:39Z</time></trkpt><trkpt lat="45.8077246565712" lon="8.879206209272201"><ele>337.0</ele><time>2026-04-04T09:35:40Z</time></trkpt><trkpt lat="45.80782075296533" lon="8.879320267891629"><ele>337.0</ele><time>2026-04-04T09:35:41Z</time></trkpt><trkpt lat="45.807916151846285" lon="8.879439998213751"><ele>339.25</ele><time>2026-04-04T09:35:42Z</time></trkpt><trkpt lat="45.80800705335039" lon="8.879562899430557"><ele>341.5</ele><time>2026-04-04T09:35:43Z</time></trkpt><trkpt lat="45.8080969442839" lon="8.879683240591515"><ele>343.75</ele><time>2026-04-04T09:35:44Z</time></trkpt><trkpt lat="45.808186527205244" lon="8.879796728364765"><ele>346.0</ele><time>2026-04-04T09:35:45Z</time></trkpt><trkpt lat="45.80827784581562" lon="8.879908636109992"><ele>346.0</ele><time>2026-04-04T09:35:46Z</time></trkpt><trkpt lat="45.80838013147068" lon="8.87999516381259"><ele>346.0</ele><time>2026-04-04T09:35:47Z</time></trkpt><trkpt lat="45.80848162019962" lon="8.880035696065985"><ele>346.0</ele><time>2026-04-04T09:35:48Z</time></trkpt><trkpt lat="45.80859771729656" lon="8.880044215181591"><ele>346.0</ele><time>2026-04-04T09:35:49Z</time></trkpt><trkpt lat="45.80872619530215" lon="8.880035156949264"><ele>350.0</ele><time>2026-04-04T09:35:50Z</time></trkpt><trkpt lat="45.808852040692955" lon="8.879995046667604"><ele>354.0</ele><time>2026-04-04T09:35:51Z</time></trkpt><trkpt lat="45.80896654302783" lon="8.879906455578872"><ele>358.0</ele><time>2026-04-04T09:35:52Z</time></trkpt><trkpt lat="45.80906029766945" lon="8.879770856001327"><ele>362.0</ele><time>2026-04-04T09:35:53Z</time></trkpt><trkpt lat="45.80913195486769" lon="8.879622796700614"><ele>362.0</ele><time>2026-04-04T09:35:54Z</time></trkpt><trkpt lat="45.80918455071212" lon="8.879471842250041"><ele>362.0</ele><time>2026-04-04T09:35:55Z</time></trkpt><trkpt lat="45.809202943229245" lon="8.87925261847743"><ele>362.0</ele><time>2026-04-04T09:35:56Z</time></trkpt><trkpt lat="45.809190921069515" lon="8.878926253596957"><ele>362.0</ele><time>2026-04-04T09:35:57Z</time></trkpt><trkpt lat="45.80918243794071" lon="8.87852186344526"><ele>362.0</ele><time>2026-04-04T09:35:58Z</time></trkpt><trkpt lat="45.809174157352835" lon="8.878132756015667"><ele>361.6666666666667</ele><time>2026-04-04T09:35:59Z</time></trkpt><trkpt lat="45.80916641981025" lon="8.877803756440512"><ele>361.3333333333333</ele><time>2026-04-04T09:36:00Z</time></trkpt><trkpt lat="45.809159281837815" lon="8.877541877927037"><ele>361.0</ele><time>2026-04-04T09:36:01Z</time></trkpt><trkpt lat="45.809179883058036" lon="8.87731206146629"><ele>360.66666666666663</ele><time>2026-04-04T09:36:02Z</time></trkpt><trkpt lat="45.80923764163381" lon="8.87709882079282"><ele>360.3333333333333</ele><time>2026-04-04T09:36:03Z</time></trkpt><trkpt lat="45.80933261041426" lon="8.876897543242737"><ele>360.0</ele><time>2026-04-04T09:36:04Z</time></trkpt><trkpt lat="45.80945718342015" lon="8.876737895304819"><ele>364.6666666666667</ele><time>2026-04-04T09:36:05Z</time></trkpt><trkpt lat="45.80961565256693" lon="8.876639263700335"><ele>369.33333333333337</ele><time>2026-04-04T09:36:06Z</time></trkpt><trkpt lat="45.809781073858055" lon="8.876578715141966"><ele>374.0</ele><time>2026-04-04T09:36:07Z</time></trkpt><trkpt lat="45.80995368944341" lon="8.876574080478916"><ele>374.0</ele><time>2026-04-04T09:36:08Z</time></trkpt><trkpt lat="45.81012050531627" lon="8.87664191735926"><ele>374.0</ele><time>2026-04-04T09:36:09Z</time></trkpt><trkpt lat="45.81028008616423" lon="8.876765108474657"><ele>374.0</ele><time>2026-04-04T09:36:10Z</time></trkpt><trkpt lat="45.81041025197111" lon="8.876937231184302"><ele>374.33333333333337</ele><time>2026-04-04T09:36:11Z</time></trkpt><trkpt lat="45.81050257492757" lon="8.877153293409718"><ele>374.6666666666667</ele><time>2026-04-04T09:36:12Z</time></trkpt><trkpt lat="45.81055788298614" lon="8.877392871297173"><ele>375.0</ele><time>2026-04-04T09:36:13Z</time></trkpt><trkpt lat="45.810575345976545" lon="8.877666265403324"><ele>375.5</ele><time>2026-04-04T09:36:14Z</time></trkpt><trkpt lat="45.81055967831229" lon="8.878004034482762"><ele>376.0</ele><time>2026-04-04T09:36:15Z</time></trkpt><trkpt lat="45.81050391510935" lon="8.878365546195822"><ele>376.66666666666663</ele><time>2026-04-04T09:36:16Z</time></trkpt><trkpt lat="45.810449149426304" lon="8.878694556112876"><ele>377.3333333333333</ele><time>2026-04-04T09:36:17Z</time></trkpt><trkpt lat="45.810426730216655" lon="8.878976303052934"><ele>378.0</ele><time>2026-04-04T09:36:18Z</time></trkpt><trkpt lat="45.810465393437696" lon="8.879245766034234"><ele>377.6666666666667</ele><time>2026-04-04T09:36:19Z</time></trkpt><trkpt lat="45.810555533840315" lon="8.879480831413854"><ele>377.33333333333337</ele><time>2026-04-04T09:36:20Z</time></trkpt><trkpt lat="45.8106937514181" lon="8.879686866759625"><ele>377.0</ele><time>2026-04-04T09:36:21Z</time></trkpt><trkpt lat="45.810873235758244" lon="8.879841871878662"><ele>378.0</ele><time>2026-04-04T09:36:22Z</time></trkpt><trkpt lat="45.81110952768568" lon="8.87996930142134"><ele>379.0</ele><time>2026-04-04T09:36:23Z</time></trkpt><trkpt lat="45.81131347197484" lon="8.880067361651294"><ele>380.0</ele><time>2026-04-04T09:36:24Z</time></trkpt><trkpt lat="45.81148466555273" lon="8.880167642304823"><ele>381.0</ele><time>2026-04-04T09:36:25Z</time></trkpt><trkpt lat="45.81163994241096" lon="8.880268603730036"><ele>382.0</ele><time>2026-04-04T09:36:26Z</time></trkpt><trkpt lat="45.81179204624866" lon="8.880364234326365"><ele>383.3333333333333</ele><time>2026-04-04T09:36:27Z</time></trkpt><trkpt lat="45.811939667747474" lon="8.880455430981675"><ele>384.66666666666663</ele><time>2026-04-04T09:36:28Z</time></trkpt><trkpt lat="45.81209530489029" lon="8.880548635875336"><ele>386.0</ele><time>2026-04-04T09:36:29Z</time></trkpt><trkpt lat="45.812242018691485" lon="8.880641199668057"><ele>386.0</ele><time>2026-04-04T09:36:30Z</time></trkpt><trkpt lat="45.812391523547255" lon="8.880733049620533"><ele>386.0</ele><time>2026-04-04T09:36:31Z</time></trkpt><trkpt lat="45.81254484153109" lon="8.88082815130522"><ele>386.0</ele><time>2026-04-04T09:36:32Z</time></trkpt><trkpt lat="45.812702688787276" lon="8.880925354304724"><ele>386.3333333333333</ele><time>2026-04-04T09:36:33Z</time></trkpt><trkpt lat="45.81286181599733" lon="8.881022219087496"><ele>386.66666666666663</ele><time>2026-04-04T09:36:34Z</time></trkpt><trkpt lat="45.81301543571941" lon="8.88112232967017"><ele>387.0</ele><time>2026-04-04T09:36:35Z</time></trkpt><trkpt lat="45.81315789553769" lon="8.88120985455305"><ele>387.0</ele><time>2026-04-04T09:36:36.001Z</time></trkpt><trkpt lat="45.8132940774773" lon="8.88129456347692"><ele>387.0</ele><time>2026-04-04T09:36:37.001Z</time></trkpt><trkpt lat="45.81344758733313" lon="8.881391176101847"><ele>387.0</ele><time>2026-04-04T09:36:38.001Z</time></trkpt><trkpt lat="45.81360947537972" lon="8.881490730248634"><ele>387.0</ele><time>2026-04-04T09:36:39.001Z</time></trkpt><trkpt lat="45.81376973129576" lon="8.88158809771455"><ele>387.0</ele><time>2026-04-04T09:36:40.001Z</time></trkpt><trkpt lat="45.81392314171456" lon="8.881681748899007"><ele>387.0</ele><time>2026-04-04T09:36:41.001Z</time></trkpt><trkpt lat="45.81407809205699" lon="8.881778135559859"><ele>387.0</ele><time>2026-04-04T09:36:42.001Z</time></trkpt><trkpt lat="45.814225247207006" lon="8.881869161413476"><ele>387.0</ele><time>2026-04-04T09:36:43.001Z</time></trkpt><trkpt lat="45.81435934940724" lon="8.88195750688878"><ele>387.0</ele><time>2026-04-04T09:36:44.001Z</time></trkpt><trkpt lat="45.814483422054536" lon="8.882039560456173"><ele>387.0</ele><time>2026-04-04T09:36:45.001Z</time></trkpt><trkpt lat="45.81460421829286" lon="8.882118789764807"><ele>387.0</ele><time>2026-04-04T09:36:46.001Z</time></trkpt><trkpt lat="45.8147352827653" lon="8.882201800312583"><ele>387.0</ele><time>2026-04-04T09:36:47.001Z</time></trkpt><trkpt lat="45.814864895998575" lon="8.88228160577255"><ele>387.0</ele><time>2026-04-04T09:36:48.001Z</time></trkpt><trkpt lat="45.814993403239825" lon="8.882359088022385"><ele>387.0</ele><time>2026-04-04T09:36:49.001Z</time></trkpt><trkpt lat="45.815116946998444" lon="8.882428763552301"><ele>388.0</ele><time>2026-04-04T09:36:50.001Z</time></trkpt><trkpt lat="45.81523302575836" lon="8.882489658657947"><ele>389.0</ele><time>2026-04-04T09:36:51.001Z</time></trkpt><trkpt lat="45.81535886231829" lon="8.882547646487925"><ele>390.0</ele><time>2026-04-04T09:36:52.001Z</time></trkpt><trkpt lat="45.81548836012228" lon="8.882600080526935"><ele>391.0</ele><time>2026-04-04T09:36:53.001Z</time></trkpt><trkpt lat="45.81560559764633" lon="8.882636603628718"><ele>391.8</ele><time>2026-04-04T09:36:54.001Z</time></trkpt><trkpt lat="45.81571890270903" lon="8.882662748784918"><ele>392.6</ele><time>2026-04-04T09:36:55.001Z</time></trkpt><trkpt lat="45.81582068338502" lon="8.882682564042318"><ele>393.4</ele><time>2026-04-04T09:36:56.001Z</time></trkpt><trkpt lat="45.81591959978873" lon="8.882690319085112"><ele>394.2</ele><time>2026-04-04T09:36:57.001Z</time></trkpt><trkpt lat="45.816018463243545" lon="8.882698181040125"><ele>395.0</ele><time>2026-04-04T09:36:58.001Z</time></trkpt><trkpt lat="45.816124036268434" lon="8.88270627644111"><ele>395.0</ele><time>2026-04-04T09:36:59.001Z</time></trkpt><trkpt lat="45.816229958764346" lon="8.882707756142091"><ele>395.0</ele><time>2026-04-04T09:37:00.001Z</time></trkpt><trkpt lat="45.816326870656646" lon="8.882701894789555"><ele>395.0</ele><time>2026-04-04T09:37:01.001Z</time></trkpt><trkpt lat="45.81642031454039" lon="8.882699427774426"><ele>395.0</ele><time>2026-04-04T09:37:02.001Z</time></trkpt><trkpt lat="45.81649994884449" lon="8.882712932863054"><ele>395.0</ele><time>2026-04-04T09:37:03.001Z</time></trkpt><trkpt lat="45.816574964604854" lon="8.882753621526488"><ele>394.99999999999994</ele><time>2026-04-04T09:37:04.001Z</time></trkpt><trkpt lat="45.816645468152586" lon="8.882800343585656"><ele>395.0</ele><time>2026-04-04T09:37:05.001Z</time></trkpt><trkpt lat="45.81672580125984" lon="8.88282759780826"><ele>395.0</ele><time>2026-04-04T09:37:06.001Z</time></trkpt><trkpt lat="45.81681833861058" lon="8.882835292941714"><ele>395.0</ele><time>2026-04-04T09:37:07.001Z</time></trkpt><trkpt lat="45.81689847650587" lon="8.8827774009205"><ele>394.99999999999994</ele><time>2026-04-04T09:37:08.001Z</time></trkpt><trkpt lat="45.816971759921806" lon="8.882684446541194"><ele>395.0</ele><time>2026-04-04T09:37:09.001Z</time></trkpt><trkpt lat="45.81704943890756" lon="8.882612844294021"><ele>394.6</ele><time>2026-04-04T09:37:10.001Z</time></trkpt><trkpt lat="45.817149014688944" lon="8.88257324390828"><ele>394.2</ele><time>2026-04-04T09:37:11.001Z</time></trkpt><trkpt lat="45.81725933637106" lon="8.88254786436399"><ele>393.79999999999995</ele><time>2026-04-04T09:37:12.001Z</time></trkpt><trkpt lat="45.81737546410624" lon="8.882526477326879"><ele>393.4</ele><time>2026-04-04T09:37:13.001Z</time></trkpt><trkpt lat="45.817490658461665" lon="8.882506990400241"><ele>393.0</ele><time>2026-04-04T09:37:14.001Z</time></trkpt><trkpt lat="45.81760356170121" lon="8.882489013038924"><ele>394.0</ele><time>2026-04-04T09:37:15.001Z</time></trkpt><trkpt lat="45.817719048019136" lon="8.882471706329108"><ele>395.0</ele><time>2026-04-04T09:37:16.001Z</time></trkpt><trkpt lat="45.81783582724538" lon="8.882455456761576"><ele>396.0</ele><time>2026-04-04T09:37:17Z</time></trkpt><trkpt lat="45.817947423581465" lon="8.882433328995802"><ele>397.0</ele><time>2026-04-04T09:37:18Z</time></trkpt><trkpt lat="45.81805683453555" lon="8.882411580307322"><ele>397.0</ele><time>2026-04-04T09:37:19Z</time></trkpt><trkpt lat="45.818170700681605" lon="8.882388922320674"><ele>397.0</ele><time>2026-04-04T09:37:20Z</time></trkpt><trkpt lat="45.8182780721614" lon="8.882371026701007"><ele>397.0</ele><time>2026-04-04T09:37:21Z</time></trkpt><trkpt lat="45.8183834825887" lon="8.882353751487091"><ele>397.0</ele><time>2026-04-04T09:37:22Z</time></trkpt><trkpt lat="45.81849052608119" lon="8.882336791243672"><ele>397.0</ele><time>2026-04-04T09:37:23Z</time></trkpt><trkpt lat="45.81859219850301" lon="8.88231838282829"><ele>397.6</ele><time>2026-04-04T09:37:24Z</time></trkpt><trkpt lat="45.818687735122445" lon="8.882299863362093"><ele>398.20000000000005</ele><time>2026-04-04T09:37:25Z</time></trkpt><trkpt lat="45.81878702753175" lon="8.882278467046744"><ele>398.8</ele><time>2026-04-04T09:37:26Z</time></trkpt><trkpt lat="45.8188901706854" lon="8.882253544323238"><ele>399.4</ele><time>2026-04-04T09:37:27Z</time></trkpt><trkpt lat="45.81898631624944" lon="8.882239563253611"><ele>400.0</ele><time>2026-04-04T09:37:28Z</time></trkpt><trkpt lat="45.819085191268776" lon="8.882223241877746"><ele>400.0</ele><time>2026-04-04T09:37:29Z</time></trkpt><trkpt lat="45.8191870475119" lon="8.88220867653381"><ele>400.0</ele><time>2026-04-04T09:37:30Z</time></trkpt><trkpt lat="45.81929233840039" lon="8.88219007572677"><ele>400.0</ele><time>2026-04-04T09:37:31Z</time></trkpt><trkpt lat="45.81940494533815" lon="8.882172233530193"><ele>400.0</ele><time>2026-04-04T09:37:32Z</time></trkpt><trkpt lat="45.8195526016711" lon="8.882162243530798"><ele>400.6666666666667</ele><time>2026-04-04T09:37:33Z</time></trkpt><trkpt lat="45.81973288235584" lon="8.882158154272012"><ele>401.33333333333337</ele><time>2026-04-04T09:37:34Z</time></trkpt><trkpt lat="45.8199449534885" lon="8.882164296429254"><ele>402.0</ele><time>2026-04-04T09:37:35Z</time></trkpt><trkpt lat="45.82018312155982" lon="8.882182112942546"><ele>403.0</ele><time>2026-04-04T09:37:36Z</time></trkpt><trkpt lat="45.82043622423518" lon="8.882220990662052"><ele>404.0</ele><time>2026-04-04T09:37:37Z</time></trkpt><trkpt lat="45.8206797240577" lon="8.882281476313816"><ele>404.0</ele><time>2026-04-04T09:37:38Z</time></trkpt><trkpt lat="45.820923431833485" lon="8.882363828005586"><ele>404.0</ele><time>2026-04-04T09:37:39Z</time></trkpt><trkpt lat="45.82114131794764" lon="8.882452285311556"><ele>401.0</ele><time>2026-04-04T09:37:40Z</time></trkpt><trkpt lat="45.821391902514364" lon="8.882579453077975"><ele>398.0</ele><time>2026-04-04T09:37:41Z</time></trkpt><trkpt lat="45.82163880529373" lon="8.882726777448587"><ele>395.5</ele><time>2026-04-04T09:37:42Z</time></trkpt><trkpt lat="45.82187939817901" lon="8.882897256293472"><ele>393.0</ele><time>2026-04-04T09:37:43Z</time></trkpt><trkpt lat="45.82211302046457" lon="8.88309411374017"><ele>393.0</ele><time>2026-04-04T09:37:44Z</time></trkpt><trkpt lat="45.82234415784293" lon="8.883311273768362"><ele>393.0</ele><time>2026-04-04T09:37:45Z</time></trkpt><trkpt lat="45.82256790816828" lon="8.883537721009471"><ele>395.5</ele><time>2026-04-04T09:37:46Z</time></trkpt><trkpt lat="45.82279328422128" lon="8.883772370379685"><ele>398.0</ele><time>2026-04-04T09:37:47Z</time></trkpt><trkpt lat="45.8230139347769" lon="8.884001215231839"><ele>398.0</ele><time>2026-04-04T09:37:48Z</time></trkpt><trkpt lat="45.8232310755242" lon="8.88422706215014"><ele>398.0</ele><time>2026-04-04T09:37:49Z</time></trkpt><trkpt lat="45.823454906132966" lon="8.884460229301062"><ele>399.0</ele><time>2026-04-04T09:37:50Z</time></trkpt><trkpt lat="45.82367945161462" lon="8.884694142783552"><ele>400.0</ele><time>2026-04-04T09:37:51Z</time></trkpt><trkpt lat="45.82390604796601" lon="8.884930191086077"><ele>401.5</ele><time>2026-04-04T09:37:52Z</time></trkpt><trkpt lat="45.82413073932613" lon="8.885164254931112"><ele>403.0</ele><time>2026-04-04T09:37:53Z</time></trkpt><trkpt lat="45.8243342366084" lon="8.885376240643849"><ele>403.0</ele><time>2026-04-04T09:37:54Z</time></trkpt><trkpt lat="45.82453134184812" lon="8.88555442049911"><ele>403.0</ele><time>2026-04-04T09:37:55Z</time></trkpt><trkpt lat="45.82470300198215" lon="8.885739623716551"><ele>403.0</ele><time>2026-04-04T09:37:56Z</time></trkpt><trkpt lat="45.8248719280834" lon="8.885912615668735"><ele>404.0</ele><time>2026-04-04T09:37:57Z</time></trkpt><trkpt lat="45.82504416216712" lon="8.886092015620461"><ele>405.0</ele><time>2026-04-04T09:37:58Z</time></trkpt><trkpt lat="45.82521400498316" lon="8.886291703861659"><ele>406.0</ele><time>2026-04-04T09:37:59Z</time></trkpt><trkpt lat="45.82539425815989" lon="8.886479028738158"><ele>406.0</ele><time>2026-04-04T09:38:00Z</time></trkpt><trkpt lat="45.825582325325556" lon="8.886674474161687"><ele>406.0</ele><time>2026-04-04T09:38:01Z</time></trkpt><trkpt lat="45.825785201312875" lon="8.886858514579673"><ele>408.0</ele><time>2026-04-04T09:38:02Z</time></trkpt><trkpt lat="45.82599241454499" lon="8.887075721182873"><ele>410.0</ele><time>2026-04-04T09:38:03Z</time></trkpt><trkpt lat="45.82619179200328" lon="8.887307468395193"><ele>410.0</ele><time>2026-04-04T09:38:04Z</time></trkpt><trkpt lat="45.826399965570644" lon="8.8875225660939"><ele>410.0</ele><time>2026-04-04T09:38:05Z</time></trkpt><trkpt lat="45.82660853047209" lon="8.887709808447623"><ele>410.5</ele><time>2026-04-04T09:38:06Z</time></trkpt><trkpt lat="45.8268153067647" lon="8.887929429024117"><ele>411.0</ele><time>2026-04-04T09:38:07Z</time></trkpt><trkpt lat="45.82702033883189" lon="8.888148975487887"><ele>411.0</ele><time>2026-04-04T09:38:08Z</time></trkpt><trkpt lat="45.82722536498546" lon="8.88835965928429"><ele>411.0</ele><time>2026-04-04T09:38:09Z</time></trkpt><trkpt lat="45.82740822112893" lon="8.88855084457194"><ele>411.66666666666663</ele><time>2026-04-04T09:38:10Z</time></trkpt><trkpt lat="45.82757690839647" lon="8.88873076907095"><ele>412.3333333333333</ele><time>2026-04-04T09:38:11Z</time></trkpt><trkpt lat="45.827733935482335" lon="8.888888733788193"><ele>413.0</ele><time>2026-04-04T09:38:12Z</time></trkpt><trkpt lat="45.82789231919455" lon="8.889056422238093"><ele>413.3333333333333</ele><time>2026-04-04T09:38:13Z</time></trkpt><trkpt lat="45.82806013103068" lon="8.889222897021739"><ele>413.66666666666663</ele><time>2026-04-04T09:38:14Z</time></trkpt><trkpt lat="45.82823041037796" lon="8.889395694768426"><ele>414.0</ele><time>2026-04-04T09:38:15Z</time></trkpt><trkpt lat="45.82840578878277" lon="8.889575456156287"><ele>414.0</ele><time>2026-04-04T09:38:16.001Z</time></trkpt><trkpt lat="45.828587042367005" lon="8.88976280510914"><ele>414.0</ele><time>2026-04-04T09:38:17.001Z</time></trkpt><trkpt lat="45.828770532313996" lon="8.889965841494613"><ele>414.5</ele><time>2026-04-04T09:38:18.001Z</time></trkpt><trkpt lat="45.828965886646095" lon="8.890164961549292"><ele>415.0</ele><time>2026-04-04T09:38:19.001Z</time></trkpt><trkpt lat="45.82914777645452" lon="8.89038260956985"><ele>413.5</ele><time>2026-04-04T09:38:20.001Z</time></trkpt><trkpt lat="45.82933937517007" lon="8.890582311254603"><ele>412.0</ele><time>2026-04-04T09:38:21.001Z</time></trkpt><trkpt lat="45.82953442764544" lon="8.890747294242168"><ele>410.0</ele><time>2026-04-04T09:38:22.001Z</time></trkpt><trkpt lat="45.829722191218025" lon="8.890941234856406"><ele>408.0</ele><time>2026-04-04T09:38:23.001Z</time></trkpt><trkpt lat="45.82992432499195" lon="8.891149875484842"><ele>408.0</ele><time>2026-04-04T09:38:24.001Z</time></trkpt><trkpt lat="45.83012807018247" lon="8.891362125365685"><ele>408.0</ele><time>2026-04-04T09:38:25.001Z</time></trkpt><trkpt lat="45.830331755481716" lon="8.891577525351718"><ele>408.0</ele><time>2026-04-04T09:38:26.001Z</time></trkpt><trkpt lat="45.8305444914514" lon="8.891790411118155"><ele>408.0</ele><time>2026-04-04T09:38:27.001Z</time></trkpt><trkpt lat="45.83076763331107" lon="8.892010919854796"><ele>406.0</ele><time>2026-04-04T09:38:28.001Z</time></trkpt><trkpt lat="45.8310115157453" lon="8.892251075566762"><ele>404.0</ele><time>2026-04-04T09:38:29.001Z</time></trkpt><trkpt lat="45.83124878992671" lon="8.89250340454181"><ele>406.0</ele><time>2026-04-04T09:38:30.001Z</time></trkpt><trkpt lat="45.83147871828031" lon="8.892765841511403"><ele>408.0</ele><time>2026-04-04T09:38:31.001Z</time></trkpt><trkpt lat="45.83171503207815" lon="8.893029231669367"><ele>408.5</ele><time>2026-04-04T09:38:32.001Z</time></trkpt><trkpt lat="45.83194961843974" lon="8.893280742737197"><ele>409.0</ele><time>2026-04-04T09:38:33.001Z</time></trkpt><trkpt lat="45.83219045148775" lon="8.893533712621926"><ele>409.0</ele><time>2026-04-04T09:38:34.001Z</time></trkpt><trkpt lat="45.832435020578714" lon="8.893781496732753"><ele>409.0</ele><time>2026-04-04T09:38:35.001Z</time></trkpt><trkpt lat="45.83267502553522" lon="8.894027155773067"><ele>410.0</ele><time>2026-04-04T09:38:36.001Z</time></trkpt><trkpt lat="45.83291586175504" lon="8.894275531571775"><ele>411.0</ele><time>2026-04-04T09:38:37.001Z</time></trkpt><trkpt lat="45.83315530833768" lon="8.894521731170082"><ele>411.0</ele><time>2026-04-04T09:38:38.001Z</time></trkpt><trkpt lat="45.83339745212004" lon="8.894774493399543"><ele>411.0</ele><time>2026-04-04T09:38:39.001Z</time></trkpt><trkpt lat="45.83363572206827" lon="8.895025452179507"><ele>414.5</ele><time>2026-04-04T09:38:40.001Z</time></trkpt><trkpt lat="45.83387881228092" lon="8.895270173086407"><ele>418.0</ele><time>2026-04-04T09:38:41.001Z</time></trkpt><trkpt lat="45.83411350266629" lon="8.895518293741288"><ele>418.0</ele><time>2026-04-04T09:38:42.001Z</time></trkpt><trkpt lat="45.83435024297914" lon="8.895761717324907"><ele>418.0</ele><time>2026-04-04T09:38:43.001Z</time></trkpt><trkpt lat="45.834587343900715" lon="8.89601102317386"><ele>418.0</ele><time>2026-04-04T09:38:44.001Z</time></trkpt><trkpt lat="45.83481636760612" lon="8.896258261230336"><ele>418.0</ele><time>2026-04-04T09:38:45.001Z</time></trkpt><trkpt lat="45.8350382124444" lon="8.896525585206357"><ele>417.5</ele><time>2026-04-04T09:38:46.001Z</time></trkpt><trkpt lat="45.83524539413493" lon="8.896808793526638"><ele>417.0</ele><time>2026-04-04T09:38:47.001Z</time></trkpt><trkpt lat="45.83543275054748" lon="8.897111294922617"><ele>417.0</ele><time>2026-04-04T09:38:48.001Z</time></trkpt><trkpt lat="45.83561079424938" lon="8.897435311632124"><ele>417.0</ele><time>2026-04-04T09:38:49.001Z</time></trkpt><trkpt lat="45.83577173643989" lon="8.897768828798696"><ele>414.5</ele><time>2026-04-04T09:38:50.001Z</time></trkpt><trkpt lat="45.83590028577659" lon="8.898068348401381"><ele>412.0</ele><time>2026-04-04T09:38:51.001Z</time></trkpt><trkpt lat="45.8360138177087" lon="8.898401904665269"><ele>410.0</ele><time>2026-04-04T09:38:52.001Z</time></trkpt><trkpt lat="45.83610821795851" lon="8.898715120367962"><ele>408.0</ele><time>2026-04-04T09:38:53.001Z</time></trkpt><trkpt lat="45.83619273316603" lon="8.89902260220912"><ele>406.0</ele><time>2026-04-04T09:38:54.001Z</time></trkpt><trkpt lat="45.83626899728426" lon="8.899338952492451"><ele>404.0</ele><time>2026-04-04T09:38:55.001Z</time></trkpt><trkpt lat="45.836330755068886" lon="8.89966695796853"><ele>404.0</ele><time>2026-04-04T09:38:56.001Z</time></trkpt><trkpt lat="45.836381569195055" lon="8.899986964939748"><ele>404.0</ele><time>2026-04-04T09:38:57.001Z</time></trkpt><trkpt lat="45.83642137641271" lon="8.900285920758432"><ele>404.0</ele><time>2026-04-04T09:38:58.001Z</time></trkpt><trkpt lat="45.836453700418396" lon="8.900570003977696"><ele>403.66666666666663</ele><time>2026-04-04T09:38:59.001Z</time></trkpt><trkpt lat="45.83648411491702" lon="8.90083500652598"><ele>403.33333333333337</ele><time>2026-04-04T09:39:00.001Z</time></trkpt><trkpt lat="45.83651763762155" lon="8.901095386273512"><ele>403.0</ele><time>2026-04-04T09:39:01.001Z</time></trkpt><trkpt lat="45.83654844199009" lon="8.901344154109328"><ele>403.0</ele><time>2026-04-04T09:39:02.001Z</time></trkpt><trkpt lat="45.836580700535194" lon="8.901596098910815"><ele>403.0</ele><time>2026-04-04T09:39:03.001Z</time></trkpt><trkpt lat="45.83661465019401" lon="8.901848376979608"><ele>403.0</ele><time>2026-04-04T09:39:04.001Z</time></trkpt><trkpt lat="45.836641783604684" lon="8.90207575073358"><ele>402.0</ele><time>2026-04-04T09:39:05.001Z</time></trkpt><trkpt lat="45.836671566845055" lon="8.902293253927676"><ele>401.0</ele><time>2026-04-04T09:39:06.001Z</time></trkpt><trkpt lat="45.83669858268729" lon="8.902503027038138"><ele>400.0</ele><time>2026-04-04T09:39:07.001Z</time></trkpt><trkpt lat="45.836722299458565" lon="8.90272191362651"><ele>400.0</ele><time>2026-04-04T09:39:08.001Z</time></trkpt><trkpt lat="45.83674479591828" lon="8.902910682781423"><ele>400.0</ele><time>2026-04-04T09:39:09.001Z</time></trkpt><trkpt lat="45.836771700050676" lon="8.903117595909961"><ele>400.0</ele><time>2026-04-04T09:39:10.001Z</time></trkpt><trkpt lat="45.83679659233349" lon="8.90330741138909"><ele>400.0</ele><time>2026-04-04T09:39:11.001Z</time></trkpt><trkpt lat="45.83682066522504" lon="8.903489778168062"><ele>402.0</ele><time>2026-04-04T09:39:12.001Z</time></trkpt><trkpt lat="45.83684533845889" lon="8.903669753875795"><ele>404.0</ele><time>2026-04-04T09:39:13.001Z</time></trkpt><trkpt lat="45.83687778325774" lon="8.90386761556559"><ele>406.0</ele><time>2026-04-04T09:39:14.001Z</time></trkpt><trkpt lat="45.83690317111722" lon="8.904056601315123"><ele>408.0</ele><time>2026-04-04T09:39:15.001Z</time></trkpt><trkpt lat="45.83691722343938" lon="8.904227100762828"><ele>405.4</ele><time>2026-04-04T09:39:16.001Z</time></trkpt><trkpt lat="45.836938065697396" lon="8.904379965130575"><ele>402.79999999999995</ele><time>2026-04-04T09:39:17.001Z</time></trkpt><trkpt lat="45.83696060191647" lon="8.904527482171316"><ele>400.2</ele><time>2026-04-04T09:39:18.001Z</time></trkpt><trkpt lat="45.83698158807121" lon="8.90467130897244"><ele>397.6</ele><time>2026-04-04T09:39:19.001Z</time></trkpt><trkpt lat="45.83699538090092" lon="8.904798638179123"><ele>395.0</ele><time>2026-04-04T09:39:20.001Z</time></trkpt><trkpt lat="45.83700547335786" lon="8.904911156659633"><ele>394.99999999999994</ele><time>2026-04-04T09:39:21.001Z</time></trkpt><trkpt lat="45.83701851730032" lon="8.905039554640084"><ele>395.0</ele><time>2026-04-04T09:39:22.001Z</time></trkpt><trkpt lat="45.83703119342567" lon="8.90516304092477"><ele>395.0</ele><time>2026-04-04T09:39:23Z</time></trkpt><trkpt lat="45.837040673060905" lon="8.905269198152633"><ele>395.0</ele><time>2026-04-04T09:39:24Z</time></trkpt><trkpt lat="45.83704048120034" lon="8.905379633658907"><ele>394.99999999999994</ele><time>2026-04-04T09:39:25Z</time></trkpt><trkpt lat="45.83703635373996" lon="8.905483237423374"><ele>395.0</ele><time>2026-04-04T09:39:26Z</time></trkpt><trkpt lat="45.8370218033498" lon="8.905585729388196"><ele>393.8333333333333</ele><time>2026-04-04T09:39:27Z</time></trkpt><trkpt lat="45.83698751787324" lon="8.905664850949297"><ele>392.66666666666663</ele><time>2026-04-04T09:39:28Z</time></trkpt><trkpt lat="45.83687977340252" lon="8.905689889053154"><ele>391.5</ele><time>2026-04-04T09:39:30Z</time></trkpt><trkpt lat="45.8367896475013" lon="8.905736284001469"><ele>390.33333333333337</ele><time>2026-04-04T09:39:32Z</time></trkpt><trkpt lat="45.836799215311174" lon="8.905887832809613"><ele>389.1666666666667</ele><time>2026-04-04T09:39:34Z</time></trkpt><trkpt lat="45.83683234096569" lon="8.905977202027344"><ele>388.0</ele><time>2026-04-04T09:39:35Z</time></trkpt><trkpt lat="45.83685422546393" lon="8.906069903713075"><ele>385.75</ele><time>2026-04-04T09:39:36Z</time></trkpt><trkpt lat="45.83686690714392" lon="8.906240142672777"><ele>383.5</ele><time>2026-04-04T09:39:38Z</time></trkpt><trkpt lat="45.83688146732263" lon="8.9064130111161"><ele>381.25</ele><time>2026-04-04T09:39:40Z</time></trkpt><trkpt lat="45.83691245881674" lon="8.906560077274976"><ele>379.0</ele><time>2026-04-04T09:39:42Z</time></trkpt><trkpt lat="45.8369740200331" lon="8.906684098321552"><ele>378.79999999999995</ele><time>2026-04-04T09:39:44Z</time></trkpt><trkpt lat="45.837046719204864" lon="8.906796812940295"><ele>378.59999999999997</ele><time>2026-04-04T09:39:46Z</time></trkpt><trkpt lat="45.83708683971441" lon="8.90695349400745"><ele>378.4</ele><time>2026-04-04T09:39:48Z</time></trkpt><trkpt lat="45.837103163005246" lon="8.907093553392846"><ele>378.2</ele><time>2026-04-04T09:39:50Z</time></trkpt><trkpt lat="45.837113259339525" lon="8.907221442458242"><ele>378.0</ele><time>2026-04-04T09:39:52Z</time></trkpt><trkpt lat="45.83712669967528" lon="8.907319729212556"><ele>378.0</ele><time>2026-04-04T09:39:54Z</time></trkpt><trkpt lat="45.83716711722359" lon="8.907232910100904"><ele>378.0</ele><time>2026-04-04T09:39:57Z</time></trkpt></trkseg></trk></gpx>